<?xml version="1.0" encoding="UTF-8" standalone="no" ?>
<gpx xmlns="http://www.topografix.com/GPX/1/1" xmlns:xsi="http://www.w3.org/2001/XMLSchema-instance" xsi:schemaLocation="http://www.topografix.com/GPX/1/1 http://www.topografix.com/GPX/1/1/gpx.xsd" version="1.1" creator="VisuGPX - https://www.visugpx.com">
  <metadata>
    <name>arcalod velo et marche</name>
    <desc><![CDATA[arcalod en bike and run
David et Xavier]]></desc>
  </metadata>
  <trk>
    <name><![CDATA[2017-09-16 Vélo trail Chérel Arcalod]]></name>
    <trkseg>
      <trkpt lat="45.78521" lon="6.20682">
        <ele>474.61</ele>
        <time>2017-09-16T05:46:04Z</time>
      </trkpt>
      <trkpt lat="45.78525" lon="6.20687">
        <ele>475.6</ele>
        <time>2017-09-16T05:46:17Z</time>
      </trkpt>
      <trkpt lat="45.78526" lon="6.20688">
        <ele>473.37</ele>
        <time>2017-09-16T05:46:43Z</time>
      </trkpt>
      <trkpt lat="45.78528" lon="6.20688">
        <ele>473.04</ele>
        <time>2017-09-16T05:47:05Z</time>
      </trkpt>
      <trkpt lat="45.78531" lon="6.20689">
        <ele>473.24</ele>
        <time>2017-09-16T05:47:38Z</time>
      </trkpt>
      <trkpt lat="45.78538" lon="6.20695">
        <ele>473.22</ele>
        <time>2017-09-16T05:47:45Z</time>
      </trkpt>
      <trkpt lat="45.78539" lon="6.20699">
        <ele>472.93</ele>
        <time>2017-09-16T05:47:46Z</time>
      </trkpt>
      <trkpt lat="45.78562" lon="6.20796">
        <ele>473.04</ele>
        <time>2017-09-16T05:48:03Z</time>
      </trkpt>
      <trkpt lat="45.78568" lon="6.20815">
        <ele>472.27</ele>
        <time>2017-09-16T05:48:06Z</time>
      </trkpt>
      <trkpt lat="45.7857" lon="6.20822">
        <ele>472.63</ele>
        <time>2017-09-16T05:48:07Z</time>
      </trkpt>
      <trkpt lat="45.78573" lon="6.20837">
        <ele>471.8</ele>
        <time>2017-09-16T05:48:09Z</time>
      </trkpt>
      <trkpt lat="45.78573" lon="6.20845">
        <ele>471.66</ele>
        <time>2017-09-16T05:48:10Z</time>
      </trkpt>
      <trkpt lat="45.78575" lon="6.20974">
        <ele>469.11</ele>
        <time>2017-09-16T05:48:26Z</time>
      </trkpt>
      <trkpt lat="45.78576" lon="6.2098">
        <ele>468.94</ele>
        <time>2017-09-16T05:48:27Z</time>
      </trkpt>
      <trkpt lat="45.78579" lon="6.20986">
        <ele>468.53</ele>
        <time>2017-09-16T05:48:28Z</time>
      </trkpt>
      <trkpt lat="45.78583" lon="6.2099">
        <ele>468.83</ele>
        <time>2017-09-16T05:48:29Z</time>
      </trkpt>
      <trkpt lat="45.78587" lon="6.20995">
        <ele>468.42</ele>
        <time>2017-09-16T05:48:30Z</time>
      </trkpt>
      <trkpt lat="45.78592" lon="6.20999">
        <ele>468.75</ele>
        <time>2017-09-16T05:48:31Z</time>
      </trkpt>
      <trkpt lat="45.78597" lon="6.21002">
        <ele>468.25</ele>
        <time>2017-09-16T05:48:32Z</time>
      </trkpt>
      <trkpt lat="45.78603" lon="6.21005">
        <ele>468.37</ele>
        <time>2017-09-16T05:48:33Z</time>
      </trkpt>
      <trkpt lat="45.78761" lon="6.21101">
        <ele>465.49</ele>
        <time>2017-09-16T05:48:59Z</time>
      </trkpt>
      <trkpt lat="45.78919" lon="6.21198">
        <ele>462.15</ele>
        <time>2017-09-16T05:49:23Z</time>
      </trkpt>
      <trkpt lat="45.79078" lon="6.21292">
        <ele>459.18</ele>
        <time>2017-09-16T05:49:47Z</time>
      </trkpt>
      <trkpt lat="45.79116" lon="6.21315">
        <ele>459.57</ele>
        <time>2017-09-16T05:49:53Z</time>
      </trkpt>
      <trkpt lat="45.79127" lon="6.21323">
        <ele>458.9</ele>
        <time>2017-09-16T05:49:55Z</time>
      </trkpt>
      <trkpt lat="45.79133" lon="6.21325">
        <ele>458.99</ele>
        <time>2017-09-16T05:49:56Z</time>
      </trkpt>
      <trkpt lat="45.79139" lon="6.21327">
        <ele>459.15</ele>
        <time>2017-09-16T05:49:57Z</time>
      </trkpt>
      <trkpt lat="45.79143" lon="6.2133">
        <ele>459.34</ele>
        <time>2017-09-16T05:49:58Z</time>
      </trkpt>
      <trkpt lat="45.79147" lon="6.21333">
        <ele>458.83</ele>
        <time>2017-09-16T05:49:59Z</time>
      </trkpt>
      <trkpt lat="45.79148" lon="6.21336">
        <ele>459.09</ele>
        <time>2017-09-16T05:50:00Z</time>
      </trkpt>
      <trkpt lat="45.79148" lon="6.21339">
        <ele>458.97</ele>
        <time>2017-09-16T05:50:01Z</time>
      </trkpt>
      <trkpt lat="45.79145" lon="6.21341">
        <ele>458.85</ele>
        <time>2017-09-16T05:50:02Z</time>
      </trkpt>
      <trkpt lat="45.79142" lon="6.21342">
        <ele>458.82</ele>
        <time>2017-09-16T05:50:03Z</time>
      </trkpt>
      <trkpt lat="45.79139" lon="6.21344">
        <ele>459.59</ele>
        <time>2017-09-16T05:50:04Z</time>
      </trkpt>
      <trkpt lat="45.79136" lon="6.21348">
        <ele>459.08</ele>
        <time>2017-09-16T05:50:05Z</time>
      </trkpt>
      <trkpt lat="45.79133" lon="6.21351">
        <ele>459.16</ele>
        <time>2017-09-16T05:50:06Z</time>
      </trkpt>
      <trkpt lat="45.79097" lon="6.21385">
        <ele>459.34</ele>
        <time>2017-09-16T05:50:15Z</time>
      </trkpt>
      <trkpt lat="45.79057" lon="6.2142">
        <ele>459.18</ele>
        <time>2017-09-16T05:50:23Z</time>
      </trkpt>
      <trkpt lat="45.79052" lon="6.21425">
        <ele>459.21</ele>
        <time>2017-09-16T05:50:24Z</time>
      </trkpt>
      <trkpt lat="45.79043" lon="6.21435">
        <ele>459.75</ele>
        <time>2017-09-16T05:50:26Z</time>
      </trkpt>
      <trkpt lat="45.79039" lon="6.21439">
        <ele>459.32</ele>
        <time>2017-09-16T05:50:27Z</time>
      </trkpt>
      <trkpt lat="45.79034" lon="6.21443">
        <ele>460.04</ele>
        <time>2017-09-16T05:50:28Z</time>
      </trkpt>
      <trkpt lat="45.79025" lon="6.21452">
        <ele>459.7</ele>
        <time>2017-09-16T05:50:30Z</time>
      </trkpt>
      <trkpt lat="45.79021" lon="6.21457">
        <ele>459.99</ele>
        <time>2017-09-16T05:50:31Z</time>
      </trkpt>
      <trkpt lat="45.79014" lon="6.21466">
        <ele>459.77</ele>
        <time>2017-09-16T05:50:33Z</time>
      </trkpt>
      <trkpt lat="45.79001" lon="6.21479">
        <ele>460.25</ele>
        <time>2017-09-16T05:50:36Z</time>
      </trkpt>
      <trkpt lat="45.78946" lon="6.21534">
        <ele>460.66</ele>
        <time>2017-09-16T05:50:48Z</time>
      </trkpt>
      <trkpt lat="45.78925" lon="6.21557">
        <ele>460.95</ele>
        <time>2017-09-16T05:50:53Z</time>
      </trkpt>
      <trkpt lat="45.78921" lon="6.21562">
        <ele>461.47</ele>
        <time>2017-09-16T05:50:54Z</time>
      </trkpt>
      <trkpt lat="45.78917" lon="6.21567">
        <ele>461.64</ele>
        <time>2017-09-16T05:50:55Z</time>
      </trkpt>
      <trkpt lat="45.78913" lon="6.21572">
        <ele>461.68</ele>
        <time>2017-09-16T05:50:56Z</time>
      </trkpt>
      <trkpt lat="45.78908" lon="6.21577">
        <ele>461.93</ele>
        <time>2017-09-16T05:50:57Z</time>
      </trkpt>
      <trkpt lat="45.78824" lon="6.21648">
        <ele>463.08</ele>
        <time>2017-09-16T05:51:12Z</time>
      </trkpt>
      <trkpt lat="45.78724" lon="6.21774">
        <ele>464.25</ele>
        <time>2017-09-16T05:51:34Z</time>
      </trkpt>
      <trkpt lat="45.78631" lon="6.21938">
        <ele>466.12</ele>
        <time>2017-09-16T05:51:59Z</time>
      </trkpt>
      <trkpt lat="45.78526" lon="6.22167">
        <ele>468.9</ele>
        <time>2017-09-16T05:52:31Z</time>
      </trkpt>
      <trkpt lat="45.78432" lon="6.22356">
        <ele>471.31</ele>
        <time>2017-09-16T05:52:59Z</time>
      </trkpt>
      <trkpt lat="45.78373" lon="6.22448">
        <ele>472.13</ele>
        <time>2017-09-16T05:53:17Z</time>
      </trkpt>
      <trkpt lat="45.78359" lon="6.22465">
        <ele>472.5</ele>
        <time>2017-09-16T05:53:22Z</time>
      </trkpt>
      <trkpt lat="45.78274" lon="6.22577">
        <ele>472.65</ele>
        <time>2017-09-16T05:53:43Z</time>
      </trkpt>
      <trkpt lat="45.78146" lon="6.22742">
        <ele>473.54</ele>
        <time>2017-09-16T05:54:12Z</time>
      </trkpt>
      <trkpt lat="45.7808" lon="6.22828">
        <ele>472.73</ele>
        <time>2017-09-16T05:54:30Z</time>
      </trkpt>
      <trkpt lat="45.78077" lon="6.2283">
        <ele>472.93</ele>
        <time>2017-09-16T05:54:31Z</time>
      </trkpt>
      <trkpt lat="45.78073" lon="6.22832">
        <ele>473.09</ele>
        <time>2017-09-16T05:54:32Z</time>
      </trkpt>
      <trkpt lat="45.78068" lon="6.22831">
        <ele>473.18</ele>
        <time>2017-09-16T05:54:33Z</time>
      </trkpt>
      <trkpt lat="45.78063" lon="6.2283">
        <ele>472.96</ele>
        <time>2017-09-16T05:54:34Z</time>
      </trkpt>
      <trkpt lat="45.78058" lon="6.22827">
        <ele>472.88</ele>
        <time>2017-09-16T05:54:35Z</time>
      </trkpt>
      <trkpt lat="45.78054" lon="6.22825">
        <ele>472.8</ele>
        <time>2017-09-16T05:54:36Z</time>
      </trkpt>
      <trkpt lat="45.7805" lon="6.22824">
        <ele>472.68</ele>
        <time>2017-09-16T05:54:37Z</time>
      </trkpt>
      <trkpt lat="45.78047" lon="6.22824">
        <ele>472.63</ele>
        <time>2017-09-16T05:54:38Z</time>
      </trkpt>
      <trkpt lat="45.78044" lon="6.22824">
        <ele>472.87</ele>
        <time>2017-09-16T05:54:39Z</time>
      </trkpt>
      <trkpt lat="45.78044" lon="6.22824">
        <ele>472.54</ele>
        <time>2017-09-16T05:54:54Z</time>
      </trkpt>
      <trkpt lat="45.78044" lon="6.22824">
        <ele>472.05</ele>
        <time>2017-09-16T05:55:13Z</time>
      </trkpt>
      <trkpt lat="45.78046" lon="6.22824">
        <ele>470.3</ele>
        <time>2017-09-16T05:55:43Z</time>
      </trkpt>
      <trkpt lat="45.78046" lon="6.22825">
        <ele>471.57</ele>
        <time>2017-09-16T05:56:16Z</time>
      </trkpt>
      <trkpt lat="45.78046" lon="6.22825">
        <ele>471.95</ele>
        <time>2017-09-16T05:56:41Z</time>
      </trkpt>
      <trkpt lat="45.78037" lon="6.22826">
        <ele>472.14</ele>
        <time>2017-09-16T05:56:57Z</time>
      </trkpt>
      <trkpt lat="45.78014" lon="6.22841">
        <ele>472.49</ele>
        <time>2017-09-16T05:57:04Z</time>
      </trkpt>
      <trkpt lat="45.7801" lon="6.22844">
        <ele>472.16</ele>
        <time>2017-09-16T05:57:05Z</time>
      </trkpt>
      <trkpt lat="45.77918" lon="6.22959">
        <ele>473.24</ele>
        <time>2017-09-16T05:57:28Z</time>
      </trkpt>
      <trkpt lat="45.77832" lon="6.23079">
        <ele>472.52</ele>
        <time>2017-09-16T05:57:48Z</time>
      </trkpt>
      <trkpt lat="45.77829" lon="6.23086">
        <ele>472.93</ele>
        <time>2017-09-16T05:57:49Z</time>
      </trkpt>
      <trkpt lat="45.77826" lon="6.23094">
        <ele>473.08</ele>
        <time>2017-09-16T05:57:50Z</time>
      </trkpt>
      <trkpt lat="45.77818" lon="6.23117">
        <ele>472.53</ele>
        <time>2017-09-16T05:57:53Z</time>
      </trkpt>
      <trkpt lat="45.77815" lon="6.23124">
        <ele>472.77</ele>
        <time>2017-09-16T05:57:54Z</time>
      </trkpt>
      <trkpt lat="45.77763" lon="6.23217">
        <ele>473.04</ele>
        <time>2017-09-16T05:58:09Z</time>
      </trkpt>
      <trkpt lat="45.77761" lon="6.23223">
        <ele>472.89</ele>
        <time>2017-09-16T05:58:10Z</time>
      </trkpt>
      <trkpt lat="45.77761" lon="6.2323">
        <ele>472.39</ele>
        <time>2017-09-16T05:58:11Z</time>
      </trkpt>
      <trkpt lat="45.77762" lon="6.23235">
        <ele>472.58</ele>
        <time>2017-09-16T05:58:12Z</time>
      </trkpt>
      <trkpt lat="45.77763" lon="6.2324">
        <ele>472.23</ele>
        <time>2017-09-16T05:58:13Z</time>
      </trkpt>
      <trkpt lat="45.77763" lon="6.23245">
        <ele>471.93</ele>
        <time>2017-09-16T05:58:14Z</time>
      </trkpt>
      <trkpt lat="45.77761" lon="6.23247">
        <ele>472.52</ele>
        <time>2017-09-16T05:58:15Z</time>
      </trkpt>
      <trkpt lat="45.77758" lon="6.23249">
        <ele>472.03</ele>
        <time>2017-09-16T05:58:16Z</time>
      </trkpt>
      <trkpt lat="45.77755" lon="6.23249">
        <ele>472.32</ele>
        <time>2017-09-16T05:58:17Z</time>
      </trkpt>
      <trkpt lat="45.77752" lon="6.23248">
        <ele>472.15</ele>
        <time>2017-09-16T05:58:18Z</time>
      </trkpt>
      <trkpt lat="45.7775" lon="6.23245">
        <ele>472.75</ele>
        <time>2017-09-16T05:58:19Z</time>
      </trkpt>
      <trkpt lat="45.77747" lon="6.23241">
        <ele>472.48</ele>
        <time>2017-09-16T05:58:20Z</time>
      </trkpt>
      <trkpt lat="45.77705" lon="6.23179">
        <ele>475.94</ele>
        <time>2017-09-16T05:58:34Z</time>
      </trkpt>
      <trkpt lat="45.77645" lon="6.23084">
        <ele>479.5</ele>
        <time>2017-09-16T05:58:55Z</time>
      </trkpt>
      <trkpt lat="45.77593" lon="6.23055">
        <ele>480.55</ele>
        <time>2017-09-16T05:59:08Z</time>
      </trkpt>
      <trkpt lat="45.77588" lon="6.23053">
        <ele>480.28</ele>
        <time>2017-09-16T05:59:09Z</time>
      </trkpt>
      <trkpt lat="45.77584" lon="6.2305">
        <ele>480.58</ele>
        <time>2017-09-16T05:59:10Z</time>
      </trkpt>
      <trkpt lat="45.77486" lon="6.22984">
        <ele>482.27</ele>
        <time>2017-09-16T05:59:33Z</time>
      </trkpt>
      <trkpt lat="45.77483" lon="6.22979">
        <ele>481.82</ele>
        <time>2017-09-16T05:59:34Z</time>
      </trkpt>
      <trkpt lat="45.77481" lon="6.22974">
        <ele>482.2</ele>
        <time>2017-09-16T05:59:35Z</time>
      </trkpt>
      <trkpt lat="45.77437" lon="6.22895">
        <ele>484.57</ele>
        <time>2017-09-16T05:59:50Z</time>
      </trkpt>
      <trkpt lat="45.77335" lon="6.22811">
        <ele>485.53</ele>
        <time>2017-09-16T06:00:14Z</time>
      </trkpt>
      <trkpt lat="45.7724" lon="6.2272">
        <ele>489.03</ele>
        <time>2017-09-16T06:00:37Z</time>
      </trkpt>
      <trkpt lat="45.77124" lon="6.22656">
        <ele>491.78</ele>
        <time>2017-09-16T06:01:03Z</time>
      </trkpt>
      <trkpt lat="45.77065" lon="6.22587">
        <ele>493.16</ele>
        <time>2017-09-16T06:01:19Z</time>
      </trkpt>
      <trkpt lat="45.77011" lon="6.22441">
        <ele>495.51</ele>
        <time>2017-09-16T06:01:42Z</time>
      </trkpt>
      <trkpt lat="45.76997" lon="6.22421">
        <ele>495.6</ele>
        <time>2017-09-16T06:01:46Z</time>
      </trkpt>
      <trkpt lat="45.76992" lon="6.22418">
        <ele>495.8</ele>
        <time>2017-09-16T06:01:47Z</time>
      </trkpt>
      <trkpt lat="45.76988" lon="6.22414">
        <ele>495.86</ele>
        <time>2017-09-16T06:01:48Z</time>
      </trkpt>
      <trkpt lat="45.76983" lon="6.22411">
        <ele>495.94</ele>
        <time>2017-09-16T06:01:49Z</time>
      </trkpt>
      <trkpt lat="45.76979" lon="6.22408">
        <ele>495.99</ele>
        <time>2017-09-16T06:01:50Z</time>
      </trkpt>
      <trkpt lat="45.76907" lon="6.22339">
        <ele>497.57</ele>
        <time>2017-09-16T06:02:07Z</time>
      </trkpt>
      <trkpt lat="45.76903" lon="6.22335">
        <ele>497.71</ele>
        <time>2017-09-16T06:02:08Z</time>
      </trkpt>
      <trkpt lat="45.76899" lon="6.22332">
        <ele>497.22</ele>
        <time>2017-09-16T06:02:09Z</time>
      </trkpt>
      <trkpt lat="45.76894" lon="6.22329">
        <ele>497.82</ele>
        <time>2017-09-16T06:02:10Z</time>
      </trkpt>
      <trkpt lat="45.7689" lon="6.22325">
        <ele>497.29</ele>
        <time>2017-09-16T06:02:11Z</time>
      </trkpt>
      <trkpt lat="45.76886" lon="6.22321">
        <ele>497.91</ele>
        <time>2017-09-16T06:02:12Z</time>
      </trkpt>
      <trkpt lat="45.76802" lon="6.2227">
        <ele>500.68</ele>
        <time>2017-09-16T06:02:31Z</time>
      </trkpt>
      <trkpt lat="45.76792" lon="6.22268">
        <ele>500.86</ele>
        <time>2017-09-16T06:02:33Z</time>
      </trkpt>
      <trkpt lat="45.76778" lon="6.22266">
        <ele>501.4</ele>
        <time>2017-09-16T06:02:36Z</time>
      </trkpt>
      <trkpt lat="45.76768" lon="6.22263">
        <ele>501.74</ele>
        <time>2017-09-16T06:02:38Z</time>
      </trkpt>
      <trkpt lat="45.76764" lon="6.2226">
        <ele>501.6</ele>
        <time>2017-09-16T06:02:39Z</time>
      </trkpt>
      <trkpt lat="45.7676" lon="6.22255">
        <ele>501.71</ele>
        <time>2017-09-16T06:02:40Z</time>
      </trkpt>
      <trkpt lat="45.76737" lon="6.22228">
        <ele>502.87</ele>
        <time>2017-09-16T06:02:46Z</time>
      </trkpt>
      <trkpt lat="45.76733" lon="6.22224">
        <ele>502.86</ele>
        <time>2017-09-16T06:02:47Z</time>
      </trkpt>
      <trkpt lat="45.76728" lon="6.22221">
        <ele>502.92</ele>
        <time>2017-09-16T06:02:48Z</time>
      </trkpt>
      <trkpt lat="45.76724" lon="6.2222">
        <ele>502.98</ele>
        <time>2017-09-16T06:02:49Z</time>
      </trkpt>
      <trkpt lat="45.76719" lon="6.22219">
        <ele>502.9</ele>
        <time>2017-09-16T06:02:50Z</time>
      </trkpt>
      <trkpt lat="45.76715" lon="6.22219">
        <ele>503.2</ele>
        <time>2017-09-16T06:02:51Z</time>
      </trkpt>
      <trkpt lat="45.76711" lon="6.22221">
        <ele>503.26</ele>
        <time>2017-09-16T06:02:52Z</time>
      </trkpt>
      <trkpt lat="45.76707" lon="6.22223">
        <ele>503.42</ele>
        <time>2017-09-16T06:02:53Z</time>
      </trkpt>
      <trkpt lat="45.76703" lon="6.22226">
        <ele>503.6</ele>
        <time>2017-09-16T06:02:54Z</time>
      </trkpt>
      <trkpt lat="45.76699" lon="6.2223">
        <ele>504.16</ele>
        <time>2017-09-16T06:02:55Z</time>
      </trkpt>
      <trkpt lat="45.76683" lon="6.22241">
        <ele>504.6</ele>
        <time>2017-09-16T06:02:59Z</time>
      </trkpt>
      <trkpt lat="45.76678" lon="6.22243">
        <ele>504.55</ele>
        <time>2017-09-16T06:03:00Z</time>
      </trkpt>
      <trkpt lat="45.76674" lon="6.22244">
        <ele>504.73</ele>
        <time>2017-09-16T06:03:01Z</time>
      </trkpt>
      <trkpt lat="45.76665" lon="6.22244">
        <ele>504.97</ele>
        <time>2017-09-16T06:03:03Z</time>
      </trkpt>
      <trkpt lat="45.76655" lon="6.22241">
        <ele>504.62</ele>
        <time>2017-09-16T06:03:05Z</time>
      </trkpt>
      <trkpt lat="45.76639" lon="6.22235">
        <ele>504.74</ele>
        <time>2017-09-16T06:03:08Z</time>
      </trkpt>
      <trkpt lat="45.76592" lon="6.2221">
        <ele>506.31</ele>
        <time>2017-09-16T06:03:18Z</time>
      </trkpt>
      <trkpt lat="45.76578" lon="6.22205">
        <ele>506.23</ele>
        <time>2017-09-16T06:03:21Z</time>
      </trkpt>
      <trkpt lat="45.76573" lon="6.22203">
        <ele>506.03</ele>
        <time>2017-09-16T06:03:22Z</time>
      </trkpt>
      <trkpt lat="45.76549" lon="6.22191">
        <ele>506.72</ele>
        <time>2017-09-16T06:03:27Z</time>
      </trkpt>
      <trkpt lat="45.76534" lon="6.22178">
        <ele>507.67</ele>
        <time>2017-09-16T06:03:31Z</time>
      </trkpt>
      <trkpt lat="45.76518" lon="6.2217">
        <ele>507.54</ele>
        <time>2017-09-16T06:03:34Z</time>
      </trkpt>
      <trkpt lat="45.76513" lon="6.22169">
        <ele>507.64</ele>
        <time>2017-09-16T06:03:35Z</time>
      </trkpt>
      <trkpt lat="45.76508" lon="6.22169">
        <ele>507.74</ele>
        <time>2017-09-16T06:03:36Z</time>
      </trkpt>
      <trkpt lat="45.76503" lon="6.22169">
        <ele>507.82</ele>
        <time>2017-09-16T06:03:37Z</time>
      </trkpt>
      <trkpt lat="45.76499" lon="6.22169">
        <ele>507.88</ele>
        <time>2017-09-16T06:03:38Z</time>
      </trkpt>
      <trkpt lat="45.76489" lon="6.22172">
        <ele>508.59</ele>
        <time>2017-09-16T06:03:40Z</time>
      </trkpt>
      <trkpt lat="45.76453" lon="6.22196">
        <ele>510.05</ele>
        <time>2017-09-16T06:03:49Z</time>
      </trkpt>
      <trkpt lat="45.76449" lon="6.22198">
        <ele>510.41</ele>
        <time>2017-09-16T06:03:50Z</time>
      </trkpt>
      <trkpt lat="45.76445" lon="6.222">
        <ele>510.71</ele>
        <time>2017-09-16T06:03:51Z</time>
      </trkpt>
      <trkpt lat="45.76441" lon="6.22201">
        <ele>511.16</ele>
        <time>2017-09-16T06:03:52Z</time>
      </trkpt>
      <trkpt lat="45.76437" lon="6.22202">
        <ele>511.42</ele>
        <time>2017-09-16T06:03:53Z</time>
      </trkpt>
      <trkpt lat="45.76415" lon="6.22191">
        <ele>513.22</ele>
        <time>2017-09-16T06:03:59Z</time>
      </trkpt>
      <trkpt lat="45.76412" lon="6.22187">
        <ele>512.77</ele>
        <time>2017-09-16T06:04:00Z</time>
      </trkpt>
      <trkpt lat="45.76408" lon="6.22185">
        <ele>512.96</ele>
        <time>2017-09-16T06:04:01Z</time>
      </trkpt>
      <trkpt lat="45.76356" lon="6.22189">
        <ele>515</ele>
        <time>2017-09-16T06:04:15Z</time>
      </trkpt>
      <trkpt lat="45.76301" lon="6.22211">
        <ele>516.75</ele>
        <time>2017-09-16T06:04:29Z</time>
      </trkpt>
      <trkpt lat="45.76296" lon="6.22212">
        <ele>517.16</ele>
        <time>2017-09-16T06:04:30Z</time>
      </trkpt>
      <trkpt lat="45.76286" lon="6.22215">
        <ele>516.44</ele>
        <time>2017-09-16T06:04:32Z</time>
      </trkpt>
      <trkpt lat="45.76277" lon="6.2222">
        <ele>517.38</ele>
        <time>2017-09-16T06:04:34Z</time>
      </trkpt>
      <trkpt lat="45.76273" lon="6.22224">
        <ele>517.55</ele>
        <time>2017-09-16T06:04:35Z</time>
      </trkpt>
      <trkpt lat="45.76251" lon="6.22249">
        <ele>518.14</ele>
        <time>2017-09-16T06:04:41Z</time>
      </trkpt>
      <trkpt lat="45.76249" lon="6.22252">
        <ele>517.91</ele>
        <time>2017-09-16T06:04:42Z</time>
      </trkpt>
      <trkpt lat="45.76246" lon="6.22256">
        <ele>518.25</ele>
        <time>2017-09-16T06:04:43Z</time>
      </trkpt>
      <trkpt lat="45.76242" lon="6.2226">
        <ele>518.43</ele>
        <time>2017-09-16T06:04:44Z</time>
      </trkpt>
      <trkpt lat="45.76238" lon="6.22263">
        <ele>518.09</ele>
        <time>2017-09-16T06:04:45Z</time>
      </trkpt>
      <trkpt lat="45.76229" lon="6.22269">
        <ele>518.53</ele>
        <time>2017-09-16T06:04:47Z</time>
      </trkpt>
      <trkpt lat="45.76224" lon="6.22271">
        <ele>518.8</ele>
        <time>2017-09-16T06:04:48Z</time>
      </trkpt>
      <trkpt lat="45.76215" lon="6.22274">
        <ele>518.97</ele>
        <time>2017-09-16T06:04:50Z</time>
      </trkpt>
      <trkpt lat="45.7621" lon="6.22275">
        <ele>519.1</ele>
        <time>2017-09-16T06:04:51Z</time>
      </trkpt>
      <trkpt lat="45.76205" lon="6.22276">
        <ele>519.25</ele>
        <time>2017-09-16T06:04:52Z</time>
      </trkpt>
      <trkpt lat="45.76196" lon="6.22275">
        <ele>519.43</ele>
        <time>2017-09-16T06:04:54Z</time>
      </trkpt>
      <trkpt lat="45.76139" lon="6.22277">
        <ele>522.41</ele>
        <time>2017-09-16T06:05:08Z</time>
      </trkpt>
      <trkpt lat="45.76107" lon="6.22293">
        <ele>525.41</ele>
        <time>2017-09-16T06:05:18Z</time>
      </trkpt>
      <trkpt lat="45.76083" lon="6.22305">
        <ele>527.95</ele>
        <time>2017-09-16T06:05:26Z</time>
      </trkpt>
      <trkpt lat="45.76041" lon="6.22332">
        <ele>531.18</ele>
        <time>2017-09-16T06:05:40Z</time>
      </trkpt>
      <trkpt lat="45.76" lon="6.22356">
        <ele>531.99</ele>
        <time>2017-09-16T06:05:53Z</time>
      </trkpt>
      <trkpt lat="45.75991" lon="6.2236">
        <ele>532.65</ele>
        <time>2017-09-16T06:05:55Z</time>
      </trkpt>
      <trkpt lat="45.75987" lon="6.22361">
        <ele>532.56</ele>
        <time>2017-09-16T06:05:56Z</time>
      </trkpt>
      <trkpt lat="45.75985" lon="6.22362">
        <ele>532.79</ele>
        <time>2017-09-16T06:05:57Z</time>
      </trkpt>
      <trkpt lat="45.75982" lon="6.22363">
        <ele>532.63</ele>
        <time>2017-09-16T06:05:58Z</time>
      </trkpt>
      <trkpt lat="45.75979" lon="6.22363">
        <ele>532.35</ele>
        <time>2017-09-16T06:05:59Z</time>
      </trkpt>
      <trkpt lat="45.75976" lon="6.22363">
        <ele>532.94</ele>
        <time>2017-09-16T06:06:00Z</time>
      </trkpt>
      <trkpt lat="45.75973" lon="6.22363">
        <ele>532.79</ele>
        <time>2017-09-16T06:06:01Z</time>
      </trkpt>
      <trkpt lat="45.75969" lon="6.22363">
        <ele>532.7</ele>
        <time>2017-09-16T06:06:02Z</time>
      </trkpt>
      <trkpt lat="45.75918" lon="6.22369">
        <ele>533.96</ele>
        <time>2017-09-16T06:06:14Z</time>
      </trkpt>
      <trkpt lat="45.75892" lon="6.22375">
        <ele>534.23</ele>
        <time>2017-09-16T06:06:20Z</time>
      </trkpt>
      <trkpt lat="45.75887" lon="6.22375">
        <ele>534.32</ele>
        <time>2017-09-16T06:06:21Z</time>
      </trkpt>
      <trkpt lat="45.75883" lon="6.22376">
        <ele>534.53</ele>
        <time>2017-09-16T06:06:22Z</time>
      </trkpt>
      <trkpt lat="45.75879" lon="6.22376">
        <ele>534.41</ele>
        <time>2017-09-16T06:06:23Z</time>
      </trkpt>
      <trkpt lat="45.75874" lon="6.22375">
        <ele>534.74</ele>
        <time>2017-09-16T06:06:24Z</time>
      </trkpt>
      <trkpt lat="45.75868" lon="6.22373">
        <ele>534.37</ele>
        <time>2017-09-16T06:06:25Z</time>
      </trkpt>
      <trkpt lat="45.75863" lon="6.22372">
        <ele>534.51</ele>
        <time>2017-09-16T06:06:26Z</time>
      </trkpt>
      <trkpt lat="45.75858" lon="6.22371">
        <ele>534.36</ele>
        <time>2017-09-16T06:06:27Z</time>
      </trkpt>
      <trkpt lat="45.75853" lon="6.22369">
        <ele>534.53</ele>
        <time>2017-09-16T06:06:28Z</time>
      </trkpt>
      <trkpt lat="45.75848" lon="6.22366">
        <ele>534.8</ele>
        <time>2017-09-16T06:06:29Z</time>
      </trkpt>
      <trkpt lat="45.75843" lon="6.22363">
        <ele>534.88</ele>
        <time>2017-09-16T06:06:30Z</time>
      </trkpt>
      <trkpt lat="45.75838" lon="6.2236">
        <ele>535.02</ele>
        <time>2017-09-16T06:06:31Z</time>
      </trkpt>
      <trkpt lat="45.75831" lon="6.22357">
        <ele>535.48</ele>
        <time>2017-09-16T06:06:32Z</time>
      </trkpt>
      <trkpt lat="45.75826" lon="6.22354">
        <ele>535.32</ele>
        <time>2017-09-16T06:06:33Z</time>
      </trkpt>
      <trkpt lat="45.75821" lon="6.22352">
        <ele>535.84</ele>
        <time>2017-09-16T06:06:34Z</time>
      </trkpt>
      <trkpt lat="45.75774" lon="6.22327">
        <ele>538.04</ele>
        <time>2017-09-16T06:06:45Z</time>
      </trkpt>
      <trkpt lat="45.7577" lon="6.22325">
        <ele>538.49</ele>
        <time>2017-09-16T06:06:46Z</time>
      </trkpt>
      <trkpt lat="45.75767" lon="6.22323">
        <ele>538.56</ele>
        <time>2017-09-16T06:06:47Z</time>
      </trkpt>
      <trkpt lat="45.75763" lon="6.22321">
        <ele>539.42</ele>
        <time>2017-09-16T06:06:48Z</time>
      </trkpt>
      <trkpt lat="45.7576" lon="6.22319">
        <ele>538.96</ele>
        <time>2017-09-16T06:06:49Z</time>
      </trkpt>
      <trkpt lat="45.75735" lon="6.223">
        <ele>542.14</ele>
        <time>2017-09-16T06:06:59Z</time>
      </trkpt>
      <trkpt lat="45.75675" lon="6.22304">
        <ele>544.41</ele>
        <time>2017-09-16T06:07:16Z</time>
      </trkpt>
      <trkpt lat="45.7564" lon="6.22354">
        <ele>545.37</ele>
        <time>2017-09-16T06:07:31Z</time>
      </trkpt>
      <trkpt lat="45.75618" lon="6.22369">
        <ele>545.98</ele>
        <time>2017-09-16T06:07:38Z</time>
      </trkpt>
      <trkpt lat="45.75571" lon="6.22387">
        <ele>547.76</ele>
        <time>2017-09-16T06:07:50Z</time>
      </trkpt>
      <trkpt lat="45.75567" lon="6.22388">
        <ele>547.85</ele>
        <time>2017-09-16T06:07:51Z</time>
      </trkpt>
      <trkpt lat="45.75563" lon="6.2239">
        <ele>548.21</ele>
        <time>2017-09-16T06:07:52Z</time>
      </trkpt>
      <trkpt lat="45.75559" lon="6.22392">
        <ele>548.39</ele>
        <time>2017-09-16T06:07:53Z</time>
      </trkpt>
      <trkpt lat="45.75556" lon="6.22394">
        <ele>548.37</ele>
        <time>2017-09-16T06:07:54Z</time>
      </trkpt>
      <trkpt lat="45.75553" lon="6.22396">
        <ele>548.71</ele>
        <time>2017-09-16T06:07:55Z</time>
      </trkpt>
      <trkpt lat="45.7555" lon="6.22397">
        <ele>549.02</ele>
        <time>2017-09-16T06:07:56Z</time>
      </trkpt>
      <trkpt lat="45.75546" lon="6.22397">
        <ele>549.39</ele>
        <time>2017-09-16T06:07:57Z</time>
      </trkpt>
      <trkpt lat="45.75542" lon="6.22398">
        <ele>549.52</ele>
        <time>2017-09-16T06:07:58Z</time>
      </trkpt>
      <trkpt lat="45.75505" lon="6.22393">
        <ele>552.93</ele>
        <time>2017-09-16T06:08:07Z</time>
      </trkpt>
      <trkpt lat="45.75474" lon="6.22377">
        <ele>556.03</ele>
        <time>2017-09-16T06:08:17Z</time>
      </trkpt>
      <trkpt lat="45.75466" lon="6.22371">
        <ele>556.74</ele>
        <time>2017-09-16T06:08:19Z</time>
      </trkpt>
      <trkpt lat="45.75446" lon="6.22359">
        <ele>557.86</ele>
        <time>2017-09-16T06:08:25Z</time>
      </trkpt>
      <trkpt lat="45.7542" lon="6.22341">
        <ele>560.87</ele>
        <time>2017-09-16T06:08:35Z</time>
      </trkpt>
      <trkpt lat="45.75395" lon="6.2233">
        <ele>564.03</ele>
        <time>2017-09-16T06:08:45Z</time>
      </trkpt>
      <trkpt lat="45.75392" lon="6.2233">
        <ele>564.25</ele>
        <time>2017-09-16T06:08:46Z</time>
      </trkpt>
      <trkpt lat="45.7539" lon="6.22328">
        <ele>564.44</ele>
        <time>2017-09-16T06:08:47Z</time>
      </trkpt>
      <trkpt lat="45.75387" lon="6.22327">
        <ele>564.85</ele>
        <time>2017-09-16T06:08:48Z</time>
      </trkpt>
      <trkpt lat="45.75352" lon="6.22311">
        <ele>568</ele>
        <time>2017-09-16T06:09:01Z</time>
      </trkpt>
      <trkpt lat="45.75315" lon="6.223">
        <ele>571.1</ele>
        <time>2017-09-16T06:09:13Z</time>
      </trkpt>
      <trkpt lat="45.75281" lon="6.22294">
        <ele>574.18</ele>
        <time>2017-09-16T06:09:27Z</time>
      </trkpt>
      <trkpt lat="45.75262" lon="6.22304">
        <ele>577.23</ele>
        <time>2017-09-16T06:09:39Z</time>
      </trkpt>
      <trkpt lat="45.75246" lon="6.22322">
        <ele>580.71</ele>
        <time>2017-09-16T06:09:49Z</time>
      </trkpt>
      <trkpt lat="45.75244" lon="6.22324">
        <ele>580.85</ele>
        <time>2017-09-16T06:09:50Z</time>
      </trkpt>
      <trkpt lat="45.75243" lon="6.22326">
        <ele>581.03</ele>
        <time>2017-09-16T06:09:51Z</time>
      </trkpt>
      <trkpt lat="45.75242" lon="6.22326">
        <ele>581.63</ele>
        <time>2017-09-16T06:09:52Z</time>
      </trkpt>
      <trkpt lat="45.7524" lon="6.22327">
        <ele>581.74</ele>
        <time>2017-09-16T06:09:53Z</time>
      </trkpt>
      <trkpt lat="45.75238" lon="6.22328">
        <ele>581.91</ele>
        <time>2017-09-16T06:09:54Z</time>
      </trkpt>
      <trkpt lat="45.75235" lon="6.2233">
        <ele>582.55</ele>
        <time>2017-09-16T06:09:55Z</time>
      </trkpt>
      <trkpt lat="45.75233" lon="6.22332">
        <ele>583</ele>
        <time>2017-09-16T06:09:56Z</time>
      </trkpt>
      <trkpt lat="45.75184" lon="6.22338">
        <ele>585.41</ele>
        <time>2017-09-16T06:10:09Z</time>
      </trkpt>
      <trkpt lat="45.75135" lon="6.22336">
        <ele>587.2</ele>
        <time>2017-09-16T06:10:22Z</time>
      </trkpt>
      <trkpt lat="45.75092" lon="6.22332">
        <ele>590.54</ele>
        <time>2017-09-16T06:10:35Z</time>
      </trkpt>
      <trkpt lat="45.75051" lon="6.22324">
        <ele>593.67</ele>
        <time>2017-09-16T06:10:48Z</time>
      </trkpt>
      <trkpt lat="45.75006" lon="6.22317">
        <ele>597.08</ele>
        <time>2017-09-16T06:11:03Z</time>
      </trkpt>
      <trkpt lat="45.75004" lon="6.22317">
        <ele>596.7</ele>
        <time>2017-09-16T06:11:04Z</time>
      </trkpt>
      <trkpt lat="45.75002" lon="6.22316">
        <ele>597.48</ele>
        <time>2017-09-16T06:11:05Z</time>
      </trkpt>
      <trkpt lat="45.74998" lon="6.22316">
        <ele>597.97</ele>
        <time>2017-09-16T06:11:07Z</time>
      </trkpt>
      <trkpt lat="45.74965" lon="6.2235">
        <ele>601.54</ele>
        <time>2017-09-16T06:11:21Z</time>
      </trkpt>
      <trkpt lat="45.74941" lon="6.22377">
        <ele>604.63</ele>
        <time>2017-09-16T06:11:32Z</time>
      </trkpt>
      <trkpt lat="45.74924" lon="6.22394">
        <ele>606.91</ele>
        <time>2017-09-16T06:11:41Z</time>
      </trkpt>
      <trkpt lat="45.74903" lon="6.2241">
        <ele>609.98</ele>
        <time>2017-09-16T06:11:54Z</time>
      </trkpt>
      <trkpt lat="45.74886" lon="6.22421">
        <ele>613.3</ele>
        <time>2017-09-16T06:12:04Z</time>
      </trkpt>
      <trkpt lat="45.74881" lon="6.22425">
        <ele>613.88</ele>
        <time>2017-09-16T06:12:06Z</time>
      </trkpt>
      <trkpt lat="45.74824" lon="6.22427">
        <ele>616.92</ele>
        <time>2017-09-16T06:12:20Z</time>
      </trkpt>
      <trkpt lat="45.74796" lon="6.22431">
        <ele>620.72</ele>
        <time>2017-09-16T06:12:31Z</time>
      </trkpt>
      <trkpt lat="45.74789" lon="6.22433">
        <ele>621.14</ele>
        <time>2017-09-16T06:12:34Z</time>
      </trkpt>
      <trkpt lat="45.74787" lon="6.22433">
        <ele>621.23</ele>
        <time>2017-09-16T06:12:35Z</time>
      </trkpt>
      <trkpt lat="45.74785" lon="6.22434">
        <ele>621.79</ele>
        <time>2017-09-16T06:12:36Z</time>
      </trkpt>
      <trkpt lat="45.74782" lon="6.22435">
        <ele>622.56</ele>
        <time>2017-09-16T06:12:38Z</time>
      </trkpt>
      <trkpt lat="45.74754" lon="6.22448">
        <ele>625.92</ele>
        <time>2017-09-16T06:12:50Z</time>
      </trkpt>
      <trkpt lat="45.74735" lon="6.22461">
        <ele>628.44</ele>
        <time>2017-09-16T06:13:00Z</time>
      </trkpt>
      <trkpt lat="45.74731" lon="6.22464">
        <ele>628.6</ele>
        <time>2017-09-16T06:13:02Z</time>
      </trkpt>
      <trkpt lat="45.747" lon="6.22465">
        <ele>632</ele>
        <time>2017-09-16T06:13:12Z</time>
      </trkpt>
      <trkpt lat="45.74659" lon="6.22459">
        <ele>635.37</ele>
        <time>2017-09-16T06:13:26Z</time>
      </trkpt>
      <trkpt lat="45.74654" lon="6.2246">
        <ele>636.04</ele>
        <time>2017-09-16T06:13:28Z</time>
      </trkpt>
      <trkpt lat="45.74626" lon="6.22465">
        <ele>639.14</ele>
        <time>2017-09-16T06:13:40Z</time>
      </trkpt>
      <trkpt lat="45.74592" lon="6.22456">
        <ele>642.19</ele>
        <time>2017-09-16T06:13:53Z</time>
      </trkpt>
      <trkpt lat="45.74572" lon="6.22466">
        <ele>645.21</ele>
        <time>2017-09-16T06:14:02Z</time>
      </trkpt>
      <trkpt lat="45.7457" lon="6.22468">
        <ele>645.38</ele>
        <time>2017-09-16T06:14:03Z</time>
      </trkpt>
      <trkpt lat="45.74537" lon="6.22477">
        <ele>648.53</ele>
        <time>2017-09-16T06:14:16Z</time>
      </trkpt>
      <trkpt lat="45.74509" lon="6.22479">
        <ele>651.62</ele>
        <time>2017-09-16T06:14:26Z</time>
      </trkpt>
      <trkpt lat="45.74468" lon="6.22484">
        <ele>654.97</ele>
        <time>2017-09-16T06:14:40Z</time>
      </trkpt>
      <trkpt lat="45.74446" lon="6.22492">
        <ele>658.2</ele>
        <time>2017-09-16T06:14:50Z</time>
      </trkpt>
      <trkpt lat="45.74419" lon="6.22519">
        <ele>661.26</ele>
        <time>2017-09-16T06:15:03Z</time>
      </trkpt>
      <trkpt lat="45.74388" lon="6.22532">
        <ele>664.5</ele>
        <time>2017-09-16T06:15:16Z</time>
      </trkpt>
      <trkpt lat="45.74358" lon="6.22528">
        <ele>667.93</ele>
        <time>2017-09-16T06:15:28Z</time>
      </trkpt>
      <trkpt lat="45.74332" lon="6.22516">
        <ele>670.94</ele>
        <time>2017-09-16T06:15:40Z</time>
      </trkpt>
      <trkpt lat="45.74312" lon="6.22491">
        <ele>674.4</ele>
        <time>2017-09-16T06:15:51Z</time>
      </trkpt>
      <trkpt lat="45.74295" lon="6.2247">
        <ele>675.9</ele>
        <time>2017-09-16T06:16:04Z</time>
      </trkpt>
      <trkpt lat="45.74293" lon="6.22462">
        <ele>674.61</ele>
        <time>2017-09-16T06:16:32Z</time>
      </trkpt>
      <trkpt lat="45.74287" lon="6.2245">
        <ele>675.61</ele>
        <time>2017-09-16T06:17:11Z</time>
      </trkpt>
      <trkpt lat="45.74288" lon="6.22457">
        <ele>677.41</ele>
        <time>2017-09-16T06:17:21Z</time>
      </trkpt>
      <trkpt lat="45.74286" lon="6.22474">
        <ele>677.87</ele>
        <time>2017-09-16T06:17:49Z</time>
      </trkpt>
      <trkpt lat="45.74283" lon="6.22469">
        <ele>678.05</ele>
        <time>2017-09-16T06:18:00Z</time>
      </trkpt>
      <trkpt lat="45.74282" lon="6.22466">
        <ele>678.62</ele>
        <time>2017-09-16T06:18:01Z</time>
      </trkpt>
      <trkpt lat="45.74281" lon="6.22464">
        <ele>678.86</ele>
        <time>2017-09-16T06:18:02Z</time>
      </trkpt>
      <trkpt lat="45.74262" lon="6.22433">
        <ele>682.15</ele>
        <time>2017-09-16T06:18:13Z</time>
      </trkpt>
      <trkpt lat="45.74241" lon="6.22415">
        <ele>685.28</ele>
        <time>2017-09-16T06:18:24Z</time>
      </trkpt>
      <trkpt lat="45.74216" lon="6.2241">
        <ele>688.35</ele>
        <time>2017-09-16T06:18:33Z</time>
      </trkpt>
      <trkpt lat="45.742" lon="6.22414">
        <ele>689.99</ele>
        <time>2017-09-16T06:18:39Z</time>
      </trkpt>
      <trkpt lat="45.74198" lon="6.22415">
        <ele>690.34</ele>
        <time>2017-09-16T06:18:40Z</time>
      </trkpt>
      <trkpt lat="45.74195" lon="6.22416">
        <ele>690.81</ele>
        <time>2017-09-16T06:18:41Z</time>
      </trkpt>
      <trkpt lat="45.74193" lon="6.22416">
        <ele>690.81</ele>
        <time>2017-09-16T06:18:42Z</time>
      </trkpt>
      <trkpt lat="45.7419" lon="6.22417">
        <ele>691</ele>
        <time>2017-09-16T06:18:43Z</time>
      </trkpt>
      <trkpt lat="45.74187" lon="6.22417">
        <ele>691.39</ele>
        <time>2017-09-16T06:18:44Z</time>
      </trkpt>
      <trkpt lat="45.74184" lon="6.22418">
        <ele>691.4</ele>
        <time>2017-09-16T06:18:45Z</time>
      </trkpt>
      <trkpt lat="45.7418" lon="6.22418">
        <ele>691.66</ele>
        <time>2017-09-16T06:18:46Z</time>
      </trkpt>
      <trkpt lat="45.74177" lon="6.22419">
        <ele>692.02</ele>
        <time>2017-09-16T06:18:47Z</time>
      </trkpt>
      <trkpt lat="45.74174" lon="6.2242">
        <ele>692.91</ele>
        <time>2017-09-16T06:18:48Z</time>
      </trkpt>
      <trkpt lat="45.74165" lon="6.22422">
        <ele>693.5</ele>
        <time>2017-09-16T06:18:52Z</time>
      </trkpt>
      <trkpt lat="45.74162" lon="6.22424">
        <ele>693.45</ele>
        <time>2017-09-16T06:18:53Z</time>
      </trkpt>
      <trkpt lat="45.74136" lon="6.22435">
        <ele>696.27</ele>
        <time>2017-09-16T06:19:03Z</time>
      </trkpt>
      <trkpt lat="45.74116" lon="6.22434">
        <ele>699.39</ele>
        <time>2017-09-16T06:19:12Z</time>
      </trkpt>
      <trkpt lat="45.74088" lon="6.22443">
        <ele>702.7</ele>
        <time>2017-09-16T06:19:24Z</time>
      </trkpt>
      <trkpt lat="45.74065" lon="6.22459">
        <ele>704.9</ele>
        <time>2017-09-16T06:19:35Z</time>
      </trkpt>
      <trkpt lat="45.74034" lon="6.22481">
        <ele>708.22</ele>
        <time>2017-09-16T06:19:48Z</time>
      </trkpt>
      <trkpt lat="45.74001" lon="6.22488">
        <ele>711.57</ele>
        <time>2017-09-16T06:19:59Z</time>
      </trkpt>
      <trkpt lat="45.73963" lon="6.22475">
        <ele>714.64</ele>
        <time>2017-09-16T06:20:13Z</time>
      </trkpt>
      <trkpt lat="45.73927" lon="6.22454">
        <ele>716.64</ele>
        <time>2017-09-16T06:20:26Z</time>
      </trkpt>
      <trkpt lat="45.73873" lon="6.2244">
        <ele>719.9</ele>
        <time>2017-09-16T06:20:41Z</time>
      </trkpt>
      <trkpt lat="45.73805" lon="6.22438">
        <ele>723.25</ele>
        <time>2017-09-16T06:20:59Z</time>
      </trkpt>
      <trkpt lat="45.73752" lon="6.22463">
        <ele>726.12</ele>
        <time>2017-09-16T06:21:16Z</time>
      </trkpt>
      <trkpt lat="45.7371" lon="6.22484">
        <ele>729.44</ele>
        <time>2017-09-16T06:21:29Z</time>
      </trkpt>
      <trkpt lat="45.73663" lon="6.22474">
        <ele>732.54</ele>
        <time>2017-09-16T06:21:43Z</time>
      </trkpt>
      <trkpt lat="45.73623" lon="6.22468">
        <ele>735.87</ele>
        <time>2017-09-16T06:21:56Z</time>
      </trkpt>
      <trkpt lat="45.73579" lon="6.22481">
        <ele>737.75</ele>
        <time>2017-09-16T06:22:09Z</time>
      </trkpt>
      <trkpt lat="45.73558" lon="6.22481">
        <ele>737.86</ele>
        <time>2017-09-16T06:22:15Z</time>
      </trkpt>
      <trkpt lat="45.73517" lon="6.22469">
        <ele>740.47</ele>
        <time>2017-09-16T06:22:27Z</time>
      </trkpt>
      <trkpt lat="45.73474" lon="6.22471">
        <ele>743.66</ele>
        <time>2017-09-16T06:22:40Z</time>
      </trkpt>
      <trkpt lat="45.73437" lon="6.22479">
        <ele>746.12</ele>
        <time>2017-09-16T06:22:52Z</time>
      </trkpt>
      <trkpt lat="45.73406" lon="6.22476">
        <ele>749.03</ele>
        <time>2017-09-16T06:23:03Z</time>
      </trkpt>
      <trkpt lat="45.7337" lon="6.22489">
        <ele>751.27</ele>
        <time>2017-09-16T06:23:14Z</time>
      </trkpt>
      <trkpt lat="45.73324" lon="6.22498">
        <ele>754.55</ele>
        <time>2017-09-16T06:23:28Z</time>
      </trkpt>
      <trkpt lat="45.73269" lon="6.22499">
        <ele>757.68</ele>
        <time>2017-09-16T06:23:44Z</time>
      </trkpt>
      <trkpt lat="45.73251" lon="6.22486">
        <ele>759.57</ele>
        <time>2017-09-16T06:23:50Z</time>
      </trkpt>
      <trkpt lat="45.73195" lon="6.22473">
        <ele>762.54</ele>
        <time>2017-09-16T06:24:07Z</time>
      </trkpt>
      <trkpt lat="45.73155" lon="6.22458">
        <ele>765.56</ele>
        <time>2017-09-16T06:24:20Z</time>
      </trkpt>
      <trkpt lat="45.73111" lon="6.22445">
        <ele>768.7</ele>
        <time>2017-09-16T06:24:35Z</time>
      </trkpt>
      <trkpt lat="45.73097" lon="6.22452">
        <ele>770.37</ele>
        <time>2017-09-16T06:24:40Z</time>
      </trkpt>
      <trkpt lat="45.73054" lon="6.22469">
        <ele>773.36</ele>
        <time>2017-09-16T06:24:54Z</time>
      </trkpt>
      <trkpt lat="45.73008" lon="6.22455">
        <ele>775.55</ele>
        <time>2017-09-16T06:25:08Z</time>
      </trkpt>
      <trkpt lat="45.73005" lon="6.22454">
        <ele>775.86</ele>
        <time>2017-09-16T06:25:09Z</time>
      </trkpt>
      <trkpt lat="45.72965" lon="6.22442">
        <ele>779.13</ele>
        <time>2017-09-16T06:25:22Z</time>
      </trkpt>
      <trkpt lat="45.72937" lon="6.22434">
        <ele>782.32</ele>
        <time>2017-09-16T06:25:32Z</time>
      </trkpt>
      <trkpt lat="45.72908" lon="6.22425">
        <ele>785.75</ele>
        <time>2017-09-16T06:25:43Z</time>
      </trkpt>
      <trkpt lat="45.72905" lon="6.22425">
        <ele>786.03</ele>
        <time>2017-09-16T06:25:44Z</time>
      </trkpt>
      <trkpt lat="45.72867" lon="6.22435">
        <ele>789.18</ele>
        <time>2017-09-16T06:25:59Z</time>
      </trkpt>
      <trkpt lat="45.72884" lon="6.22458">
        <ele>792.25</ele>
        <time>2017-09-16T06:26:09Z</time>
      </trkpt>
      <trkpt lat="45.72922" lon="6.22463">
        <ele>795.73</ele>
        <time>2017-09-16T06:26:23Z</time>
      </trkpt>
      <trkpt lat="45.72955" lon="6.22488">
        <ele>798.85</ele>
        <time>2017-09-16T06:26:36Z</time>
      </trkpt>
      <trkpt lat="45.72987" lon="6.22517">
        <ele>799.71</ele>
        <time>2017-09-16T06:26:47Z</time>
      </trkpt>
      <trkpt lat="45.7304" lon="6.22539">
        <ele>802.02</ele>
        <time>2017-09-16T06:27:02Z</time>
      </trkpt>
      <trkpt lat="45.73078" lon="6.22558">
        <ele>805.29</ele>
        <time>2017-09-16T06:27:15Z</time>
      </trkpt>
      <trkpt lat="45.73096" lon="6.22579">
        <ele>808.55</ele>
        <time>2017-09-16T06:27:25Z</time>
      </trkpt>
      <trkpt lat="45.73092" lon="6.22599">
        <ele>811.4</ele>
        <time>2017-09-16T06:27:33Z</time>
      </trkpt>
      <trkpt lat="45.73087" lon="6.22604">
        <ele>812.31</ele>
        <time>2017-09-16T06:27:36Z</time>
      </trkpt>
      <trkpt lat="45.73086" lon="6.22605">
        <ele>812.57</ele>
        <time>2017-09-16T06:27:37Z</time>
      </trkpt>
      <trkpt lat="45.73065" lon="6.22604">
        <ele>815.83</ele>
        <time>2017-09-16T06:27:48Z</time>
      </trkpt>
      <trkpt lat="45.73059" lon="6.22603">
        <ele>816.78</ele>
        <time>2017-09-16T06:27:51Z</time>
      </trkpt>
      <trkpt lat="45.73027" lon="6.22595">
        <ele>819.82</ele>
        <time>2017-09-16T06:28:04Z</time>
      </trkpt>
      <trkpt lat="45.73001" lon="6.22594">
        <ele>823.21</ele>
        <time>2017-09-16T06:28:14Z</time>
      </trkpt>
      <trkpt lat="45.72987" lon="6.22594">
        <ele>825.15</ele>
        <time>2017-09-16T06:28:21Z</time>
      </trkpt>
      <trkpt lat="45.72968" lon="6.22583">
        <ele>828.17</ele>
        <time>2017-09-16T06:28:31Z</time>
      </trkpt>
      <trkpt lat="45.72959" lon="6.22571">
        <ele>830.18</ele>
        <time>2017-09-16T06:28:37Z</time>
      </trkpt>
      <trkpt lat="45.72936" lon="6.22566">
        <ele>834.1</ele>
        <time>2017-09-16T06:28:47Z</time>
      </trkpt>
      <trkpt lat="45.72917" lon="6.22575">
        <ele>836.86</ele>
        <time>2017-09-16T06:28:56Z</time>
      </trkpt>
      <trkpt lat="45.72892" lon="6.2259">
        <ele>839.9</ele>
        <time>2017-09-16T06:29:07Z</time>
      </trkpt>
      <trkpt lat="45.72873" lon="6.22584">
        <ele>843.26</ele>
        <time>2017-09-16T06:29:16Z</time>
      </trkpt>
      <trkpt lat="45.72851" lon="6.22585">
        <ele>846.29</ele>
        <time>2017-09-16T06:29:26Z</time>
      </trkpt>
      <trkpt lat="45.72832" lon="6.22589">
        <ele>849.33</ele>
        <time>2017-09-16T06:29:35Z</time>
      </trkpt>
      <trkpt lat="45.72824" lon="6.22587">
        <ele>850.76</ele>
        <time>2017-09-16T06:29:39Z</time>
      </trkpt>
      <trkpt lat="45.72806" lon="6.22594">
        <ele>854.24</ele>
        <time>2017-09-16T06:29:50Z</time>
      </trkpt>
      <trkpt lat="45.72787" lon="6.22602">
        <ele>857.55</ele>
        <time>2017-09-16T06:30:01Z</time>
      </trkpt>
      <trkpt lat="45.72766" lon="6.22611">
        <ele>860.71</ele>
        <time>2017-09-16T06:30:12Z</time>
      </trkpt>
      <trkpt lat="45.72764" lon="6.22612">
        <ele>861.01</ele>
        <time>2017-09-16T06:30:13Z</time>
      </trkpt>
      <trkpt lat="45.72745" lon="6.22623">
        <ele>864.09</ele>
        <time>2017-09-16T06:30:25Z</time>
      </trkpt>
      <trkpt lat="45.72728" lon="6.22617">
        <ele>867.13</ele>
        <time>2017-09-16T06:30:36Z</time>
      </trkpt>
      <trkpt lat="45.72722" lon="6.2261">
        <ele>868.18</ele>
        <time>2017-09-16T06:30:40Z</time>
      </trkpt>
      <trkpt lat="45.72713" lon="6.22594">
        <ele>870.34</ele>
        <time>2017-09-16T06:30:47Z</time>
      </trkpt>
      <trkpt lat="45.72712" lon="6.22592">
        <ele>870.22</ele>
        <time>2017-09-16T06:30:48Z</time>
      </trkpt>
      <trkpt lat="45.7269" lon="6.2258">
        <ele>873.49</ele>
        <time>2017-09-16T06:30:59Z</time>
      </trkpt>
      <trkpt lat="45.72668" lon="6.22577">
        <ele>877.58</ele>
        <time>2017-09-16T06:31:11Z</time>
      </trkpt>
      <trkpt lat="45.72655" lon="6.22565">
        <ele>880.47</ele>
        <time>2017-09-16T06:31:20Z</time>
      </trkpt>
      <trkpt lat="45.72649" lon="6.22546">
        <ele>882.39</ele>
        <time>2017-09-16T06:31:28Z</time>
      </trkpt>
      <trkpt lat="45.72645" lon="6.22542">
        <ele>882.85</ele>
        <time>2017-09-16T06:31:30Z</time>
      </trkpt>
      <trkpt lat="45.72644" lon="6.2254">
        <ele>883.71</ele>
        <time>2017-09-16T06:31:31Z</time>
      </trkpt>
      <trkpt lat="45.72633" lon="6.2251">
        <ele>887.29</ele>
        <time>2017-09-16T06:31:43Z</time>
      </trkpt>
      <trkpt lat="45.72615" lon="6.22491">
        <ele>890.79</ele>
        <time>2017-09-16T06:31:54Z</time>
      </trkpt>
      <trkpt lat="45.72606" lon="6.22488">
        <ele>892.26</ele>
        <time>2017-09-16T06:31:58Z</time>
      </trkpt>
      <trkpt lat="45.72588" lon="6.22494">
        <ele>895.56</ele>
        <time>2017-09-16T06:32:08Z</time>
      </trkpt>
      <trkpt lat="45.72581" lon="6.22495">
        <ele>896.64</ele>
        <time>2017-09-16T06:32:13Z</time>
      </trkpt>
      <trkpt lat="45.72564" lon="6.22491">
        <ele>899.72</ele>
        <time>2017-09-16T06:32:23Z</time>
      </trkpt>
      <trkpt lat="45.72547" lon="6.22472">
        <ele>902.91</ele>
        <time>2017-09-16T06:32:33Z</time>
      </trkpt>
      <trkpt lat="45.72531" lon="6.2244">
        <ele>906.19</ele>
        <time>2017-09-16T06:32:46Z</time>
      </trkpt>
      <trkpt lat="45.72529" lon="6.22438">
        <ele>906.36</ele>
        <time>2017-09-16T06:32:47Z</time>
      </trkpt>
      <trkpt lat="45.72504" lon="6.22429">
        <ele>909.52</ele>
        <time>2017-09-16T06:33:00Z</time>
      </trkpt>
      <trkpt lat="45.72482" lon="6.22425">
        <ele>912.88</ele>
        <time>2017-09-16T06:33:11Z</time>
      </trkpt>
      <trkpt lat="45.72466" lon="6.22413">
        <ele>916.21</ele>
        <time>2017-09-16T06:33:21Z</time>
      </trkpt>
      <trkpt lat="45.72457" lon="6.22407">
        <ele>917.32</ele>
        <time>2017-09-16T06:33:26Z</time>
      </trkpt>
      <trkpt lat="45.72432" lon="6.22405">
        <ele>920.4</ele>
        <time>2017-09-16T06:33:37Z</time>
      </trkpt>
      <trkpt lat="45.72404" lon="6.22409">
        <ele>923.48</ele>
        <time>2017-09-16T06:33:50Z</time>
      </trkpt>
      <trkpt lat="45.72392" lon="6.22419">
        <ele>924.6</ele>
        <time>2017-09-16T06:33:57Z</time>
      </trkpt>
      <trkpt lat="45.72383" lon="6.2243">
        <ele>926.4</ele>
        <time>2017-09-16T06:34:03Z</time>
      </trkpt>
      <trkpt lat="45.72367" lon="6.22442">
        <ele>929.59</ele>
        <time>2017-09-16T06:34:13Z</time>
      </trkpt>
      <trkpt lat="45.72348" lon="6.2244">
        <ele>932.62</ele>
        <time>2017-09-16T06:34:25Z</time>
      </trkpt>
      <trkpt lat="45.72332" lon="6.22423">
        <ele>935.27</ele>
        <time>2017-09-16T06:34:36Z</time>
      </trkpt>
      <trkpt lat="45.72331" lon="6.22422">
        <ele>935.78</ele>
        <time>2017-09-16T06:34:37Z</time>
      </trkpt>
      <trkpt lat="45.723" lon="6.22406">
        <ele>938.8</ele>
        <time>2017-09-16T06:34:51Z</time>
      </trkpt>
      <trkpt lat="45.72269" lon="6.22388">
        <ele>940.92</ele>
        <time>2017-09-16T06:35:04Z</time>
      </trkpt>
      <trkpt lat="45.72243" lon="6.22363">
        <ele>944.35</ele>
        <time>2017-09-16T06:35:16Z</time>
      </trkpt>
      <trkpt lat="45.72209" lon="6.2235">
        <ele>947.12</ele>
        <time>2017-09-16T06:35:30Z</time>
      </trkpt>
      <trkpt lat="45.72194" lon="6.22326">
        <ele>949.74</ele>
        <time>2017-09-16T06:35:39Z</time>
      </trkpt>
      <trkpt lat="45.72188" lon="6.22311">
        <ele>951.04</ele>
        <time>2017-09-16T06:35:44Z</time>
      </trkpt>
      <trkpt lat="45.72159" lon="6.22292">
        <ele>954.41</ele>
        <time>2017-09-16T06:35:57Z</time>
      </trkpt>
      <trkpt lat="45.72127" lon="6.22289">
        <ele>957.57</ele>
        <time>2017-09-16T06:36:10Z</time>
      </trkpt>
      <trkpt lat="45.72095" lon="6.22255">
        <ele>960.47</ele>
        <time>2017-09-16T06:36:25Z</time>
      </trkpt>
      <trkpt lat="45.72063" lon="6.22257">
        <ele>963.74</ele>
        <time>2017-09-16T06:36:39Z</time>
      </trkpt>
      <trkpt lat="45.72027" lon="6.22279">
        <ele>967.36</ele>
        <time>2017-09-16T06:36:55Z</time>
      </trkpt>
      <trkpt lat="45.72016" lon="6.22235">
        <ele>968.86</ele>
        <time>2017-09-16T06:37:07Z</time>
      </trkpt>
      <trkpt lat="45.71978" lon="6.22184">
        <ele>971.48</ele>
        <time>2017-09-16T06:37:22Z</time>
      </trkpt>
      <trkpt lat="45.71941" lon="6.2215">
        <ele>974.32</ele>
        <time>2017-09-16T06:37:36Z</time>
      </trkpt>
      <trkpt lat="45.71899" lon="6.22124">
        <ele>977.33</ele>
        <time>2017-09-16T06:37:50Z</time>
      </trkpt>
      <trkpt lat="45.71843" lon="6.22102">
        <ele>980.44</ele>
        <time>2017-09-16T06:38:07Z</time>
      </trkpt>
      <trkpt lat="45.71814" lon="6.22061">
        <ele>983.52</ele>
        <time>2017-09-16T06:38:20Z</time>
      </trkpt>
      <trkpt lat="45.71794" lon="6.22009">
        <ele>986.11</ele>
        <time>2017-09-16T06:38:33Z</time>
      </trkpt>
      <trkpt lat="45.71792" lon="6.22005">
        <ele>986.2</ele>
        <time>2017-09-16T06:38:34Z</time>
      </trkpt>
      <trkpt lat="45.71789" lon="6.22002">
        <ele>986.55</ele>
        <time>2017-09-16T06:38:35Z</time>
      </trkpt>
      <trkpt lat="45.71761" lon="6.21971">
        <ele>987.74</ele>
        <time>2017-09-16T06:38:46Z</time>
      </trkpt>
      <trkpt lat="45.71752" lon="6.2196">
        <ele>987.86</ele>
        <time>2017-09-16T06:38:49Z</time>
      </trkpt>
      <trkpt lat="45.71723" lon="6.21936">
        <ele>991.01</ele>
        <time>2017-09-16T06:38:59Z</time>
      </trkpt>
      <trkpt lat="45.71686" lon="6.21918">
        <ele>993.5</ele>
        <time>2017-09-16T06:39:12Z</time>
      </trkpt>
      <trkpt lat="45.71683" lon="6.21916">
        <ele>993.93</ele>
        <time>2017-09-16T06:39:13Z</time>
      </trkpt>
      <trkpt lat="45.71681" lon="6.21913">
        <ele>994.37</ele>
        <time>2017-09-16T06:39:14Z</time>
      </trkpt>
      <trkpt lat="45.71678" lon="6.2191">
        <ele>993.89</ele>
        <time>2017-09-16T06:39:15Z</time>
      </trkpt>
      <trkpt lat="45.71676" lon="6.21907">
        <ele>994.11</ele>
        <time>2017-09-16T06:39:16Z</time>
      </trkpt>
      <trkpt lat="45.71673" lon="6.21904">
        <ele>994.71</ele>
        <time>2017-09-16T06:39:17Z</time>
      </trkpt>
      <trkpt lat="45.71671" lon="6.21901">
        <ele>994.33</ele>
        <time>2017-09-16T06:39:18Z</time>
      </trkpt>
      <trkpt lat="45.71665" lon="6.21892">
        <ele>995.87</ele>
        <time>2017-09-16T06:39:21Z</time>
      </trkpt>
      <trkpt lat="45.7165" lon="6.21866">
        <ele>998.57</ele>
        <time>2017-09-16T06:39:30Z</time>
      </trkpt>
      <trkpt lat="45.71624" lon="6.21858">
        <ele>1001.59</ele>
        <time>2017-09-16T06:39:41Z</time>
      </trkpt>
      <trkpt lat="45.71596" lon="6.21862">
        <ele>1004.08</ele>
        <time>2017-09-16T06:39:52Z</time>
      </trkpt>
      <trkpt lat="45.71556" lon="6.2186">
        <ele>1007.17</ele>
        <time>2017-09-16T06:40:06Z</time>
      </trkpt>
      <trkpt lat="45.7152" lon="6.21842">
        <ele>1007.95</ele>
        <time>2017-09-16T06:40:18Z</time>
      </trkpt>
      <trkpt lat="45.71516" lon="6.21833">
        <ele>1008.19</ele>
        <time>2017-09-16T06:40:20Z</time>
      </trkpt>
      <trkpt lat="45.715" lon="6.21774">
        <ele>1010.52</ele>
        <time>2017-09-16T06:40:33Z</time>
      </trkpt>
      <trkpt lat="45.71469" lon="6.21775">
        <ele>1012.46</ele>
        <time>2017-09-16T06:40:44Z</time>
      </trkpt>
      <trkpt lat="45.71427" lon="6.21774">
        <ele>1015.5</ele>
        <time>2017-09-16T06:40:57Z</time>
      </trkpt>
      <trkpt lat="45.71385" lon="6.21747">
        <ele>1017.25</ele>
        <time>2017-09-16T06:41:10Z</time>
      </trkpt>
      <trkpt lat="45.71334" lon="6.21756">
        <ele>1019.99</ele>
        <time>2017-09-16T06:41:25Z</time>
      </trkpt>
      <trkpt lat="45.71302" lon="6.2173">
        <ele>1022.15</ele>
        <time>2017-09-16T06:41:36Z</time>
      </trkpt>
      <trkpt lat="45.71273" lon="6.21685">
        <ele>1024.15</ele>
        <time>2017-09-16T06:41:49Z</time>
      </trkpt>
      <trkpt lat="45.71245" lon="6.21663">
        <ele>1026.21</ele>
        <time>2017-09-16T06:42:00Z</time>
      </trkpt>
      <trkpt lat="45.71242" lon="6.21662">
        <ele>1026.79</ele>
        <time>2017-09-16T06:42:01Z</time>
      </trkpt>
      <trkpt lat="45.71239" lon="6.21661">
        <ele>1027.22</ele>
        <time>2017-09-16T06:42:02Z</time>
      </trkpt>
      <trkpt lat="45.71236" lon="6.2166">
        <ele>1027.61</ele>
        <time>2017-09-16T06:42:03Z</time>
      </trkpt>
      <trkpt lat="45.71232" lon="6.21659">
        <ele>1027.32</ele>
        <time>2017-09-16T06:42:04Z</time>
      </trkpt>
      <trkpt lat="45.71229" lon="6.21657">
        <ele>1027.21</ele>
        <time>2017-09-16T06:42:05Z</time>
      </trkpt>
      <trkpt lat="45.71217" lon="6.21653">
        <ele>1028.56</ele>
        <time>2017-09-16T06:42:08Z</time>
      </trkpt>
      <trkpt lat="45.71177" lon="6.21635">
        <ele>1030.96</ele>
        <time>2017-09-16T06:42:21Z</time>
      </trkpt>
      <trkpt lat="45.71131" lon="6.21618">
        <ele>1033.37</ele>
        <time>2017-09-16T06:42:34Z</time>
      </trkpt>
      <trkpt lat="45.71102" lon="6.21608">
        <ele>1034.91</ele>
        <time>2017-09-16T06:42:43Z</time>
      </trkpt>
      <trkpt lat="45.711" lon="6.21605">
        <ele>1035.11</ele>
        <time>2017-09-16T06:42:44Z</time>
      </trkpt>
      <trkpt lat="45.71066" lon="6.21581">
        <ele>1036.29</ele>
        <time>2017-09-16T06:42:54Z</time>
      </trkpt>
      <trkpt lat="45.71062" lon="6.2158">
        <ele>1036.84</ele>
        <time>2017-09-16T06:42:55Z</time>
      </trkpt>
      <trkpt lat="45.71018" lon="6.21563">
        <ele>1038.83</ele>
        <time>2017-09-16T06:43:07Z</time>
      </trkpt>
      <trkpt lat="45.71006" lon="6.21546">
        <ele>1040.02</ele>
        <time>2017-09-16T06:43:12Z</time>
      </trkpt>
      <trkpt lat="45.71004" lon="6.21543">
        <ele>1040.56</ele>
        <time>2017-09-16T06:43:13Z</time>
      </trkpt>
      <trkpt lat="45.71002" lon="6.21539">
        <ele>1040.89</ele>
        <time>2017-09-16T06:43:14Z</time>
      </trkpt>
      <trkpt lat="45.71" lon="6.21536">
        <ele>1040.98</ele>
        <time>2017-09-16T06:43:15Z</time>
      </trkpt>
      <trkpt lat="45.70998" lon="6.21533">
        <ele>1041.12</ele>
        <time>2017-09-16T06:43:16Z</time>
      </trkpt>
      <trkpt lat="45.70997" lon="6.21529">
        <ele>1041.48</ele>
        <time>2017-09-16T06:43:17Z</time>
      </trkpt>
      <trkpt lat="45.70994" lon="6.21526">
        <ele>1041.7</ele>
        <time>2017-09-16T06:43:18Z</time>
      </trkpt>
      <trkpt lat="45.70991" lon="6.21523">
        <ele>1041.72</ele>
        <time>2017-09-16T06:43:19Z</time>
      </trkpt>
      <trkpt lat="45.70957" lon="6.21483">
        <ele>1044.28</ele>
        <time>2017-09-16T06:43:32Z</time>
      </trkpt>
      <trkpt lat="45.70912" lon="6.21484">
        <ele>1047.17</ele>
        <time>2017-09-16T06:43:46Z</time>
      </trkpt>
      <trkpt lat="45.70869" lon="6.21479">
        <ele>1050.46</ele>
        <time>2017-09-16T06:43:59Z</time>
      </trkpt>
      <trkpt lat="45.70829" lon="6.21485">
        <ele>1053.81</ele>
        <time>2017-09-16T06:44:12Z</time>
      </trkpt>
      <trkpt lat="45.70805" lon="6.21486">
        <ele>1056.94</ele>
        <time>2017-09-16T06:44:21Z</time>
      </trkpt>
      <trkpt lat="45.70767" lon="6.2148">
        <ele>1060.43</ele>
        <time>2017-09-16T06:44:34Z</time>
      </trkpt>
      <trkpt lat="45.70728" lon="6.21471">
        <ele>1063.85</ele>
        <time>2017-09-16T06:44:48Z</time>
      </trkpt>
      <trkpt lat="45.70698" lon="6.21466">
        <ele>1066.88</ele>
        <time>2017-09-16T06:44:59Z</time>
      </trkpt>
      <trkpt lat="45.70659" lon="6.21457">
        <ele>1069.94</ele>
        <time>2017-09-16T06:45:13Z</time>
      </trkpt>
      <trkpt lat="45.70622" lon="6.21437">
        <ele>1073.1</ele>
        <time>2017-09-16T06:45:27Z</time>
      </trkpt>
      <trkpt lat="45.70592" lon="6.2142">
        <ele>1076.18</ele>
        <time>2017-09-16T06:45:38Z</time>
      </trkpt>
      <trkpt lat="45.70559" lon="6.214">
        <ele>1079.71</ele>
        <time>2017-09-16T06:45:51Z</time>
      </trkpt>
      <trkpt lat="45.70528" lon="6.2138">
        <ele>1083.11</ele>
        <time>2017-09-16T06:46:04Z</time>
      </trkpt>
      <trkpt lat="45.70494" lon="6.21365">
        <ele>1086.42</ele>
        <time>2017-09-16T06:46:17Z</time>
      </trkpt>
      <trkpt lat="45.70473" lon="6.21353">
        <ele>1089.57</ele>
        <time>2017-09-16T06:46:25Z</time>
      </trkpt>
      <trkpt lat="45.70471" lon="6.21351">
        <ele>1089.71</ele>
        <time>2017-09-16T06:46:26Z</time>
      </trkpt>
      <trkpt lat="45.70453" lon="6.21345">
        <ele>1091.68</ele>
        <time>2017-09-16T06:46:33Z</time>
      </trkpt>
      <trkpt lat="45.70451" lon="6.21346">
        <ele>1092.07</ele>
        <time>2017-09-16T06:46:34Z</time>
      </trkpt>
      <trkpt lat="45.7044" lon="6.21348">
        <ele>1093.4</ele>
        <time>2017-09-16T06:46:38Z</time>
      </trkpt>
      <trkpt lat="45.70417" lon="6.21348">
        <ele>1096.45</ele>
        <time>2017-09-16T06:46:47Z</time>
      </trkpt>
      <trkpt lat="45.70388" lon="6.21322">
        <ele>1099.56</ele>
        <time>2017-09-16T06:46:59Z</time>
      </trkpt>
      <trkpt lat="45.70381" lon="6.21317">
        <ele>1100.89</ele>
        <time>2017-09-16T06:47:02Z</time>
      </trkpt>
      <trkpt lat="45.70349" lon="6.21306">
        <ele>1104.46</ele>
        <time>2017-09-16T06:47:14Z</time>
      </trkpt>
      <trkpt lat="45.70325" lon="6.21298">
        <ele>1107.54</ele>
        <time>2017-09-16T06:47:24Z</time>
      </trkpt>
      <trkpt lat="45.70298" lon="6.21289">
        <ele>1110.6</ele>
        <time>2017-09-16T06:47:35Z</time>
      </trkpt>
      <trkpt lat="45.70271" lon="6.21272">
        <ele>1114.1</ele>
        <time>2017-09-16T06:47:48Z</time>
      </trkpt>
      <trkpt lat="45.70269" lon="6.21269">
        <ele>1114.27</ele>
        <time>2017-09-16T06:47:49Z</time>
      </trkpt>
      <trkpt lat="45.70252" lon="6.21252">
        <ele>1115.86</ele>
        <time>2017-09-16T06:47:57Z</time>
      </trkpt>
      <trkpt lat="45.70225" lon="6.21256">
        <ele>1118.94</ele>
        <time>2017-09-16T06:48:07Z</time>
      </trkpt>
      <trkpt lat="45.70197" lon="6.2126">
        <ele>1122.16</ele>
        <time>2017-09-16T06:48:18Z</time>
      </trkpt>
      <trkpt lat="45.70173" lon="6.21254">
        <ele>1125.57</ele>
        <time>2017-09-16T06:48:29Z</time>
      </trkpt>
      <trkpt lat="45.70148" lon="6.21247">
        <ele>1128.71</ele>
        <time>2017-09-16T06:48:40Z</time>
      </trkpt>
      <trkpt lat="45.70144" lon="6.21246">
        <ele>1129.55</ele>
        <time>2017-09-16T06:48:42Z</time>
      </trkpt>
      <trkpt lat="45.7013" lon="6.21276">
        <ele>1132</ele>
        <time>2017-09-16T06:48:55Z</time>
      </trkpt>
      <trkpt lat="45.70156" lon="6.21303">
        <ele>1135.17</ele>
        <time>2017-09-16T06:49:08Z</time>
      </trkpt>
      <trkpt lat="45.70189" lon="6.21328">
        <ele>1138.47</ele>
        <time>2017-09-16T06:49:22Z</time>
      </trkpt>
      <trkpt lat="45.70217" lon="6.21337">
        <ele>1141.58</ele>
        <time>2017-09-16T06:49:35Z</time>
      </trkpt>
      <trkpt lat="45.7024" lon="6.21351">
        <ele>1144.92</ele>
        <time>2017-09-16T06:49:46Z</time>
      </trkpt>
      <trkpt lat="45.70245" lon="6.21356">
        <ele>1145.58</ele>
        <time>2017-09-16T06:49:48Z</time>
      </trkpt>
      <trkpt lat="45.70273" lon="6.21386">
        <ele>1149.1</ele>
        <time>2017-09-16T06:50:01Z</time>
      </trkpt>
      <trkpt lat="45.70298" lon="6.21408">
        <ele>1152.15</ele>
        <time>2017-09-16T06:50:14Z</time>
      </trkpt>
      <trkpt lat="45.70318" lon="6.21438">
        <ele>1155.3</ele>
        <time>2017-09-16T06:50:25Z</time>
      </trkpt>
      <trkpt lat="45.70337" lon="6.21468">
        <ele>1158.31</ele>
        <time>2017-09-16T06:50:36Z</time>
      </trkpt>
      <trkpt lat="45.70359" lon="6.21502">
        <ele>1161.51</ele>
        <time>2017-09-16T06:50:49Z</time>
      </trkpt>
      <trkpt lat="45.70369" lon="6.21531">
        <ele>1164.18</ele>
        <time>2017-09-16T06:50:58Z</time>
      </trkpt>
      <trkpt lat="45.70383" lon="6.21564">
        <ele>1167.49</ele>
        <time>2017-09-16T06:51:09Z</time>
      </trkpt>
      <trkpt lat="45.70407" lon="6.2159">
        <ele>1170.97</ele>
        <time>2017-09-16T06:51:23Z</time>
      </trkpt>
      <trkpt lat="45.70418" lon="6.21596">
        <ele>1172.65</ele>
        <time>2017-09-16T06:51:29Z</time>
      </trkpt>
      <trkpt lat="45.7042" lon="6.21596">
        <ele>1172.58</ele>
        <time>2017-09-16T06:51:30Z</time>
      </trkpt>
      <trkpt lat="45.70423" lon="6.21596">
        <ele>1172.78</ele>
        <time>2017-09-16T06:51:31Z</time>
      </trkpt>
      <trkpt lat="45.70425" lon="6.21596">
        <ele>1173.49</ele>
        <time>2017-09-16T06:51:32Z</time>
      </trkpt>
      <trkpt lat="45.70427" lon="6.21596">
        <ele>1173.84</ele>
        <time>2017-09-16T06:51:33Z</time>
      </trkpt>
      <trkpt lat="45.70429" lon="6.21596">
        <ele>1174.18</ele>
        <time>2017-09-16T06:51:34Z</time>
      </trkpt>
      <trkpt lat="45.70431" lon="6.21595">
        <ele>1173.92</ele>
        <time>2017-09-16T06:51:35Z</time>
      </trkpt>
      <trkpt lat="45.70433" lon="6.21596">
        <ele>1174.39</ele>
        <time>2017-09-16T06:51:36Z</time>
      </trkpt>
      <trkpt lat="45.70435" lon="6.21597">
        <ele>1174.51</ele>
        <time>2017-09-16T06:51:37Z</time>
      </trkpt>
      <trkpt lat="45.70467" lon="6.21595">
        <ele>1177.59</ele>
        <time>2017-09-16T06:51:50Z</time>
      </trkpt>
      <trkpt lat="45.70493" lon="6.21593">
        <ele>1180.98</ele>
        <time>2017-09-16T06:52:01Z</time>
      </trkpt>
      <trkpt lat="45.70521" lon="6.21611">
        <ele>1184.73</ele>
        <time>2017-09-16T06:52:14Z</time>
      </trkpt>
      <trkpt lat="45.70554" lon="6.21607">
        <ele>1187.7</ele>
        <time>2017-09-16T06:52:28Z</time>
      </trkpt>
      <trkpt lat="45.70588" lon="6.21612">
        <ele>1190.73</ele>
        <time>2017-09-16T06:52:41Z</time>
      </trkpt>
      <trkpt lat="45.70619" lon="6.21625">
        <ele>1193.19</ele>
        <time>2017-09-16T06:52:53Z</time>
      </trkpt>
      <trkpt lat="45.70633" lon="6.21645">
        <ele>1195.11</ele>
        <time>2017-09-16T06:53:01Z</time>
      </trkpt>
      <trkpt lat="45.70632" lon="6.21648">
        <ele>1195.24</ele>
        <time>2017-09-16T06:53:02Z</time>
      </trkpt>
      <trkpt lat="45.7063" lon="6.2165">
        <ele>1195.83</ele>
        <time>2017-09-16T06:53:03Z</time>
      </trkpt>
      <trkpt lat="45.70628" lon="6.2165">
        <ele>1195.97</ele>
        <time>2017-09-16T06:53:04Z</time>
      </trkpt>
      <trkpt lat="45.70626" lon="6.2165">
        <ele>1195.75</ele>
        <time>2017-09-16T06:53:05Z</time>
      </trkpt>
      <trkpt lat="45.70624" lon="6.21649">
        <ele>1195.94</ele>
        <time>2017-09-16T06:53:06Z</time>
      </trkpt>
      <trkpt lat="45.70621" lon="6.21648">
        <ele>1195.99</ele>
        <time>2017-09-16T06:53:07Z</time>
      </trkpt>
      <trkpt lat="45.70619" lon="6.21646">
        <ele>1196.42</ele>
        <time>2017-09-16T06:53:08Z</time>
      </trkpt>
      <trkpt lat="45.70575" lon="6.21637">
        <ele>1198.95</ele>
        <time>2017-09-16T06:53:23Z</time>
      </trkpt>
      <trkpt lat="45.70553" lon="6.21646">
        <ele>1200.83</ele>
        <time>2017-09-16T06:53:31Z</time>
      </trkpt>
      <trkpt lat="45.7055" lon="6.21648">
        <ele>1200.91</ele>
        <time>2017-09-16T06:53:32Z</time>
      </trkpt>
      <trkpt lat="45.70547" lon="6.21649">
        <ele>1200.72</ele>
        <time>2017-09-16T06:53:33Z</time>
      </trkpt>
      <trkpt lat="45.70545" lon="6.21651">
        <ele>1201.38</ele>
        <time>2017-09-16T06:53:34Z</time>
      </trkpt>
      <trkpt lat="45.70543" lon="6.21653">
        <ele>1201.41</ele>
        <time>2017-09-16T06:53:35Z</time>
      </trkpt>
      <trkpt lat="45.7054" lon="6.21655">
        <ele>1201.62</ele>
        <time>2017-09-16T06:53:36Z</time>
      </trkpt>
      <trkpt lat="45.70538" lon="6.21656">
        <ele>1201.66</ele>
        <time>2017-09-16T06:53:37Z</time>
      </trkpt>
      <trkpt lat="45.70535" lon="6.21658">
        <ele>1202.61</ele>
        <time>2017-09-16T06:53:38Z</time>
      </trkpt>
      <trkpt lat="45.70532" lon="6.2166">
        <ele>1202.48</ele>
        <time>2017-09-16T06:53:39Z</time>
      </trkpt>
      <trkpt lat="45.7053" lon="6.21661">
        <ele>1202.49</ele>
        <time>2017-09-16T06:53:40Z</time>
      </trkpt>
      <trkpt lat="45.70527" lon="6.21662">
        <ele>1202.82</ele>
        <time>2017-09-16T06:53:41Z</time>
      </trkpt>
      <trkpt lat="45.70499" lon="6.21665">
        <ele>1205.93</ele>
        <time>2017-09-16T06:53:51Z</time>
      </trkpt>
      <trkpt lat="45.70464" lon="6.21694">
        <ele>1209.22</ele>
        <time>2017-09-16T06:54:05Z</time>
      </trkpt>
      <trkpt lat="45.70427" lon="6.21708">
        <ele>1211.81</ele>
        <time>2017-09-16T06:54:19Z</time>
      </trkpt>
      <trkpt lat="45.70397" lon="6.21704">
        <ele>1213.75</ele>
        <time>2017-09-16T06:54:30Z</time>
      </trkpt>
      <trkpt lat="45.70395" lon="6.21702">
        <ele>1214.03</ele>
        <time>2017-09-16T06:54:31Z</time>
      </trkpt>
      <trkpt lat="45.70392" lon="6.217">
        <ele>1214.48</ele>
        <time>2017-09-16T06:54:32Z</time>
      </trkpt>
      <trkpt lat="45.7039" lon="6.21698">
        <ele>1214.58</ele>
        <time>2017-09-16T06:54:33Z</time>
      </trkpt>
      <trkpt lat="45.70387" lon="6.21696">
        <ele>1214.04</ele>
        <time>2017-09-16T06:54:34Z</time>
      </trkpt>
      <trkpt lat="45.70355" lon="6.21671">
        <ele>1217.3</ele>
        <time>2017-09-16T06:54:46Z</time>
      </trkpt>
      <trkpt lat="45.70323" lon="6.21642">
        <ele>1220.43</ele>
        <time>2017-09-16T06:54:59Z</time>
      </trkpt>
      <trkpt lat="45.70282" lon="6.21648">
        <ele>1222.91</ele>
        <time>2017-09-16T06:55:14Z</time>
      </trkpt>
      <trkpt lat="45.70234" lon="6.21656">
        <ele>1225.82</ele>
        <time>2017-09-16T06:55:30Z</time>
      </trkpt>
      <trkpt lat="45.70191" lon="6.2164">
        <ele>1228.02</ele>
        <time>2017-09-16T06:55:44Z</time>
      </trkpt>
      <trkpt lat="45.70157" lon="6.2163">
        <ele>1230.26</ele>
        <time>2017-09-16T06:55:55Z</time>
      </trkpt>
      <trkpt lat="45.70127" lon="6.21612">
        <ele>1233.58</ele>
        <time>2017-09-16T06:56:07Z</time>
      </trkpt>
      <trkpt lat="45.70083" lon="6.21588">
        <ele>1236.83</ele>
        <time>2017-09-16T06:56:22Z</time>
      </trkpt>
      <trkpt lat="45.70051" lon="6.21568">
        <ele>1239.88</ele>
        <time>2017-09-16T06:56:34Z</time>
      </trkpt>
      <trkpt lat="45.7002" lon="6.21548">
        <ele>1243.17</ele>
        <time>2017-09-16T06:56:46Z</time>
      </trkpt>
      <trkpt lat="45.6999" lon="6.21528">
        <ele>1246.31</ele>
        <time>2017-09-16T06:57:00Z</time>
      </trkpt>
      <trkpt lat="45.69975" lon="6.21514">
        <ele>1247.8</ele>
        <time>2017-09-16T06:57:07Z</time>
      </trkpt>
      <trkpt lat="45.69944" lon="6.21491">
        <ele>1251.14</ele>
        <time>2017-09-16T06:57:19Z</time>
      </trkpt>
      <trkpt lat="45.6991" lon="6.21487">
        <ele>1254.2</ele>
        <time>2017-09-16T06:57:31Z</time>
      </trkpt>
      <trkpt lat="45.69871" lon="6.2149">
        <ele>1257.46</ele>
        <time>2017-09-16T06:57:45Z</time>
      </trkpt>
      <trkpt lat="45.69846" lon="6.21489">
        <ele>1259.46</ele>
        <time>2017-09-16T06:57:54Z</time>
      </trkpt>
      <trkpt lat="45.69843" lon="6.21488">
        <ele>1259.62</ele>
        <time>2017-09-16T06:57:55Z</time>
      </trkpt>
      <trkpt lat="45.69841" lon="6.21487">
        <ele>1259.55</ele>
        <time>2017-09-16T06:57:56Z</time>
      </trkpt>
      <trkpt lat="45.69818" lon="6.21472">
        <ele>1262.71</ele>
        <time>2017-09-16T06:58:05Z</time>
      </trkpt>
      <trkpt lat="45.69798" lon="6.21435">
        <ele>1265.85</ele>
        <time>2017-09-16T06:58:18Z</time>
      </trkpt>
      <trkpt lat="45.6977" lon="6.21421">
        <ele>1268.98</ele>
        <time>2017-09-16T06:58:31Z</time>
      </trkpt>
      <trkpt lat="45.69749" lon="6.21443">
        <ele>1272</ele>
        <time>2017-09-16T06:58:42Z</time>
      </trkpt>
      <trkpt lat="45.69735" lon="6.21459">
        <ele>1275.09</ele>
        <time>2017-09-16T06:58:50Z</time>
      </trkpt>
      <trkpt lat="45.69723" lon="6.2146">
        <ele>1276.38</ele>
        <time>2017-09-16T06:58:55Z</time>
      </trkpt>
      <trkpt lat="45.69721" lon="6.21459">
        <ele>1276.12</ele>
        <time>2017-09-16T06:58:56Z</time>
      </trkpt>
      <trkpt lat="45.69719" lon="6.21456">
        <ele>1276.47</ele>
        <time>2017-09-16T06:58:57Z</time>
      </trkpt>
      <trkpt lat="45.69718" lon="6.21454">
        <ele>1276.96</ele>
        <time>2017-09-16T06:58:58Z</time>
      </trkpt>
      <trkpt lat="45.69717" lon="6.21451">
        <ele>1276.98</ele>
        <time>2017-09-16T06:58:59Z</time>
      </trkpt>
      <trkpt lat="45.69716" lon="6.21448">
        <ele>1277</ele>
        <time>2017-09-16T06:59:00Z</time>
      </trkpt>
      <trkpt lat="45.69693" lon="6.21427">
        <ele>1280.04</ele>
        <time>2017-09-16T06:59:14Z</time>
      </trkpt>
      <trkpt lat="45.69667" lon="6.21424">
        <ele>1282.88</ele>
        <time>2017-09-16T06:59:26Z</time>
      </trkpt>
      <trkpt lat="45.69639" lon="6.2141">
        <ele>1285.16</ele>
        <time>2017-09-16T06:59:39Z</time>
      </trkpt>
      <trkpt lat="45.69627" lon="6.21378">
        <ele>1288.04</ele>
        <time>2017-09-16T06:59:52Z</time>
      </trkpt>
      <trkpt lat="45.6963" lon="6.21334">
        <ele>1291.58</ele>
        <time>2017-09-16T07:00:06Z</time>
      </trkpt>
      <trkpt lat="45.69595" lon="6.21308">
        <ele>1294.22</ele>
        <time>2017-09-16T07:00:21Z</time>
      </trkpt>
      <trkpt lat="45.69567" lon="6.21295">
        <ele>1297.28</ele>
        <time>2017-09-16T07:00:33Z</time>
      </trkpt>
      <trkpt lat="45.69538" lon="6.21278">
        <ele>1300.73</ele>
        <time>2017-09-16T07:00:47Z</time>
      </trkpt>
      <trkpt lat="45.69507" lon="6.21258">
        <ele>1304.09</ele>
        <time>2017-09-16T07:01:01Z</time>
      </trkpt>
      <trkpt lat="45.69499" lon="6.21253">
        <ele>1305.29</ele>
        <time>2017-09-16T07:01:05Z</time>
      </trkpt>
      <trkpt lat="45.69461" lon="6.21227">
        <ele>1308.76</ele>
        <time>2017-09-16T07:01:22Z</time>
      </trkpt>
      <trkpt lat="45.69452" lon="6.21251">
        <ele>1310.39</ele>
        <time>2017-09-16T07:01:33Z</time>
      </trkpt>
      <trkpt lat="45.69474" lon="6.21258">
        <ele>1311.98</ele>
        <time>2017-09-16T07:01:43Z</time>
      </trkpt>
      <trkpt lat="45.69475" lon="6.2126">
        <ele>1312.41</ele>
        <time>2017-09-16T07:01:44Z</time>
      </trkpt>
      <trkpt lat="45.69477" lon="6.21261">
        <ele>1312.48</ele>
        <time>2017-09-16T07:01:45Z</time>
      </trkpt>
      <trkpt lat="45.69479" lon="6.21263">
        <ele>1312.57</ele>
        <time>2017-09-16T07:01:46Z</time>
      </trkpt>
      <trkpt lat="45.69482" lon="6.21265">
        <ele>1312.99</ele>
        <time>2017-09-16T07:01:47Z</time>
      </trkpt>
      <trkpt lat="45.69514" lon="6.21313">
        <ele>1316.14</ele>
        <time>2017-09-16T07:02:05Z</time>
      </trkpt>
      <trkpt lat="45.69549" lon="6.21343">
        <ele>1318.77</ele>
        <time>2017-09-16T07:02:22Z</time>
      </trkpt>
      <trkpt lat="45.69557" lon="6.21381">
        <ele>1321.02</ele>
        <time>2017-09-16T07:02:36Z</time>
      </trkpt>
      <trkpt lat="45.69555" lon="6.21381">
        <ele>1321.15</ele>
        <time>2017-09-16T07:02:37Z</time>
      </trkpt>
      <trkpt lat="45.69552" lon="6.2138">
        <ele>1321.3</ele>
        <time>2017-09-16T07:02:38Z</time>
      </trkpt>
      <trkpt lat="45.6955" lon="6.21378">
        <ele>1321.34</ele>
        <time>2017-09-16T07:02:39Z</time>
      </trkpt>
      <trkpt lat="45.69548" lon="6.21376">
        <ele>1321.46</ele>
        <time>2017-09-16T07:02:40Z</time>
      </trkpt>
      <trkpt lat="45.69546" lon="6.21374">
        <ele>1321.24</ele>
        <time>2017-09-16T07:02:41Z</time>
      </trkpt>
      <trkpt lat="45.69519" lon="6.2135">
        <ele>1323.61</ele>
        <time>2017-09-16T07:02:54Z</time>
      </trkpt>
      <trkpt lat="45.69487" lon="6.21331">
        <ele>1326.73</ele>
        <time>2017-09-16T07:03:09Z</time>
      </trkpt>
      <trkpt lat="45.69453" lon="6.21313">
        <ele>1329.07</ele>
        <time>2017-09-16T07:03:24Z</time>
      </trkpt>
      <trkpt lat="45.69448" lon="6.21309">
        <ele>1329.63</ele>
        <time>2017-09-16T07:03:27Z</time>
      </trkpt>
      <trkpt lat="45.69446" lon="6.21308">
        <ele>1329.49</ele>
        <time>2017-09-16T07:03:28Z</time>
      </trkpt>
      <trkpt lat="45.69443" lon="6.21308">
        <ele>1329.92</ele>
        <time>2017-09-16T07:03:29Z</time>
      </trkpt>
      <trkpt lat="45.69441" lon="6.21308">
        <ele>1330.16</ele>
        <time>2017-09-16T07:03:30Z</time>
      </trkpt>
      <trkpt lat="45.69439" lon="6.21306">
        <ele>1330.46</ele>
        <time>2017-09-16T07:03:31Z</time>
      </trkpt>
      <trkpt lat="45.69409" lon="6.2128">
        <ele>1333.29</ele>
        <time>2017-09-16T07:03:46Z</time>
      </trkpt>
      <trkpt lat="45.6939" lon="6.21231">
        <ele>1336.2</ele>
        <time>2017-09-16T07:04:03Z</time>
      </trkpt>
      <trkpt lat="45.69373" lon="6.21224">
        <ele>1337.06</ele>
        <time>2017-09-16T07:04:11Z</time>
      </trkpt>
      <trkpt lat="45.69371" lon="6.21227">
        <ele>1336.88</ele>
        <time>2017-09-16T07:04:12Z</time>
      </trkpt>
      <trkpt lat="45.6937" lon="6.2123">
        <ele>1336.92</ele>
        <time>2017-09-16T07:04:13Z</time>
      </trkpt>
      <trkpt lat="45.69369" lon="6.21233">
        <ele>1337.87</ele>
        <time>2017-09-16T07:04:14Z</time>
      </trkpt>
      <trkpt lat="45.69369" lon="6.21237">
        <ele>1338.08</ele>
        <time>2017-09-16T07:04:15Z</time>
      </trkpt>
      <trkpt lat="45.6937" lon="6.21241">
        <ele>1337.31</ele>
        <time>2017-09-16T07:04:16Z</time>
      </trkpt>
      <trkpt lat="45.69371" lon="6.21244">
        <ele>1337.44</ele>
        <time>2017-09-16T07:04:17Z</time>
      </trkpt>
      <trkpt lat="45.69372" lon="6.21248">
        <ele>1337.81</ele>
        <time>2017-09-16T07:04:18Z</time>
      </trkpt>
      <trkpt lat="45.69374" lon="6.21251">
        <ele>1337.93</ele>
        <time>2017-09-16T07:04:19Z</time>
      </trkpt>
      <trkpt lat="45.69393" lon="6.21297">
        <ele>1340.09</ele>
        <time>2017-09-16T07:04:33Z</time>
      </trkpt>
      <trkpt lat="45.69402" lon="6.21317">
        <ele>1342.11</ele>
        <time>2017-09-16T07:04:40Z</time>
      </trkpt>
      <trkpt lat="45.69404" lon="6.21319">
        <ele>1342.02</ele>
        <time>2017-09-16T07:04:41Z</time>
      </trkpt>
      <trkpt lat="45.69405" lon="6.21322">
        <ele>1341.3</ele>
        <time>2017-09-16T07:04:42Z</time>
      </trkpt>
      <trkpt lat="45.69426" lon="6.21369">
        <ele>1344.7</ele>
        <time>2017-09-16T07:04:58Z</time>
      </trkpt>
      <trkpt lat="45.6944" lon="6.21395">
        <ele>1346.79</ele>
        <time>2017-09-16T07:05:10Z</time>
      </trkpt>
      <trkpt lat="45.69442" lon="6.21396">
        <ele>1346.89</ele>
        <time>2017-09-16T07:05:11Z</time>
      </trkpt>
      <trkpt lat="45.69444" lon="6.21399">
        <ele>1347.11</ele>
        <time>2017-09-16T07:05:12Z</time>
      </trkpt>
      <trkpt lat="45.69445" lon="6.21401">
        <ele>1347.02</ele>
        <time>2017-09-16T07:05:13Z</time>
      </trkpt>
      <trkpt lat="45.69447" lon="6.21404">
        <ele>1347.56</ele>
        <time>2017-09-16T07:05:14Z</time>
      </trkpt>
      <trkpt lat="45.69482" lon="6.21441">
        <ele>1350.4</ele>
        <time>2017-09-16T07:05:33Z</time>
      </trkpt>
      <trkpt lat="45.69493" lon="6.21442">
        <ele>1351.95</ele>
        <time>2017-09-16T07:05:39Z</time>
      </trkpt>
      <trkpt lat="45.69495" lon="6.21443">
        <ele>1352.12</ele>
        <time>2017-09-16T07:05:40Z</time>
      </trkpt>
      <trkpt lat="45.69497" lon="6.21444">
        <ele>1352.24</ele>
        <time>2017-09-16T07:05:41Z</time>
      </trkpt>
      <trkpt lat="45.69499" lon="6.21446">
        <ele>1352.55</ele>
        <time>2017-09-16T07:05:42Z</time>
      </trkpt>
      <trkpt lat="45.69502" lon="6.21448">
        <ele>1352.65</ele>
        <time>2017-09-16T07:05:43Z</time>
      </trkpt>
      <trkpt lat="45.69514" lon="6.2149">
        <ele>1355.5</ele>
        <time>2017-09-16T07:05:58Z</time>
      </trkpt>
      <trkpt lat="45.69511" lon="6.21526">
        <ele>1357.71</ele>
        <time>2017-09-16T07:06:09Z</time>
      </trkpt>
      <trkpt lat="45.69512" lon="6.21529">
        <ele>1357.73</ele>
        <time>2017-09-16T07:06:10Z</time>
      </trkpt>
      <trkpt lat="45.69513" lon="6.21532">
        <ele>1358.55</ele>
        <time>2017-09-16T07:06:11Z</time>
      </trkpt>
      <trkpt lat="45.69531" lon="6.21578">
        <ele>1360.23</ele>
        <time>2017-09-16T07:06:27Z</time>
      </trkpt>
      <trkpt lat="45.69537" lon="6.21591">
        <ele>1361.05</ele>
        <time>2017-09-16T07:06:32Z</time>
      </trkpt>
      <trkpt lat="45.69525" lon="6.21618">
        <ele>1363</ele>
        <time>2017-09-16T07:06:44Z</time>
      </trkpt>
      <trkpt lat="45.69523" lon="6.21618">
        <ele>1363.05</ele>
        <time>2017-09-16T07:06:45Z</time>
      </trkpt>
      <trkpt lat="45.69521" lon="6.21617">
        <ele>1363.24</ele>
        <time>2017-09-16T07:06:46Z</time>
      </trkpt>
      <trkpt lat="45.69518" lon="6.21616">
        <ele>1363.6</ele>
        <time>2017-09-16T07:06:47Z</time>
      </trkpt>
      <trkpt lat="45.69516" lon="6.21614">
        <ele>1363.74</ele>
        <time>2017-09-16T07:06:48Z</time>
      </trkpt>
      <trkpt lat="45.69502" lon="6.21573">
        <ele>1363.85</ele>
        <time>2017-09-16T07:06:59Z</time>
      </trkpt>
      <trkpt lat="45.69473" lon="6.2154">
        <ele>1367.55</ele>
        <time>2017-09-16T07:07:14Z</time>
      </trkpt>
      <trkpt lat="45.69447" lon="6.21512">
        <ele>1369.28</ele>
        <time>2017-09-16T07:07:27Z</time>
      </trkpt>
      <trkpt lat="45.69424" lon="6.21483">
        <ele>1371.42</ele>
        <time>2017-09-16T07:07:39Z</time>
      </trkpt>
      <trkpt lat="45.694" lon="6.21443">
        <ele>1374.61</ele>
        <time>2017-09-16T07:07:53Z</time>
      </trkpt>
      <trkpt lat="45.69371" lon="6.21416">
        <ele>1377.89</ele>
        <time>2017-09-16T07:08:07Z</time>
      </trkpt>
      <trkpt lat="45.69339" lon="6.21393">
        <ele>1381.13</ele>
        <time>2017-09-16T07:08:21Z</time>
      </trkpt>
      <trkpt lat="45.69317" lon="6.21353">
        <ele>1384.5</ele>
        <time>2017-09-16T07:08:35Z</time>
      </trkpt>
      <trkpt lat="45.69299" lon="6.2133">
        <ele>1386.31</ele>
        <time>2017-09-16T07:08:45Z</time>
      </trkpt>
      <trkpt lat="45.69264" lon="6.21299">
        <ele>1389.47</ele>
        <time>2017-09-16T07:09:02Z</time>
      </trkpt>
      <trkpt lat="45.69239" lon="6.21254">
        <ele>1392.63</ele>
        <time>2017-09-16T07:09:18Z</time>
      </trkpt>
      <trkpt lat="45.69208" lon="6.21205">
        <ele>1395.98</ele>
        <time>2017-09-16T07:09:36Z</time>
      </trkpt>
      <trkpt lat="45.69206" lon="6.21205">
        <ele>1395.89</ele>
        <time>2017-09-16T07:09:37Z</time>
      </trkpt>
      <trkpt lat="45.69203" lon="6.21207">
        <ele>1395.9</ele>
        <time>2017-09-16T07:09:38Z</time>
      </trkpt>
      <trkpt lat="45.69201" lon="6.21209">
        <ele>1396.5</ele>
        <time>2017-09-16T07:09:39Z</time>
      </trkpt>
      <trkpt lat="45.692" lon="6.21211">
        <ele>1396.3</ele>
        <time>2017-09-16T07:09:40Z</time>
      </trkpt>
      <trkpt lat="45.69199" lon="6.21214">
        <ele>1396.45</ele>
        <time>2017-09-16T07:09:41Z</time>
      </trkpt>
      <trkpt lat="45.69198" lon="6.21217">
        <ele>1396.59</ele>
        <time>2017-09-16T07:09:42Z</time>
      </trkpt>
      <trkpt lat="45.69198" lon="6.21221">
        <ele>1396.77</ele>
        <time>2017-09-16T07:09:43Z</time>
      </trkpt>
      <trkpt lat="45.69199" lon="6.21224">
        <ele>1397.46</ele>
        <time>2017-09-16T07:09:44Z</time>
      </trkpt>
      <trkpt lat="45.692" lon="6.21227">
        <ele>1397.32</ele>
        <time>2017-09-16T07:09:45Z</time>
      </trkpt>
      <trkpt lat="45.69201" lon="6.2123">
        <ele>1397.07</ele>
        <time>2017-09-16T07:09:46Z</time>
      </trkpt>
      <trkpt lat="45.69203" lon="6.21233">
        <ele>1397.22</ele>
        <time>2017-09-16T07:09:47Z</time>
      </trkpt>
      <trkpt lat="45.69205" lon="6.21235">
        <ele>1397.17</ele>
        <time>2017-09-16T07:09:48Z</time>
      </trkpt>
      <trkpt lat="45.69229" lon="6.21272">
        <ele>1400.19</ele>
        <time>2017-09-16T07:10:02Z</time>
      </trkpt>
      <trkpt lat="45.69238" lon="6.2132">
        <ele>1403.28</ele>
        <time>2017-09-16T07:10:17Z</time>
      </trkpt>
      <trkpt lat="45.69255" lon="6.21356">
        <ele>1406.34</ele>
        <time>2017-09-16T07:10:31Z</time>
      </trkpt>
      <trkpt lat="45.69278" lon="6.21392">
        <ele>1408.87</ele>
        <time>2017-09-16T07:10:46Z</time>
      </trkpt>
      <trkpt lat="45.69276" lon="6.21394">
        <ele>1409.3</ele>
        <time>2017-09-16T07:10:47Z</time>
      </trkpt>
      <trkpt lat="45.69274" lon="6.21395">
        <ele>1410.28</ele>
        <time>2017-09-16T07:10:48Z</time>
      </trkpt>
      <trkpt lat="45.69272" lon="6.21396">
        <ele>1409.97</ele>
        <time>2017-09-16T07:10:49Z</time>
      </trkpt>
      <trkpt lat="45.6927" lon="6.21395">
        <ele>1410.99</ele>
        <time>2017-09-16T07:10:50Z</time>
      </trkpt>
      <trkpt lat="45.69269" lon="6.21395">
        <ele>1411.37</ele>
        <time>2017-09-16T07:10:51Z</time>
      </trkpt>
      <trkpt lat="45.69267" lon="6.21393">
        <ele>1410.99</ele>
        <time>2017-09-16T07:10:52Z</time>
      </trkpt>
      <trkpt lat="45.69265" lon="6.21391">
        <ele>1411.58</ele>
        <time>2017-09-16T07:10:53Z</time>
      </trkpt>
      <trkpt lat="45.69263" lon="6.21389">
        <ele>1411.76</ele>
        <time>2017-09-16T07:10:54Z</time>
      </trkpt>
      <trkpt lat="45.6923" lon="6.21358">
        <ele>1415.51</ele>
        <time>2017-09-16T07:11:11Z</time>
      </trkpt>
      <trkpt lat="45.6921" lon="6.21327">
        <ele>1418.67</ele>
        <time>2017-09-16T07:11:26Z</time>
      </trkpt>
      <trkpt lat="45.6918" lon="6.21294">
        <ele>1422.26</ele>
        <time>2017-09-16T07:11:40Z</time>
      </trkpt>
      <trkpt lat="45.69156" lon="6.21268">
        <ele>1425.78</ele>
        <time>2017-09-16T07:11:50Z</time>
      </trkpt>
      <trkpt lat="45.69142" lon="6.21256">
        <ele>1427.07</ele>
        <time>2017-09-16T07:12:04Z</time>
      </trkpt>
      <trkpt lat="45.69136" lon="6.21248">
        <ele>1427.83</ele>
        <time>2017-09-16T07:12:19Z</time>
      </trkpt>
      <trkpt lat="45.69114" lon="6.21222">
        <ele>1431.04</ele>
        <time>2017-09-16T07:12:31Z</time>
      </trkpt>
      <trkpt lat="45.69072" lon="6.212">
        <ele>1434.26</ele>
        <time>2017-09-16T07:12:50Z</time>
      </trkpt>
      <trkpt lat="45.69036" lon="6.21165">
        <ele>1437.42</ele>
        <time>2017-09-16T07:13:10Z</time>
      </trkpt>
      <trkpt lat="45.69031" lon="6.21195">
        <ele>1439.34</ele>
        <time>2017-09-16T07:13:22Z</time>
      </trkpt>
      <trkpt lat="45.69077" lon="6.21254">
        <ele>1442.07</ele>
        <time>2017-09-16T07:13:44Z</time>
      </trkpt>
      <trkpt lat="45.69077" lon="6.21278">
        <ele>1442.9</ele>
        <time>2017-09-16T07:13:50Z</time>
      </trkpt>
      <trkpt lat="45.69074" lon="6.2128">
        <ele>1443.13</ele>
        <time>2017-09-16T07:13:51Z</time>
      </trkpt>
      <trkpt lat="45.69071" lon="6.2128">
        <ele>1443.2</ele>
        <time>2017-09-16T07:13:52Z</time>
      </trkpt>
      <trkpt lat="45.69069" lon="6.21279">
        <ele>1443.16</ele>
        <time>2017-09-16T07:13:53Z</time>
      </trkpt>
      <trkpt lat="45.69066" lon="6.21277">
        <ele>1443.26</ele>
        <time>2017-09-16T07:13:54Z</time>
      </trkpt>
      <trkpt lat="45.69064" lon="6.21275">
        <ele>1443.46</ele>
        <time>2017-09-16T07:13:55Z</time>
      </trkpt>
      <trkpt lat="45.69062" lon="6.21272">
        <ele>1443.49</ele>
        <time>2017-09-16T07:13:56Z</time>
      </trkpt>
      <trkpt lat="45.6906" lon="6.21268">
        <ele>1443.78</ele>
        <time>2017-09-16T07:13:57Z</time>
      </trkpt>
      <trkpt lat="45.69031" lon="6.21237">
        <ele>1446.85</ele>
        <time>2017-09-16T07:14:10Z</time>
      </trkpt>
      <trkpt lat="45.69007" lon="6.21214">
        <ele>1449.96</ele>
        <time>2017-09-16T07:14:21Z</time>
      </trkpt>
      <trkpt lat="45.68979" lon="6.21184">
        <ele>1453.04</ele>
        <time>2017-09-16T07:14:35Z</time>
      </trkpt>
      <trkpt lat="45.68947" lon="6.21147">
        <ele>1456.36</ele>
        <time>2017-09-16T07:14:52Z</time>
      </trkpt>
      <trkpt lat="45.68921" lon="6.21171">
        <ele>1459.27</ele>
        <time>2017-09-16T07:15:07Z</time>
      </trkpt>
      <trkpt lat="45.68949" lon="6.21212">
        <ele>1461.7</ele>
        <time>2017-09-16T07:15:22Z</time>
      </trkpt>
      <trkpt lat="45.6895" lon="6.21233">
        <ele>1462.77</ele>
        <time>2017-09-16T07:15:28Z</time>
      </trkpt>
      <trkpt lat="45.68948" lon="6.21235">
        <ele>1462.52</ele>
        <time>2017-09-16T07:15:29Z</time>
      </trkpt>
      <trkpt lat="45.68946" lon="6.21237">
        <ele>1462.82</ele>
        <time>2017-09-16T07:15:30Z</time>
      </trkpt>
      <trkpt lat="45.68943" lon="6.21238">
        <ele>1462.68</ele>
        <time>2017-09-16T07:15:31Z</time>
      </trkpt>
      <trkpt lat="45.68941" lon="6.21238">
        <ele>1463.17</ele>
        <time>2017-09-16T07:15:32Z</time>
      </trkpt>
      <trkpt lat="45.68938" lon="6.21238">
        <ele>1463.2</ele>
        <time>2017-09-16T07:15:33Z</time>
      </trkpt>
      <trkpt lat="45.68936" lon="6.21238">
        <ele>1463.62</ele>
        <time>2017-09-16T07:15:34Z</time>
      </trkpt>
      <trkpt lat="45.68933" lon="6.21236">
        <ele>1463.93</ele>
        <time>2017-09-16T07:15:35Z</time>
      </trkpt>
      <trkpt lat="45.68931" lon="6.21234">
        <ele>1463.96</ele>
        <time>2017-09-16T07:15:36Z</time>
      </trkpt>
      <trkpt lat="45.68929" lon="6.21232">
        <ele>1463.76</ele>
        <time>2017-09-16T07:15:37Z</time>
      </trkpt>
      <trkpt lat="45.68914" lon="6.21217">
        <ele>1465.57</ele>
        <time>2017-09-16T07:15:44Z</time>
      </trkpt>
      <trkpt lat="45.68876" lon="6.212">
        <ele>1468.77</ele>
        <time>2017-09-16T07:16:00Z</time>
      </trkpt>
      <trkpt lat="45.68849" lon="6.21179">
        <ele>1471.89</ele>
        <time>2017-09-16T07:16:13Z</time>
      </trkpt>
      <trkpt lat="45.68823" lon="6.21156">
        <ele>1474.99</ele>
        <time>2017-09-16T07:16:26Z</time>
      </trkpt>
      <trkpt lat="45.68794" lon="6.21133">
        <ele>1478.3</ele>
        <time>2017-09-16T07:16:41Z</time>
      </trkpt>
      <trkpt lat="45.68771" lon="6.21113">
        <ele>1481.42</ele>
        <time>2017-09-16T07:16:54Z</time>
      </trkpt>
      <trkpt lat="45.6875" lon="6.21093">
        <ele>1484.73</ele>
        <time>2017-09-16T07:17:08Z</time>
      </trkpt>
      <trkpt lat="45.68748" lon="6.21094">
        <ele>1484.86</ele>
        <time>2017-09-16T07:17:09Z</time>
      </trkpt>
      <trkpt lat="45.68747" lon="6.21097">
        <ele>1485</ele>
        <time>2017-09-16T07:17:10Z</time>
      </trkpt>
      <trkpt lat="45.68746" lon="6.21099">
        <ele>1485.1</ele>
        <time>2017-09-16T07:17:11Z</time>
      </trkpt>
      <trkpt lat="45.68745" lon="6.21101">
        <ele>1485.23</ele>
        <time>2017-09-16T07:17:12Z</time>
      </trkpt>
      <trkpt lat="45.68744" lon="6.21104">
        <ele>1485.24</ele>
        <time>2017-09-16T07:17:13Z</time>
      </trkpt>
      <trkpt lat="45.68744" lon="6.21107">
        <ele>1485.44</ele>
        <time>2017-09-16T07:17:14Z</time>
      </trkpt>
      <trkpt lat="45.68744" lon="6.2111">
        <ele>1485.55</ele>
        <time>2017-09-16T07:17:15Z</time>
      </trkpt>
      <trkpt lat="45.68744" lon="6.21113">
        <ele>1486.06</ele>
        <time>2017-09-16T07:17:16Z</time>
      </trkpt>
      <trkpt lat="45.68745" lon="6.21116">
        <ele>1485.84</ele>
        <time>2017-09-16T07:17:17Z</time>
      </trkpt>
      <trkpt lat="45.68746" lon="6.21118">
        <ele>1486.61</ele>
        <time>2017-09-16T07:17:18Z</time>
      </trkpt>
      <trkpt lat="45.68774" lon="6.21168">
        <ele>1487.44</ele>
        <time>2017-09-16T07:17:36Z</time>
      </trkpt>
      <trkpt lat="45.68781" lon="6.21187">
        <ele>1488.03</ele>
        <time>2017-09-16T07:17:42Z</time>
      </trkpt>
      <trkpt lat="45.68781" lon="6.2119">
        <ele>1488.56</ele>
        <time>2017-09-16T07:17:43Z</time>
      </trkpt>
      <trkpt lat="45.68779" lon="6.21192">
        <ele>1488.46</ele>
        <time>2017-09-16T07:17:44Z</time>
      </trkpt>
      <trkpt lat="45.68777" lon="6.21194">
        <ele>1488.49</ele>
        <time>2017-09-16T07:17:45Z</time>
      </trkpt>
      <trkpt lat="45.68775" lon="6.21195">
        <ele>1489.03</ele>
        <time>2017-09-16T07:17:46Z</time>
      </trkpt>
      <trkpt lat="45.68773" lon="6.21196">
        <ele>1489.01</ele>
        <time>2017-09-16T07:17:47Z</time>
      </trkpt>
      <trkpt lat="45.6877" lon="6.21196">
        <ele>1489.64</ele>
        <time>2017-09-16T07:17:48Z</time>
      </trkpt>
      <trkpt lat="45.68768" lon="6.21195">
        <ele>1489.33</ele>
        <time>2017-09-16T07:17:49Z</time>
      </trkpt>
      <trkpt lat="45.68766" lon="6.21194">
        <ele>1489.88</ele>
        <time>2017-09-16T07:17:50Z</time>
      </trkpt>
      <trkpt lat="45.68742" lon="6.21168">
        <ele>1492.93</ele>
        <time>2017-09-16T07:18:03Z</time>
      </trkpt>
      <trkpt lat="45.68707" lon="6.2115">
        <ele>1496.13</ele>
        <time>2017-09-16T07:18:19Z</time>
      </trkpt>
      <trkpt lat="45.6868" lon="6.21154">
        <ele>1499.19</ele>
        <time>2017-09-16T07:18:30Z</time>
      </trkpt>
      <trkpt lat="45.68644" lon="6.21132">
        <ele>1502.57</ele>
        <time>2017-09-16T07:18:47Z</time>
      </trkpt>
      <trkpt lat="45.68617" lon="6.21082">
        <ele>1505.93</ele>
        <time>2017-09-16T07:19:05Z</time>
      </trkpt>
      <trkpt lat="45.68611" lon="6.21026">
        <ele>1509.39</ele>
        <time>2017-09-16T07:19:23Z</time>
      </trkpt>
      <trkpt lat="45.68589" lon="6.20968">
        <ele>1511.85</ele>
        <time>2017-09-16T07:19:45Z</time>
      </trkpt>
      <trkpt lat="45.68572" lon="6.20962">
        <ele>1511.02</ele>
        <time>2017-09-16T07:20:00Z</time>
      </trkpt>
      <trkpt lat="45.68573" lon="6.20959">
        <ele>1510.57</ele>
        <time>2017-09-16T07:20:22Z</time>
      </trkpt>
      <trkpt lat="45.68574" lon="6.20955">
        <ele>1510.45</ele>
        <time>2017-09-16T07:20:42Z</time>
      </trkpt>
      <trkpt lat="45.68579" lon="6.20963">
        <ele>1509.04</ele>
        <time>2017-09-16T07:20:58Z</time>
      </trkpt>
      <trkpt lat="45.68581" lon="6.20963">
        <ele>1508.47</ele>
        <time>2017-09-16T07:21:33Z</time>
      </trkpt>
      <trkpt lat="45.68582" lon="6.20964">
        <ele>1507.46</ele>
        <time>2017-09-16T07:22:14Z</time>
      </trkpt>
      <trkpt lat="45.68582" lon="6.20965">
        <ele>1507.74</ele>
        <time>2017-09-16T07:22:50Z</time>
      </trkpt>
      <trkpt lat="45.68582" lon="6.20965">
        <ele>1507.27</ele>
        <time>2017-09-16T07:23:24Z</time>
      </trkpt>
      <trkpt lat="45.68582" lon="6.20964">
        <ele>1506.46</ele>
        <time>2017-09-16T07:23:58Z</time>
      </trkpt>
      <trkpt lat="45.68583" lon="6.20963">
        <ele>1505.88</ele>
        <time>2017-09-16T07:24:54Z</time>
      </trkpt>
      <trkpt lat="45.68583" lon="6.20965">
        <ele>1505.13</ele>
        <time>2017-09-16T07:25:33Z</time>
      </trkpt>
      <trkpt lat="45.68581" lon="6.20964">
        <ele>1505.99</ele>
        <time>2017-09-16T07:26:00Z</time>
      </trkpt>
      <trkpt lat="45.68583" lon="6.20963">
        <ele>1505.15</ele>
        <time>2017-09-16T07:26:29Z</time>
      </trkpt>
      <trkpt lat="45.68583" lon="6.20967">
        <ele>1505.48</ele>
        <time>2017-09-16T07:26:59Z</time>
      </trkpt>
      <trkpt lat="45.68582" lon="6.20968">
        <ele>1505.63</ele>
        <time>2017-09-16T07:27:25Z</time>
      </trkpt>
      <trkpt lat="45.68582" lon="6.20967">
        <ele>1505.46</ele>
        <time>2017-09-16T07:27:57Z</time>
      </trkpt>
      <trkpt lat="45.68585" lon="6.20969">
        <ele>1504.87</ele>
        <time>2017-09-16T07:28:26Z</time>
      </trkpt>
      <trkpt lat="45.6859" lon="6.20972">
        <ele>1504.44</ele>
        <time>2017-09-16T07:28:34Z</time>
      </trkpt>
      <trkpt lat="45.6859" lon="6.20984">
        <ele>1507.56</ele>
        <time>2017-09-16T07:28:47Z</time>
      </trkpt>
      <trkpt lat="45.6859" lon="6.20986">
        <ele>1507.31</ele>
        <time>2017-09-16T07:28:48Z</time>
      </trkpt>
      <trkpt lat="45.68598" lon="6.21006">
        <ele>1507.38</ele>
        <time>2017-09-16T07:29:03Z</time>
      </trkpt>
      <trkpt lat="45.68601" lon="6.21027">
        <ele>1504.32</ele>
        <time>2017-09-16T07:29:17Z</time>
      </trkpt>
      <trkpt lat="45.68606" lon="6.21048">
        <ele>1501.01</ele>
        <time>2017-09-16T07:29:29Z</time>
      </trkpt>
      <trkpt lat="45.68605" lon="6.21069">
        <ele>1499.61</ele>
        <time>2017-09-16T07:29:39Z</time>
      </trkpt>
      <trkpt lat="45.68608" lon="6.21104">
        <ele>1499.12</ele>
        <time>2017-09-16T07:29:56Z</time>
      </trkpt>
      <trkpt lat="45.68609" lon="6.21116">
        <ele>1499.94</ele>
        <time>2017-09-16T07:30:02Z</time>
      </trkpt>
      <trkpt lat="45.68609" lon="6.21118">
        <ele>1500.38</ele>
        <time>2017-09-16T07:30:03Z</time>
      </trkpt>
      <trkpt lat="45.6861" lon="6.21136">
        <ele>1503.5</ele>
        <time>2017-09-16T07:30:15Z</time>
      </trkpt>
      <trkpt lat="45.68612" lon="6.21143">
        <ele>1504.45</ele>
        <time>2017-09-16T07:30:20Z</time>
      </trkpt>
      <trkpt lat="45.68612" lon="6.21144">
        <ele>1504.47</ele>
        <time>2017-09-16T07:30:21Z</time>
      </trkpt>
      <trkpt lat="45.68613" lon="6.21146">
        <ele>1504.39</ele>
        <time>2017-09-16T07:30:22Z</time>
      </trkpt>
      <trkpt lat="45.68613" lon="6.21148">
        <ele>1504.29</ele>
        <time>2017-09-16T07:30:23Z</time>
      </trkpt>
      <trkpt lat="45.68616" lon="6.21167">
        <ele>1505.52</ele>
        <time>2017-09-16T07:30:34Z</time>
      </trkpt>
      <trkpt lat="45.68618" lon="6.21173">
        <ele>1505.7</ele>
        <time>2017-09-16T07:30:38Z</time>
      </trkpt>
      <trkpt lat="45.6862" lon="6.21178">
        <ele>1505.67</ele>
        <time>2017-09-16T07:30:41Z</time>
      </trkpt>
      <trkpt lat="45.6862" lon="6.21186">
        <ele>1505.91</ele>
        <time>2017-09-16T07:30:47Z</time>
      </trkpt>
      <trkpt lat="45.68624" lon="6.21192">
        <ele>1504.56</ele>
        <time>2017-09-16T07:30:54Z</time>
      </trkpt>
      <trkpt lat="45.68625" lon="6.21199">
        <ele>1504.81</ele>
        <time>2017-09-16T07:30:58Z</time>
      </trkpt>
      <trkpt lat="45.68626" lon="6.21205">
        <ele>1504.71</ele>
        <time>2017-09-16T07:31:02Z</time>
      </trkpt>
      <trkpt lat="45.68626" lon="6.21215">
        <ele>1506.55</ele>
        <time>2017-09-16T07:31:09Z</time>
      </trkpt>
      <trkpt lat="45.68624" lon="6.21225">
        <ele>1509.62</ele>
        <time>2017-09-16T07:31:20Z</time>
      </trkpt>
      <trkpt lat="45.68623" lon="6.21235">
        <ele>1513</ele>
        <time>2017-09-16T07:31:29Z</time>
      </trkpt>
      <trkpt lat="45.68619" lon="6.21243">
        <ele>1516.18</ele>
        <time>2017-09-16T07:31:41Z</time>
      </trkpt>
      <trkpt lat="45.68618" lon="6.21246">
        <ele>1519.24</ele>
        <time>2017-09-16T07:31:52Z</time>
      </trkpt>
      <trkpt lat="45.68617" lon="6.21249">
        <ele>1520.42</ele>
        <time>2017-09-16T07:31:56Z</time>
      </trkpt>
      <trkpt lat="45.68614" lon="6.21262">
        <ele>1523.63</ele>
        <time>2017-09-16T07:32:10Z</time>
      </trkpt>
      <trkpt lat="45.68614" lon="6.2127">
        <ele>1526.63</ele>
        <time>2017-09-16T07:32:21Z</time>
      </trkpt>
      <trkpt lat="45.68613" lon="6.21272">
        <ele>1527.53</ele>
        <time>2017-09-16T07:32:23Z</time>
      </trkpt>
      <trkpt lat="45.68614" lon="6.21281">
        <ele>1531</ele>
        <time>2017-09-16T07:32:34Z</time>
      </trkpt>
      <trkpt lat="45.68614" lon="6.213">
        <ele>1534</ele>
        <time>2017-09-16T07:32:50Z</time>
      </trkpt>
      <trkpt lat="45.68604" lon="6.21331">
        <ele>1534.79</ele>
        <time>2017-09-16T07:33:11Z</time>
      </trkpt>
      <trkpt lat="45.68602" lon="6.21335">
        <ele>1534.78</ele>
        <time>2017-09-16T07:33:31Z</time>
      </trkpt>
      <trkpt lat="45.68603" lon="6.21335">
        <ele>1534.83</ele>
        <time>2017-09-16T07:34:00Z</time>
      </trkpt>
      <trkpt lat="45.68599" lon="6.2135">
        <ele>1536.84</ele>
        <time>2017-09-16T07:34:25Z</time>
      </trkpt>
      <trkpt lat="45.686" lon="6.21366">
        <ele>1539.07</ele>
        <time>2017-09-16T07:34:36Z</time>
      </trkpt>
      <trkpt lat="45.68595" lon="6.21389">
        <ele>1542.36</ele>
        <time>2017-09-16T07:34:50Z</time>
      </trkpt>
      <trkpt lat="45.68592" lon="6.21408">
        <ele>1545.51</ele>
        <time>2017-09-16T07:35:03Z</time>
      </trkpt>
      <trkpt lat="45.68592" lon="6.21423">
        <ele>1548.8</ele>
        <time>2017-09-16T07:35:17Z</time>
      </trkpt>
      <trkpt lat="45.68591" lon="6.21438">
        <ele>1552</ele>
        <time>2017-09-16T07:35:31Z</time>
      </trkpt>
      <trkpt lat="45.6859" lon="6.21448">
        <ele>1555.23</ele>
        <time>2017-09-16T07:35:43Z</time>
      </trkpt>
      <trkpt lat="45.68586" lon="6.21461">
        <ele>1558.63</ele>
        <time>2017-09-16T07:35:58Z</time>
      </trkpt>
      <trkpt lat="45.68593" lon="6.21469">
        <ele>1561.76</ele>
        <time>2017-09-16T07:36:13Z</time>
      </trkpt>
      <trkpt lat="45.68589" lon="6.21481">
        <ele>1564.88</ele>
        <time>2017-09-16T07:36:26Z</time>
      </trkpt>
      <trkpt lat="45.68593" lon="6.21489">
        <ele>1568.11</ele>
        <time>2017-09-16T07:36:37Z</time>
      </trkpt>
      <trkpt lat="45.68605" lon="6.21497">
        <ele>1571.26</ele>
        <time>2017-09-16T07:36:50Z</time>
      </trkpt>
      <trkpt lat="45.68616" lon="6.21511">
        <ele>1574.43</ele>
        <time>2017-09-16T07:37:06Z</time>
      </trkpt>
      <trkpt lat="45.68624" lon="6.2152">
        <ele>1576.57</ele>
        <time>2017-09-16T07:37:17Z</time>
      </trkpt>
      <trkpt lat="45.6863" lon="6.21537">
        <ele>1579.65</ele>
        <time>2017-09-16T07:37:35Z</time>
      </trkpt>
      <trkpt lat="45.68635" lon="6.21547">
        <ele>1582.79</ele>
        <time>2017-09-16T07:37:47Z</time>
      </trkpt>
      <trkpt lat="45.68641" lon="6.21554">
        <ele>1585.91</ele>
        <time>2017-09-16T07:37:57Z</time>
      </trkpt>
      <trkpt lat="45.68645" lon="6.21565">
        <ele>1588.92</ele>
        <time>2017-09-16T07:38:09Z</time>
      </trkpt>
      <trkpt lat="45.6865" lon="6.21568">
        <ele>1589.71</ele>
        <time>2017-09-16T07:38:14Z</time>
      </trkpt>
      <trkpt lat="45.68667" lon="6.21562">
        <ele>1593.1</ele>
        <time>2017-09-16T07:38:29Z</time>
      </trkpt>
      <trkpt lat="45.68675" lon="6.21558">
        <ele>1593.99</ele>
        <time>2017-09-16T07:38:38Z</time>
      </trkpt>
      <trkpt lat="45.68695" lon="6.21556">
        <ele>1597.59</ele>
        <time>2017-09-16T07:38:53Z</time>
      </trkpt>
      <trkpt lat="45.68697" lon="6.21564">
        <ele>1600.76</ele>
        <time>2017-09-16T07:39:07Z</time>
      </trkpt>
      <trkpt lat="45.68696" lon="6.21565">
        <ele>1601.1</ele>
        <time>2017-09-16T07:39:08Z</time>
      </trkpt>
      <trkpt lat="45.68677" lon="6.21586">
        <ele>1604.12</ele>
        <time>2017-09-16T07:39:26Z</time>
      </trkpt>
      <trkpt lat="45.68664" lon="6.21608">
        <ele>1607.96</ele>
        <time>2017-09-16T07:39:40Z</time>
      </trkpt>
      <trkpt lat="45.6866" lon="6.21619">
        <ele>1609.18</ele>
        <time>2017-09-16T07:39:48Z</time>
      </trkpt>
      <trkpt lat="45.68662" lon="6.2162">
        <ele>1610.21</ele>
        <time>2017-09-16T07:39:50Z</time>
      </trkpt>
      <trkpt lat="45.68678" lon="6.21621">
        <ele>1614.04</ele>
        <time>2017-09-16T07:40:03Z</time>
      </trkpt>
      <trkpt lat="45.68701" lon="6.21615">
        <ele>1617.36</ele>
        <time>2017-09-16T07:40:19Z</time>
      </trkpt>
      <trkpt lat="45.6872" lon="6.21615">
        <ele>1620.39</ele>
        <time>2017-09-16T07:40:33Z</time>
      </trkpt>
      <trkpt lat="45.68737" lon="6.21623">
        <ele>1622.54</ele>
        <time>2017-09-16T07:40:46Z</time>
      </trkpt>
      <trkpt lat="45.68743" lon="6.21626">
        <ele>1623.7</ele>
        <time>2017-09-16T07:40:50Z</time>
      </trkpt>
      <trkpt lat="45.68748" lon="6.21625">
        <ele>1624.23</ele>
        <time>2017-09-16T07:40:54Z</time>
      </trkpt>
      <trkpt lat="45.68758" lon="6.21629">
        <ele>1625.94</ele>
        <time>2017-09-16T07:41:02Z</time>
      </trkpt>
      <trkpt lat="45.68755" lon="6.21632">
        <ele>1627.72</ele>
        <time>2017-09-16T07:41:09Z</time>
      </trkpt>
      <trkpt lat="45.68741" lon="6.21644">
        <ele>1630.24</ele>
        <time>2017-09-16T07:41:22Z</time>
      </trkpt>
      <trkpt lat="45.6873" lon="6.21647">
        <ele>1631.58</ele>
        <time>2017-09-16T07:41:29Z</time>
      </trkpt>
      <trkpt lat="45.68713" lon="6.21661">
        <ele>1635.26</ele>
        <time>2017-09-16T07:41:43Z</time>
      </trkpt>
      <trkpt lat="45.68707" lon="6.21669">
        <ele>1636.04</ele>
        <time>2017-09-16T07:41:49Z</time>
      </trkpt>
      <trkpt lat="45.68702" lon="6.21672">
        <ele>1637.28</ele>
        <time>2017-09-16T07:41:53Z</time>
      </trkpt>
      <trkpt lat="45.68698" lon="6.2168">
        <ele>1637.57</ele>
        <time>2017-09-16T07:41:57Z</time>
      </trkpt>
      <trkpt lat="45.68686" lon="6.217">
        <ele>1640.05</ele>
        <time>2017-09-16T07:42:09Z</time>
      </trkpt>
      <trkpt lat="45.68677" lon="6.2171">
        <ele>1641.82</ele>
        <time>2017-09-16T07:42:19Z</time>
      </trkpt>
      <trkpt lat="45.68669" lon="6.21718">
        <ele>1643.67</ele>
        <time>2017-09-16T07:42:28Z</time>
      </trkpt>
      <trkpt lat="45.68681" lon="6.21728">
        <ele>1645.62</ele>
        <time>2017-09-16T07:42:38Z</time>
      </trkpt>
      <trkpt lat="45.68687" lon="6.21733">
        <ele>1647.4</ele>
        <time>2017-09-16T07:42:43Z</time>
      </trkpt>
      <trkpt lat="45.68711" lon="6.21738">
        <ele>1650.89</ele>
        <time>2017-09-16T07:42:59Z</time>
      </trkpt>
      <trkpt lat="45.68724" lon="6.21739">
        <ele>1652.57</ele>
        <time>2017-09-16T07:43:09Z</time>
      </trkpt>
      <trkpt lat="45.68724" lon="6.21741">
        <ele>1653.85</ele>
        <time>2017-09-16T07:43:12Z</time>
      </trkpt>
      <trkpt lat="45.68708" lon="6.21757">
        <ele>1656.52</ele>
        <time>2017-09-16T07:43:30Z</time>
      </trkpt>
      <trkpt lat="45.68694" lon="6.21765">
        <ele>1657.04</ele>
        <time>2017-09-16T07:43:41Z</time>
      </trkpt>
      <trkpt lat="45.68688" lon="6.21767">
        <ele>1658.83</ele>
        <time>2017-09-16T07:43:47Z</time>
      </trkpt>
      <trkpt lat="45.68677" lon="6.2177">
        <ele>1661.05</ele>
        <time>2017-09-16T07:43:56Z</time>
      </trkpt>
      <trkpt lat="45.68675" lon="6.2177">
        <ele>1661.34</ele>
        <time>2017-09-16T07:43:58Z</time>
      </trkpt>
      <trkpt lat="45.68675" lon="6.21778">
        <ele>1663.46</ele>
        <time>2017-09-16T07:44:06Z</time>
      </trkpt>
      <trkpt lat="45.68681" lon="6.21787">
        <ele>1665.19</ele>
        <time>2017-09-16T07:44:12Z</time>
      </trkpt>
      <trkpt lat="45.68687" lon="6.21798">
        <ele>1667.23</ele>
        <time>2017-09-16T07:44:19Z</time>
      </trkpt>
      <trkpt lat="45.68703" lon="6.21808">
        <ele>1669.23</ele>
        <time>2017-09-16T07:44:33Z</time>
      </trkpt>
      <trkpt lat="45.68718" lon="6.21816">
        <ele>1672.36</ele>
        <time>2017-09-16T07:44:45Z</time>
      </trkpt>
      <trkpt lat="45.68737" lon="6.21818">
        <ele>1674.5</ele>
        <time>2017-09-16T07:45:00Z</time>
      </trkpt>
      <trkpt lat="45.68743" lon="6.21819">
        <ele>1675.53</ele>
        <time>2017-09-16T07:45:05Z</time>
      </trkpt>
      <trkpt lat="45.68743" lon="6.21819">
        <ele>1676.83</ele>
        <time>2017-09-16T07:45:09Z</time>
      </trkpt>
      <trkpt lat="45.68734" lon="6.21824">
        <ele>1678.4</ele>
        <time>2017-09-16T07:45:19Z</time>
      </trkpt>
      <trkpt lat="45.68733" lon="6.21825">
        <ele>1679.15</ele>
        <time>2017-09-16T07:45:21Z</time>
      </trkpt>
      <trkpt lat="45.68721" lon="6.21837">
        <ele>1680.64</ele>
        <time>2017-09-16T07:45:33Z</time>
      </trkpt>
      <trkpt lat="45.68718" lon="6.21849">
        <ele>1683.5</ele>
        <time>2017-09-16T07:45:47Z</time>
      </trkpt>
      <trkpt lat="45.68732" lon="6.21855">
        <ele>1685.68</ele>
        <time>2017-09-16T07:45:58Z</time>
      </trkpt>
      <trkpt lat="45.68747" lon="6.21858">
        <ele>1687.67</ele>
        <time>2017-09-16T07:46:09Z</time>
      </trkpt>
      <trkpt lat="45.6875" lon="6.21855">
        <ele>1689.77</ele>
        <time>2017-09-16T07:46:19Z</time>
      </trkpt>
      <trkpt lat="45.68745" lon="6.21857">
        <ele>1690.39</ele>
        <time>2017-09-16T07:46:27Z</time>
      </trkpt>
      <trkpt lat="45.68739" lon="6.2186">
        <ele>1691.42</ele>
        <time>2017-09-16T07:46:31Z</time>
      </trkpt>
      <trkpt lat="45.68736" lon="6.21863">
        <ele>1692.38</ele>
        <time>2017-09-16T07:46:36Z</time>
      </trkpt>
      <trkpt lat="45.68741" lon="6.21871">
        <ele>1693.48</ele>
        <time>2017-09-16T07:46:41Z</time>
      </trkpt>
      <trkpt lat="45.68744" lon="6.21873">
        <ele>1694.23</ele>
        <time>2017-09-16T07:46:44Z</time>
      </trkpt>
      <trkpt lat="45.68748" lon="6.21874">
        <ele>1695.05</ele>
        <time>2017-09-16T07:46:47Z</time>
      </trkpt>
      <trkpt lat="45.68754" lon="6.21876">
        <ele>1697.42</ele>
        <time>2017-09-16T07:47:01Z</time>
      </trkpt>
      <trkpt lat="45.6876" lon="6.21878">
        <ele>1700.86</ele>
        <time>2017-09-16T07:47:12Z</time>
      </trkpt>
      <trkpt lat="45.68763" lon="6.21885">
        <ele>1703.71</ele>
        <time>2017-09-16T07:47:23Z</time>
      </trkpt>
      <trkpt lat="45.68763" lon="6.21895">
        <ele>1706.77</ele>
        <time>2017-09-16T07:47:35Z</time>
      </trkpt>
      <trkpt lat="45.68759" lon="6.21897">
        <ele>1707.51</ele>
        <time>2017-09-16T07:47:41Z</time>
      </trkpt>
      <trkpt lat="45.68761" lon="6.21901">
        <ele>1708.73</ele>
        <time>2017-09-16T07:47:45Z</time>
      </trkpt>
      <trkpt lat="45.68775" lon="6.21912">
        <ele>1712.4</ele>
        <time>2017-09-16T07:47:58Z</time>
      </trkpt>
      <trkpt lat="45.68786" lon="6.21907">
        <ele>1715.55</ele>
        <time>2017-09-16T07:48:11Z</time>
      </trkpt>
      <trkpt lat="45.68786" lon="6.21909">
        <ele>1715.85</ele>
        <time>2017-09-16T07:48:12Z</time>
      </trkpt>
      <trkpt lat="45.68789" lon="6.2192">
        <ele>1719.1</ele>
        <time>2017-09-16T07:48:26Z</time>
      </trkpt>
      <trkpt lat="45.68793" lon="6.21919">
        <ele>1722.29</ele>
        <time>2017-09-16T07:48:36Z</time>
      </trkpt>
      <trkpt lat="45.68795" lon="6.2192">
        <ele>1723.62</ele>
        <time>2017-09-16T07:48:39Z</time>
      </trkpt>
      <trkpt lat="45.68804" lon="6.2192">
        <ele>1726.66</ele>
        <time>2017-09-16T07:48:52Z</time>
      </trkpt>
      <trkpt lat="45.68812" lon="6.21924">
        <ele>1729.76</ele>
        <time>2017-09-16T07:49:05Z</time>
      </trkpt>
      <trkpt lat="45.68821" lon="6.21923">
        <ele>1733.18</ele>
        <time>2017-09-16T07:49:19Z</time>
      </trkpt>
      <trkpt lat="45.68831" lon="6.2192">
        <ele>1736.52</ele>
        <time>2017-09-16T07:49:35Z</time>
      </trkpt>
      <trkpt lat="45.68838" lon="6.21922">
        <ele>1739.75</ele>
        <time>2017-09-16T07:49:46Z</time>
      </trkpt>
      <trkpt lat="45.68842" lon="6.21923">
        <ele>1742.5</ele>
        <time>2017-09-16T07:50:01Z</time>
      </trkpt>
      <trkpt lat="45.6885" lon="6.21925">
        <ele>1745.54</ele>
        <time>2017-09-16T07:50:13Z</time>
      </trkpt>
      <trkpt lat="45.68863" lon="6.21918">
        <ele>1746.38</ele>
        <time>2017-09-16T07:50:30Z</time>
      </trkpt>
      <trkpt lat="45.68886" lon="6.21923">
        <ele>1745.8</ele>
        <time>2017-09-16T07:50:48Z</time>
      </trkpt>
      <trkpt lat="45.68903" lon="6.21902">
        <ele>1749.27</ele>
        <time>2017-09-16T07:51:05Z</time>
      </trkpt>
      <trkpt lat="45.68904" lon="6.21901">
        <ele>1749.67</ele>
        <time>2017-09-16T07:51:06Z</time>
      </trkpt>
      <trkpt lat="45.68907" lon="6.21897">
        <ele>1749.96</ele>
        <time>2017-09-16T07:51:10Z</time>
      </trkpt>
      <trkpt lat="45.6892" lon="6.21878">
        <ele>1752.87</ele>
        <time>2017-09-16T07:51:25Z</time>
      </trkpt>
      <trkpt lat="45.68921" lon="6.21818">
        <ele>1754.33</ele>
        <time>2017-09-16T07:51:37Z</time>
      </trkpt>
      <trkpt lat="45.6892" lon="6.21806">
        <ele>1754.95</ele>
        <time>2017-09-16T07:51:39Z</time>
      </trkpt>
      <trkpt lat="45.68912" lon="6.21812">
        <ele>1756.97</ele>
        <time>2017-09-16T07:51:54Z</time>
      </trkpt>
      <trkpt lat="45.68912" lon="6.21826">
        <ele>1759.94</ele>
        <time>2017-09-16T07:52:06Z</time>
      </trkpt>
      <trkpt lat="45.68909" lon="6.2183">
        <ele>1759.86</ele>
        <time>2017-09-16T07:52:39Z</time>
      </trkpt>
      <trkpt lat="45.68912" lon="6.21822">
        <ele>1758.83</ele>
        <time>2017-09-16T07:53:05Z</time>
      </trkpt>
      <trkpt lat="45.68913" lon="6.21823">
        <ele>1759.22</ele>
        <time>2017-09-16T07:53:40Z</time>
      </trkpt>
      <trkpt lat="45.68914" lon="6.21821">
        <ele>1760.17</ele>
        <time>2017-09-16T07:54:06Z</time>
      </trkpt>
      <trkpt lat="45.68909" lon="6.21837">
        <ele>1761.62</ele>
        <time>2017-09-16T07:54:33Z</time>
      </trkpt>
      <trkpt lat="45.68896" lon="6.21863">
        <ele>1764.64</ele>
        <time>2017-09-16T07:54:49Z</time>
      </trkpt>
      <trkpt lat="45.68891" lon="6.2188">
        <ele>1767.88</ele>
        <time>2017-09-16T07:55:01Z</time>
      </trkpt>
      <trkpt lat="45.68894" lon="6.2188">
        <ele>1768.24</ele>
        <time>2017-09-16T07:55:04Z</time>
      </trkpt>
      <trkpt lat="45.6891" lon="6.21884">
        <ele>1771.29</ele>
        <time>2017-09-16T07:55:16Z</time>
      </trkpt>
      <trkpt lat="45.6892" lon="6.21882">
        <ele>1772.59</ele>
        <time>2017-09-16T07:55:31Z</time>
      </trkpt>
      <trkpt lat="45.68917" lon="6.21884">
        <ele>1773.77</ele>
        <time>2017-09-16T07:56:04Z</time>
      </trkpt>
      <trkpt lat="45.6892" lon="6.2189">
        <ele>1773.66</ele>
        <time>2017-09-16T07:56:20Z</time>
      </trkpt>
      <trkpt lat="45.68937" lon="6.21913">
        <ele>1777.16</ele>
        <time>2017-09-16T07:56:40Z</time>
      </trkpt>
      <trkpt lat="45.68947" lon="6.21933">
        <ele>1779.65</ele>
        <time>2017-09-16T07:56:53Z</time>
      </trkpt>
      <trkpt lat="45.68953" lon="6.21946">
        <ele>1782.74</ele>
        <time>2017-09-16T07:57:03Z</time>
      </trkpt>
      <trkpt lat="45.68959" lon="6.2196">
        <ele>1784.29</ele>
        <time>2017-09-16T07:57:12Z</time>
      </trkpt>
      <trkpt lat="45.68961" lon="6.21963">
        <ele>1785.75</ele>
        <time>2017-09-16T07:57:14Z</time>
      </trkpt>
      <trkpt lat="45.68962" lon="6.21964">
        <ele>1785.21</ele>
        <time>2017-09-16T07:57:15Z</time>
      </trkpt>
      <trkpt lat="45.68981" lon="6.21957">
        <ele>1788.52</ele>
        <time>2017-09-16T07:57:30Z</time>
      </trkpt>
      <trkpt lat="45.68994" lon="6.21953">
        <ele>1790.55</ele>
        <time>2017-09-16T07:57:42Z</time>
      </trkpt>
      <trkpt lat="45.68991" lon="6.21958">
        <ele>1791.95</ele>
        <time>2017-09-16T07:57:46Z</time>
      </trkpt>
      <trkpt lat="45.6897" lon="6.21971">
        <ele>1795.57</ele>
        <time>2017-09-16T07:58:04Z</time>
      </trkpt>
      <trkpt lat="45.68957" lon="6.21974">
        <ele>1797.39</ele>
        <time>2017-09-16T07:58:15Z</time>
      </trkpt>
      <trkpt lat="45.68964" lon="6.21982">
        <ele>1801.06</ele>
        <time>2017-09-16T07:58:24Z</time>
      </trkpt>
      <trkpt lat="45.68965" lon="6.21983">
        <ele>1800.96</ele>
        <time>2017-09-16T07:58:25Z</time>
      </trkpt>
      <trkpt lat="45.6898" lon="6.21996">
        <ele>1803.4</ele>
        <time>2017-09-16T07:58:41Z</time>
      </trkpt>
      <trkpt lat="45.68978" lon="6.21997">
        <ele>1803.4</ele>
        <time>2017-09-16T07:59:09Z</time>
      </trkpt>
      <trkpt lat="45.6897" lon="6.22">
        <ele>1806.74</ele>
        <time>2017-09-16T07:59:35Z</time>
      </trkpt>
      <trkpt lat="45.68962" lon="6.22001">
        <ele>1810.27</ele>
        <time>2017-09-16T07:59:45Z</time>
      </trkpt>
      <trkpt lat="45.68959" lon="6.22002">
        <ele>1812.2</ele>
        <time>2017-09-16T07:59:50Z</time>
      </trkpt>
      <trkpt lat="45.68952" lon="6.22003">
        <ele>1815.67</ele>
        <time>2017-09-16T08:00:00Z</time>
      </trkpt>
      <trkpt lat="45.68952" lon="6.22003">
        <ele>1815.96</ele>
        <time>2017-09-16T08:00:01Z</time>
      </trkpt>
      <trkpt lat="45.68949" lon="6.22004">
        <ele>1816.95</ele>
        <time>2017-09-16T08:00:05Z</time>
      </trkpt>
      <trkpt lat="45.68941" lon="6.22005">
        <ele>1820.1</ele>
        <time>2017-09-16T08:00:14Z</time>
      </trkpt>
      <trkpt lat="45.68941" lon="6.22005">
        <ele>1820.29</ele>
        <time>2017-09-16T08:00:15Z</time>
      </trkpt>
      <trkpt lat="45.68931" lon="6.22008">
        <ele>1823.48</ele>
        <time>2017-09-16T08:00:27Z</time>
      </trkpt>
      <trkpt lat="45.68924" lon="6.22009">
        <ele>1826.78</ele>
        <time>2017-09-16T08:00:39Z</time>
      </trkpt>
      <trkpt lat="45.68921" lon="6.2201">
        <ele>1830.04</ele>
        <time>2017-09-16T08:00:49Z</time>
      </trkpt>
      <trkpt lat="45.68915" lon="6.22012">
        <ele>1833.22</ele>
        <time>2017-09-16T08:01:02Z</time>
      </trkpt>
      <trkpt lat="45.68909" lon="6.22014">
        <ele>1836.59</ele>
        <time>2017-09-16T08:01:12Z</time>
      </trkpt>
      <trkpt lat="45.68901" lon="6.22008">
        <ele>1839.69</ele>
        <time>2017-09-16T08:01:28Z</time>
      </trkpt>
      <trkpt lat="45.68888" lon="6.22009">
        <ele>1843.02</ele>
        <time>2017-09-16T08:01:42Z</time>
      </trkpt>
      <trkpt lat="45.68882" lon="6.22015">
        <ele>1847.09</ele>
        <time>2017-09-16T08:01:56Z</time>
      </trkpt>
      <trkpt lat="45.68884" lon="6.22025">
        <ele>1850.17</ele>
        <time>2017-09-16T08:02:09Z</time>
      </trkpt>
      <trkpt lat="45.6888" lon="6.2203">
        <ele>1853.32</ele>
        <time>2017-09-16T08:02:20Z</time>
      </trkpt>
      <trkpt lat="45.68873" lon="6.22037">
        <ele>1856.5</ele>
        <time>2017-09-16T08:02:33Z</time>
      </trkpt>
      <trkpt lat="45.6887" lon="6.22042">
        <ele>1858.23</ele>
        <time>2017-09-16T08:02:39Z</time>
      </trkpt>
      <trkpt lat="45.68867" lon="6.22049">
        <ele>1859.88</ele>
        <time>2017-09-16T08:02:45Z</time>
      </trkpt>
      <trkpt lat="45.68865" lon="6.22053">
        <ele>1861.02</ele>
        <time>2017-09-16T08:02:49Z</time>
      </trkpt>
      <trkpt lat="45.68863" lon="6.22057">
        <ele>1862.38</ele>
        <time>2017-09-16T08:02:54Z</time>
      </trkpt>
      <trkpt lat="45.68862" lon="6.22065">
        <ele>1865.53</ele>
        <time>2017-09-16T08:03:04Z</time>
      </trkpt>
      <trkpt lat="45.68861" lon="6.22074">
        <ele>1869.03</ele>
        <time>2017-09-16T08:03:13Z</time>
      </trkpt>
      <trkpt lat="45.68863" lon="6.22075">
        <ele>1869.14</ele>
        <time>2017-09-16T08:03:14Z</time>
      </trkpt>
      <trkpt lat="45.6886" lon="6.22086">
        <ele>1872.47</ele>
        <time>2017-09-16T08:03:28Z</time>
      </trkpt>
      <trkpt lat="45.68859" lon="6.22087">
        <ele>1872.77</ele>
        <time>2017-09-16T08:03:29Z</time>
      </trkpt>
      <trkpt lat="45.68859" lon="6.22091">
        <ele>1874.46</ele>
        <time>2017-09-16T08:03:36Z</time>
      </trkpt>
      <trkpt lat="45.68861" lon="6.221">
        <ele>1877.72</ele>
        <time>2017-09-16T08:03:45Z</time>
      </trkpt>
      <trkpt lat="45.68859" lon="6.22104">
        <ele>1881.08</ele>
        <time>2017-09-16T08:03:55Z</time>
      </trkpt>
      <trkpt lat="45.68861" lon="6.22105">
        <ele>1883.29</ele>
        <time>2017-09-16T08:04:04Z</time>
      </trkpt>
      <trkpt lat="45.68863" lon="6.22111">
        <ele>1886.29</ele>
        <time>2017-09-16T08:04:17Z</time>
      </trkpt>
      <trkpt lat="45.68864" lon="6.22109">
        <ele>1889.37</ele>
        <time>2017-09-16T08:04:26Z</time>
      </trkpt>
      <trkpt lat="45.68869" lon="6.22111">
        <ele>1892.68</ele>
        <time>2017-09-16T08:04:38Z</time>
      </trkpt>
      <trkpt lat="45.68873" lon="6.22114">
        <ele>1895.04</ele>
        <time>2017-09-16T08:04:46Z</time>
      </trkpt>
      <trkpt lat="45.68877" lon="6.22116">
        <ele>1897.71</ele>
        <time>2017-09-16T08:04:55Z</time>
      </trkpt>
      <trkpt lat="45.68879" lon="6.22118">
        <ele>1898.92</ele>
        <time>2017-09-16T08:04:59Z</time>
      </trkpt>
      <trkpt lat="45.68877" lon="6.22126">
        <ele>1902.3</ele>
        <time>2017-09-16T08:05:15Z</time>
      </trkpt>
      <trkpt lat="45.68874" lon="6.22136">
        <ele>1905.58</ele>
        <time>2017-09-16T08:05:30Z</time>
      </trkpt>
      <trkpt lat="45.68873" lon="6.22142">
        <ele>1908.78</ele>
        <time>2017-09-16T08:05:40Z</time>
      </trkpt>
      <trkpt lat="45.68873" lon="6.22146">
        <ele>1909.97</ele>
        <time>2017-09-16T08:05:46Z</time>
      </trkpt>
      <trkpt lat="45.68873" lon="6.22151">
        <ele>1911.65</ele>
        <time>2017-09-16T08:05:52Z</time>
      </trkpt>
      <trkpt lat="45.6887" lon="6.22158">
        <ele>1914.67</ele>
        <time>2017-09-16T08:06:03Z</time>
      </trkpt>
      <trkpt lat="45.68871" lon="6.2217">
        <ele>1917.88</ele>
        <time>2017-09-16T08:06:14Z</time>
      </trkpt>
      <trkpt lat="45.68874" lon="6.22172">
        <ele>1921.24</ele>
        <time>2017-09-16T08:06:26Z</time>
      </trkpt>
      <trkpt lat="45.68873" lon="6.22173">
        <ele>1923.13</ele>
        <time>2017-09-16T08:06:32Z</time>
      </trkpt>
      <trkpt lat="45.68871" lon="6.22176">
        <ele>1926.16</ele>
        <time>2017-09-16T08:06:45Z</time>
      </trkpt>
      <trkpt lat="45.68871" lon="6.22177">
        <ele>1926.82</ele>
        <time>2017-09-16T08:06:47Z</time>
      </trkpt>
      <trkpt lat="45.68867" lon="6.22181">
        <ele>1930.04</ele>
        <time>2017-09-16T08:06:59Z</time>
      </trkpt>
      <trkpt lat="45.68866" lon="6.22185">
        <ele>1931.83</ele>
        <time>2017-09-16T08:07:23Z</time>
      </trkpt>
      <trkpt lat="45.68858" lon="6.22191">
        <ele>1935.59</ele>
        <time>2017-09-16T08:07:46Z</time>
      </trkpt>
      <trkpt lat="45.68854" lon="6.22196">
        <ele>1938.24</ele>
        <time>2017-09-16T08:07:56Z</time>
      </trkpt>
      <trkpt lat="45.68849" lon="6.22202">
        <ele>1941.46</ele>
        <time>2017-09-16T08:08:06Z</time>
      </trkpt>
      <trkpt lat="45.68843" lon="6.22208">
        <ele>1944.62</ele>
        <time>2017-09-16T08:08:17Z</time>
      </trkpt>
      <trkpt lat="45.6884" lon="6.22216">
        <ele>1947.82</ele>
        <time>2017-09-16T08:08:28Z</time>
      </trkpt>
      <trkpt lat="45.68837" lon="6.2222">
        <ele>1948.77</ele>
        <time>2017-09-16T08:08:32Z</time>
      </trkpt>
      <trkpt lat="45.68827" lon="6.22229">
        <ele>1951.38</ele>
        <time>2017-09-16T08:08:45Z</time>
      </trkpt>
      <trkpt lat="45.68824" lon="6.22233">
        <ele>1953.02</ele>
        <time>2017-09-16T08:08:50Z</time>
      </trkpt>
      <trkpt lat="45.68812" lon="6.22241">
        <ele>1956.05</ele>
        <time>2017-09-16T08:09:06Z</time>
      </trkpt>
      <trkpt lat="45.68802" lon="6.22243">
        <ele>1957.24</ele>
        <time>2017-09-16T08:09:22Z</time>
      </trkpt>
      <trkpt lat="45.68779" lon="6.22245">
        <ele>1960.77</ele>
        <time>2017-09-16T08:09:43Z</time>
      </trkpt>
      <trkpt lat="45.68768" lon="6.22243">
        <ele>1964.12</ele>
        <time>2017-09-16T08:09:54Z</time>
      </trkpt>
      <trkpt lat="45.68765" lon="6.22242">
        <ele>1965.89</ele>
        <time>2017-09-16T08:10:01Z</time>
      </trkpt>
      <trkpt lat="45.68747" lon="6.22244">
        <ele>1965.46</ele>
        <time>2017-09-16T08:10:24Z</time>
      </trkpt>
      <trkpt lat="45.68744" lon="6.22246">
        <ele>1963.16</ele>
        <time>2017-09-16T08:10:31Z</time>
      </trkpt>
      <trkpt lat="45.6874" lon="6.22246">
        <ele>1959.81</ele>
        <time>2017-09-16T08:10:40Z</time>
      </trkpt>
      <trkpt lat="45.68739" lon="6.22246">
        <ele>1958.9</ele>
        <time>2017-09-16T08:10:42Z</time>
      </trkpt>
      <trkpt lat="45.68735" lon="6.22246">
        <ele>1956.6</ele>
        <time>2017-09-16T08:10:47Z</time>
      </trkpt>
      <trkpt lat="45.68729" lon="6.22247">
        <ele>1953.19</ele>
        <time>2017-09-16T08:10:57Z</time>
      </trkpt>
      <trkpt lat="45.68725" lon="6.22248">
        <ele>1950.18</ele>
        <time>2017-09-16T08:11:06Z</time>
      </trkpt>
      <trkpt lat="45.68724" lon="6.2225">
        <ele>1948.96</ele>
        <time>2017-09-16T08:11:34Z</time>
      </trkpt>
      <trkpt lat="45.68718" lon="6.22252">
        <ele>1945.96</ele>
        <time>2017-09-16T08:11:42Z</time>
      </trkpt>
      <trkpt lat="45.68712" lon="6.22249">
        <ele>1943.38</ele>
        <time>2017-09-16T08:11:47Z</time>
      </trkpt>
      <trkpt lat="45.68707" lon="6.22245">
        <ele>1940.26</ele>
        <time>2017-09-16T08:11:52Z</time>
      </trkpt>
      <trkpt lat="45.68701" lon="6.22239">
        <ele>1936.97</ele>
        <time>2017-09-16T08:11:58Z</time>
      </trkpt>
      <trkpt lat="45.68698" lon="6.22237">
        <ele>1935.64</ele>
        <time>2017-09-16T08:12:01Z</time>
      </trkpt>
      <trkpt lat="45.6869" lon="6.22232">
        <ele>1931.47</ele>
        <time>2017-09-16T08:12:08Z</time>
      </trkpt>
      <trkpt lat="45.68688" lon="6.22231">
        <ele>1930.13</ele>
        <time>2017-09-16T08:12:10Z</time>
      </trkpt>
      <trkpt lat="45.68681" lon="6.22229">
        <ele>1927.02</ele>
        <time>2017-09-16T08:12:15Z</time>
      </trkpt>
      <trkpt lat="45.68673" lon="6.22228">
        <ele>1923.84</ele>
        <time>2017-09-16T08:12:21Z</time>
      </trkpt>
      <trkpt lat="45.68672" lon="6.22228">
        <ele>1923.84</ele>
        <time>2017-09-16T08:12:22Z</time>
      </trkpt>
      <trkpt lat="45.68662" lon="6.22227">
        <ele>1920.78</ele>
        <time>2017-09-16T08:12:29Z</time>
      </trkpt>
      <trkpt lat="45.68661" lon="6.22228">
        <ele>1920.55</ele>
        <time>2017-09-16T08:12:30Z</time>
      </trkpt>
      <trkpt lat="45.68656" lon="6.22226">
        <ele>1919.05</ele>
        <time>2017-09-16T08:12:33Z</time>
      </trkpt>
      <trkpt lat="45.68649" lon="6.22224">
        <ele>1915.95</ele>
        <time>2017-09-16T08:12:38Z</time>
      </trkpt>
      <trkpt lat="45.68637" lon="6.22223">
        <ele>1913.82</ele>
        <time>2017-09-16T08:12:45Z</time>
      </trkpt>
      <trkpt lat="45.6862" lon="6.22221">
        <ele>1910.66</ele>
        <time>2017-09-16T08:12:59Z</time>
      </trkpt>
      <trkpt lat="45.68614" lon="6.22221">
        <ele>1909.37</ele>
        <time>2017-09-16T08:13:04Z</time>
      </trkpt>
      <trkpt lat="45.6861" lon="6.22231">
        <ele>1907.83</ele>
        <time>2017-09-16T08:13:22Z</time>
      </trkpt>
      <trkpt lat="45.68605" lon="6.22235">
        <ele>1907.62</ele>
        <time>2017-09-16T08:13:37Z</time>
      </trkpt>
      <trkpt lat="45.68592" lon="6.22242">
        <ele>1906.01</ele>
        <time>2017-09-16T08:13:42Z</time>
      </trkpt>
      <trkpt lat="45.68581" lon="6.22245">
        <ele>1903.65</ele>
        <time>2017-09-16T08:13:46Z</time>
      </trkpt>
      <trkpt lat="45.68574" lon="6.22247">
        <ele>1902.17</ele>
        <time>2017-09-16T08:13:49Z</time>
      </trkpt>
      <trkpt lat="45.68552" lon="6.22264">
        <ele>1898.71</ele>
        <time>2017-09-16T08:13:58Z</time>
      </trkpt>
      <trkpt lat="45.68533" lon="6.22265">
        <ele>1897.25</ele>
        <time>2017-09-16T08:14:08Z</time>
      </trkpt>
      <trkpt lat="45.6853" lon="6.22268">
        <ele>1898</ele>
        <time>2017-09-16T08:14:12Z</time>
      </trkpt>
      <trkpt lat="45.68528" lon="6.22271">
        <ele>1898.76</ele>
        <time>2017-09-16T08:14:15Z</time>
      </trkpt>
      <trkpt lat="45.68527" lon="6.22275">
        <ele>1899.88</ele>
        <time>2017-09-16T08:14:18Z</time>
      </trkpt>
      <trkpt lat="45.68518" lon="6.22286">
        <ele>1903.25</ele>
        <time>2017-09-16T08:14:38Z</time>
      </trkpt>
      <trkpt lat="45.68511" lon="6.22292">
        <ele>1906.39</ele>
        <time>2017-09-16T08:14:49Z</time>
      </trkpt>
      <trkpt lat="45.68503" lon="6.223">
        <ele>1909.57</ele>
        <time>2017-09-16T08:15:03Z</time>
      </trkpt>
      <trkpt lat="45.68502" lon="6.22301">
        <ele>1910.87</ele>
        <time>2017-09-16T08:15:05Z</time>
      </trkpt>
      <trkpt lat="45.68497" lon="6.22305">
        <ele>1914.71</ele>
        <time>2017-09-16T08:15:19Z</time>
      </trkpt>
      <trkpt lat="45.68493" lon="6.22308">
        <ele>1917.84</ele>
        <time>2017-09-16T08:15:30Z</time>
      </trkpt>
      <trkpt lat="45.68489" lon="6.22315">
        <ele>1921.3</ele>
        <time>2017-09-16T08:15:40Z</time>
      </trkpt>
      <trkpt lat="45.68485" lon="6.22318">
        <ele>1924.33</ele>
        <time>2017-09-16T08:15:52Z</time>
      </trkpt>
      <trkpt lat="45.68482" lon="6.22322">
        <ele>1927.39</ele>
        <time>2017-09-16T08:16:03Z</time>
      </trkpt>
      <trkpt lat="45.68481" lon="6.22325">
        <ele>1930.79</ele>
        <time>2017-09-16T08:16:14Z</time>
      </trkpt>
      <trkpt lat="45.6848" lon="6.22328">
        <ele>1932.33</ele>
        <time>2017-09-16T08:16:20Z</time>
      </trkpt>
      <trkpt lat="45.68479" lon="6.22332">
        <ele>1935.36</ele>
        <time>2017-09-16T08:16:29Z</time>
      </trkpt>
      <trkpt lat="45.68481" lon="6.22334">
        <ele>1938.79</ele>
        <time>2017-09-16T08:16:43Z</time>
      </trkpt>
      <trkpt lat="45.68479" lon="6.22343">
        <ele>1942.23</ele>
        <time>2017-09-16T08:16:54Z</time>
      </trkpt>
      <trkpt lat="45.68477" lon="6.22346">
        <ele>1945.48</ele>
        <time>2017-09-16T08:17:06Z</time>
      </trkpt>
      <trkpt lat="45.68477" lon="6.2235">
        <ele>1948.55</ele>
        <time>2017-09-16T08:17:19Z</time>
      </trkpt>
      <trkpt lat="45.68472" lon="6.22358">
        <ele>1951.61</ele>
        <time>2017-09-16T08:17:29Z</time>
      </trkpt>
      <trkpt lat="45.68465" lon="6.22362">
        <ele>1955.15</ele>
        <time>2017-09-16T08:17:42Z</time>
      </trkpt>
      <trkpt lat="45.68459" lon="6.22365">
        <ele>1958.29</ele>
        <time>2017-09-16T08:17:57Z</time>
      </trkpt>
      <trkpt lat="45.68454" lon="6.22369">
        <ele>1961.4</ele>
        <time>2017-09-16T08:18:08Z</time>
      </trkpt>
      <trkpt lat="45.68454" lon="6.22369">
        <ele>1961.67</ele>
        <time>2017-09-16T08:18:09Z</time>
      </trkpt>
      <trkpt lat="45.68448" lon="6.22377">
        <ele>1965.08</ele>
        <time>2017-09-16T08:18:27Z</time>
      </trkpt>
      <trkpt lat="45.68446" lon="6.2238">
        <ele>1966.76</ele>
        <time>2017-09-16T08:18:33Z</time>
      </trkpt>
      <trkpt lat="45.68443" lon="6.22386">
        <ele>1970.05</ele>
        <time>2017-09-16T08:18:42Z</time>
      </trkpt>
      <trkpt lat="45.68443" lon="6.22386">
        <ele>1970.15</ele>
        <time>2017-09-16T08:18:43Z</time>
      </trkpt>
      <trkpt lat="45.68439" lon="6.22392">
        <ele>1972.43</ele>
        <time>2017-09-16T08:18:52Z</time>
      </trkpt>
      <trkpt lat="45.68436" lon="6.22397">
        <ele>1976.01</ele>
        <time>2017-09-16T08:19:03Z</time>
      </trkpt>
      <trkpt lat="45.68434" lon="6.22405">
        <ele>1979.25</ele>
        <time>2017-09-16T08:19:15Z</time>
      </trkpt>
      <trkpt lat="45.68432" lon="6.22408">
        <ele>1982.49</ele>
        <time>2017-09-16T08:19:26Z</time>
      </trkpt>
      <trkpt lat="45.6843" lon="6.2241">
        <ele>1986</ele>
        <time>2017-09-16T08:19:39Z</time>
      </trkpt>
      <trkpt lat="45.68428" lon="6.22413">
        <ele>1988.1</ele>
        <time>2017-09-16T08:19:47Z</time>
      </trkpt>
      <trkpt lat="45.68425" lon="6.22416">
        <ele>1991.27</ele>
        <time>2017-09-16T08:19:57Z</time>
      </trkpt>
      <trkpt lat="45.68423" lon="6.2242">
        <ele>1994.96</ele>
        <time>2017-09-16T08:20:08Z</time>
      </trkpt>
      <trkpt lat="45.68422" lon="6.22421">
        <ele>1995.07</ele>
        <time>2017-09-16T08:20:09Z</time>
      </trkpt>
      <trkpt lat="45.68412" lon="6.22438">
        <ele>1997.53</ele>
        <time>2017-09-16T08:20:35Z</time>
      </trkpt>
      <trkpt lat="45.6841" lon="6.22448">
        <ele>2000.04</ele>
        <time>2017-09-16T08:20:51Z</time>
      </trkpt>
      <trkpt lat="45.68407" lon="6.22462">
        <ele>2003.15</ele>
        <time>2017-09-16T08:21:09Z</time>
      </trkpt>
      <trkpt lat="45.68408" lon="6.22474">
        <ele>2006.32</ele>
        <time>2017-09-16T08:21:25Z</time>
      </trkpt>
      <trkpt lat="45.6841" lon="6.22486">
        <ele>2007.47</ele>
        <time>2017-09-16T08:21:44Z</time>
      </trkpt>
      <trkpt lat="45.68404" lon="6.22505">
        <ele>2008.43</ele>
        <time>2017-09-16T08:22:09Z</time>
      </trkpt>
      <trkpt lat="45.684" lon="6.22531">
        <ele>2012.07</ele>
        <time>2017-09-16T08:22:28Z</time>
      </trkpt>
      <trkpt lat="45.684" lon="6.22533">
        <ele>2012.68</ele>
        <time>2017-09-16T08:22:30Z</time>
      </trkpt>
      <trkpt lat="45.684" lon="6.22539">
        <ele>2015.88</ele>
        <time>2017-09-16T08:22:38Z</time>
      </trkpt>
      <trkpt lat="45.68398" lon="6.22556">
        <ele>2019.49</ele>
        <time>2017-09-16T08:22:53Z</time>
      </trkpt>
      <trkpt lat="45.68398" lon="6.22569">
        <ele>2022.57</ele>
        <time>2017-09-16T08:23:05Z</time>
      </trkpt>
      <trkpt lat="45.68398" lon="6.22578">
        <ele>2025.66</ele>
        <time>2017-09-16T08:23:14Z</time>
      </trkpt>
      <trkpt lat="45.684" lon="6.22586">
        <ele>2029.02</ele>
        <time>2017-09-16T08:23:25Z</time>
      </trkpt>
      <trkpt lat="45.68402" lon="6.22587">
        <ele>2031.4</ele>
        <time>2017-09-16T08:23:32Z</time>
      </trkpt>
      <trkpt lat="45.68407" lon="6.22596">
        <ele>2034.97</ele>
        <time>2017-09-16T08:23:46Z</time>
      </trkpt>
      <trkpt lat="45.68408" lon="6.22599">
        <ele>2036.13</ele>
        <time>2017-09-16T08:23:52Z</time>
      </trkpt>
      <trkpt lat="45.68411" lon="6.22602">
        <ele>2039.33</ele>
        <time>2017-09-16T08:24:04Z</time>
      </trkpt>
      <trkpt lat="45.68414" lon="6.22606">
        <ele>2042.38</ele>
        <time>2017-09-16T08:24:15Z</time>
      </trkpt>
      <trkpt lat="45.68415" lon="6.2261">
        <ele>2045.39</ele>
        <time>2017-09-16T08:24:24Z</time>
      </trkpt>
      <trkpt lat="45.68414" lon="6.22617">
        <ele>2048.11</ele>
        <time>2017-09-16T08:24:49Z</time>
      </trkpt>
      <trkpt lat="45.68418" lon="6.22624">
        <ele>2051.29</ele>
        <time>2017-09-16T08:25:03Z</time>
      </trkpt>
      <trkpt lat="45.6842" lon="6.22631">
        <ele>2054.36</ele>
        <time>2017-09-16T08:25:14Z</time>
      </trkpt>
      <trkpt lat="45.6842" lon="6.22634">
        <ele>2057.73</ele>
        <time>2017-09-16T08:25:24Z</time>
      </trkpt>
      <trkpt lat="45.68423" lon="6.22641">
        <ele>2059.55</ele>
        <time>2017-09-16T08:25:42Z</time>
      </trkpt>
      <trkpt lat="45.68418" lon="6.22636">
        <ele>2059.17</ele>
        <time>2017-09-16T08:26:13Z</time>
      </trkpt>
      <trkpt lat="45.68415" lon="6.22634">
        <ele>2059.09</ele>
        <time>2017-09-16T08:26:41Z</time>
      </trkpt>
      <trkpt lat="45.68411" lon="6.2263">
        <ele>2059.81</ele>
        <time>2017-09-16T08:27:10Z</time>
      </trkpt>
      <trkpt lat="45.68409" lon="6.22632">
        <ele>2060.69</ele>
        <time>2017-09-16T08:27:29Z</time>
      </trkpt>
      <trkpt lat="45.68409" lon="6.22638">
        <ele>2064.26</ele>
        <time>2017-09-16T08:27:46Z</time>
      </trkpt>
      <trkpt lat="45.6841" lon="6.22646">
        <ele>2067.62</ele>
        <time>2017-09-16T08:27:57Z</time>
      </trkpt>
      <trkpt lat="45.68411" lon="6.22647">
        <ele>2068.66</ele>
        <time>2017-09-16T08:28:01Z</time>
      </trkpt>
      <trkpt lat="45.68414" lon="6.22651">
        <ele>2071.68</ele>
        <time>2017-09-16T08:28:15Z</time>
      </trkpt>
      <trkpt lat="45.68415" lon="6.22657">
        <ele>2074.83</ele>
        <time>2017-09-16T08:28:31Z</time>
      </trkpt>
      <trkpt lat="45.6842" lon="6.22663">
        <ele>2078.1</ele>
        <time>2017-09-16T08:28:43Z</time>
      </trkpt>
      <trkpt lat="45.68424" lon="6.22668">
        <ele>2081.16</ele>
        <time>2017-09-16T08:28:58Z</time>
      </trkpt>
      <trkpt lat="45.68427" lon="6.22673">
        <ele>2084.4</ele>
        <time>2017-09-16T08:29:18Z</time>
      </trkpt>
      <trkpt lat="45.68431" lon="6.22678">
        <ele>2087.56</ele>
        <time>2017-09-16T08:29:33Z</time>
      </trkpt>
      <trkpt lat="45.68434" lon="6.22685">
        <ele>2090.23</ele>
        <time>2017-09-16T08:29:55Z</time>
      </trkpt>
      <trkpt lat="45.68435" lon="6.22687">
        <ele>2092.86</ele>
        <time>2017-09-16T08:30:13Z</time>
      </trkpt>
      <trkpt lat="45.68436" lon="6.22688">
        <ele>2095.91</ele>
        <time>2017-09-16T08:30:32Z</time>
      </trkpt>
      <trkpt lat="45.68435" lon="6.22692">
        <ele>2098.27</ele>
        <time>2017-09-16T08:30:54Z</time>
      </trkpt>
      <trkpt lat="45.68432" lon="6.22693">
        <ele>2101.28</ele>
        <time>2017-09-16T08:31:13Z</time>
      </trkpt>
      <trkpt lat="45.68433" lon="6.22695">
        <ele>2103.06</ele>
        <time>2017-09-16T08:31:38Z</time>
      </trkpt>
      <trkpt lat="45.68432" lon="6.22697">
        <ele>2106.31</ele>
        <time>2017-09-16T08:32:04Z</time>
      </trkpt>
      <trkpt lat="45.68432" lon="6.22699">
        <ele>2109.42</ele>
        <time>2017-09-16T08:32:29Z</time>
      </trkpt>
      <trkpt lat="45.68432" lon="6.22703">
        <ele>2113.35</ele>
        <time>2017-09-16T08:32:46Z</time>
      </trkpt>
      <trkpt lat="45.68435" lon="6.2271">
        <ele>2115.53</ele>
        <time>2017-09-16T08:33:09Z</time>
      </trkpt>
      <trkpt lat="45.68434" lon="6.22711">
        <ele>2118.8</ele>
        <time>2017-09-16T08:33:19Z</time>
      </trkpt>
      <trkpt lat="45.68432" lon="6.22711">
        <ele>2122.04</ele>
        <time>2017-09-16T08:33:40Z</time>
      </trkpt>
      <trkpt lat="45.6843" lon="6.22708">
        <ele>2122.28</ele>
        <time>2017-09-16T08:33:42Z</time>
      </trkpt>
      <trkpt lat="45.68427" lon="6.22713">
        <ele>2125.5</ele>
        <time>2017-09-16T08:33:57Z</time>
      </trkpt>
      <trkpt lat="45.68425" lon="6.22716">
        <ele>2128.64</ele>
        <time>2017-09-16T08:34:12Z</time>
      </trkpt>
      <trkpt lat="45.6842" lon="6.22717">
        <ele>2131.77</ele>
        <time>2017-09-16T08:34:30Z</time>
      </trkpt>
      <trkpt lat="45.68415" lon="6.22719">
        <ele>2134.66</ele>
        <time>2017-09-16T08:34:55Z</time>
      </trkpt>
      <trkpt lat="45.68415" lon="6.22721">
        <ele>2136.04</ele>
        <time>2017-09-16T08:35:01Z</time>
      </trkpt>
      <trkpt lat="45.68417" lon="6.22726">
        <ele>2136.36</ele>
        <time>2017-09-16T08:35:24Z</time>
      </trkpt>
      <trkpt lat="45.6842" lon="6.22728">
        <ele>2138.8</ele>
        <time>2017-09-16T08:35:51Z</time>
      </trkpt>
      <trkpt lat="45.68418" lon="6.22726">
        <ele>2140.78</ele>
        <time>2017-09-16T08:36:14Z</time>
      </trkpt>
      <trkpt lat="45.68415" lon="6.22726">
        <ele>2143.81</ele>
        <time>2017-09-16T08:36:34Z</time>
      </trkpt>
      <trkpt lat="45.68415" lon="6.22727">
        <ele>2143.89</ele>
        <time>2017-09-16T08:36:35Z</time>
      </trkpt>
      <trkpt lat="45.68413" lon="6.22727">
        <ele>2145.3</ele>
        <time>2017-09-16T08:36:54Z</time>
      </trkpt>
      <trkpt lat="45.68414" lon="6.22732">
        <ele>2147.65</ele>
        <time>2017-09-16T08:37:17Z</time>
      </trkpt>
      <trkpt lat="45.68413" lon="6.22739">
        <ele>2151.57</ele>
        <time>2017-09-16T08:37:28Z</time>
      </trkpt>
      <trkpt lat="45.6841" lon="6.22744">
        <ele>2151.56</ele>
        <time>2017-09-16T08:37:51Z</time>
      </trkpt>
      <trkpt lat="45.68408" lon="6.22748">
        <ele>2153.51</ele>
        <time>2017-09-16T08:38:15Z</time>
      </trkpt>
      <trkpt lat="45.68405" lon="6.22752">
        <ele>2155.38</ele>
        <time>2017-09-16T08:38:31Z</time>
      </trkpt>
      <trkpt lat="45.68402" lon="6.22756">
        <ele>2158.54</ele>
        <time>2017-09-16T08:38:47Z</time>
      </trkpt>
      <trkpt lat="45.684" lon="6.22759">
        <ele>2162.31</ele>
        <time>2017-09-16T08:39:00Z</time>
      </trkpt>
      <trkpt lat="45.68395" lon="6.22762">
        <ele>2164.89</ele>
        <time>2017-09-16T08:39:19Z</time>
      </trkpt>
      <trkpt lat="45.68395" lon="6.22766">
        <ele>2167.07</ele>
        <time>2017-09-16T08:39:40Z</time>
      </trkpt>
      <trkpt lat="45.68392" lon="6.2277">
        <ele>2170.56</ele>
        <time>2017-09-16T08:39:53Z</time>
      </trkpt>
      <trkpt lat="45.68392" lon="6.22772">
        <ele>2170.66</ele>
        <time>2017-09-16T08:40:09Z</time>
      </trkpt>
      <trkpt lat="45.6839" lon="6.22774">
        <ele>2171.8</ele>
        <time>2017-09-16T08:40:31Z</time>
      </trkpt>
      <trkpt lat="45.68389" lon="6.22774">
        <ele>2173.48</ele>
        <time>2017-09-16T08:40:55Z</time>
      </trkpt>
      <trkpt lat="45.68388" lon="6.22775">
        <ele>2176.16</ele>
        <time>2017-09-16T08:41:13Z</time>
      </trkpt>
      <trkpt lat="45.68388" lon="6.22776">
        <ele>2177.51</ele>
        <time>2017-09-16T08:41:31Z</time>
      </trkpt>
      <trkpt lat="45.68385" lon="6.22779">
        <ele>2180.51</ele>
        <time>2017-09-16T08:41:45Z</time>
      </trkpt>
      <trkpt lat="45.68387" lon="6.22785">
        <ele>2182.86</ele>
        <time>2017-09-16T08:42:03Z</time>
      </trkpt>
      <trkpt lat="45.68391" lon="6.22789">
        <ele>2184.38</ele>
        <time>2017-09-16T08:42:23Z</time>
      </trkpt>
      <trkpt lat="45.68389" lon="6.22793">
        <ele>2187.77</ele>
        <time>2017-09-16T08:42:35Z</time>
      </trkpt>
      <trkpt lat="45.68384" lon="6.2279">
        <ele>2190.89</ele>
        <time>2017-09-16T08:42:47Z</time>
      </trkpt>
      <trkpt lat="45.68382" lon="6.22794">
        <ele>2193.95</ele>
        <time>2017-09-16T08:42:55Z</time>
      </trkpt>
      <trkpt lat="45.68382" lon="6.22795">
        <ele>2194.25</ele>
        <time>2017-09-16T08:42:56Z</time>
      </trkpt>
      <trkpt lat="45.68378" lon="6.22795">
        <ele>2197.31</ele>
        <time>2017-09-16T08:43:06Z</time>
      </trkpt>
      <trkpt lat="45.68379" lon="6.22796">
        <ele>2196.87</ele>
        <time>2017-09-16T08:43:32Z</time>
      </trkpt>
      <trkpt lat="45.6837" lon="6.22795">
        <ele>2197.4</ele>
        <time>2017-09-16T08:44:01Z</time>
      </trkpt>
      <trkpt lat="45.68358" lon="6.22796">
        <ele>2197.39</ele>
        <time>2017-09-16T08:44:21Z</time>
      </trkpt>
      <trkpt lat="45.68344" lon="6.22795">
        <ele>2194.41</ele>
        <time>2017-09-16T08:44:43Z</time>
      </trkpt>
      <trkpt lat="45.68338" lon="6.22798">
        <ele>2191.33</ele>
        <time>2017-09-16T08:45:02Z</time>
      </trkpt>
      <trkpt lat="45.68331" lon="6.22798">
        <ele>2189.94</ele>
        <time>2017-09-16T08:45:21Z</time>
      </trkpt>
      <trkpt lat="45.68325" lon="6.22799">
        <ele>2187.8</ele>
        <time>2017-09-16T08:45:40Z</time>
      </trkpt>
      <trkpt lat="45.68321" lon="6.22801">
        <ele>2186.22</ele>
        <time>2017-09-16T08:45:58Z</time>
      </trkpt>
      <trkpt lat="45.68317" lon="6.22801">
        <ele>2184.85</ele>
        <time>2017-09-16T08:46:26Z</time>
      </trkpt>
      <trkpt lat="45.68318" lon="6.22804">
        <ele>2184.08</ele>
        <time>2017-09-16T08:46:46Z</time>
      </trkpt>
      <trkpt lat="45.68315" lon="6.22804">
        <ele>2180.61</ele>
        <time>2017-09-16T08:47:07Z</time>
      </trkpt>
      <trkpt lat="45.6831" lon="6.22803">
        <ele>2179.9</ele>
        <time>2017-09-16T08:47:27Z</time>
      </trkpt>
      <trkpt lat="45.68304" lon="6.22802">
        <ele>2179.72</ele>
        <time>2017-09-16T08:47:51Z</time>
      </trkpt>
      <trkpt lat="45.68299" lon="6.22803">
        <ele>2179.44</ele>
        <time>2017-09-16T08:48:09Z</time>
      </trkpt>
      <trkpt lat="45.68297" lon="6.22803">
        <ele>2177.68</ele>
        <time>2017-09-16T08:48:30Z</time>
      </trkpt>
      <trkpt lat="45.68292" lon="6.22801">
        <ele>2177.12</ele>
        <time>2017-09-16T08:48:50Z</time>
      </trkpt>
      <trkpt lat="45.68288" lon="6.22801">
        <ele>2177.81</ele>
        <time>2017-09-16T08:49:05Z</time>
      </trkpt>
      <trkpt lat="45.68286" lon="6.22802">
        <ele>2177.02</ele>
        <time>2017-09-16T08:49:26Z</time>
      </trkpt>
      <trkpt lat="45.68282" lon="6.22802">
        <ele>2179.02</ele>
        <time>2017-09-16T08:49:44Z</time>
      </trkpt>
      <trkpt lat="45.68276" lon="6.22802">
        <ele>2180.2</ele>
        <time>2017-09-16T08:50:03Z</time>
      </trkpt>
      <trkpt lat="45.68272" lon="6.228">
        <ele>2182.92</ele>
        <time>2017-09-16T08:50:19Z</time>
      </trkpt>
      <trkpt lat="45.68269" lon="6.228">
        <ele>2186.07</ele>
        <time>2017-09-16T08:50:30Z</time>
      </trkpt>
      <trkpt lat="45.68259" lon="6.22801">
        <ele>2186.7</ele>
        <time>2017-09-16T08:50:49Z</time>
      </trkpt>
      <trkpt lat="45.68255" lon="6.22802">
        <ele>2186.66</ele>
        <time>2017-09-16T08:51:08Z</time>
      </trkpt>
      <trkpt lat="45.68255" lon="6.22802">
        <ele>2187.98</ele>
        <time>2017-09-16T08:51:10Z</time>
      </trkpt>
      <trkpt lat="45.6825" lon="6.22803">
        <ele>2188.85</ele>
        <time>2017-09-16T08:51:20Z</time>
      </trkpt>
      <trkpt lat="45.68245" lon="6.22808">
        <ele>2192.15</ele>
        <time>2017-09-16T08:51:30Z</time>
      </trkpt>
      <trkpt lat="45.68244" lon="6.22811">
        <ele>2195.32</ele>
        <time>2017-09-16T08:51:44Z</time>
      </trkpt>
      <trkpt lat="45.6824" lon="6.22813">
        <ele>2198.42</ele>
        <time>2017-09-16T08:51:56Z</time>
      </trkpt>
      <trkpt lat="45.68237" lon="6.22811">
        <ele>2196.87</ele>
        <time>2017-09-16T08:52:18Z</time>
      </trkpt>
      <trkpt lat="45.68233" lon="6.22812">
        <ele>2198.12</ele>
        <time>2017-09-16T08:52:26Z</time>
      </trkpt>
      <trkpt lat="45.68222" lon="6.22811">
        <ele>2199.89</ele>
        <time>2017-09-16T08:52:44Z</time>
      </trkpt>
      <trkpt lat="45.68213" lon="6.22809">
        <ele>2203.18</ele>
        <time>2017-09-16T08:52:59Z</time>
      </trkpt>
      <trkpt lat="45.68204" lon="6.22808">
        <ele>2202.28</ele>
        <time>2017-09-16T08:53:16Z</time>
      </trkpt>
      <trkpt lat="45.68197" lon="6.22812">
        <ele>2202.36</ele>
        <time>2017-09-16T08:53:35Z</time>
      </trkpt>
      <trkpt lat="45.68194" lon="6.22812">
        <ele>2203.62</ele>
        <time>2017-09-16T08:53:49Z</time>
      </trkpt>
      <trkpt lat="45.6819" lon="6.22812">
        <ele>2202.63</ele>
        <time>2017-09-16T08:54:09Z</time>
      </trkpt>
      <trkpt lat="45.68183" lon="6.22811">
        <ele>2205.24</ele>
        <time>2017-09-16T08:54:26Z</time>
      </trkpt>
      <trkpt lat="45.68178" lon="6.22813">
        <ele>2207.69</ele>
        <time>2017-09-16T08:54:37Z</time>
      </trkpt>
      <trkpt lat="45.68173" lon="6.22816">
        <ele>2208.8</ele>
        <time>2017-09-16T08:54:55Z</time>
      </trkpt>
      <trkpt lat="45.68172" lon="6.22813">
        <ele>2208.72</ele>
        <time>2017-09-16T08:55:20Z</time>
      </trkpt>
      <trkpt lat="45.68172" lon="6.22814">
        <ele>2208.42</ele>
        <time>2017-09-16T08:55:36Z</time>
      </trkpt>
      <trkpt lat="45.68172" lon="6.22815">
        <ele>2207.78</ele>
        <time>2017-09-16T08:55:55Z</time>
      </trkpt>
      <trkpt lat="45.68173" lon="6.22814">
        <ele>2208.3</ele>
        <time>2017-09-16T08:56:31Z</time>
      </trkpt>
      <trkpt lat="45.68172" lon="6.22813">
        <ele>2208.59</ele>
        <time>2017-09-16T08:56:55Z</time>
      </trkpt>
      <trkpt lat="45.68171" lon="6.22813">
        <ele>2208.57</ele>
        <time>2017-09-16T08:57:34Z</time>
      </trkpt>
      <trkpt lat="45.68172" lon="6.22814">
        <ele>2208.29</ele>
        <time>2017-09-16T08:58:15Z</time>
      </trkpt>
      <trkpt lat="45.68176" lon="6.22819">
        <ele>2208.7</ele>
        <time>2017-09-16T08:58:43Z</time>
      </trkpt>
      <trkpt lat="45.68177" lon="6.22814">
        <ele>2208.86</ele>
        <time>2017-09-16T08:59:06Z</time>
      </trkpt>
      <trkpt lat="45.68175" lon="6.22814">
        <ele>2208.91</ele>
        <time>2017-09-16T08:59:39Z</time>
      </trkpt>
      <trkpt lat="45.68175" lon="6.22815">
        <ele>2209.37</ele>
        <time>2017-09-16T09:00:10Z</time>
      </trkpt>
      <trkpt lat="45.68174" lon="6.22814">
        <ele>2208.98</ele>
        <time>2017-09-16T09:00:41Z</time>
      </trkpt>
      <trkpt lat="45.68173" lon="6.22814">
        <ele>2208.65</ele>
        <time>2017-09-16T09:01:12Z</time>
      </trkpt>
      <trkpt lat="45.68174" lon="6.22813">
        <ele>2208.92</ele>
        <time>2017-09-16T09:01:48Z</time>
      </trkpt>
      <trkpt lat="45.68173" lon="6.22814">
        <ele>2209.23</ele>
        <time>2017-09-16T09:02:24Z</time>
      </trkpt>
      <trkpt lat="45.68173" lon="6.22814">
        <ele>2209.78</ele>
        <time>2017-09-16T09:02:55Z</time>
      </trkpt>
      <trkpt lat="45.6818" lon="6.22811">
        <ele>2207.21</ele>
        <time>2017-09-16T09:03:25Z</time>
      </trkpt>
      <trkpt lat="45.68188" lon="6.22812">
        <ele>2204.86</ele>
        <time>2017-09-16T09:03:46Z</time>
      </trkpt>
      <trkpt lat="45.68194" lon="6.22812">
        <ele>2204.76</ele>
        <time>2017-09-16T09:04:10Z</time>
      </trkpt>
      <trkpt lat="45.68199" lon="6.22812">
        <ele>2204.84</ele>
        <time>2017-09-16T09:04:34Z</time>
      </trkpt>
      <trkpt lat="45.6821" lon="6.22811">
        <ele>2205.88</ele>
        <time>2017-09-16T09:04:54Z</time>
      </trkpt>
      <trkpt lat="45.68217" lon="6.22811">
        <ele>2203.46</ele>
        <time>2017-09-16T09:05:18Z</time>
      </trkpt>
      <trkpt lat="45.68224" lon="6.22812">
        <ele>2202.74</ele>
        <time>2017-09-16T09:05:42Z</time>
      </trkpt>
      <trkpt lat="45.68236" lon="6.22813">
        <ele>2199.44</ele>
        <time>2017-09-16T09:06:07Z</time>
      </trkpt>
      <trkpt lat="45.68244" lon="6.22814">
        <ele>2200.38</ele>
        <time>2017-09-16T09:06:29Z</time>
      </trkpt>
      <trkpt lat="45.68246" lon="6.22812">
        <ele>2197.52</ele>
        <time>2017-09-16T09:06:50Z</time>
      </trkpt>
      <trkpt lat="45.68248" lon="6.22811">
        <ele>2194.48</ele>
        <time>2017-09-16T09:07:21Z</time>
      </trkpt>
      <trkpt lat="45.68257" lon="6.228">
        <ele>2191.08</ele>
        <time>2017-09-16T09:07:44Z</time>
      </trkpt>
      <trkpt lat="45.6826" lon="6.22797">
        <ele>2191.39</ele>
        <time>2017-09-16T09:08:13Z</time>
      </trkpt>
      <trkpt lat="45.68264" lon="6.228">
        <ele>2190.07</ele>
        <time>2017-09-16T09:08:49Z</time>
      </trkpt>
      <trkpt lat="45.68276" lon="6.22799">
        <ele>2190.14</ele>
        <time>2017-09-16T09:09:15Z</time>
      </trkpt>
      <trkpt lat="45.68274" lon="6.228">
        <ele>2188.87</ele>
        <time>2017-09-16T09:09:44Z</time>
      </trkpt>
      <trkpt lat="45.68276" lon="6.22801">
        <ele>2186.27</ele>
        <time>2017-09-16T09:10:22Z</time>
      </trkpt>
      <trkpt lat="45.68278" lon="6.22802">
        <ele>2184.91</ele>
        <time>2017-09-16T09:10:53Z</time>
      </trkpt>
      <trkpt lat="45.68284" lon="6.22805">
        <ele>2183.8</ele>
        <time>2017-09-16T09:11:21Z</time>
      </trkpt>
      <trkpt lat="45.68289" lon="6.22802">
        <ele>2182.24</ele>
        <time>2017-09-16T09:11:51Z</time>
      </trkpt>
      <trkpt lat="45.68294" lon="6.22801">
        <ele>2184.01</ele>
        <time>2017-09-16T09:12:14Z</time>
      </trkpt>
      <trkpt lat="45.683" lon="6.22804">
        <ele>2186.4</ele>
        <time>2017-09-16T09:12:43Z</time>
      </trkpt>
      <trkpt lat="45.6831" lon="6.22803">
        <ele>2187.61</ele>
        <time>2017-09-16T09:13:06Z</time>
      </trkpt>
      <trkpt lat="45.68317" lon="6.22804">
        <ele>2190.64</ele>
        <time>2017-09-16T09:13:21Z</time>
      </trkpt>
      <trkpt lat="45.68323" lon="6.22802">
        <ele>2192.42</ele>
        <time>2017-09-16T09:13:46Z</time>
      </trkpt>
      <trkpt lat="45.68323" lon="6.22798">
        <ele>2195.24</ele>
        <time>2017-09-16T09:14:02Z</time>
      </trkpt>
      <trkpt lat="45.68327" lon="6.22798">
        <ele>2198.84</ele>
        <time>2017-09-16T09:14:16Z</time>
      </trkpt>
      <trkpt lat="45.68336" lon="6.22797">
        <ele>2199.82</ele>
        <time>2017-09-16T09:14:37Z</time>
      </trkpt>
      <trkpt lat="45.68338" lon="6.22797">
        <ele>2202.91</ele>
        <time>2017-09-16T09:14:46Z</time>
      </trkpt>
      <trkpt lat="45.68353" lon="6.22798">
        <ele>2205.95</ele>
        <time>2017-09-16T09:15:06Z</time>
      </trkpt>
      <trkpt lat="45.68373" lon="6.22796">
        <ele>2206.91</ele>
        <time>2017-09-16T09:15:32Z</time>
      </trkpt>
      <trkpt lat="45.68382" lon="6.22796">
        <ele>2206.12</ele>
        <time>2017-09-16T09:15:52Z</time>
      </trkpt>
      <trkpt lat="45.68396" lon="6.22801">
        <ele>2202.99</ele>
        <time>2017-09-16T09:16:09Z</time>
      </trkpt>
      <trkpt lat="45.68399" lon="6.22804">
        <ele>2200.55</ele>
        <time>2017-09-16T09:16:29Z</time>
      </trkpt>
      <trkpt lat="45.68401" lon="6.22806">
        <ele>2198.49</ele>
        <time>2017-09-16T09:16:52Z</time>
      </trkpt>
      <trkpt lat="45.68402" lon="6.2281">
        <ele>2197.1</ele>
        <time>2017-09-16T09:17:20Z</time>
      </trkpt>
      <trkpt lat="45.68405" lon="6.2281">
        <ele>2193.96</ele>
        <time>2017-09-16T09:17:40Z</time>
      </trkpt>
      <trkpt lat="45.68409" lon="6.22811">
        <ele>2192.12</ele>
        <time>2017-09-16T09:17:48Z</time>
      </trkpt>
      <trkpt lat="45.68416" lon="6.22819">
        <ele>2191.21</ele>
        <time>2017-09-16T09:18:08Z</time>
      </trkpt>
      <trkpt lat="45.68418" lon="6.22819">
        <ele>2188.09</ele>
        <time>2017-09-16T09:18:29Z</time>
      </trkpt>
      <trkpt lat="45.68419" lon="6.22821">
        <ele>2187.9</ele>
        <time>2017-09-16T09:18:35Z</time>
      </trkpt>
      <trkpt lat="45.68421" lon="6.22822">
        <ele>2190.24</ele>
        <time>2017-09-16T09:18:55Z</time>
      </trkpt>
      <trkpt lat="45.68427" lon="6.22823">
        <ele>2188.07</ele>
        <time>2017-09-16T09:19:26Z</time>
      </trkpt>
      <trkpt lat="45.68429" lon="6.22825">
        <ele>2184.54</ele>
        <time>2017-09-16T09:19:37Z</time>
      </trkpt>
      <trkpt lat="45.68438" lon="6.22832">
        <ele>2180.99</ele>
        <time>2017-09-16T09:19:59Z</time>
      </trkpt>
      <trkpt lat="45.68442" lon="6.22837">
        <ele>2178.34</ele>
        <time>2017-09-16T09:20:07Z</time>
      </trkpt>
      <trkpt lat="45.68444" lon="6.22842">
        <ele>2175.31</ele>
        <time>2017-09-16T09:20:27Z</time>
      </trkpt>
      <trkpt lat="45.68444" lon="6.22847">
        <ele>2178.39</ele>
        <time>2017-09-16T09:20:42Z</time>
      </trkpt>
      <trkpt lat="45.68458" lon="6.22859">
        <ele>2181.27</ele>
        <time>2017-09-16T09:21:00Z</time>
      </trkpt>
      <trkpt lat="45.68468" lon="6.22865">
        <ele>2177.94</ele>
        <time>2017-09-16T09:21:13Z</time>
      </trkpt>
      <trkpt lat="45.68481" lon="6.22872">
        <ele>2176.72</ele>
        <time>2017-09-16T09:21:35Z</time>
      </trkpt>
      <trkpt lat="45.68492" lon="6.22873">
        <ele>2173.66</ele>
        <time>2017-09-16T09:21:58Z</time>
      </trkpt>
      <trkpt lat="45.68496" lon="6.22881">
        <ele>2170.27</ele>
        <time>2017-09-16T09:22:20Z</time>
      </trkpt>
      <trkpt lat="45.68499" lon="6.22885">
        <ele>2169.82</ele>
        <time>2017-09-16T09:22:45Z</time>
      </trkpt>
      <trkpt lat="45.68506" lon="6.22889">
        <ele>2166.37</ele>
        <time>2017-09-16T09:23:11Z</time>
      </trkpt>
      <trkpt lat="45.68506" lon="6.2289">
        <ele>2166.56</ele>
        <time>2017-09-16T09:23:12Z</time>
      </trkpt>
      <trkpt lat="45.68515" lon="6.22899">
        <ele>2164.5</ele>
        <time>2017-09-16T09:23:35Z</time>
      </trkpt>
      <trkpt lat="45.6852" lon="6.22901">
        <ele>2161.17</ele>
        <time>2017-09-16T09:23:58Z</time>
      </trkpt>
      <trkpt lat="45.68533" lon="6.22906">
        <ele>2159.45</ele>
        <time>2017-09-16T09:24:22Z</time>
      </trkpt>
      <trkpt lat="45.68537" lon="6.2291">
        <ele>2155.74</ele>
        <time>2017-09-16T09:24:34Z</time>
      </trkpt>
      <trkpt lat="45.68544" lon="6.22915">
        <ele>2152.41</ele>
        <time>2017-09-16T09:24:44Z</time>
      </trkpt>
      <trkpt lat="45.68545" lon="6.22915">
        <ele>2152.59</ele>
        <time>2017-09-16T09:24:46Z</time>
      </trkpt>
      <trkpt lat="45.68555" lon="6.22922">
        <ele>2149.09</ele>
        <time>2017-09-16T09:25:02Z</time>
      </trkpt>
      <trkpt lat="45.6856" lon="6.22927">
        <ele>2146.06</ele>
        <time>2017-09-16T09:25:13Z</time>
      </trkpt>
      <trkpt lat="45.68562" lon="6.2293">
        <ele>2145.75</ele>
        <time>2017-09-16T09:25:16Z</time>
      </trkpt>
      <trkpt lat="45.68574" lon="6.22937">
        <ele>2144.1</ele>
        <time>2017-09-16T09:25:27Z</time>
      </trkpt>
      <trkpt lat="45.68587" lon="6.22945">
        <ele>2142.25</ele>
        <time>2017-09-16T09:25:41Z</time>
      </trkpt>
      <trkpt lat="45.68608" lon="6.2296">
        <ele>2141.08</ele>
        <time>2017-09-16T09:26:00Z</time>
      </trkpt>
      <trkpt lat="45.6862" lon="6.22969">
        <ele>2141.89</ele>
        <time>2017-09-16T09:26:18Z</time>
      </trkpt>
      <trkpt lat="45.68621" lon="6.22973">
        <ele>2143.53</ele>
        <time>2017-09-16T09:26:24Z</time>
      </trkpt>
      <trkpt lat="45.68624" lon="6.2298">
        <ele>2146.57</ele>
        <time>2017-09-16T09:26:37Z</time>
      </trkpt>
      <trkpt lat="45.68629" lon="6.22988">
        <ele>2143.54</ele>
        <time>2017-09-16T09:26:56Z</time>
      </trkpt>
      <trkpt lat="45.68635" lon="6.22993">
        <ele>2142.78</ele>
        <time>2017-09-16T09:27:10Z</time>
      </trkpt>
      <trkpt lat="45.68646" lon="6.23009">
        <ele>2141.58</ele>
        <time>2017-09-16T09:27:28Z</time>
      </trkpt>
      <trkpt lat="45.68652" lon="6.23019">
        <ele>2138.34</ele>
        <time>2017-09-16T09:27:40Z</time>
      </trkpt>
      <trkpt lat="45.68654" lon="6.23023">
        <ele>2136.58</ele>
        <time>2017-09-16T09:27:45Z</time>
      </trkpt>
      <trkpt lat="45.68655" lon="6.23024">
        <ele>2136.17</ele>
        <time>2017-09-16T09:27:47Z</time>
      </trkpt>
      <trkpt lat="45.68658" lon="6.23024">
        <ele>2134.53</ele>
        <time>2017-09-16T09:27:50Z</time>
      </trkpt>
      <trkpt lat="45.68666" lon="6.2303">
        <ele>2131.28</ele>
        <time>2017-09-16T09:28:00Z</time>
      </trkpt>
      <trkpt lat="45.68668" lon="6.23031">
        <ele>2130.43</ele>
        <time>2017-09-16T09:28:02Z</time>
      </trkpt>
      <trkpt lat="45.68679" lon="6.23035">
        <ele>2127.22</ele>
        <time>2017-09-16T09:28:13Z</time>
      </trkpt>
      <trkpt lat="45.68693" lon="6.23037">
        <ele>2125.18</ele>
        <time>2017-09-16T09:28:28Z</time>
      </trkpt>
      <trkpt lat="45.68701" lon="6.23039">
        <ele>2122.62</ele>
        <time>2017-09-16T09:28:35Z</time>
      </trkpt>
      <trkpt lat="45.68716" lon="6.23046">
        <ele>2119.2</ele>
        <time>2017-09-16T09:28:50Z</time>
      </trkpt>
      <trkpt lat="45.68733" lon="6.23053">
        <ele>2116.53</ele>
        <time>2017-09-16T09:29:07Z</time>
      </trkpt>
      <trkpt lat="45.68752" lon="6.23059">
        <ele>2116.76</ele>
        <time>2017-09-16T09:29:24Z</time>
      </trkpt>
      <trkpt lat="45.68763" lon="6.23066">
        <ele>2115.42</ele>
        <time>2017-09-16T09:29:38Z</time>
      </trkpt>
      <trkpt lat="45.68767" lon="6.23071">
        <ele>2114.05</ele>
        <time>2017-09-16T09:29:45Z</time>
      </trkpt>
      <trkpt lat="45.6878" lon="6.23079">
        <ele>2111.92</ele>
        <time>2017-09-16T09:30:01Z</time>
      </trkpt>
      <trkpt lat="45.68786" lon="6.2308">
        <ele>2108.35</ele>
        <time>2017-09-16T09:30:10Z</time>
      </trkpt>
      <trkpt lat="45.68788" lon="6.2308">
        <ele>2107.3</ele>
        <time>2017-09-16T09:30:12Z</time>
      </trkpt>
      <trkpt lat="45.68803" lon="6.23088">
        <ele>2104.29</ele>
        <time>2017-09-16T09:30:26Z</time>
      </trkpt>
      <trkpt lat="45.68807" lon="6.23092">
        <ele>2103.96</ele>
        <time>2017-09-16T09:30:41Z</time>
      </trkpt>
      <trkpt lat="45.68812" lon="6.23094">
        <ele>2100.85</ele>
        <time>2017-09-16T09:30:52Z</time>
      </trkpt>
      <trkpt lat="45.68821" lon="6.23098">
        <ele>2100.14</ele>
        <time>2017-09-16T09:31:09Z</time>
      </trkpt>
      <trkpt lat="45.68823" lon="6.23099">
        <ele>2099.04</ele>
        <time>2017-09-16T09:31:20Z</time>
      </trkpt>
      <trkpt lat="45.68827" lon="6.23101">
        <ele>2097.26</ele>
        <time>2017-09-16T09:31:25Z</time>
      </trkpt>
      <trkpt lat="45.68834" lon="6.23104">
        <ele>2094.27</ele>
        <time>2017-09-16T09:31:33Z</time>
      </trkpt>
      <trkpt lat="45.68843" lon="6.23107">
        <ele>2091.06</ele>
        <time>2017-09-16T09:31:47Z</time>
      </trkpt>
      <trkpt lat="45.68848" lon="6.23108">
        <ele>2087.98</ele>
        <time>2017-09-16T09:32:08Z</time>
      </trkpt>
      <trkpt lat="45.68851" lon="6.23109">
        <ele>2086.49</ele>
        <time>2017-09-16T09:32:40Z</time>
      </trkpt>
      <trkpt lat="45.68854" lon="6.2311">
        <ele>2083.47</ele>
        <time>2017-09-16T09:33:00Z</time>
      </trkpt>
      <trkpt lat="45.68859" lon="6.23112">
        <ele>2082.63</ele>
        <time>2017-09-16T09:33:31Z</time>
      </trkpt>
      <trkpt lat="45.68859" lon="6.23113">
        <ele>2086</ele>
        <time>2017-09-16T09:33:52Z</time>
      </trkpt>
      <trkpt lat="45.68865" lon="6.23116">
        <ele>2085.28</ele>
        <time>2017-09-16T09:34:16Z</time>
      </trkpt>
      <trkpt lat="45.68871" lon="6.23118">
        <ele>2084.49</ele>
        <time>2017-09-16T09:34:24Z</time>
      </trkpt>
      <trkpt lat="45.68875" lon="6.23119">
        <ele>2083.06</ele>
        <time>2017-09-16T09:34:27Z</time>
      </trkpt>
      <trkpt lat="45.68881" lon="6.2312">
        <ele>2083.49</ele>
        <time>2017-09-16T09:34:33Z</time>
      </trkpt>
      <trkpt lat="45.68891" lon="6.23117">
        <ele>2082.34</ele>
        <time>2017-09-16T09:34:43Z</time>
      </trkpt>
      <trkpt lat="45.68904" lon="6.23112">
        <ele>2082.45</ele>
        <time>2017-09-16T09:35:00Z</time>
      </trkpt>
      <trkpt lat="45.68909" lon="6.23109">
        <ele>2084.89</ele>
        <time>2017-09-16T09:35:15Z</time>
      </trkpt>
      <trkpt lat="45.68913" lon="6.23104">
        <ele>2085.41</ele>
        <time>2017-09-16T09:35:39Z</time>
      </trkpt>
      <trkpt lat="45.68915" lon="6.23106">
        <ele>2084.03</ele>
        <time>2017-09-16T09:35:45Z</time>
      </trkpt>
      <trkpt lat="45.68924" lon="6.23108">
        <ele>2081.62</ele>
        <time>2017-09-16T09:35:53Z</time>
      </trkpt>
      <trkpt lat="45.68935" lon="6.23104">
        <ele>2083.92</ele>
        <time>2017-09-16T09:36:09Z</time>
      </trkpt>
      <trkpt lat="45.68949" lon="6.23103">
        <ele>2083.49</ele>
        <time>2017-09-16T09:36:28Z</time>
      </trkpt>
      <trkpt lat="45.68949" lon="6.23103">
        <ele>2083.31</ele>
        <time>2017-09-16T09:36:29Z</time>
      </trkpt>
      <trkpt lat="45.68957" lon="6.23107">
        <ele>2080.06</ele>
        <time>2017-09-16T09:36:43Z</time>
      </trkpt>
      <trkpt lat="45.68964" lon="6.23107">
        <ele>2080.08</ele>
        <time>2017-09-16T09:36:59Z</time>
      </trkpt>
      <trkpt lat="45.68969" lon="6.2311">
        <ele>2077.05</ele>
        <time>2017-09-16T09:37:34Z</time>
      </trkpt>
      <trkpt lat="45.68973" lon="6.23114">
        <ele>2073.83</ele>
        <time>2017-09-16T09:37:45Z</time>
      </trkpt>
      <trkpt lat="45.68979" lon="6.23115">
        <ele>2070.56</ele>
        <time>2017-09-16T09:38:02Z</time>
      </trkpt>
      <trkpt lat="45.6898" lon="6.23115">
        <ele>2067.13</ele>
        <time>2017-09-16T09:38:05Z</time>
      </trkpt>
      <trkpt lat="45.6898" lon="6.23115">
        <ele>2071.47</ele>
        <time>2017-09-16T09:38:06Z</time>
      </trkpt>
      <trkpt lat="45.68981" lon="6.23115">
        <ele>2069.43</ele>
        <time>2017-09-16T09:38:09Z</time>
      </trkpt>
      <trkpt lat="45.68985" lon="6.23118">
        <ele>2065.99</ele>
        <time>2017-09-16T09:38:21Z</time>
      </trkpt>
      <trkpt lat="45.68992" lon="6.23119">
        <ele>2063.86</ele>
        <time>2017-09-16T09:38:41Z</time>
      </trkpt>
      <trkpt lat="45.68994" lon="6.2312">
        <ele>2062.23</ele>
        <time>2017-09-16T09:39:10Z</time>
      </trkpt>
      <trkpt lat="45.68989" lon="6.23115">
        <ele>2062.66</ele>
        <time>2017-09-16T09:39:40Z</time>
      </trkpt>
      <trkpt lat="45.68985" lon="6.23113">
        <ele>2062.01</ele>
        <time>2017-09-16T09:40:08Z</time>
      </trkpt>
      <trkpt lat="45.68987" lon="6.23113">
        <ele>2057.86</ele>
        <time>2017-09-16T09:40:26Z</time>
      </trkpt>
      <trkpt lat="45.68987" lon="6.23113">
        <ele>2061.61</ele>
        <time>2017-09-16T09:40:27Z</time>
      </trkpt>
      <trkpt lat="45.68989" lon="6.23115">
        <ele>2059.55</ele>
        <time>2017-09-16T09:41:02Z</time>
      </trkpt>
      <trkpt lat="45.68992" lon="6.23111">
        <ele>2056.26</ele>
        <time>2017-09-16T09:41:22Z</time>
      </trkpt>
      <trkpt lat="45.68999" lon="6.2311">
        <ele>2053.33</ele>
        <time>2017-09-16T09:41:45Z</time>
      </trkpt>
      <trkpt lat="45.69007" lon="6.2311">
        <ele>2050.84</ele>
        <time>2017-09-16T09:42:11Z</time>
      </trkpt>
      <trkpt lat="45.69011" lon="6.23111">
        <ele>2048.3</ele>
        <time>2017-09-16T09:42:37Z</time>
      </trkpt>
      <trkpt lat="45.69018" lon="6.23111">
        <ele>2046.34</ele>
        <time>2017-09-16T09:43:01Z</time>
      </trkpt>
      <trkpt lat="45.69021" lon="6.23115">
        <ele>2044.39</ele>
        <time>2017-09-16T09:43:24Z</time>
      </trkpt>
      <trkpt lat="45.69021" lon="6.23114">
        <ele>2042.15</ele>
        <time>2017-09-16T09:43:41Z</time>
      </trkpt>
      <trkpt lat="45.69023" lon="6.23109">
        <ele>2039.59</ele>
        <time>2017-09-16T09:44:02Z</time>
      </trkpt>
      <trkpt lat="45.69024" lon="6.2311">
        <ele>2036.56</ele>
        <time>2017-09-16T09:44:17Z</time>
      </trkpt>
      <trkpt lat="45.69025" lon="6.23109">
        <ele>2036.55</ele>
        <time>2017-09-16T09:44:33Z</time>
      </trkpt>
      <trkpt lat="45.69028" lon="6.23111">
        <ele>2035.04</ele>
        <time>2017-09-16T09:44:38Z</time>
      </trkpt>
      <trkpt lat="45.69024" lon="6.23105">
        <ele>2035.21</ele>
        <time>2017-09-16T09:45:06Z</time>
      </trkpt>
      <trkpt lat="45.69025" lon="6.23106">
        <ele>2032.93</ele>
        <time>2017-09-16T09:45:31Z</time>
      </trkpt>
      <trkpt lat="45.69027" lon="6.23104">
        <ele>2031.07</ele>
        <time>2017-09-16T09:45:43Z</time>
      </trkpt>
      <trkpt lat="45.69033" lon="6.23106">
        <ele>2029.01</ele>
        <time>2017-09-16T09:45:54Z</time>
      </trkpt>
      <trkpt lat="45.69048" lon="6.23108">
        <ele>2027.88</ele>
        <time>2017-09-16T09:46:12Z</time>
      </trkpt>
      <trkpt lat="45.69056" lon="6.23112">
        <ele>2028.13</ele>
        <time>2017-09-16T09:46:27Z</time>
      </trkpt>
      <trkpt lat="45.69066" lon="6.23116">
        <ele>2026.58</ele>
        <time>2017-09-16T09:46:50Z</time>
      </trkpt>
      <trkpt lat="45.6907" lon="6.23116">
        <ele>2027.57</ele>
        <time>2017-09-16T09:46:55Z</time>
      </trkpt>
      <trkpt lat="45.69083" lon="6.23116">
        <ele>2026.94</ele>
        <time>2017-09-16T09:47:21Z</time>
      </trkpt>
      <trkpt lat="45.69089" lon="6.23116">
        <ele>2025.05</ele>
        <time>2017-09-16T09:47:41Z</time>
      </trkpt>
      <trkpt lat="45.69092" lon="6.23116">
        <ele>2021.83</ele>
        <time>2017-09-16T09:48:00Z</time>
      </trkpt>
      <trkpt lat="45.69092" lon="6.2312">
        <ele>2019.38</ele>
        <time>2017-09-16T09:48:27Z</time>
      </trkpt>
      <trkpt lat="45.69095" lon="6.23123">
        <ele>2015.72</ele>
        <time>2017-09-16T09:48:48Z</time>
      </trkpt>
      <trkpt lat="45.69098" lon="6.23125">
        <ele>2012.55</ele>
        <time>2017-09-16T09:49:03Z</time>
      </trkpt>
      <trkpt lat="45.69106" lon="6.23127">
        <ele>2009.02</ele>
        <time>2017-09-16T09:49:23Z</time>
      </trkpt>
      <trkpt lat="45.69111" lon="6.23124">
        <ele>2006.77</ele>
        <time>2017-09-16T09:49:35Z</time>
      </trkpt>
      <trkpt lat="45.69114" lon="6.23119">
        <ele>2005.4</ele>
        <time>2017-09-16T09:50:03Z</time>
      </trkpt>
      <trkpt lat="45.69109" lon="6.23121">
        <ele>2002.86</ele>
        <time>2017-09-16T09:50:27Z</time>
      </trkpt>
      <trkpt lat="45.69111" lon="6.23118">
        <ele>2001.9</ele>
        <time>2017-09-16T09:50:35Z</time>
      </trkpt>
      <trkpt lat="45.69114" lon="6.23114">
        <ele>2001.02</ele>
        <time>2017-09-16T09:50:45Z</time>
      </trkpt>
      <trkpt lat="45.69111" lon="6.23104">
        <ele>1999.01</ele>
        <time>2017-09-16T09:51:10Z</time>
      </trkpt>
      <trkpt lat="45.6912" lon="6.23096">
        <ele>1995.78</ele>
        <time>2017-09-16T09:51:22Z</time>
      </trkpt>
      <trkpt lat="45.69125" lon="6.23094">
        <ele>1992.66</ele>
        <time>2017-09-16T09:51:33Z</time>
      </trkpt>
      <trkpt lat="45.69129" lon="6.23093">
        <ele>1989.64</ele>
        <time>2017-09-16T09:51:44Z</time>
      </trkpt>
      <trkpt lat="45.69134" lon="6.2309">
        <ele>1986.43</ele>
        <time>2017-09-16T09:51:55Z</time>
      </trkpt>
      <trkpt lat="45.69138" lon="6.23085">
        <ele>1984.54</ele>
        <time>2017-09-16T09:52:03Z</time>
      </trkpt>
      <trkpt lat="45.69144" lon="6.23073">
        <ele>1983.17</ele>
        <time>2017-09-16T09:52:15Z</time>
      </trkpt>
      <trkpt lat="45.69151" lon="6.23071">
        <ele>1980.2</ele>
        <time>2017-09-16T09:52:20Z</time>
      </trkpt>
      <trkpt lat="45.69166" lon="6.23063">
        <ele>1976.58</ele>
        <time>2017-09-16T09:52:30Z</time>
      </trkpt>
      <trkpt lat="45.69184" lon="6.23055">
        <ele>1975.94</ele>
        <time>2017-09-16T09:52:47Z</time>
      </trkpt>
      <trkpt lat="45.69191" lon="6.23057">
        <ele>1972.86</ele>
        <time>2017-09-16T09:52:56Z</time>
      </trkpt>
      <trkpt lat="45.69196" lon="6.2306">
        <ele>1969.72</ele>
        <time>2017-09-16T09:53:02Z</time>
      </trkpt>
      <trkpt lat="45.69205" lon="6.23058">
        <ele>1966.22</ele>
        <time>2017-09-16T09:53:10Z</time>
      </trkpt>
      <trkpt lat="45.69207" lon="6.23058">
        <ele>1965.43</ele>
        <time>2017-09-16T09:53:12Z</time>
      </trkpt>
      <trkpt lat="45.69215" lon="6.23052">
        <ele>1964.62</ele>
        <time>2017-09-16T09:53:27Z</time>
      </trkpt>
      <trkpt lat="45.69219" lon="6.2305">
        <ele>1962.48</ele>
        <time>2017-09-16T09:53:54Z</time>
      </trkpt>
      <trkpt lat="45.69225" lon="6.23051">
        <ele>1959.64</ele>
        <time>2017-09-16T09:54:14Z</time>
      </trkpt>
      <trkpt lat="45.69226" lon="6.23052">
        <ele>1959.73</ele>
        <time>2017-09-16T09:54:45Z</time>
      </trkpt>
      <trkpt lat="45.69227" lon="6.23051">
        <ele>1959.35</ele>
        <time>2017-09-16T09:55:09Z</time>
      </trkpt>
      <trkpt lat="45.69225" lon="6.2305">
        <ele>1957.16</ele>
        <time>2017-09-16T09:55:35Z</time>
      </trkpt>
      <trkpt lat="45.69224" lon="6.23054">
        <ele>1954.62</ele>
        <time>2017-09-16T09:56:02Z</time>
      </trkpt>
      <trkpt lat="45.69225" lon="6.2306">
        <ele>1952.37</ele>
        <time>2017-09-16T09:56:29Z</time>
      </trkpt>
      <trkpt lat="45.69231" lon="6.23061">
        <ele>1950.41</ele>
        <time>2017-09-16T09:56:53Z</time>
      </trkpt>
      <trkpt lat="45.69236" lon="6.23056">
        <ele>1953.58</ele>
        <time>2017-09-16T09:57:09Z</time>
      </trkpt>
      <trkpt lat="45.69238" lon="6.23056">
        <ele>1956.8</ele>
        <time>2017-09-16T09:57:29Z</time>
      </trkpt>
      <trkpt lat="45.69246" lon="6.23058">
        <ele>1954.09</ele>
        <time>2017-09-16T09:57:47Z</time>
      </trkpt>
      <trkpt lat="45.69254" lon="6.23065">
        <ele>1952.13</ele>
        <time>2017-09-16T09:58:05Z</time>
      </trkpt>
      <trkpt lat="45.69268" lon="6.23072">
        <ele>1948.36</ele>
        <time>2017-09-16T09:58:21Z</time>
      </trkpt>
      <trkpt lat="45.69269" lon="6.23072">
        <ele>1948.12</ele>
        <time>2017-09-16T09:58:22Z</time>
      </trkpt>
      <trkpt lat="45.6927" lon="6.23072">
        <ele>1946.83</ele>
        <time>2017-09-16T09:58:25Z</time>
      </trkpt>
      <trkpt lat="45.69276" lon="6.23075">
        <ele>1945.33</ele>
        <time>2017-09-16T09:58:47Z</time>
      </trkpt>
      <trkpt lat="45.6928" lon="6.23077">
        <ele>1941.99</ele>
        <time>2017-09-16T09:59:10Z</time>
      </trkpt>
      <trkpt lat="45.69285" lon="6.23077">
        <ele>1938.95</ele>
        <time>2017-09-16T09:59:25Z</time>
      </trkpt>
      <trkpt lat="45.6929" lon="6.23078">
        <ele>1935.78</ele>
        <time>2017-09-16T09:59:36Z</time>
      </trkpt>
      <trkpt lat="45.69291" lon="6.23078">
        <ele>1935.52</ele>
        <time>2017-09-16T09:59:37Z</time>
      </trkpt>
      <trkpt lat="45.69297" lon="6.23078">
        <ele>1932.32</ele>
        <time>2017-09-16T09:59:53Z</time>
      </trkpt>
      <trkpt lat="45.69302" lon="6.23079">
        <ele>1929.04</ele>
        <time>2017-09-16T10:00:15Z</time>
      </trkpt>
      <trkpt lat="45.69303" lon="6.23079">
        <ele>1928.39</ele>
        <time>2017-09-16T10:00:16Z</time>
      </trkpt>
      <trkpt lat="45.69304" lon="6.23079">
        <ele>1927.75</ele>
        <time>2017-09-16T10:00:18Z</time>
      </trkpt>
      <trkpt lat="45.69306" lon="6.23077">
        <ele>1926.74</ele>
        <time>2017-09-16T10:00:37Z</time>
      </trkpt>
      <trkpt lat="45.69303" lon="6.23077">
        <ele>1926.21</ele>
        <time>2017-09-16T10:01:07Z</time>
      </trkpt>
      <trkpt lat="45.69306" lon="6.23076">
        <ele>1926.83</ele>
        <time>2017-09-16T10:01:42Z</time>
      </trkpt>
      <trkpt lat="45.69308" lon="6.23072">
        <ele>1923.14</ele>
        <time>2017-09-16T10:01:51Z</time>
      </trkpt>
      <trkpt lat="45.69308" lon="6.23071">
        <ele>1923.35</ele>
        <time>2017-09-16T10:01:52Z</time>
      </trkpt>
      <trkpt lat="45.69312" lon="6.23066">
        <ele>1920.28</ele>
        <time>2017-09-16T10:01:58Z</time>
      </trkpt>
      <trkpt lat="45.69314" lon="6.23063">
        <ele>1918.84</ele>
        <time>2017-09-16T10:02:01Z</time>
      </trkpt>
      <trkpt lat="45.69316" lon="6.23058">
        <ele>1916.55</ele>
        <time>2017-09-16T10:02:06Z</time>
      </trkpt>
      <trkpt lat="45.69319" lon="6.23053">
        <ele>1913.29</ele>
        <time>2017-09-16T10:02:13Z</time>
      </trkpt>
      <trkpt lat="45.69321" lon="6.23052">
        <ele>1912.28</ele>
        <time>2017-09-16T10:02:15Z</time>
      </trkpt>
      <trkpt lat="45.69323" lon="6.23047">
        <ele>1909.17</ele>
        <time>2017-09-16T10:02:21Z</time>
      </trkpt>
      <trkpt lat="45.69323" lon="6.23041">
        <ele>1906.69</ele>
        <time>2017-09-16T10:02:26Z</time>
      </trkpt>
      <trkpt lat="45.69324" lon="6.23029">
        <ele>1903.32</ele>
        <time>2017-09-16T10:02:44Z</time>
      </trkpt>
      <trkpt lat="45.69324" lon="6.23028">
        <ele>1903.23</ele>
        <time>2017-09-16T10:02:45Z</time>
      </trkpt>
      <trkpt lat="45.69325" lon="6.23024">
        <ele>1901.8</ele>
        <time>2017-09-16T10:02:48Z</time>
      </trkpt>
      <trkpt lat="45.69325" lon="6.23023">
        <ele>1900.96</ele>
        <time>2017-09-16T10:02:49Z</time>
      </trkpt>
      <trkpt lat="45.69327" lon="6.23012">
        <ele>1897.17</ele>
        <time>2017-09-16T10:02:57Z</time>
      </trkpt>
      <trkpt lat="45.69327" lon="6.23011">
        <ele>1896.79</ele>
        <time>2017-09-16T10:02:58Z</time>
      </trkpt>
      <trkpt lat="45.69327" lon="6.22997">
        <ele>1892.71</ele>
        <time>2017-09-16T10:03:07Z</time>
      </trkpt>
      <trkpt lat="45.69328" lon="6.22994">
        <ele>1891.84</ele>
        <time>2017-09-16T10:03:09Z</time>
      </trkpt>
      <trkpt lat="45.69331" lon="6.22984">
        <ele>1888.63</ele>
        <time>2017-09-16T10:03:15Z</time>
      </trkpt>
      <trkpt lat="45.69333" lon="6.22975">
        <ele>1886.29</ele>
        <time>2017-09-16T10:03:20Z</time>
      </trkpt>
      <trkpt lat="45.69335" lon="6.22969">
        <ele>1884.66</ele>
        <time>2017-09-16T10:03:24Z</time>
      </trkpt>
      <trkpt lat="45.6934" lon="6.2296">
        <ele>1881.48</ele>
        <time>2017-09-16T10:03:30Z</time>
      </trkpt>
      <trkpt lat="45.6934" lon="6.22958">
        <ele>1881.49</ele>
        <time>2017-09-16T10:03:31Z</time>
      </trkpt>
      <trkpt lat="45.69347" lon="6.22952">
        <ele>1877.02</ele>
        <time>2017-09-16T10:03:37Z</time>
      </trkpt>
      <trkpt lat="45.69348" lon="6.2295">
        <ele>1876.91</ele>
        <time>2017-09-16T10:03:38Z</time>
      </trkpt>
      <trkpt lat="45.69351" lon="6.22946">
        <ele>1874.72</ele>
        <time>2017-09-16T10:03:41Z</time>
      </trkpt>
      <trkpt lat="45.69351" lon="6.22943">
        <ele>1873.09</ele>
        <time>2017-09-16T10:03:43Z</time>
      </trkpt>
      <trkpt lat="45.69353" lon="6.22941">
        <ele>1872.34</ele>
        <time>2017-09-16T10:03:45Z</time>
      </trkpt>
      <trkpt lat="45.69357" lon="6.22938">
        <ele>1870.29</ele>
        <time>2017-09-16T10:03:48Z</time>
      </trkpt>
      <trkpt lat="45.69362" lon="6.22931">
        <ele>1866.85</ele>
        <time>2017-09-16T10:03:53Z</time>
      </trkpt>
      <trkpt lat="45.69364" lon="6.22927">
        <ele>1865.17</ele>
        <time>2017-09-16T10:03:56Z</time>
      </trkpt>
      <trkpt lat="45.69364" lon="6.2292">
        <ele>1862.1</ele>
        <time>2017-09-16T10:04:01Z</time>
      </trkpt>
      <trkpt lat="45.69362" lon="6.22916">
        <ele>1860.12</ele>
        <time>2017-09-16T10:04:05Z</time>
      </trkpt>
      <trkpt lat="45.69362" lon="6.2291">
        <ele>1858.25</ele>
        <time>2017-09-16T10:04:09Z</time>
      </trkpt>
      <trkpt lat="45.69361" lon="6.2291">
        <ele>1858.33</ele>
        <time>2017-09-16T10:04:10Z</time>
      </trkpt>
      <trkpt lat="45.69356" lon="6.2291">
        <ele>1855.92</ele>
        <time>2017-09-16T10:04:14Z</time>
      </trkpt>
      <trkpt lat="45.69349" lon="6.22911">
        <ele>1854.13</ele>
        <time>2017-09-16T10:04:21Z</time>
      </trkpt>
      <trkpt lat="45.69336" lon="6.2291">
        <ele>1851.07</ele>
        <time>2017-09-16T10:04:40Z</time>
      </trkpt>
      <trkpt lat="45.69333" lon="6.2291">
        <ele>1850.29</ele>
        <time>2017-09-16T10:04:43Z</time>
      </trkpt>
      <trkpt lat="45.6933" lon="6.22911">
        <ele>1849.33</ele>
        <time>2017-09-16T10:04:45Z</time>
      </trkpt>
      <trkpt lat="45.69325" lon="6.22912">
        <ele>1847.33</ele>
        <time>2017-09-16T10:04:48Z</time>
      </trkpt>
      <trkpt lat="45.69318" lon="6.22908">
        <ele>1844.91</ele>
        <time>2017-09-16T10:04:53Z</time>
      </trkpt>
      <trkpt lat="45.69309" lon="6.22906">
        <ele>1844.21</ele>
        <time>2017-09-16T10:04:59Z</time>
      </trkpt>
      <trkpt lat="45.69308" lon="6.22906">
        <ele>1843.89</ele>
        <time>2017-09-16T10:05:00Z</time>
      </trkpt>
      <trkpt lat="45.69306" lon="6.22906">
        <ele>1843.13</ele>
        <time>2017-09-16T10:05:01Z</time>
      </trkpt>
      <trkpt lat="45.69305" lon="6.22907">
        <ele>1841.87</ele>
        <time>2017-09-16T10:05:02Z</time>
      </trkpt>
      <trkpt lat="45.69305" lon="6.22908">
        <ele>1841.64</ele>
        <time>2017-09-16T10:05:03Z</time>
      </trkpt>
      <trkpt lat="45.69304" lon="6.22908">
        <ele>1841.36</ele>
        <time>2017-09-16T10:05:04Z</time>
      </trkpt>
      <trkpt lat="45.69303" lon="6.22908">
        <ele>1840.27</ele>
        <time>2017-09-16T10:05:05Z</time>
      </trkpt>
      <trkpt lat="45.69301" lon="6.22907">
        <ele>1839.72</ele>
        <time>2017-09-16T10:05:06Z</time>
      </trkpt>
      <trkpt lat="45.693" lon="6.22907">
        <ele>1839.37</ele>
        <time>2017-09-16T10:05:07Z</time>
      </trkpt>
      <trkpt lat="45.69298" lon="6.22906">
        <ele>1838.85</ele>
        <time>2017-09-16T10:05:08Z</time>
      </trkpt>
      <trkpt lat="45.69297" lon="6.22906">
        <ele>1838.12</ele>
        <time>2017-09-16T10:05:09Z</time>
      </trkpt>
      <trkpt lat="45.69295" lon="6.22906">
        <ele>1838.15</ele>
        <time>2017-09-16T10:05:10Z</time>
      </trkpt>
      <trkpt lat="45.69294" lon="6.22905">
        <ele>1837.06</ele>
        <time>2017-09-16T10:05:11Z</time>
      </trkpt>
      <trkpt lat="45.69292" lon="6.22904">
        <ele>1837.11</ele>
        <time>2017-09-16T10:05:12Z</time>
      </trkpt>
      <trkpt lat="45.69291" lon="6.22903">
        <ele>1836.2</ele>
        <time>2017-09-16T10:05:13Z</time>
      </trkpt>
      <trkpt lat="45.6929" lon="6.22903">
        <ele>1836.25</ele>
        <time>2017-09-16T10:05:14Z</time>
      </trkpt>
      <trkpt lat="45.69289" lon="6.22903">
        <ele>1836.34</ele>
        <time>2017-09-16T10:05:15Z</time>
      </trkpt>
      <trkpt lat="45.69288" lon="6.22904">
        <ele>1835.42</ele>
        <time>2017-09-16T10:05:16Z</time>
      </trkpt>
      <trkpt lat="45.69285" lon="6.22904">
        <ele>1834.39</ele>
        <time>2017-09-16T10:05:18Z</time>
      </trkpt>
      <trkpt lat="45.69283" lon="6.22905">
        <ele>1833.61</ele>
        <time>2017-09-16T10:05:20Z</time>
      </trkpt>
      <trkpt lat="45.6928" lon="6.22906">
        <ele>1832.17</ele>
        <time>2017-09-16T10:05:22Z</time>
      </trkpt>
      <trkpt lat="45.69279" lon="6.22905">
        <ele>1831.72</ele>
        <time>2017-09-16T10:05:23Z</time>
      </trkpt>
      <trkpt lat="45.69278" lon="6.22903">
        <ele>1830.26</ele>
        <time>2017-09-16T10:05:25Z</time>
      </trkpt>
      <trkpt lat="45.69277" lon="6.22901">
        <ele>1829.77</ele>
        <time>2017-09-16T10:05:26Z</time>
      </trkpt>
      <trkpt lat="45.69276" lon="6.22895">
        <ele>1827.75</ele>
        <time>2017-09-16T10:05:30Z</time>
      </trkpt>
      <trkpt lat="45.69275" lon="6.22894">
        <ele>1826.88</ele>
        <time>2017-09-16T10:05:31Z</time>
      </trkpt>
      <trkpt lat="45.69273" lon="6.22894">
        <ele>1826.79</ele>
        <time>2017-09-16T10:05:32Z</time>
      </trkpt>
      <trkpt lat="45.69272" lon="6.22893">
        <ele>1826.14</ele>
        <time>2017-09-16T10:05:33Z</time>
      </trkpt>
      <trkpt lat="45.69271" lon="6.22893">
        <ele>1825.44</ele>
        <time>2017-09-16T10:05:34Z</time>
      </trkpt>
      <trkpt lat="45.69269" lon="6.22892">
        <ele>1825.13</ele>
        <time>2017-09-16T10:05:35Z</time>
      </trkpt>
      <trkpt lat="45.69268" lon="6.22892">
        <ele>1823.97</ele>
        <time>2017-09-16T10:05:36Z</time>
      </trkpt>
      <trkpt lat="45.69263" lon="6.22889">
        <ele>1822.82</ele>
        <time>2017-09-16T10:05:40Z</time>
      </trkpt>
      <trkpt lat="45.69263" lon="6.22888">
        <ele>1822.5</ele>
        <time>2017-09-16T10:05:41Z</time>
      </trkpt>
      <trkpt lat="45.69262" lon="6.22887">
        <ele>1821.61</ele>
        <time>2017-09-16T10:05:42Z</time>
      </trkpt>
      <trkpt lat="45.69261" lon="6.22885">
        <ele>1820.88</ele>
        <time>2017-09-16T10:05:43Z</time>
      </trkpt>
      <trkpt lat="45.69261" lon="6.22884">
        <ele>1820.62</ele>
        <time>2017-09-16T10:05:44Z</time>
      </trkpt>
      <trkpt lat="45.6926" lon="6.22883">
        <ele>1820.24</ele>
        <time>2017-09-16T10:05:45Z</time>
      </trkpt>
      <trkpt lat="45.69259" lon="6.22882">
        <ele>1819.51</ele>
        <time>2017-09-16T10:05:46Z</time>
      </trkpt>
      <trkpt lat="45.69258" lon="6.22881">
        <ele>1819.28</ele>
        <time>2017-09-16T10:05:47Z</time>
      </trkpt>
      <trkpt lat="45.69257" lon="6.2288">
        <ele>1818.71</ele>
        <time>2017-09-16T10:05:48Z</time>
      </trkpt>
      <trkpt lat="45.69256" lon="6.22879">
        <ele>1818.14</ele>
        <time>2017-09-16T10:05:49Z</time>
      </trkpt>
      <trkpt lat="45.69255" lon="6.22878">
        <ele>1817.78</ele>
        <time>2017-09-16T10:05:50Z</time>
      </trkpt>
      <trkpt lat="45.69252" lon="6.22869">
        <ele>1814.18</ele>
        <time>2017-09-16T10:06:01Z</time>
      </trkpt>
      <trkpt lat="45.69251" lon="6.22868">
        <ele>1814.21</ele>
        <time>2017-09-16T10:06:02Z</time>
      </trkpt>
      <trkpt lat="45.69251" lon="6.22865">
        <ele>1812.75</ele>
        <time>2017-09-16T10:06:04Z</time>
      </trkpt>
      <trkpt lat="45.69251" lon="6.22864">
        <ele>1812.23</ele>
        <time>2017-09-16T10:06:05Z</time>
      </trkpt>
      <trkpt lat="45.69252" lon="6.22862">
        <ele>1811.6</ele>
        <time>2017-09-16T10:06:06Z</time>
      </trkpt>
      <trkpt lat="45.69252" lon="6.22861">
        <ele>1811.66</ele>
        <time>2017-09-16T10:06:07Z</time>
      </trkpt>
      <trkpt lat="45.69252" lon="6.22859">
        <ele>1810.58</ele>
        <time>2017-09-16T10:06:08Z</time>
      </trkpt>
      <trkpt lat="45.69253" lon="6.22857">
        <ele>1810.01</ele>
        <time>2017-09-16T10:06:09Z</time>
      </trkpt>
      <trkpt lat="45.69254" lon="6.22856">
        <ele>1809.73</ele>
        <time>2017-09-16T10:06:10Z</time>
      </trkpt>
      <trkpt lat="45.69255" lon="6.22854">
        <ele>1809.36</ele>
        <time>2017-09-16T10:06:11Z</time>
      </trkpt>
      <trkpt lat="45.69255" lon="6.22853">
        <ele>1808.57</ele>
        <time>2017-09-16T10:06:12Z</time>
      </trkpt>
      <trkpt lat="45.69253" lon="6.22853">
        <ele>1808.8</ele>
        <time>2017-09-16T10:06:13Z</time>
      </trkpt>
      <trkpt lat="45.69252" lon="6.22853">
        <ele>1808.44</ele>
        <time>2017-09-16T10:06:14Z</time>
      </trkpt>
      <trkpt lat="45.6925" lon="6.22853">
        <ele>1806.98</ele>
        <time>2017-09-16T10:06:15Z</time>
      </trkpt>
      <trkpt lat="45.69249" lon="6.22853">
        <ele>1807.09</ele>
        <time>2017-09-16T10:06:16Z</time>
      </trkpt>
      <trkpt lat="45.69247" lon="6.22853">
        <ele>1806.75</ele>
        <time>2017-09-16T10:06:17Z</time>
      </trkpt>
      <trkpt lat="45.69246" lon="6.22852">
        <ele>1806.19</ele>
        <time>2017-09-16T10:06:18Z</time>
      </trkpt>
      <trkpt lat="45.69244" lon="6.22851">
        <ele>1804.87</ele>
        <time>2017-09-16T10:06:19Z</time>
      </trkpt>
      <trkpt lat="45.69243" lon="6.22849">
        <ele>1804.6</ele>
        <time>2017-09-16T10:06:20Z</time>
      </trkpt>
      <trkpt lat="45.69243" lon="6.22846">
        <ele>1803.35</ele>
        <time>2017-09-16T10:06:21Z</time>
      </trkpt>
      <trkpt lat="45.69243" lon="6.22844">
        <ele>1803.08</ele>
        <time>2017-09-16T10:06:22Z</time>
      </trkpt>
      <trkpt lat="45.69242" lon="6.22841">
        <ele>1802.5</ele>
        <time>2017-09-16T10:06:23Z</time>
      </trkpt>
      <trkpt lat="45.69241" lon="6.2284">
        <ele>1801.89</ele>
        <time>2017-09-16T10:06:24Z</time>
      </trkpt>
      <trkpt lat="45.6924" lon="6.22839">
        <ele>1801.03</ele>
        <time>2017-09-16T10:06:25Z</time>
      </trkpt>
      <trkpt lat="45.69238" lon="6.22837">
        <ele>1801.31</ele>
        <time>2017-09-16T10:06:26Z</time>
      </trkpt>
      <trkpt lat="45.69237" lon="6.22835">
        <ele>1800.51</ele>
        <time>2017-09-16T10:06:27Z</time>
      </trkpt>
      <trkpt lat="45.69235" lon="6.22834">
        <ele>1799.59</ele>
        <time>2017-09-16T10:06:28Z</time>
      </trkpt>
      <trkpt lat="45.69234" lon="6.22833">
        <ele>1799.05</ele>
        <time>2017-09-16T10:06:29Z</time>
      </trkpt>
      <trkpt lat="45.69226" lon="6.22827">
        <ele>1796.04</ele>
        <time>2017-09-16T10:06:34Z</time>
      </trkpt>
      <trkpt lat="45.69224" lon="6.22827">
        <ele>1795.26</ele>
        <time>2017-09-16T10:06:35Z</time>
      </trkpt>
      <trkpt lat="45.69223" lon="6.22827">
        <ele>1795.06</ele>
        <time>2017-09-16T10:06:36Z</time>
      </trkpt>
      <trkpt lat="45.69221" lon="6.22828">
        <ele>1794.51</ele>
        <time>2017-09-16T10:06:37Z</time>
      </trkpt>
      <trkpt lat="45.69219" lon="6.2283">
        <ele>1794.31</ele>
        <time>2017-09-16T10:06:38Z</time>
      </trkpt>
      <trkpt lat="45.69217" lon="6.22832">
        <ele>1793.42</ele>
        <time>2017-09-16T10:06:39Z</time>
      </trkpt>
      <trkpt lat="45.69216" lon="6.22833">
        <ele>1793.06</ele>
        <time>2017-09-16T10:06:40Z</time>
      </trkpt>
      <trkpt lat="45.69214" lon="6.22834">
        <ele>1793.32</ele>
        <time>2017-09-16T10:06:41Z</time>
      </trkpt>
      <trkpt lat="45.69212" lon="6.22834">
        <ele>1792.93</ele>
        <time>2017-09-16T10:06:42Z</time>
      </trkpt>
      <trkpt lat="45.69211" lon="6.22834">
        <ele>1792.92</ele>
        <time>2017-09-16T10:06:43Z</time>
      </trkpt>
      <trkpt lat="45.69209" lon="6.22834">
        <ele>1792.32</ele>
        <time>2017-09-16T10:06:44Z</time>
      </trkpt>
      <trkpt lat="45.69207" lon="6.22834">
        <ele>1791.9</ele>
        <time>2017-09-16T10:06:45Z</time>
      </trkpt>
      <trkpt lat="45.6919" lon="6.22828">
        <ele>1788.68</ele>
        <time>2017-09-16T10:06:53Z</time>
      </trkpt>
      <trkpt lat="45.69187" lon="6.22824">
        <ele>1787.76</ele>
        <time>2017-09-16T10:06:55Z</time>
      </trkpt>
      <trkpt lat="45.69179" lon="6.22815">
        <ele>1784.37</ele>
        <time>2017-09-16T10:07:00Z</time>
      </trkpt>
      <trkpt lat="45.69169" lon="6.22808">
        <ele>1781.26</ele>
        <time>2017-09-16T10:07:05Z</time>
      </trkpt>
      <trkpt lat="45.69167" lon="6.22806">
        <ele>1780.84</ele>
        <time>2017-09-16T10:07:06Z</time>
      </trkpt>
      <trkpt lat="45.69164" lon="6.22802">
        <ele>1779.71</ele>
        <time>2017-09-16T10:07:08Z</time>
      </trkpt>
      <trkpt lat="45.69151" lon="6.22797">
        <ele>1776.49</ele>
        <time>2017-09-16T10:07:15Z</time>
      </trkpt>
      <trkpt lat="45.6915" lon="6.22795">
        <ele>1776.18</ele>
        <time>2017-09-16T10:07:16Z</time>
      </trkpt>
      <trkpt lat="45.69149" lon="6.22794">
        <ele>1775.81</ele>
        <time>2017-09-16T10:07:17Z</time>
      </trkpt>
      <trkpt lat="45.69135" lon="6.22785">
        <ele>1772.47</ele>
        <time>2017-09-16T10:07:24Z</time>
      </trkpt>
      <trkpt lat="45.69133" lon="6.22784">
        <ele>1772.2</ele>
        <time>2017-09-16T10:07:25Z</time>
      </trkpt>
      <trkpt lat="45.69118" lon="6.22775">
        <ele>1768.65</ele>
        <time>2017-09-16T10:07:32Z</time>
      </trkpt>
      <trkpt lat="45.69106" lon="6.22756">
        <ele>1765.87</ele>
        <time>2017-09-16T10:07:40Z</time>
      </trkpt>
      <trkpt lat="45.69105" lon="6.22755">
        <ele>1766.06</ele>
        <time>2017-09-16T10:07:41Z</time>
      </trkpt>
      <trkpt lat="45.69102" lon="6.22752">
        <ele>1764.87</ele>
        <time>2017-09-16T10:07:44Z</time>
      </trkpt>
      <trkpt lat="45.69101" lon="6.2275">
        <ele>1764.5</ele>
        <time>2017-09-16T10:07:45Z</time>
      </trkpt>
      <trkpt lat="45.691" lon="6.22747">
        <ele>1764.16</ele>
        <time>2017-09-16T10:07:46Z</time>
      </trkpt>
      <trkpt lat="45.69095" lon="6.22737">
        <ele>1762.23</ele>
        <time>2017-09-16T10:07:50Z</time>
      </trkpt>
      <trkpt lat="45.69094" lon="6.22736">
        <ele>1762.24</ele>
        <time>2017-09-16T10:07:51Z</time>
      </trkpt>
      <trkpt lat="45.69092" lon="6.22734">
        <ele>1761.99</ele>
        <time>2017-09-16T10:07:52Z</time>
      </trkpt>
      <trkpt lat="45.6909" lon="6.22732">
        <ele>1761.32</ele>
        <time>2017-09-16T10:07:53Z</time>
      </trkpt>
      <trkpt lat="45.69088" lon="6.2273">
        <ele>1761.14</ele>
        <time>2017-09-16T10:07:54Z</time>
      </trkpt>
      <trkpt lat="45.69087" lon="6.22727">
        <ele>1760.63</ele>
        <time>2017-09-16T10:07:55Z</time>
      </trkpt>
      <trkpt lat="45.69085" lon="6.22725">
        <ele>1760.2</ele>
        <time>2017-09-16T10:07:56Z</time>
      </trkpt>
      <trkpt lat="45.69084" lon="6.22723">
        <ele>1759.21</ele>
        <time>2017-09-16T10:07:57Z</time>
      </trkpt>
      <trkpt lat="45.69081" lon="6.22721">
        <ele>1759.22</ele>
        <time>2017-09-16T10:07:58Z</time>
      </trkpt>
      <trkpt lat="45.69062" lon="6.22698">
        <ele>1757.27</ele>
        <time>2017-09-16T10:08:11Z</time>
      </trkpt>
      <trkpt lat="45.69066" lon="6.22692">
        <ele>1756.1</ele>
        <time>2017-09-16T10:08:25Z</time>
      </trkpt>
      <trkpt lat="45.69067" lon="6.22691">
        <ele>1755.65</ele>
        <time>2017-09-16T10:08:26Z</time>
      </trkpt>
      <trkpt lat="45.69068" lon="6.22689">
        <ele>1755.55</ele>
        <time>2017-09-16T10:08:27Z</time>
      </trkpt>
      <trkpt lat="45.69069" lon="6.22688">
        <ele>1755.62</ele>
        <time>2017-09-16T10:08:28Z</time>
      </trkpt>
      <trkpt lat="45.69069" lon="6.22687">
        <ele>1755.42</ele>
        <time>2017-09-16T10:08:29Z</time>
      </trkpt>
      <trkpt lat="45.69077" lon="6.22651">
        <ele>1755.05</ele>
        <time>2017-09-16T10:08:48Z</time>
      </trkpt>
      <trkpt lat="45.69073" lon="6.22617">
        <ele>1754.94</ele>
        <time>2017-09-16T10:09:05Z</time>
      </trkpt>
      <trkpt lat="45.69072" lon="6.22578">
        <ele>1755.31</ele>
        <time>2017-09-16T10:09:23Z</time>
      </trkpt>
      <trkpt lat="45.69076" lon="6.22557">
        <ele>1754.33</ele>
        <time>2017-09-16T10:09:34Z</time>
      </trkpt>
      <trkpt lat="45.69077" lon="6.22555">
        <ele>1754.6</ele>
        <time>2017-09-16T10:09:35Z</time>
      </trkpt>
      <trkpt lat="45.69077" lon="6.22553">
        <ele>1754.48</ele>
        <time>2017-09-16T10:09:36Z</time>
      </trkpt>
      <trkpt lat="45.69078" lon="6.22552">
        <ele>1753.48</ele>
        <time>2017-09-16T10:09:37Z</time>
      </trkpt>
      <trkpt lat="45.69079" lon="6.2255">
        <ele>1753.78</ele>
        <time>2017-09-16T10:09:38Z</time>
      </trkpt>
      <trkpt lat="45.69081" lon="6.22549">
        <ele>1753.44</ele>
        <time>2017-09-16T10:09:39Z</time>
      </trkpt>
      <trkpt lat="45.69083" lon="6.22545">
        <ele>1753.51</ele>
        <time>2017-09-16T10:09:41Z</time>
      </trkpt>
      <trkpt lat="45.69084" lon="6.22543">
        <ele>1753.57</ele>
        <time>2017-09-16T10:09:42Z</time>
      </trkpt>
      <trkpt lat="45.69084" lon="6.22541">
        <ele>1753.43</ele>
        <time>2017-09-16T10:09:43Z</time>
      </trkpt>
      <trkpt lat="45.69091" lon="6.2251">
        <ele>1751.16</ele>
        <time>2017-09-16T10:09:56Z</time>
      </trkpt>
      <trkpt lat="45.69092" lon="6.22508">
        <ele>1750.73</ele>
        <time>2017-09-16T10:09:57Z</time>
      </trkpt>
      <trkpt lat="45.69091" lon="6.22505">
        <ele>1750.53</ele>
        <time>2017-09-16T10:09:58Z</time>
      </trkpt>
      <trkpt lat="45.6909" lon="6.22502">
        <ele>1749.25</ele>
        <time>2017-09-16T10:09:59Z</time>
      </trkpt>
      <trkpt lat="45.69088" lon="6.22499">
        <ele>1749.14</ele>
        <time>2017-09-16T10:10:00Z</time>
      </trkpt>
      <trkpt lat="45.69087" lon="6.22498">
        <ele>1748.02</ele>
        <time>2017-09-16T10:10:01Z</time>
      </trkpt>
      <trkpt lat="45.69085" lon="6.22496">
        <ele>1747.61</ele>
        <time>2017-09-16T10:10:02Z</time>
      </trkpt>
      <trkpt lat="45.69084" lon="6.22494">
        <ele>1747.77</ele>
        <time>2017-09-16T10:10:03Z</time>
      </trkpt>
      <trkpt lat="45.69071" lon="6.22461">
        <ele>1745.34</ele>
        <time>2017-09-16T10:10:17Z</time>
      </trkpt>
      <trkpt lat="45.69068" lon="6.2243">
        <ele>1746.62</ele>
        <time>2017-09-16T10:10:31Z</time>
      </trkpt>
      <trkpt lat="45.69073" lon="6.22413">
        <ele>1747.76</ele>
        <time>2017-09-16T10:10:41Z</time>
      </trkpt>
      <trkpt lat="45.69074" lon="6.22398">
        <ele>1750.86</ele>
        <time>2017-09-16T10:10:51Z</time>
      </trkpt>
      <trkpt lat="45.69065" lon="6.2237">
        <ele>1747.7</ele>
        <time>2017-09-16T10:11:06Z</time>
      </trkpt>
      <trkpt lat="45.6906" lon="6.22337">
        <ele>1744.56</ele>
        <time>2017-09-16T10:11:17Z</time>
      </trkpt>
      <trkpt lat="45.69051" lon="6.22322">
        <ele>1741.99</ele>
        <time>2017-09-16T10:11:24Z</time>
      </trkpt>
      <trkpt lat="45.69043" lon="6.22314">
        <ele>1740.07</ele>
        <time>2017-09-16T10:11:29Z</time>
      </trkpt>
      <trkpt lat="45.69042" lon="6.22311">
        <ele>1739.47</ele>
        <time>2017-09-16T10:11:30Z</time>
      </trkpt>
      <trkpt lat="45.69041" lon="6.22308">
        <ele>1738.78</ele>
        <time>2017-09-16T10:11:31Z</time>
      </trkpt>
      <trkpt lat="45.69039" lon="6.22305">
        <ele>1738.18</ele>
        <time>2017-09-16T10:11:32Z</time>
      </trkpt>
      <trkpt lat="45.69039" lon="6.22302">
        <ele>1738.39</ele>
        <time>2017-09-16T10:11:33Z</time>
      </trkpt>
      <trkpt lat="45.69039" lon="6.223">
        <ele>1737.97</ele>
        <time>2017-09-16T10:11:34Z</time>
      </trkpt>
      <trkpt lat="45.69038" lon="6.22297">
        <ele>1738.3</ele>
        <time>2017-09-16T10:11:35Z</time>
      </trkpt>
      <trkpt lat="45.69038" lon="6.22295">
        <ele>1738.41</ele>
        <time>2017-09-16T10:11:36Z</time>
      </trkpt>
      <trkpt lat="45.69037" lon="6.22293">
        <ele>1738.45</ele>
        <time>2017-09-16T10:11:37Z</time>
      </trkpt>
      <trkpt lat="45.69036" lon="6.22292">
        <ele>1738.78</ele>
        <time>2017-09-16T10:11:38Z</time>
      </trkpt>
      <trkpt lat="45.69035" lon="6.22288">
        <ele>1739.58</ele>
        <time>2017-09-16T10:11:40Z</time>
      </trkpt>
      <trkpt lat="45.69035" lon="6.22287">
        <ele>1739.63</ele>
        <time>2017-09-16T10:11:41Z</time>
      </trkpt>
      <trkpt lat="45.69035" lon="6.22285">
        <ele>1739.8</ele>
        <time>2017-09-16T10:11:42Z</time>
      </trkpt>
      <trkpt lat="45.6903" lon="6.22258">
        <ele>1742.12</ele>
        <time>2017-09-16T10:11:56Z</time>
      </trkpt>
      <trkpt lat="45.69029" lon="6.22255">
        <ele>1742.24</ele>
        <time>2017-09-16T10:11:58Z</time>
      </trkpt>
      <trkpt lat="45.69029" lon="6.22253">
        <ele>1742.07</ele>
        <time>2017-09-16T10:11:59Z</time>
      </trkpt>
      <trkpt lat="45.69028" lon="6.22247">
        <ele>1741.66</ele>
        <time>2017-09-16T10:12:03Z</time>
      </trkpt>
      <trkpt lat="45.69028" lon="6.22246">
        <ele>1741.49</ele>
        <time>2017-09-16T10:12:04Z</time>
      </trkpt>
      <trkpt lat="45.69019" lon="6.22225">
        <ele>1741.41</ele>
        <time>2017-09-16T10:12:22Z</time>
      </trkpt>
      <trkpt lat="45.69021" lon="6.2222">
        <ele>1740.43</ele>
        <time>2017-09-16T10:12:26Z</time>
      </trkpt>
      <trkpt lat="45.69021" lon="6.22218">
        <ele>1740.5</ele>
        <time>2017-09-16T10:12:27Z</time>
      </trkpt>
      <trkpt lat="45.69021" lon="6.22215">
        <ele>1740.64</ele>
        <time>2017-09-16T10:12:28Z</time>
      </trkpt>
      <trkpt lat="45.69022" lon="6.22214">
        <ele>1741.06</ele>
        <time>2017-09-16T10:12:29Z</time>
      </trkpt>
      <trkpt lat="45.69021" lon="6.22211">
        <ele>1742.45</ele>
        <time>2017-09-16T10:12:32Z</time>
      </trkpt>
      <trkpt lat="45.69019" lon="6.22198">
        <ele>1745.6</ele>
        <time>2017-09-16T10:12:43Z</time>
      </trkpt>
      <trkpt lat="45.69021" lon="6.22177">
        <ele>1748.38</ele>
        <time>2017-09-16T10:12:57Z</time>
      </trkpt>
      <trkpt lat="45.69019" lon="6.22168">
        <ele>1749.47</ele>
        <time>2017-09-16T10:13:18Z</time>
      </trkpt>
      <trkpt lat="45.69017" lon="6.2216">
        <ele>1752.46</ele>
        <time>2017-09-16T10:13:40Z</time>
      </trkpt>
      <trkpt lat="45.69016" lon="6.22157">
        <ele>1753.78</ele>
        <time>2017-09-16T10:13:43Z</time>
      </trkpt>
      <trkpt lat="45.69015" lon="6.22153">
        <ele>1755.65</ele>
        <time>2017-09-16T10:13:47Z</time>
      </trkpt>
      <trkpt lat="45.69014" lon="6.22135">
        <ele>1759.24</ele>
        <time>2017-09-16T10:14:02Z</time>
      </trkpt>
      <trkpt lat="45.69014" lon="6.22134">
        <ele>1759.53</ele>
        <time>2017-09-16T10:14:03Z</time>
      </trkpt>
      <trkpt lat="45.69016" lon="6.22115">
        <ele>1763.31</ele>
        <time>2017-09-16T10:14:18Z</time>
      </trkpt>
      <trkpt lat="45.69017" lon="6.221">
        <ele>1766.39</ele>
        <time>2017-09-16T10:14:31Z</time>
      </trkpt>
      <trkpt lat="45.69011" lon="6.22099">
        <ele>1769.45</ele>
        <time>2017-09-16T10:14:42Z</time>
      </trkpt>
      <trkpt lat="45.69005" lon="6.22097">
        <ele>1772.52</ele>
        <time>2017-09-16T10:14:53Z</time>
      </trkpt>
      <trkpt lat="45.69004" lon="6.22082">
        <ele>1776.06</ele>
        <time>2017-09-16T10:15:06Z</time>
      </trkpt>
      <trkpt lat="45.68997" lon="6.22084">
        <ele>1779.07</ele>
        <time>2017-09-16T10:15:17Z</time>
      </trkpt>
      <trkpt lat="45.68993" lon="6.22079">
        <ele>1782.27</ele>
        <time>2017-09-16T10:15:31Z</time>
      </trkpt>
      <trkpt lat="45.68995" lon="6.22067">
        <ele>1785.27</ele>
        <time>2017-09-16T10:15:42Z</time>
      </trkpt>
      <trkpt lat="45.68995" lon="6.22065">
        <ele>1787.57</ele>
        <time>2017-09-16T10:15:51Z</time>
      </trkpt>
      <trkpt lat="45.68993" lon="6.22057">
        <ele>1789.82</ele>
        <time>2017-09-16T10:16:09Z</time>
      </trkpt>
      <trkpt lat="45.68994" lon="6.22055">
        <ele>1790.67</ele>
        <time>2017-09-16T10:16:10Z</time>
      </trkpt>
      <trkpt lat="45.68995" lon="6.22054">
        <ele>1790.69</ele>
        <time>2017-09-16T10:16:11Z</time>
      </trkpt>
      <trkpt lat="45.68996" lon="6.22053">
        <ele>1790.6</ele>
        <time>2017-09-16T10:16:12Z</time>
      </trkpt>
      <trkpt lat="45.68997" lon="6.22051">
        <ele>1790.71</ele>
        <time>2017-09-16T10:16:13Z</time>
      </trkpt>
      <trkpt lat="45.68998" lon="6.2205">
        <ele>1791.08</ele>
        <time>2017-09-16T10:16:14Z</time>
      </trkpt>
      <trkpt lat="45.69003" lon="6.22044">
        <ele>1794.69</ele>
        <time>2017-09-16T10:16:27Z</time>
      </trkpt>
      <trkpt lat="45.6899" lon="6.2205">
        <ele>1798.09</ele>
        <time>2017-09-16T10:16:40Z</time>
      </trkpt>
      <trkpt lat="45.68991" lon="6.2204">
        <ele>1800.29</ele>
        <time>2017-09-16T10:16:53Z</time>
      </trkpt>
      <trkpt lat="45.68991" lon="6.22038">
        <ele>1800.25</ele>
        <time>2017-09-16T10:16:54Z</time>
      </trkpt>
      <trkpt lat="45.68995" lon="6.22035">
        <ele>1800.86</ele>
        <time>2017-09-16T10:16:58Z</time>
      </trkpt>
      <trkpt lat="45.68998" lon="6.22032">
        <ele>1801.79</ele>
        <time>2017-09-16T10:17:01Z</time>
      </trkpt>
      <trkpt lat="45.69" lon="6.22023">
        <ele>1803.87</ele>
        <time>2017-09-16T10:17:13Z</time>
      </trkpt>
      <trkpt lat="45.68999" lon="6.22024">
        <ele>1804.06</ele>
        <time>2017-09-16T10:17:14Z</time>
      </trkpt>
      <trkpt lat="45.68998" lon="6.22024">
        <ele>1804.1</ele>
        <time>2017-09-16T10:17:15Z</time>
      </trkpt>
      <trkpt lat="45.68984" lon="6.22024">
        <ele>1807.26</ele>
        <time>2017-09-16T10:17:27Z</time>
      </trkpt>
      <trkpt lat="45.68979" lon="6.22023">
        <ele>1809.4</ele>
        <time>2017-09-16T10:17:34Z</time>
      </trkpt>
      <trkpt lat="45.68979" lon="6.22021">
        <ele>1809.64</ele>
        <time>2017-09-16T10:17:35Z</time>
      </trkpt>
      <trkpt lat="45.68988" lon="6.22005">
        <ele>1812.97</ele>
        <time>2017-09-16T10:17:48Z</time>
      </trkpt>
      <trkpt lat="45.68994" lon="6.22001">
        <ele>1815.9</ele>
        <time>2017-09-16T10:18:01Z</time>
      </trkpt>
      <trkpt lat="45.68976" lon="6.21992">
        <ele>1815.4</ele>
        <time>2017-09-16T10:18:18Z</time>
      </trkpt>
      <trkpt lat="45.68963" lon="6.21979">
        <ele>1812.14</ele>
        <time>2017-09-16T10:18:30Z</time>
      </trkpt>
      <trkpt lat="45.68962" lon="6.21977">
        <ele>1811.99</ele>
        <time>2017-09-16T10:18:31Z</time>
      </trkpt>
      <trkpt lat="45.68962" lon="6.21975">
        <ele>1810.11</ele>
        <time>2017-09-16T10:18:34Z</time>
      </trkpt>
      <trkpt lat="45.68977" lon="6.21971">
        <ele>1807.02</ele>
        <time>2017-09-16T10:18:43Z</time>
      </trkpt>
      <trkpt lat="45.68991" lon="6.21948">
        <ele>1803.96</ele>
        <time>2017-09-16T10:18:55Z</time>
      </trkpt>
      <trkpt lat="45.68989" lon="6.21949">
        <ele>1804.08</ele>
        <time>2017-09-16T10:18:56Z</time>
      </trkpt>
      <trkpt lat="45.68987" lon="6.2195">
        <ele>1803.96</ele>
        <time>2017-09-16T10:18:57Z</time>
      </trkpt>
      <trkpt lat="45.68986" lon="6.21952">
        <ele>1803.6</ele>
        <time>2017-09-16T10:18:58Z</time>
      </trkpt>
      <trkpt lat="45.68984" lon="6.21953">
        <ele>1802.62</ele>
        <time>2017-09-16T10:18:59Z</time>
      </trkpt>
      <trkpt lat="45.68982" lon="6.21954">
        <ele>1802.51</ele>
        <time>2017-09-16T10:19:00Z</time>
      </trkpt>
      <trkpt lat="45.6898" lon="6.21955">
        <ele>1801.96</ele>
        <time>2017-09-16T10:19:01Z</time>
      </trkpt>
      <trkpt lat="45.68977" lon="6.21956">
        <ele>1801.25</ele>
        <time>2017-09-16T10:19:02Z</time>
      </trkpt>
      <trkpt lat="45.68975" lon="6.21957">
        <ele>1800.67</ele>
        <time>2017-09-16T10:19:03Z</time>
      </trkpt>
      <trkpt lat="45.68973" lon="6.21957">
        <ele>1800.25</ele>
        <time>2017-09-16T10:19:04Z</time>
      </trkpt>
      <trkpt lat="45.6897" lon="6.21956">
        <ele>1800.13</ele>
        <time>2017-09-16T10:19:05Z</time>
      </trkpt>
      <trkpt lat="45.68968" lon="6.21956">
        <ele>1800.11</ele>
        <time>2017-09-16T10:19:06Z</time>
      </trkpt>
      <trkpt lat="45.68957" lon="6.21957">
        <ele>1798.61</ele>
        <time>2017-09-16T10:19:11Z</time>
      </trkpt>
      <trkpt lat="45.68956" lon="6.21955">
        <ele>1797.74</ele>
        <time>2017-09-16T10:19:12Z</time>
      </trkpt>
      <trkpt lat="45.68955" lon="6.21953">
        <ele>1797.54</ele>
        <time>2017-09-16T10:19:13Z</time>
      </trkpt>
      <trkpt lat="45.68954" lon="6.21951">
        <ele>1796.77</ele>
        <time>2017-09-16T10:19:14Z</time>
      </trkpt>
      <trkpt lat="45.68953" lon="6.21948">
        <ele>1796.79</ele>
        <time>2017-09-16T10:19:15Z</time>
      </trkpt>
      <trkpt lat="45.68946" lon="6.21935">
        <ele>1793.18</ele>
        <time>2017-09-16T10:19:25Z</time>
      </trkpt>
      <trkpt lat="45.68946" lon="6.21934">
        <ele>1793.25</ele>
        <time>2017-09-16T10:19:26Z</time>
      </trkpt>
      <trkpt lat="45.68936" lon="6.21913">
        <ele>1790</ele>
        <time>2017-09-16T10:19:39Z</time>
      </trkpt>
      <trkpt lat="45.68935" lon="6.21913">
        <ele>1790.64</ele>
        <time>2017-09-16T10:19:40Z</time>
      </trkpt>
      <trkpt lat="45.68933" lon="6.21911">
        <ele>1790.24</ele>
        <time>2017-09-16T10:19:41Z</time>
      </trkpt>
      <trkpt lat="45.68923" lon="6.2189">
        <ele>1787.17</ele>
        <time>2017-09-16T10:19:50Z</time>
      </trkpt>
      <trkpt lat="45.68922" lon="6.21888">
        <ele>1787.03</ele>
        <time>2017-09-16T10:19:51Z</time>
      </trkpt>
      <trkpt lat="45.68905" lon="6.21875">
        <ele>1783.85</ele>
        <time>2017-09-16T10:20:00Z</time>
      </trkpt>
      <trkpt lat="45.68888" lon="6.21876">
        <ele>1780.75</ele>
        <time>2017-09-16T10:20:11Z</time>
      </trkpt>
      <trkpt lat="45.68893" lon="6.21867">
        <ele>1778.56</ele>
        <time>2017-09-16T10:20:15Z</time>
      </trkpt>
      <trkpt lat="45.68907" lon="6.21848">
        <ele>1775.73</ele>
        <time>2017-09-16T10:20:23Z</time>
      </trkpt>
      <trkpt lat="45.68916" lon="6.21824">
        <ele>1772.59</ele>
        <time>2017-09-16T10:20:31Z</time>
      </trkpt>
      <trkpt lat="45.68915" lon="6.21801">
        <ele>1770.13</ele>
        <time>2017-09-16T10:20:38Z</time>
      </trkpt>
      <trkpt lat="45.68915" lon="6.21791">
        <ele>1769.69</ele>
        <time>2017-09-16T10:20:41Z</time>
      </trkpt>
      <trkpt lat="45.68914" lon="6.2179">
        <ele>1769.41</ele>
        <time>2017-09-16T10:20:42Z</time>
      </trkpt>
      <trkpt lat="45.68913" lon="6.21791">
        <ele>1769.14</ele>
        <time>2017-09-16T10:20:43Z</time>
      </trkpt>
      <trkpt lat="45.68912" lon="6.21794">
        <ele>1768.78</ele>
        <time>2017-09-16T10:20:44Z</time>
      </trkpt>
      <trkpt lat="45.6891" lon="6.21796">
        <ele>1768.6</ele>
        <time>2017-09-16T10:20:45Z</time>
      </trkpt>
      <trkpt lat="45.68909" lon="6.21799">
        <ele>1768.27</ele>
        <time>2017-09-16T10:20:46Z</time>
      </trkpt>
      <trkpt lat="45.68904" lon="6.21806">
        <ele>1767.02</ele>
        <time>2017-09-16T10:20:49Z</time>
      </trkpt>
      <trkpt lat="45.68896" lon="6.21817">
        <ele>1764.73</ele>
        <time>2017-09-16T10:20:54Z</time>
      </trkpt>
      <trkpt lat="45.68883" lon="6.21836">
        <ele>1761.59</ele>
        <time>2017-09-16T10:21:02Z</time>
      </trkpt>
      <trkpt lat="45.68878" lon="6.21843">
        <ele>1760.28</ele>
        <time>2017-09-16T10:21:05Z</time>
      </trkpt>
      <trkpt lat="45.68872" lon="6.21849">
        <ele>1758.77</ele>
        <time>2017-09-16T10:21:08Z</time>
      </trkpt>
      <trkpt lat="45.68853" lon="6.21846">
        <ele>1758.38</ele>
        <time>2017-09-16T10:21:16Z</time>
      </trkpt>
      <trkpt lat="45.68842" lon="6.2184">
        <ele>1759.42</ele>
        <time>2017-09-16T10:21:23Z</time>
      </trkpt>
      <trkpt lat="45.68841" lon="6.21841">
        <ele>1759.44</ele>
        <time>2017-09-16T10:21:24Z</time>
      </trkpt>
      <trkpt lat="45.6884" lon="6.21842">
        <ele>1759.52</ele>
        <time>2017-09-16T10:21:25Z</time>
      </trkpt>
      <trkpt lat="45.68838" lon="6.21846">
        <ele>1758.57</ele>
        <time>2017-09-16T10:21:28Z</time>
      </trkpt>
      <trkpt lat="45.68836" lon="6.21846">
        <ele>1757.59</ele>
        <time>2017-09-16T10:21:29Z</time>
      </trkpt>
      <trkpt lat="45.68833" lon="6.21846">
        <ele>1756.93</ele>
        <time>2017-09-16T10:21:31Z</time>
      </trkpt>
      <trkpt lat="45.6883" lon="6.21846">
        <ele>1755.45</ele>
        <time>2017-09-16T10:21:33Z</time>
      </trkpt>
      <trkpt lat="45.68829" lon="6.21845">
        <ele>1755.64</ele>
        <time>2017-09-16T10:21:34Z</time>
      </trkpt>
      <trkpt lat="45.68827" lon="6.21845">
        <ele>1754.63</ele>
        <time>2017-09-16T10:21:35Z</time>
      </trkpt>
      <trkpt lat="45.68822" lon="6.21845">
        <ele>1752.09</ele>
        <time>2017-09-16T10:21:38Z</time>
      </trkpt>
      <trkpt lat="45.68821" lon="6.21844">
        <ele>1751.86</ele>
        <time>2017-09-16T10:21:39Z</time>
      </trkpt>
      <trkpt lat="45.68821" lon="6.21843">
        <ele>1751.38</ele>
        <time>2017-09-16T10:21:40Z</time>
      </trkpt>
      <trkpt lat="45.6882" lon="6.21841">
        <ele>1751.39</ele>
        <time>2017-09-16T10:21:41Z</time>
      </trkpt>
      <trkpt lat="45.68819" lon="6.21838">
        <ele>1750.56</ele>
        <time>2017-09-16T10:21:43Z</time>
      </trkpt>
      <trkpt lat="45.68818" lon="6.21838">
        <ele>1749.94</ele>
        <time>2017-09-16T10:21:44Z</time>
      </trkpt>
      <trkpt lat="45.68817" lon="6.21837">
        <ele>1749.55</ele>
        <time>2017-09-16T10:21:45Z</time>
      </trkpt>
      <trkpt lat="45.68816" lon="6.21837">
        <ele>1749.17</ele>
        <time>2017-09-16T10:21:46Z</time>
      </trkpt>
      <trkpt lat="45.68815" lon="6.21838">
        <ele>1748.58</ele>
        <time>2017-09-16T10:21:47Z</time>
      </trkpt>
      <trkpt lat="45.68814" lon="6.21838">
        <ele>1748.3</ele>
        <time>2017-09-16T10:21:48Z</time>
      </trkpt>
      <trkpt lat="45.68807" lon="6.21839">
        <ele>1745.04</ele>
        <time>2017-09-16T10:21:53Z</time>
      </trkpt>
      <trkpt lat="45.68803" lon="6.21842">
        <ele>1743.11</ele>
        <time>2017-09-16T10:21:56Z</time>
      </trkpt>
      <trkpt lat="45.68801" lon="6.21842">
        <ele>1742.13</ele>
        <time>2017-09-16T10:21:57Z</time>
      </trkpt>
      <trkpt lat="45.688" lon="6.21842">
        <ele>1741.8</ele>
        <time>2017-09-16T10:21:58Z</time>
      </trkpt>
      <trkpt lat="45.68798" lon="6.21842">
        <ele>1740.73</ele>
        <time>2017-09-16T10:21:59Z</time>
      </trkpt>
      <trkpt lat="45.68797" lon="6.21842">
        <ele>1740.22</ele>
        <time>2017-09-16T10:22:00Z</time>
      </trkpt>
      <trkpt lat="45.68795" lon="6.21843">
        <ele>1739.36</ele>
        <time>2017-09-16T10:22:01Z</time>
      </trkpt>
      <trkpt lat="45.68787" lon="6.21842">
        <ele>1735.72</ele>
        <time>2017-09-16T10:22:06Z</time>
      </trkpt>
      <trkpt lat="45.6878" lon="6.21839">
        <ele>1733.58</ele>
        <time>2017-09-16T10:22:10Z</time>
      </trkpt>
      <trkpt lat="45.68777" lon="6.21839">
        <ele>1732.78</ele>
        <time>2017-09-16T10:22:12Z</time>
      </trkpt>
      <trkpt lat="45.68776" lon="6.21839">
        <ele>1732.56</ele>
        <time>2017-09-16T10:22:13Z</time>
      </trkpt>
      <trkpt lat="45.68775" lon="6.21839">
        <ele>1731.72</ele>
        <time>2017-09-16T10:22:14Z</time>
      </trkpt>
      <trkpt lat="45.68772" lon="6.2184">
        <ele>1729.54</ele>
        <time>2017-09-16T10:22:17Z</time>
      </trkpt>
      <trkpt lat="45.68771" lon="6.2184">
        <ele>1729.18</ele>
        <time>2017-09-16T10:22:18Z</time>
      </trkpt>
      <trkpt lat="45.68771" lon="6.2184">
        <ele>1728.71</ele>
        <time>2017-09-16T10:22:19Z</time>
      </trkpt>
      <trkpt lat="45.68771" lon="6.21843">
        <ele>1727.76</ele>
        <time>2017-09-16T10:22:20Z</time>
      </trkpt>
      <trkpt lat="45.68769" lon="6.21846">
        <ele>1726.03</ele>
        <time>2017-09-16T10:22:23Z</time>
      </trkpt>
      <trkpt lat="45.68768" lon="6.21847">
        <ele>1725.13</ele>
        <time>2017-09-16T10:22:24Z</time>
      </trkpt>
      <trkpt lat="45.68766" lon="6.21847">
        <ele>1724.84</ele>
        <time>2017-09-16T10:22:25Z</time>
      </trkpt>
      <trkpt lat="45.68765" lon="6.21846">
        <ele>1724.34</ele>
        <time>2017-09-16T10:22:26Z</time>
      </trkpt>
      <trkpt lat="45.68765" lon="6.21846">
        <ele>1723.98</ele>
        <time>2017-09-16T10:22:27Z</time>
      </trkpt>
      <trkpt lat="45.68765" lon="6.21844">
        <ele>1723.57</ele>
        <time>2017-09-16T10:22:28Z</time>
      </trkpt>
      <trkpt lat="45.68766" lon="6.21842">
        <ele>1722.9</ele>
        <time>2017-09-16T10:22:29Z</time>
      </trkpt>
      <trkpt lat="45.68766" lon="6.21834">
        <ele>1721.44</ele>
        <time>2017-09-16T10:22:33Z</time>
      </trkpt>
      <trkpt lat="45.68765" lon="6.21835">
        <ele>1720.96</ele>
        <time>2017-09-16T10:22:34Z</time>
      </trkpt>
      <trkpt lat="45.68755" lon="6.21841">
        <ele>1717.85</ele>
        <time>2017-09-16T10:22:42Z</time>
      </trkpt>
      <trkpt lat="45.68742" lon="6.21835">
        <ele>1714.52</ele>
        <time>2017-09-16T10:22:49Z</time>
      </trkpt>
      <trkpt lat="45.68743" lon="6.21834">
        <ele>1712.96</ele>
        <time>2017-09-16T10:22:52Z</time>
      </trkpt>
      <trkpt lat="45.68746" lon="6.21831">
        <ele>1712.09</ele>
        <time>2017-09-16T10:22:54Z</time>
      </trkpt>
      <trkpt lat="45.68746" lon="6.2183">
        <ele>1712.08</ele>
        <time>2017-09-16T10:22:55Z</time>
      </trkpt>
      <trkpt lat="45.68744" lon="6.2183">
        <ele>1711.36</ele>
        <time>2017-09-16T10:22:56Z</time>
      </trkpt>
      <trkpt lat="45.68745" lon="6.21826">
        <ele>1709.27</ele>
        <time>2017-09-16T10:23:01Z</time>
      </trkpt>
      <trkpt lat="45.68745" lon="6.21824">
        <ele>1709.2</ele>
        <time>2017-09-16T10:23:02Z</time>
      </trkpt>
      <trkpt lat="45.68745" lon="6.21823">
        <ele>1708.54</ele>
        <time>2017-09-16T10:23:03Z</time>
      </trkpt>
      <trkpt lat="45.68744" lon="6.21822">
        <ele>1708.1</ele>
        <time>2017-09-16T10:23:04Z</time>
      </trkpt>
      <trkpt lat="45.68743" lon="6.21822">
        <ele>1708.03</ele>
        <time>2017-09-16T10:23:05Z</time>
      </trkpt>
      <trkpt lat="45.68742" lon="6.21822">
        <ele>1707.15</ele>
        <time>2017-09-16T10:23:06Z</time>
      </trkpt>
      <trkpt lat="45.6874" lon="6.21821">
        <ele>1707.14</ele>
        <time>2017-09-16T10:23:07Z</time>
      </trkpt>
      <trkpt lat="45.68742" lon="6.21819">
        <ele>1705.81</ele>
        <time>2017-09-16T10:23:10Z</time>
      </trkpt>
      <trkpt lat="45.68743" lon="6.21814">
        <ele>1704.98</ele>
        <time>2017-09-16T10:23:13Z</time>
      </trkpt>
      <trkpt lat="45.68742" lon="6.21813">
        <ele>1704.72</ele>
        <time>2017-09-16T10:23:14Z</time>
      </trkpt>
      <trkpt lat="45.68738" lon="6.21812">
        <ele>1703.48</ele>
        <time>2017-09-16T10:23:17Z</time>
      </trkpt>
      <trkpt lat="45.68737" lon="6.21809">
        <ele>1701.97</ele>
        <time>2017-09-16T10:23:19Z</time>
      </trkpt>
      <trkpt lat="45.68739" lon="6.21807">
        <ele>1701.75</ele>
        <time>2017-09-16T10:23:20Z</time>
      </trkpt>
      <trkpt lat="45.68739" lon="6.21805">
        <ele>1701.4</ele>
        <time>2017-09-16T10:23:21Z</time>
      </trkpt>
      <trkpt lat="45.68739" lon="6.21803">
        <ele>1701.13</ele>
        <time>2017-09-16T10:23:22Z</time>
      </trkpt>
      <trkpt lat="45.68738" lon="6.21803">
        <ele>1701.06</ele>
        <time>2017-09-16T10:23:23Z</time>
      </trkpt>
      <trkpt lat="45.68736" lon="6.21804">
        <ele>1699.83</ele>
        <time>2017-09-16T10:23:24Z</time>
      </trkpt>
      <trkpt lat="45.68734" lon="6.21806">
        <ele>1700.19</ele>
        <time>2017-09-16T10:23:25Z</time>
      </trkpt>
      <trkpt lat="45.68723" lon="6.21807">
        <ele>1697.95</ele>
        <time>2017-09-16T10:23:31Z</time>
      </trkpt>
      <trkpt lat="45.68718" lon="6.21803">
        <ele>1696.32</ele>
        <time>2017-09-16T10:23:34Z</time>
      </trkpt>
      <trkpt lat="45.68718" lon="6.21801">
        <ele>1695.79</ele>
        <time>2017-09-16T10:23:35Z</time>
      </trkpt>
      <trkpt lat="45.68719" lon="6.218">
        <ele>1696.38</ele>
        <time>2017-09-16T10:23:36Z</time>
      </trkpt>
      <trkpt lat="45.6872" lon="6.21799">
        <ele>1695.52</ele>
        <time>2017-09-16T10:23:37Z</time>
      </trkpt>
      <trkpt lat="45.68721" lon="6.21798">
        <ele>1695.34</ele>
        <time>2017-09-16T10:23:38Z</time>
      </trkpt>
      <trkpt lat="45.68722" lon="6.21796">
        <ele>1694.83</ele>
        <time>2017-09-16T10:23:39Z</time>
      </trkpt>
      <trkpt lat="45.68723" lon="6.21795">
        <ele>1694.57</ele>
        <time>2017-09-16T10:23:40Z</time>
      </trkpt>
      <trkpt lat="45.68734" lon="6.2179">
        <ele>1692.34</ele>
        <time>2017-09-16T10:23:46Z</time>
      </trkpt>
      <trkpt lat="45.68733" lon="6.21788">
        <ele>1692.11</ele>
        <time>2017-09-16T10:23:47Z</time>
      </trkpt>
      <trkpt lat="45.68732" lon="6.21788">
        <ele>1691.56</ele>
        <time>2017-09-16T10:23:48Z</time>
      </trkpt>
      <trkpt lat="45.68709" lon="6.21789">
        <ele>1688.15</ele>
        <time>2017-09-16T10:24:00Z</time>
      </trkpt>
      <trkpt lat="45.68707" lon="6.21789">
        <ele>1687.88</ele>
        <time>2017-09-16T10:24:01Z</time>
      </trkpt>
      <trkpt lat="45.68699" lon="6.21788">
        <ele>1685.37</ele>
        <time>2017-09-16T10:24:08Z</time>
      </trkpt>
      <trkpt lat="45.687" lon="6.21785">
        <ele>1684.96</ele>
        <time>2017-09-16T10:24:09Z</time>
      </trkpt>
      <trkpt lat="45.68701" lon="6.21784">
        <ele>1684.84</ele>
        <time>2017-09-16T10:24:10Z</time>
      </trkpt>
      <trkpt lat="45.68702" lon="6.21783">
        <ele>1685.13</ele>
        <time>2017-09-16T10:24:11Z</time>
      </trkpt>
      <trkpt lat="45.68703" lon="6.21782">
        <ele>1684.6</ele>
        <time>2017-09-16T10:24:12Z</time>
      </trkpt>
      <trkpt lat="45.68705" lon="6.21781">
        <ele>1683.86</ele>
        <time>2017-09-16T10:24:13Z</time>
      </trkpt>
      <trkpt lat="45.68706" lon="6.21779">
        <ele>1683.45</ele>
        <time>2017-09-16T10:24:14Z</time>
      </trkpt>
      <trkpt lat="45.68708" lon="6.21777">
        <ele>1682.74</ele>
        <time>2017-09-16T10:24:15Z</time>
      </trkpt>
      <trkpt lat="45.6871" lon="6.21773">
        <ele>1682.09</ele>
        <time>2017-09-16T10:24:17Z</time>
      </trkpt>
      <trkpt lat="45.68732" lon="6.21766">
        <ele>1678.99</ele>
        <time>2017-09-16T10:24:27Z</time>
      </trkpt>
      <trkpt lat="45.68733" lon="6.21763">
        <ele>1679.25</ele>
        <time>2017-09-16T10:24:29Z</time>
      </trkpt>
      <trkpt lat="45.68732" lon="6.21763">
        <ele>1678.49</ele>
        <time>2017-09-16T10:24:30Z</time>
      </trkpt>
      <trkpt lat="45.6873" lon="6.21763">
        <ele>1678.18</ele>
        <time>2017-09-16T10:24:31Z</time>
      </trkpt>
      <trkpt lat="45.68727" lon="6.21763">
        <ele>1677.16</ele>
        <time>2017-09-16T10:24:33Z</time>
      </trkpt>
      <trkpt lat="45.6871" lon="6.21766">
        <ele>1674.13</ele>
        <time>2017-09-16T10:24:42Z</time>
      </trkpt>
      <trkpt lat="45.68696" lon="6.21763">
        <ele>1671.06</ele>
        <time>2017-09-16T10:24:48Z</time>
      </trkpt>
      <trkpt lat="45.68678" lon="6.21757">
        <ele>1667.97</ele>
        <time>2017-09-16T10:24:57Z</time>
      </trkpt>
      <trkpt lat="45.68674" lon="6.21754">
        <ele>1666.12</ele>
        <time>2017-09-16T10:25:00Z</time>
      </trkpt>
      <trkpt lat="45.68673" lon="6.21752">
        <ele>1665.32</ele>
        <time>2017-09-16T10:25:01Z</time>
      </trkpt>
      <trkpt lat="45.68671" lon="6.2175">
        <ele>1664.76</ele>
        <time>2017-09-16T10:25:02Z</time>
      </trkpt>
      <trkpt lat="45.68669" lon="6.21749">
        <ele>1663.85</ele>
        <time>2017-09-16T10:25:03Z</time>
      </trkpt>
      <trkpt lat="45.68668" lon="6.21748">
        <ele>1663.07</ele>
        <time>2017-09-16T10:25:04Z</time>
      </trkpt>
      <trkpt lat="45.68667" lon="6.21746">
        <ele>1663.12</ele>
        <time>2017-09-16T10:25:05Z</time>
      </trkpt>
      <trkpt lat="45.68668" lon="6.21745">
        <ele>1662.29</ele>
        <time>2017-09-16T10:25:06Z</time>
      </trkpt>
      <trkpt lat="45.68669" lon="6.21744">
        <ele>1661.85</ele>
        <time>2017-09-16T10:25:07Z</time>
      </trkpt>
      <trkpt lat="45.68671" lon="6.21743">
        <ele>1661.35</ele>
        <time>2017-09-16T10:25:08Z</time>
      </trkpt>
      <trkpt lat="45.68672" lon="6.21742">
        <ele>1660.63</ele>
        <time>2017-09-16T10:25:09Z</time>
      </trkpt>
      <trkpt lat="45.68686" lon="6.21737">
        <ele>1658.09</ele>
        <time>2017-09-16T10:25:15Z</time>
      </trkpt>
      <trkpt lat="45.68705" lon="6.2172">
        <ele>1654.98</ele>
        <time>2017-09-16T10:25:25Z</time>
      </trkpt>
      <trkpt lat="45.68717" lon="6.21707">
        <ele>1652.82</ele>
        <time>2017-09-16T10:25:31Z</time>
      </trkpt>
      <trkpt lat="45.68717" lon="6.21705">
        <ele>1652.44</ele>
        <time>2017-09-16T10:25:32Z</time>
      </trkpt>
      <trkpt lat="45.68717" lon="6.21704">
        <ele>1651.95</ele>
        <time>2017-09-16T10:25:33Z</time>
      </trkpt>
      <trkpt lat="45.68715" lon="6.21704">
        <ele>1651.72</ele>
        <time>2017-09-16T10:25:34Z</time>
      </trkpt>
      <trkpt lat="45.68713" lon="6.21705">
        <ele>1651.24</ele>
        <time>2017-09-16T10:25:35Z</time>
      </trkpt>
      <trkpt lat="45.68711" lon="6.21705">
        <ele>1650.66</ele>
        <time>2017-09-16T10:25:36Z</time>
      </trkpt>
      <trkpt lat="45.68709" lon="6.21706">
        <ele>1650.53</ele>
        <time>2017-09-16T10:25:37Z</time>
      </trkpt>
      <trkpt lat="45.68692" lon="6.2171">
        <ele>1647.45</ele>
        <time>2017-09-16T10:25:45Z</time>
      </trkpt>
      <trkpt lat="45.68682" lon="6.2171">
        <ele>1645.19</ele>
        <time>2017-09-16T10:25:50Z</time>
      </trkpt>
      <trkpt lat="45.68678" lon="6.2171">
        <ele>1644.2</ele>
        <time>2017-09-16T10:25:52Z</time>
      </trkpt>
      <trkpt lat="45.68669" lon="6.21708">
        <ele>1642.26</ele>
        <time>2017-09-16T10:25:57Z</time>
      </trkpt>
      <trkpt lat="45.68669" lon="6.21705">
        <ele>1642.39</ele>
        <time>2017-09-16T10:25:59Z</time>
      </trkpt>
      <trkpt lat="45.6867" lon="6.21703">
        <ele>1641.47</ele>
        <time>2017-09-16T10:26:00Z</time>
      </trkpt>
      <trkpt lat="45.68671" lon="6.21701">
        <ele>1641.24</ele>
        <time>2017-09-16T10:26:01Z</time>
      </trkpt>
      <trkpt lat="45.68681" lon="6.21692">
        <ele>1639.47</ele>
        <time>2017-09-16T10:26:07Z</time>
      </trkpt>
      <trkpt lat="45.68688" lon="6.21684">
        <ele>1638.18</ele>
        <time>2017-09-16T10:26:11Z</time>
      </trkpt>
      <trkpt lat="45.68689" lon="6.21682">
        <ele>1637.81</ele>
        <time>2017-09-16T10:26:12Z</time>
      </trkpt>
      <trkpt lat="45.68691" lon="6.2168">
        <ele>1637.2</ele>
        <time>2017-09-16T10:26:13Z</time>
      </trkpt>
      <trkpt lat="45.68693" lon="6.21677">
        <ele>1636.53</ele>
        <time>2017-09-16T10:26:14Z</time>
      </trkpt>
      <trkpt lat="45.68694" lon="6.21675">
        <ele>1636.71</ele>
        <time>2017-09-16T10:26:15Z</time>
      </trkpt>
      <trkpt lat="45.68702" lon="6.21668">
        <ele>1635.41</ele>
        <time>2017-09-16T10:26:19Z</time>
      </trkpt>
      <trkpt lat="45.68704" lon="6.21667">
        <ele>1635.37</ele>
        <time>2017-09-16T10:26:20Z</time>
      </trkpt>
      <trkpt lat="45.68705" lon="6.21665">
        <ele>1635.15</ele>
        <time>2017-09-16T10:26:21Z</time>
      </trkpt>
      <trkpt lat="45.68706" lon="6.21662">
        <ele>1634.67</ele>
        <time>2017-09-16T10:26:22Z</time>
      </trkpt>
      <trkpt lat="45.68707" lon="6.2166">
        <ele>1633.97</ele>
        <time>2017-09-16T10:26:23Z</time>
      </trkpt>
      <trkpt lat="45.6871" lon="6.21659">
        <ele>1633.61</ele>
        <time>2017-09-16T10:26:24Z</time>
      </trkpt>
      <trkpt lat="45.68711" lon="6.21657">
        <ele>1633.44</ele>
        <time>2017-09-16T10:26:25Z</time>
      </trkpt>
      <trkpt lat="45.68713" lon="6.21654">
        <ele>1632.79</ele>
        <time>2017-09-16T10:26:26Z</time>
      </trkpt>
      <trkpt lat="45.68715" lon="6.21652">
        <ele>1632.54</ele>
        <time>2017-09-16T10:26:27Z</time>
      </trkpt>
      <trkpt lat="45.68717" lon="6.2165">
        <ele>1632.07</ele>
        <time>2017-09-16T10:26:28Z</time>
      </trkpt>
      <trkpt lat="45.68736" lon="6.21639">
        <ele>1628.84</ele>
        <time>2017-09-16T10:26:36Z</time>
      </trkpt>
      <trkpt lat="45.68741" lon="6.21635">
        <ele>1627.54</ele>
        <time>2017-09-16T10:26:38Z</time>
      </trkpt>
      <trkpt lat="45.68751" lon="6.21626">
        <ele>1625.27</ele>
        <time>2017-09-16T10:26:43Z</time>
      </trkpt>
      <trkpt lat="45.68754" lon="6.21623">
        <ele>1624.74</ele>
        <time>2017-09-16T10:26:45Z</time>
      </trkpt>
      <trkpt lat="45.68754" lon="6.21622">
        <ele>1624.67</ele>
        <time>2017-09-16T10:26:46Z</time>
      </trkpt>
      <trkpt lat="45.6874" lon="6.2162">
        <ele>1621.63</ele>
        <time>2017-09-16T10:26:52Z</time>
      </trkpt>
      <trkpt lat="45.68733" lon="6.2162">
        <ele>1620.32</ele>
        <time>2017-09-16T10:26:55Z</time>
      </trkpt>
      <trkpt lat="45.6871" lon="6.21614">
        <ele>1616.64</ele>
        <time>2017-09-16T10:27:04Z</time>
      </trkpt>
      <trkpt lat="45.68708" lon="6.21613">
        <ele>1616.46</ele>
        <time>2017-09-16T10:27:05Z</time>
      </trkpt>
      <trkpt lat="45.68695" lon="6.21612">
        <ele>1614.35</ele>
        <time>2017-09-16T10:27:10Z</time>
      </trkpt>
      <trkpt lat="45.68677" lon="6.21614">
        <ele>1611.76</ele>
        <time>2017-09-16T10:27:17Z</time>
      </trkpt>
      <trkpt lat="45.68661" lon="6.21616">
        <ele>1608.52</ele>
        <time>2017-09-16T10:27:25Z</time>
      </trkpt>
      <trkpt lat="45.68659" lon="6.21612">
        <ele>1606.45</ele>
        <time>2017-09-16T10:27:33Z</time>
      </trkpt>
      <trkpt lat="45.68661" lon="6.2161">
        <ele>1605.67</ele>
        <time>2017-09-16T10:27:34Z</time>
      </trkpt>
      <trkpt lat="45.68662" lon="6.21607">
        <ele>1605.33</ele>
        <time>2017-09-16T10:27:35Z</time>
      </trkpt>
      <trkpt lat="45.68664" lon="6.21605">
        <ele>1604.72</ele>
        <time>2017-09-16T10:27:36Z</time>
      </trkpt>
      <trkpt lat="45.68665" lon="6.21603">
        <ele>1604.1</ele>
        <time>2017-09-16T10:27:37Z</time>
      </trkpt>
      <trkpt lat="45.68666" lon="6.21601">
        <ele>1603.71</ele>
        <time>2017-09-16T10:27:38Z</time>
      </trkpt>
      <trkpt lat="45.68668" lon="6.21599">
        <ele>1603.8</ele>
        <time>2017-09-16T10:27:39Z</time>
      </trkpt>
      <trkpt lat="45.68679" lon="6.21582">
        <ele>1600.72</ele>
        <time>2017-09-16T10:27:46Z</time>
      </trkpt>
      <trkpt lat="45.68681" lon="6.21578">
        <ele>1599.84</ele>
        <time>2017-09-16T10:27:48Z</time>
      </trkpt>
      <trkpt lat="45.68683" lon="6.21575">
        <ele>1599.91</ele>
        <time>2017-09-16T10:27:49Z</time>
      </trkpt>
      <trkpt lat="45.68684" lon="6.21573">
        <ele>1599.52</ele>
        <time>2017-09-16T10:27:50Z</time>
      </trkpt>
      <trkpt lat="45.68686" lon="6.2157">
        <ele>1599.23</ele>
        <time>2017-09-16T10:27:51Z</time>
      </trkpt>
      <trkpt lat="45.68688" lon="6.21568">
        <ele>1598.85</ele>
        <time>2017-09-16T10:27:52Z</time>
      </trkpt>
      <trkpt lat="45.6869" lon="6.21566">
        <ele>1598.42</ele>
        <time>2017-09-16T10:27:53Z</time>
      </trkpt>
      <trkpt lat="45.68692" lon="6.21564">
        <ele>1598.19</ele>
        <time>2017-09-16T10:27:54Z</time>
      </trkpt>
      <trkpt lat="45.68694" lon="6.21562">
        <ele>1597.75</ele>
        <time>2017-09-16T10:27:55Z</time>
      </trkpt>
      <trkpt lat="45.68696" lon="6.2156">
        <ele>1597.09</ele>
        <time>2017-09-16T10:27:56Z</time>
      </trkpt>
      <trkpt lat="45.68696" lon="6.21559">
        <ele>1596.27</ele>
        <time>2017-09-16T10:27:57Z</time>
      </trkpt>
      <trkpt lat="45.68695" lon="6.21559">
        <ele>1596.02</ele>
        <time>2017-09-16T10:27:58Z</time>
      </trkpt>
      <trkpt lat="45.68692" lon="6.21558">
        <ele>1595.03</ele>
        <time>2017-09-16T10:27:59Z</time>
      </trkpt>
      <trkpt lat="45.6869" lon="6.21557">
        <ele>1595.18</ele>
        <time>2017-09-16T10:28:00Z</time>
      </trkpt>
      <trkpt lat="45.68688" lon="6.21556">
        <ele>1594.42</ele>
        <time>2017-09-16T10:28:01Z</time>
      </trkpt>
      <trkpt lat="45.68673" lon="6.21557">
        <ele>1591.37</ele>
        <time>2017-09-16T10:28:07Z</time>
      </trkpt>
      <trkpt lat="45.68671" lon="6.21557">
        <ele>1591.44</ele>
        <time>2017-09-16T10:28:08Z</time>
      </trkpt>
      <trkpt lat="45.68654" lon="6.2156">
        <ele>1587.59</ele>
        <time>2017-09-16T10:28:16Z</time>
      </trkpt>
      <trkpt lat="45.68653" lon="6.21558">
        <ele>1586.97</ele>
        <time>2017-09-16T10:28:17Z</time>
      </trkpt>
      <trkpt lat="45.68653" lon="6.21556">
        <ele>1586.17</ele>
        <time>2017-09-16T10:28:18Z</time>
      </trkpt>
      <trkpt lat="45.68655" lon="6.21553">
        <ele>1585.49</ele>
        <time>2017-09-16T10:28:19Z</time>
      </trkpt>
      <trkpt lat="45.68656" lon="6.2155">
        <ele>1585.14</ele>
        <time>2017-09-16T10:28:20Z</time>
      </trkpt>
      <trkpt lat="45.68657" lon="6.21547">
        <ele>1585.08</ele>
        <time>2017-09-16T10:28:21Z</time>
      </trkpt>
      <trkpt lat="45.68659" lon="6.21544">
        <ele>1583.93</ele>
        <time>2017-09-16T10:28:22Z</time>
      </trkpt>
      <trkpt lat="45.68671" lon="6.21526">
        <ele>1581.72</ele>
        <time>2017-09-16T10:28:29Z</time>
      </trkpt>
      <trkpt lat="45.68683" lon="6.21508">
        <ele>1577.94</ele>
        <time>2017-09-16T10:28:36Z</time>
      </trkpt>
      <trkpt lat="45.68683" lon="6.21507">
        <ele>1577.66</ele>
        <time>2017-09-16T10:28:37Z</time>
      </trkpt>
      <trkpt lat="45.68681" lon="6.21507">
        <ele>1577.19</ele>
        <time>2017-09-16T10:28:38Z</time>
      </trkpt>
      <trkpt lat="45.6868" lon="6.21507">
        <ele>1576.51</ele>
        <time>2017-09-16T10:28:39Z</time>
      </trkpt>
      <trkpt lat="45.68677" lon="6.21507">
        <ele>1576.11</ele>
        <time>2017-09-16T10:28:40Z</time>
      </trkpt>
      <trkpt lat="45.68675" lon="6.21507">
        <ele>1575.62</ele>
        <time>2017-09-16T10:28:41Z</time>
      </trkpt>
      <trkpt lat="45.68672" lon="6.21507">
        <ele>1575.39</ele>
        <time>2017-09-16T10:28:42Z</time>
      </trkpt>
      <trkpt lat="45.68658" lon="6.21508">
        <ele>1573.26</ele>
        <time>2017-09-16T10:28:48Z</time>
      </trkpt>
      <trkpt lat="45.68649" lon="6.21506">
        <ele>1571.75</ele>
        <time>2017-09-16T10:28:51Z</time>
      </trkpt>
      <trkpt lat="45.68639" lon="6.21505">
        <ele>1570.38</ele>
        <time>2017-09-16T10:28:55Z</time>
      </trkpt>
      <trkpt lat="45.68639" lon="6.21503">
        <ele>1570.22</ele>
        <time>2017-09-16T10:28:56Z</time>
      </trkpt>
      <trkpt lat="45.68638" lon="6.21502">
        <ele>1569.17</ele>
        <time>2017-09-16T10:28:57Z</time>
      </trkpt>
      <trkpt lat="45.68638" lon="6.215">
        <ele>1569</ele>
        <time>2017-09-16T10:28:58Z</time>
      </trkpt>
      <trkpt lat="45.68638" lon="6.21498">
        <ele>1568.14</ele>
        <time>2017-09-16T10:28:59Z</time>
      </trkpt>
      <trkpt lat="45.68639" lon="6.21495">
        <ele>1567.85</ele>
        <time>2017-09-16T10:29:00Z</time>
      </trkpt>
      <trkpt lat="45.68647" lon="6.2148">
        <ele>1564.71</ele>
        <time>2017-09-16T10:29:05Z</time>
      </trkpt>
      <trkpt lat="45.68648" lon="6.21477">
        <ele>1564.48</ele>
        <time>2017-09-16T10:29:06Z</time>
      </trkpt>
      <trkpt lat="45.68658" lon="6.21456">
        <ele>1561.05</ele>
        <time>2017-09-16T10:29:13Z</time>
      </trkpt>
      <trkpt lat="45.68658" lon="6.21453">
        <ele>1560.1</ele>
        <time>2017-09-16T10:29:14Z</time>
      </trkpt>
      <trkpt lat="45.68657" lon="6.21451">
        <ele>1560.03</ele>
        <time>2017-09-16T10:29:15Z</time>
      </trkpt>
      <trkpt lat="45.68655" lon="6.21451">
        <ele>1559.33</ele>
        <time>2017-09-16T10:29:16Z</time>
      </trkpt>
      <trkpt lat="45.68652" lon="6.2145">
        <ele>1559.18</ele>
        <time>2017-09-16T10:29:17Z</time>
      </trkpt>
      <trkpt lat="45.6865" lon="6.21449">
        <ele>1558.58</ele>
        <time>2017-09-16T10:29:18Z</time>
      </trkpt>
      <trkpt lat="45.68648" lon="6.21449">
        <ele>1557.59</ele>
        <time>2017-09-16T10:29:19Z</time>
      </trkpt>
      <trkpt lat="45.68645" lon="6.21448">
        <ele>1557.31</ele>
        <time>2017-09-16T10:29:20Z</time>
      </trkpt>
      <trkpt lat="45.68637" lon="6.21445">
        <ele>1554.83</ele>
        <time>2017-09-16T10:29:24Z</time>
      </trkpt>
      <trkpt lat="45.68636" lon="6.21442">
        <ele>1554.56</ele>
        <time>2017-09-16T10:29:25Z</time>
      </trkpt>
      <trkpt lat="45.68637" lon="6.2144">
        <ele>1554.05</ele>
        <time>2017-09-16T10:29:26Z</time>
      </trkpt>
      <trkpt lat="45.68637" lon="6.21437">
        <ele>1553.19</ele>
        <time>2017-09-16T10:29:27Z</time>
      </trkpt>
      <trkpt lat="45.68638" lon="6.21434">
        <ele>1552.66</ele>
        <time>2017-09-16T10:29:28Z</time>
      </trkpt>
      <trkpt lat="45.68639" lon="6.21432">
        <ele>1552.85</ele>
        <time>2017-09-16T10:29:29Z</time>
      </trkpt>
      <trkpt lat="45.68642" lon="6.21424">
        <ele>1551.18</ele>
        <time>2017-09-16T10:29:33Z</time>
      </trkpt>
      <trkpt lat="45.68642" lon="6.21422">
        <ele>1550.78</ele>
        <time>2017-09-16T10:29:34Z</time>
      </trkpt>
      <trkpt lat="45.68642" lon="6.21419">
        <ele>1550.19</ele>
        <time>2017-09-16T10:29:35Z</time>
      </trkpt>
      <trkpt lat="45.68642" lon="6.21417">
        <ele>1549.09</ele>
        <time>2017-09-16T10:29:36Z</time>
      </trkpt>
      <trkpt lat="45.68641" lon="6.21414">
        <ele>1548.66</ele>
        <time>2017-09-16T10:29:37Z</time>
      </trkpt>
      <trkpt lat="45.68642" lon="6.21411">
        <ele>1547.75</ele>
        <time>2017-09-16T10:29:38Z</time>
      </trkpt>
      <trkpt lat="45.68642" lon="6.21408">
        <ele>1547.25</ele>
        <time>2017-09-16T10:29:39Z</time>
      </trkpt>
      <trkpt lat="45.68642" lon="6.21405">
        <ele>1545.95</ele>
        <time>2017-09-16T10:29:40Z</time>
      </trkpt>
      <trkpt lat="45.6864" lon="6.21402">
        <ele>1546.19</ele>
        <time>2017-09-16T10:29:41Z</time>
      </trkpt>
      <trkpt lat="45.68639" lon="6.214">
        <ele>1545.52</ele>
        <time>2017-09-16T10:29:42Z</time>
      </trkpt>
      <trkpt lat="45.68639" lon="6.21397">
        <ele>1544.99</ele>
        <time>2017-09-16T10:29:43Z</time>
      </trkpt>
      <trkpt lat="45.68638" lon="6.21394">
        <ele>1543.93</ele>
        <time>2017-09-16T10:29:44Z</time>
      </trkpt>
      <trkpt lat="45.68636" lon="6.21392">
        <ele>1543.51</ele>
        <time>2017-09-16T10:29:45Z</time>
      </trkpt>
      <trkpt lat="45.68634" lon="6.21391">
        <ele>1541.62</ele>
        <time>2017-09-16T10:29:46Z</time>
      </trkpt>
      <trkpt lat="45.68631" lon="6.2139">
        <ele>1541.34</ele>
        <time>2017-09-16T10:29:47Z</time>
      </trkpt>
      <trkpt lat="45.68629" lon="6.2139">
        <ele>1541.54</ele>
        <time>2017-09-16T10:29:48Z</time>
      </trkpt>
      <trkpt lat="45.68627" lon="6.2139">
        <ele>1540.9</ele>
        <time>2017-09-16T10:29:49Z</time>
      </trkpt>
      <trkpt lat="45.68625" lon="6.21389">
        <ele>1540.57</ele>
        <time>2017-09-16T10:29:50Z</time>
      </trkpt>
      <trkpt lat="45.68623" lon="6.21387">
        <ele>1539.76</ele>
        <time>2017-09-16T10:29:51Z</time>
      </trkpt>
      <trkpt lat="45.68621" lon="6.21385">
        <ele>1539.59</ele>
        <time>2017-09-16T10:29:52Z</time>
      </trkpt>
      <trkpt lat="45.6862" lon="6.21382">
        <ele>1538.71</ele>
        <time>2017-09-16T10:29:53Z</time>
      </trkpt>
      <trkpt lat="45.6861" lon="6.21364">
        <ele>1534.93</ele>
        <time>2017-09-16T10:29:59Z</time>
      </trkpt>
      <trkpt lat="45.6861" lon="6.21361">
        <ele>1534.14</ele>
        <time>2017-09-16T10:30:00Z</time>
      </trkpt>
      <trkpt lat="45.6861" lon="6.21358">
        <ele>1534.4</ele>
        <time>2017-09-16T10:30:01Z</time>
      </trkpt>
      <trkpt lat="45.6861" lon="6.21354">
        <ele>1533.6</ele>
        <time>2017-09-16T10:30:02Z</time>
      </trkpt>
      <trkpt lat="45.68609" lon="6.21351">
        <ele>1532.98</ele>
        <time>2017-09-16T10:30:03Z</time>
      </trkpt>
      <trkpt lat="45.68607" lon="6.21345">
        <ele>1532.15</ele>
        <time>2017-09-16T10:30:05Z</time>
      </trkpt>
      <trkpt lat="45.68599" lon="6.21319">
        <ele>1528.32</ele>
        <time>2017-09-16T10:30:13Z</time>
      </trkpt>
      <trkpt lat="45.68598" lon="6.21285">
        <ele>1525.08</ele>
        <time>2017-09-16T10:30:22Z</time>
      </trkpt>
      <trkpt lat="45.68598" lon="6.2127">
        <ele>1524.37</ele>
        <time>2017-09-16T10:30:26Z</time>
      </trkpt>
      <trkpt lat="45.68598" lon="6.21266">
        <ele>1523.85</ele>
        <time>2017-09-16T10:30:27Z</time>
      </trkpt>
      <trkpt lat="45.68598" lon="6.21264">
        <ele>1524.2</ele>
        <time>2017-09-16T10:30:28Z</time>
      </trkpt>
      <trkpt lat="45.686" lon="6.21251">
        <ele>1522</ele>
        <time>2017-09-16T10:30:33Z</time>
      </trkpt>
      <trkpt lat="45.68601" lon="6.21234">
        <ele>1519.15</ele>
        <time>2017-09-16T10:30:40Z</time>
      </trkpt>
      <trkpt lat="45.68601" lon="6.21232">
        <ele>1518.86</ele>
        <time>2017-09-16T10:30:41Z</time>
      </trkpt>
      <trkpt lat="45.68589" lon="6.21219">
        <ele>1519.19</ele>
        <time>2017-09-16T10:30:51Z</time>
      </trkpt>
      <trkpt lat="45.68588" lon="6.21219">
        <ele>1519.25</ele>
        <time>2017-09-16T10:30:52Z</time>
      </trkpt>
      <trkpt lat="45.68575" lon="6.2119">
        <ele>1517.81</ele>
        <time>2017-09-16T10:31:04Z</time>
      </trkpt>
      <trkpt lat="45.68568" lon="6.21161">
        <ele>1514.64</ele>
        <time>2017-09-16T10:31:14Z</time>
      </trkpt>
      <trkpt lat="45.68563" lon="6.21148">
        <ele>1513.17</ele>
        <time>2017-09-16T10:31:19Z</time>
      </trkpt>
      <trkpt lat="45.6856" lon="6.21132">
        <ele>1511.36</ele>
        <time>2017-09-16T10:31:28Z</time>
      </trkpt>
      <trkpt lat="45.68559" lon="6.2113">
        <ele>1511.32</ele>
        <time>2017-09-16T10:31:29Z</time>
      </trkpt>
      <trkpt lat="45.68558" lon="6.21127">
        <ele>1510.89</ele>
        <time>2017-09-16T10:31:30Z</time>
      </trkpt>
      <trkpt lat="45.68558" lon="6.21124">
        <ele>1510.45</ele>
        <time>2017-09-16T10:31:31Z</time>
      </trkpt>
      <trkpt lat="45.68558" lon="6.21122">
        <ele>1510.04</ele>
        <time>2017-09-16T10:31:32Z</time>
      </trkpt>
      <trkpt lat="45.68557" lon="6.21119">
        <ele>1509.26</ele>
        <time>2017-09-16T10:31:33Z</time>
      </trkpt>
      <trkpt lat="45.68557" lon="6.21116">
        <ele>1508.78</ele>
        <time>2017-09-16T10:31:34Z</time>
      </trkpt>
      <trkpt lat="45.68557" lon="6.21108">
        <ele>1507.47</ele>
        <time>2017-09-16T10:31:37Z</time>
      </trkpt>
      <trkpt lat="45.68557" lon="6.21104">
        <ele>1507.14</ele>
        <time>2017-09-16T10:31:38Z</time>
      </trkpt>
      <trkpt lat="45.68557" lon="6.211">
        <ele>1507.18</ele>
        <time>2017-09-16T10:31:39Z</time>
      </trkpt>
      <trkpt lat="45.68558" lon="6.21089">
        <ele>1505.56</ele>
        <time>2017-09-16T10:31:42Z</time>
      </trkpt>
      <trkpt lat="45.68558" lon="6.21084">
        <ele>1505.15</ele>
        <time>2017-09-16T10:31:43Z</time>
      </trkpt>
      <trkpt lat="45.68563" lon="6.21052">
        <ele>1502.56</ele>
        <time>2017-09-16T10:31:52Z</time>
      </trkpt>
      <trkpt lat="45.68564" lon="6.21049">
        <ele>1502.82</ele>
        <time>2017-09-16T10:31:53Z</time>
      </trkpt>
      <trkpt lat="45.68573" lon="6.2102">
        <ele>1502.05</ele>
        <time>2017-09-16T10:32:03Z</time>
      </trkpt>
      <trkpt lat="45.68574" lon="6.21017">
        <ele>1502.6</ele>
        <time>2017-09-16T10:32:04Z</time>
      </trkpt>
      <trkpt lat="45.68575" lon="6.21014">
        <ele>1502.61</ele>
        <time>2017-09-16T10:32:05Z</time>
      </trkpt>
      <trkpt lat="45.68576" lon="6.2101">
        <ele>1502.8</ele>
        <time>2017-09-16T10:32:06Z</time>
      </trkpt>
      <trkpt lat="45.68577" lon="6.21007">
        <ele>1503.19</ele>
        <time>2017-09-16T10:32:07Z</time>
      </trkpt>
      <trkpt lat="45.68579" lon="6.20991">
        <ele>1502.04</ele>
        <time>2017-09-16T10:32:14Z</time>
      </trkpt>
      <trkpt lat="45.68579" lon="6.2099">
        <ele>1502.33</ele>
        <time>2017-09-16T10:32:15Z</time>
      </trkpt>
      <trkpt lat="45.68578" lon="6.20988">
        <ele>1501.51</ele>
        <time>2017-09-16T10:32:16Z</time>
      </trkpt>
      <trkpt lat="45.68574" lon="6.20969">
        <ele>1498.09</ele>
        <time>2017-09-16T10:32:35Z</time>
      </trkpt>
      <trkpt lat="45.68576" lon="6.20964">
        <ele>1497.45</ele>
        <time>2017-09-16T10:32:55Z</time>
      </trkpt>
      <trkpt lat="45.68575" lon="6.20966">
        <ele>1496.43</ele>
        <time>2017-09-16T10:33:14Z</time>
      </trkpt>
      <trkpt lat="45.68576" lon="6.20967">
        <ele>1496.22</ele>
        <time>2017-09-16T10:34:15Z</time>
      </trkpt>
      <trkpt lat="45.68576" lon="6.20968">
        <ele>1495.68</ele>
        <time>2017-09-16T10:35:25Z</time>
      </trkpt>
      <trkpt lat="45.68575" lon="6.20968">
        <ele>1494.8</ele>
        <time>2017-09-16T10:36:19Z</time>
      </trkpt>
      <trkpt lat="45.68579" lon="6.20969">
        <ele>1496.07</ele>
        <time>2017-09-16T10:36:50Z</time>
      </trkpt>
      <trkpt lat="45.68579" lon="6.20968">
        <ele>1495.78</ele>
        <time>2017-09-16T10:38:08Z</time>
      </trkpt>
      <trkpt lat="45.68578" lon="6.20969">
        <ele>1496.03</ele>
        <time>2017-09-16T10:38:53Z</time>
      </trkpt>
      <trkpt lat="45.68576" lon="6.20968">
        <ele>1496.45</ele>
        <time>2017-09-16T10:39:15Z</time>
      </trkpt>
      <trkpt lat="45.68575" lon="6.20964">
        <ele>1496.62</ele>
        <time>2017-09-16T10:39:53Z</time>
      </trkpt>
      <trkpt lat="45.68577" lon="6.20964">
        <ele>1496.2</ele>
        <time>2017-09-16T10:40:22Z</time>
      </trkpt>
      <trkpt lat="45.68575" lon="6.2096">
        <ele>1495.98</ele>
        <time>2017-09-16T10:40:54Z</time>
      </trkpt>
      <trkpt lat="45.68576" lon="6.20964">
        <ele>1496.03</ele>
        <time>2017-09-16T10:41:19Z</time>
      </trkpt>
      <trkpt lat="45.68574" lon="6.20963">
        <ele>1496.03</ele>
        <time>2017-09-16T10:41:33Z</time>
      </trkpt>
      <trkpt lat="45.68577" lon="6.20962">
        <ele>1496.09</ele>
        <time>2017-09-16T10:41:57Z</time>
      </trkpt>
      <trkpt lat="45.68578" lon="6.20962">
        <ele>1496.27</ele>
        <time>2017-09-16T10:41:58Z</time>
      </trkpt>
      <trkpt lat="45.68579" lon="6.20963">
        <ele>1496.54</ele>
        <time>2017-09-16T10:42:20Z</time>
      </trkpt>
      <trkpt lat="45.68582" lon="6.20963">
        <ele>1496.93</ele>
        <time>2017-09-16T10:42:41Z</time>
      </trkpt>
      <trkpt lat="45.686" lon="6.20975">
        <ele>1496.69</ele>
        <time>2017-09-16T10:42:56Z</time>
      </trkpt>
      <trkpt lat="45.68601" lon="6.20977">
        <ele>1496.7</ele>
        <time>2017-09-16T10:42:57Z</time>
      </trkpt>
      <trkpt lat="45.68602" lon="6.20978">
        <ele>1496.57</ele>
        <time>2017-09-16T10:42:58Z</time>
      </trkpt>
      <trkpt lat="45.68602" lon="6.20979">
        <ele>1496.82</ele>
        <time>2017-09-16T10:42:59Z</time>
      </trkpt>
      <trkpt lat="45.68603" lon="6.20981">
        <ele>1496.36</ele>
        <time>2017-09-16T10:43:00Z</time>
      </trkpt>
      <trkpt lat="45.68602" lon="6.20981">
        <ele>1496.26</ele>
        <time>2017-09-16T10:43:20Z</time>
      </trkpt>
      <trkpt lat="45.68606" lon="6.20991">
        <ele>1496.79</ele>
        <time>2017-09-16T10:43:51Z</time>
      </trkpt>
      <trkpt lat="45.68616" lon="6.21032">
        <ele>1493.76</ele>
        <time>2017-09-16T10:44:04Z</time>
      </trkpt>
      <trkpt lat="45.6862" lon="6.21071">
        <ele>1491.49</ele>
        <time>2017-09-16T10:44:09Z</time>
      </trkpt>
      <trkpt lat="45.68621" lon="6.2108">
        <ele>1490.67</ele>
        <time>2017-09-16T10:44:10Z</time>
      </trkpt>
      <trkpt lat="45.68624" lon="6.2109">
        <ele>1490.54</ele>
        <time>2017-09-16T10:44:11Z</time>
      </trkpt>
      <trkpt lat="45.68627" lon="6.21099">
        <ele>1490.18</ele>
        <time>2017-09-16T10:44:12Z</time>
      </trkpt>
      <trkpt lat="45.68632" lon="6.21107">
        <ele>1489.8</ele>
        <time>2017-09-16T10:44:13Z</time>
      </trkpt>
      <trkpt lat="45.68637" lon="6.21116">
        <ele>1488.77</ele>
        <time>2017-09-16T10:44:14Z</time>
      </trkpt>
      <trkpt lat="45.68647" lon="6.21133">
        <ele>1487.86</ele>
        <time>2017-09-16T10:44:16Z</time>
      </trkpt>
      <trkpt lat="45.68652" lon="6.21141">
        <ele>1487.09</ele>
        <time>2017-09-16T10:44:17Z</time>
      </trkpt>
      <trkpt lat="45.68658" lon="6.21148">
        <ele>1486.13</ele>
        <time>2017-09-16T10:44:18Z</time>
      </trkpt>
      <trkpt lat="45.68665" lon="6.21153">
        <ele>1485.64</ele>
        <time>2017-09-16T10:44:19Z</time>
      </trkpt>
      <trkpt lat="45.68673" lon="6.21157">
        <ele>1485.59</ele>
        <time>2017-09-16T10:44:20Z</time>
      </trkpt>
      <trkpt lat="45.68681" lon="6.21158">
        <ele>1485.1</ele>
        <time>2017-09-16T10:44:21Z</time>
      </trkpt>
      <trkpt lat="45.68689" lon="6.21158">
        <ele>1484.3</ele>
        <time>2017-09-16T10:44:22Z</time>
      </trkpt>
      <trkpt lat="45.68698" lon="6.21157">
        <ele>1483.26</ele>
        <time>2017-09-16T10:44:23Z</time>
      </trkpt>
      <trkpt lat="45.68707" lon="6.21156">
        <ele>1482.5</ele>
        <time>2017-09-16T10:44:24Z</time>
      </trkpt>
      <trkpt lat="45.68733" lon="6.21157">
        <ele>1478.94</ele>
        <time>2017-09-16T10:44:27Z</time>
      </trkpt>
      <trkpt lat="45.68741" lon="6.21161">
        <ele>1478.3</ele>
        <time>2017-09-16T10:44:28Z</time>
      </trkpt>
      <trkpt lat="45.68748" lon="6.21168">
        <ele>1477.48</ele>
        <time>2017-09-16T10:44:29Z</time>
      </trkpt>
      <trkpt lat="45.68768" lon="6.21191">
        <ele>1474.42</ele>
        <time>2017-09-16T10:44:32Z</time>
      </trkpt>
      <trkpt lat="45.68774" lon="6.21196">
        <ele>1472.76</ele>
        <time>2017-09-16T10:44:33Z</time>
      </trkpt>
      <trkpt lat="45.6878" lon="6.21197">
        <ele>1472.14</ele>
        <time>2017-09-16T10:44:34Z</time>
      </trkpt>
      <trkpt lat="45.68784" lon="6.21195">
        <ele>1471.7</ele>
        <time>2017-09-16T10:44:35Z</time>
      </trkpt>
      <trkpt lat="45.68787" lon="6.2119">
        <ele>1471.46</ele>
        <time>2017-09-16T10:44:36Z</time>
      </trkpt>
      <trkpt lat="45.68787" lon="6.21184">
        <ele>1470.25</ele>
        <time>2017-09-16T10:44:37Z</time>
      </trkpt>
      <trkpt lat="45.68786" lon="6.21179">
        <ele>1470.55</ele>
        <time>2017-09-16T10:44:38Z</time>
      </trkpt>
      <trkpt lat="45.68784" lon="6.21174">
        <ele>1469.93</ele>
        <time>2017-09-16T10:44:39Z</time>
      </trkpt>
      <trkpt lat="45.68781" lon="6.2117">
        <ele>1470.43</ele>
        <time>2017-09-16T10:44:40Z</time>
      </trkpt>
      <trkpt lat="45.68752" lon="6.21106">
        <ele>1467.77</ele>
        <time>2017-09-16T10:44:56Z</time>
      </trkpt>
      <trkpt lat="45.68753" lon="6.211">
        <ele>1467.64</ele>
        <time>2017-09-16T10:44:57Z</time>
      </trkpt>
      <trkpt lat="45.68757" lon="6.21095">
        <ele>1466.8</ele>
        <time>2017-09-16T10:44:58Z</time>
      </trkpt>
      <trkpt lat="45.68761" lon="6.21094">
        <ele>1465.94</ele>
        <time>2017-09-16T10:44:59Z</time>
      </trkpt>
      <trkpt lat="45.68766" lon="6.21096">
        <ele>1465.79</ele>
        <time>2017-09-16T10:45:00Z</time>
      </trkpt>
      <trkpt lat="45.68771" lon="6.21101">
        <ele>1465.77</ele>
        <time>2017-09-16T10:45:01Z</time>
      </trkpt>
      <trkpt lat="45.68775" lon="6.21108">
        <ele>1464.71</ele>
        <time>2017-09-16T10:45:02Z</time>
      </trkpt>
      <trkpt lat="45.68779" lon="6.21115">
        <ele>1463.84</ele>
        <time>2017-09-16T10:45:03Z</time>
      </trkpt>
      <trkpt lat="45.68785" lon="6.21121">
        <ele>1463.37</ele>
        <time>2017-09-16T10:45:04Z</time>
      </trkpt>
      <trkpt lat="45.68791" lon="6.21127">
        <ele>1462.8</ele>
        <time>2017-09-16T10:45:05Z</time>
      </trkpt>
      <trkpt lat="45.68798" lon="6.21132">
        <ele>1461.74</ele>
        <time>2017-09-16T10:45:06Z</time>
      </trkpt>
      <trkpt lat="45.68805" lon="6.21137">
        <ele>1461.06</ele>
        <time>2017-09-16T10:45:07Z</time>
      </trkpt>
      <trkpt lat="45.68821" lon="6.21148">
        <ele>1459.89</ele>
        <time>2017-09-16T10:45:09Z</time>
      </trkpt>
      <trkpt lat="45.68852" lon="6.21174">
        <ele>1455.76</ele>
        <time>2017-09-16T10:45:13Z</time>
      </trkpt>
      <trkpt lat="45.68875" lon="6.21196">
        <ele>1451.8</ele>
        <time>2017-09-16T10:45:16Z</time>
      </trkpt>
      <trkpt lat="45.68884" lon="6.21201">
        <ele>1451.53</ele>
        <time>2017-09-16T10:45:17Z</time>
      </trkpt>
      <trkpt lat="45.68892" lon="6.21205">
        <ele>1450.49</ele>
        <time>2017-09-16T10:45:18Z</time>
      </trkpt>
      <trkpt lat="45.68902" lon="6.21208">
        <ele>1449.61</ele>
        <time>2017-09-16T10:45:19Z</time>
      </trkpt>
      <trkpt lat="45.68911" lon="6.21211">
        <ele>1449</ele>
        <time>2017-09-16T10:45:20Z</time>
      </trkpt>
      <trkpt lat="45.68919" lon="6.21215">
        <ele>1448.26</ele>
        <time>2017-09-16T10:45:21Z</time>
      </trkpt>
      <trkpt lat="45.68927" lon="6.21222">
        <ele>1447.48</ele>
        <time>2017-09-16T10:45:22Z</time>
      </trkpt>
      <trkpt lat="45.68934" lon="6.21229">
        <ele>1446.2</ele>
        <time>2017-09-16T10:45:23Z</time>
      </trkpt>
      <trkpt lat="45.68941" lon="6.21236">
        <ele>1445.09</ele>
        <time>2017-09-16T10:45:24Z</time>
      </trkpt>
      <trkpt lat="45.68948" lon="6.2124">
        <ele>1443.8</ele>
        <time>2017-09-16T10:45:25Z</time>
      </trkpt>
      <trkpt lat="45.68953" lon="6.21238">
        <ele>1442.63</ele>
        <time>2017-09-16T10:45:26Z</time>
      </trkpt>
      <trkpt lat="45.68957" lon="6.21234">
        <ele>1442.73</ele>
        <time>2017-09-16T10:45:27Z</time>
      </trkpt>
      <trkpt lat="45.68959" lon="6.21226">
        <ele>1442.19</ele>
        <time>2017-09-16T10:45:28Z</time>
      </trkpt>
      <trkpt lat="45.68958" lon="6.21218">
        <ele>1441.64</ele>
        <time>2017-09-16T10:45:29Z</time>
      </trkpt>
      <trkpt lat="45.68955" lon="6.21211">
        <ele>1441</ele>
        <time>2017-09-16T10:45:30Z</time>
      </trkpt>
      <trkpt lat="45.6895" lon="6.21205">
        <ele>1440.9</ele>
        <time>2017-09-16T10:45:31Z</time>
      </trkpt>
      <trkpt lat="45.68945" lon="6.21199">
        <ele>1440.37</ele>
        <time>2017-09-16T10:45:32Z</time>
      </trkpt>
      <trkpt lat="45.68934" lon="6.21187">
        <ele>1439.61</ele>
        <time>2017-09-16T10:45:34Z</time>
      </trkpt>
      <trkpt lat="45.6893" lon="6.2118">
        <ele>1438.47</ele>
        <time>2017-09-16T10:45:35Z</time>
      </trkpt>
      <trkpt lat="45.68928" lon="6.21171">
        <ele>1438.51</ele>
        <time>2017-09-16T10:45:36Z</time>
      </trkpt>
      <trkpt lat="45.68929" lon="6.21162">
        <ele>1438.37</ele>
        <time>2017-09-16T10:45:37Z</time>
      </trkpt>
      <trkpt lat="45.68932" lon="6.21154">
        <ele>1438.52</ele>
        <time>2017-09-16T10:45:38Z</time>
      </trkpt>
      <trkpt lat="45.68937" lon="6.21149">
        <ele>1437.54</ele>
        <time>2017-09-16T10:45:39Z</time>
      </trkpt>
      <trkpt lat="45.68944" lon="6.21147">
        <ele>1437.29</ele>
        <time>2017-09-16T10:45:40Z</time>
      </trkpt>
      <trkpt lat="45.68951" lon="6.21148">
        <ele>1437.1</ele>
        <time>2017-09-16T10:45:41Z</time>
      </trkpt>
      <trkpt lat="45.68958" lon="6.21151">
        <ele>1436.38</ele>
        <time>2017-09-16T10:45:42Z</time>
      </trkpt>
      <trkpt lat="45.68964" lon="6.21157">
        <ele>1435.65</ele>
        <time>2017-09-16T10:45:43Z</time>
      </trkpt>
      <trkpt lat="45.6897" lon="6.21165">
        <ele>1435.25</ele>
        <time>2017-09-16T10:45:44Z</time>
      </trkpt>
      <trkpt lat="45.68976" lon="6.21173">
        <ele>1434.05</ele>
        <time>2017-09-16T10:45:45Z</time>
      </trkpt>
      <trkpt lat="45.69002" lon="6.21204">
        <ele>1430.92</ele>
        <time>2017-09-16T10:45:49Z</time>
      </trkpt>
      <trkpt lat="45.69033" lon="6.21233">
        <ele>1427.65</ele>
        <time>2017-09-16T10:45:53Z</time>
      </trkpt>
      <trkpt lat="45.69057" lon="6.21256">
        <ele>1424.11</ele>
        <time>2017-09-16T10:45:56Z</time>
      </trkpt>
      <trkpt lat="45.69064" lon="6.21265">
        <ele>1424.12</ele>
        <time>2017-09-16T10:45:57Z</time>
      </trkpt>
      <trkpt lat="45.6907" lon="6.21273">
        <ele>1422.84</ele>
        <time>2017-09-16T10:45:58Z</time>
      </trkpt>
      <trkpt lat="45.69075" lon="6.21279">
        <ele>1421.44</ele>
        <time>2017-09-16T10:45:59Z</time>
      </trkpt>
      <trkpt lat="45.6908" lon="6.21282">
        <ele>1420.48</ele>
        <time>2017-09-16T10:46:00Z</time>
      </trkpt>
      <trkpt lat="45.69085" lon="6.2128">
        <ele>1420.19</ele>
        <time>2017-09-16T10:46:01Z</time>
      </trkpt>
      <trkpt lat="45.69087" lon="6.21275">
        <ele>1418.95</ele>
        <time>2017-09-16T10:46:02Z</time>
      </trkpt>
      <trkpt lat="45.69088" lon="6.21269">
        <ele>1419.3</ele>
        <time>2017-09-16T10:46:03Z</time>
      </trkpt>
      <trkpt lat="45.69087" lon="6.21263">
        <ele>1418.64</ele>
        <time>2017-09-16T10:46:04Z</time>
      </trkpt>
      <trkpt lat="45.69085" lon="6.21256">
        <ele>1418.5</ele>
        <time>2017-09-16T10:46:05Z</time>
      </trkpt>
      <trkpt lat="45.69081" lon="6.21251">
        <ele>1418.31</ele>
        <time>2017-09-16T10:46:06Z</time>
      </trkpt>
      <trkpt lat="45.69077" lon="6.21245">
        <ele>1418.7</ele>
        <time>2017-09-16T10:46:07Z</time>
      </trkpt>
      <trkpt lat="45.69073" lon="6.21241">
        <ele>1418.06</ele>
        <time>2017-09-16T10:46:08Z</time>
      </trkpt>
      <trkpt lat="45.69046" lon="6.21208">
        <ele>1416.89</ele>
        <time>2017-09-16T10:46:14Z</time>
      </trkpt>
      <trkpt lat="45.69034" lon="6.21187">
        <ele>1415.72</ele>
        <time>2017-09-16T10:46:17Z</time>
      </trkpt>
      <trkpt lat="45.69033" lon="6.21179">
        <ele>1415.61</ele>
        <time>2017-09-16T10:46:18Z</time>
      </trkpt>
      <trkpt lat="45.69035" lon="6.21171">
        <ele>1414.98</ele>
        <time>2017-09-16T10:46:19Z</time>
      </trkpt>
      <trkpt lat="45.6904" lon="6.21166">
        <ele>1414.54</ele>
        <time>2017-09-16T10:46:20Z</time>
      </trkpt>
      <trkpt lat="45.69046" lon="6.21166">
        <ele>1414.16</ele>
        <time>2017-09-16T10:46:21Z</time>
      </trkpt>
      <trkpt lat="45.69052" lon="6.2117">
        <ele>1413.57</ele>
        <time>2017-09-16T10:46:22Z</time>
      </trkpt>
      <trkpt lat="45.69056" lon="6.21177">
        <ele>1413.02</ele>
        <time>2017-09-16T10:46:23Z</time>
      </trkpt>
      <trkpt lat="45.69061" lon="6.21184">
        <ele>1412.35</ele>
        <time>2017-09-16T10:46:24Z</time>
      </trkpt>
      <trkpt lat="45.69066" lon="6.21191">
        <ele>1412.19</ele>
        <time>2017-09-16T10:46:25Z</time>
      </trkpt>
      <trkpt lat="45.69072" lon="6.21197">
        <ele>1411.7</ele>
        <time>2017-09-16T10:46:26Z</time>
      </trkpt>
      <trkpt lat="45.69079" lon="6.21201">
        <ele>1411.67</ele>
        <time>2017-09-16T10:46:27Z</time>
      </trkpt>
      <trkpt lat="45.69087" lon="6.21205">
        <ele>1410.57</ele>
        <time>2017-09-16T10:46:28Z</time>
      </trkpt>
      <trkpt lat="45.69094" lon="6.21208">
        <ele>1410.53</ele>
        <time>2017-09-16T10:46:29Z</time>
      </trkpt>
      <trkpt lat="45.69117" lon="6.2122">
        <ele>1408.31</ele>
        <time>2017-09-16T10:46:32Z</time>
      </trkpt>
      <trkpt lat="45.69124" lon="6.21226">
        <ele>1407.06</ele>
        <time>2017-09-16T10:46:33Z</time>
      </trkpt>
      <trkpt lat="45.6913" lon="6.21233">
        <ele>1406.03</ele>
        <time>2017-09-16T10:46:34Z</time>
      </trkpt>
      <trkpt lat="45.69143" lon="6.21249">
        <ele>1402.96</ele>
        <time>2017-09-16T10:46:37Z</time>
      </trkpt>
      <trkpt lat="45.6915" lon="6.21259">
        <ele>1400.62</ele>
        <time>2017-09-16T10:46:46Z</time>
      </trkpt>
      <trkpt lat="45.69166" lon="6.21276">
        <ele>1399.01</ele>
        <time>2017-09-16T10:47:05Z</time>
      </trkpt>
      <trkpt lat="45.69198" lon="6.21308">
        <ele>1395.97</ele>
        <time>2017-09-16T10:47:12Z</time>
      </trkpt>
      <trkpt lat="45.6921" lon="6.21322">
        <ele>1394.55</ele>
        <time>2017-09-16T10:47:14Z</time>
      </trkpt>
      <trkpt lat="45.69215" lon="6.2133">
        <ele>1393.28</ele>
        <time>2017-09-16T10:47:15Z</time>
      </trkpt>
      <trkpt lat="45.69219" lon="6.2134">
        <ele>1392.38</ele>
        <time>2017-09-16T10:47:16Z</time>
      </trkpt>
      <trkpt lat="45.69223" lon="6.21349">
        <ele>1391.63</ele>
        <time>2017-09-16T10:47:17Z</time>
      </trkpt>
      <trkpt lat="45.69229" lon="6.21357">
        <ele>1391.02</ele>
        <time>2017-09-16T10:47:18Z</time>
      </trkpt>
      <trkpt lat="45.69235" lon="6.21363">
        <ele>1390.01</ele>
        <time>2017-09-16T10:47:19Z</time>
      </trkpt>
      <trkpt lat="45.69242" lon="6.21368">
        <ele>1388.97</ele>
        <time>2017-09-16T10:47:20Z</time>
      </trkpt>
      <trkpt lat="45.6925" lon="6.21375">
        <ele>1388.52</ele>
        <time>2017-09-16T10:47:21Z</time>
      </trkpt>
      <trkpt lat="45.69257" lon="6.21382">
        <ele>1387.53</ele>
        <time>2017-09-16T10:47:22Z</time>
      </trkpt>
      <trkpt lat="45.69263" lon="6.21389">
        <ele>1386.43</ele>
        <time>2017-09-16T10:47:23Z</time>
      </trkpt>
      <trkpt lat="45.69269" lon="6.21396">
        <ele>1385.33</ele>
        <time>2017-09-16T10:47:24Z</time>
      </trkpt>
      <trkpt lat="45.69275" lon="6.214">
        <ele>1383.94</ele>
        <time>2017-09-16T10:47:25Z</time>
      </trkpt>
      <trkpt lat="45.6928" lon="6.214">
        <ele>1383.14</ele>
        <time>2017-09-16T10:47:26Z</time>
      </trkpt>
      <trkpt lat="45.69284" lon="6.21396">
        <ele>1382</ele>
        <time>2017-09-16T10:47:27Z</time>
      </trkpt>
      <trkpt lat="45.69285" lon="6.2139">
        <ele>1381.68</ele>
        <time>2017-09-16T10:47:28Z</time>
      </trkpt>
      <trkpt lat="45.69284" lon="6.21385">
        <ele>1381.26</ele>
        <time>2017-09-16T10:47:29Z</time>
      </trkpt>
      <trkpt lat="45.69281" lon="6.2138">
        <ele>1380.69</ele>
        <time>2017-09-16T10:47:30Z</time>
      </trkpt>
      <trkpt lat="45.69277" lon="6.21375">
        <ele>1380.33</ele>
        <time>2017-09-16T10:47:31Z</time>
      </trkpt>
      <trkpt lat="45.69264" lon="6.21359">
        <ele>1378.9</ele>
        <time>2017-09-16T10:47:34Z</time>
      </trkpt>
      <trkpt lat="45.69249" lon="6.2134">
        <ele>1377.84</ele>
        <time>2017-09-16T10:47:37Z</time>
      </trkpt>
      <trkpt lat="45.69246" lon="6.21331">
        <ele>1376.62</ele>
        <time>2017-09-16T10:47:38Z</time>
      </trkpt>
      <trkpt lat="45.69244" lon="6.2132">
        <ele>1376.12</ele>
        <time>2017-09-16T10:47:39Z</time>
      </trkpt>
      <trkpt lat="45.69238" lon="6.21285">
        <ele>1374.76</ele>
        <time>2017-09-16T10:47:42Z</time>
      </trkpt>
      <trkpt lat="45.69227" lon="6.21252">
        <ele>1372.1</ele>
        <time>2017-09-16T10:47:45Z</time>
      </trkpt>
      <trkpt lat="45.69221" lon="6.21243">
        <ele>1371.56</ele>
        <time>2017-09-16T10:47:46Z</time>
      </trkpt>
      <trkpt lat="45.69214" lon="6.21235">
        <ele>1370.2</ele>
        <time>2017-09-16T10:47:47Z</time>
      </trkpt>
      <trkpt lat="45.69208" lon="6.21229">
        <ele>1370.12</ele>
        <time>2017-09-16T10:47:48Z</time>
      </trkpt>
      <trkpt lat="45.69205" lon="6.21222">
        <ele>1368.46</ele>
        <time>2017-09-16T10:47:49Z</time>
      </trkpt>
      <trkpt lat="45.69204" lon="6.21214">
        <ele>1367.85</ele>
        <time>2017-09-16T10:47:50Z</time>
      </trkpt>
      <trkpt lat="45.69204" lon="6.21206">
        <ele>1367.02</ele>
        <time>2017-09-16T10:47:51Z</time>
      </trkpt>
      <trkpt lat="45.6921" lon="6.21204">
        <ele>1366.47</ele>
        <time>2017-09-16T10:47:52Z</time>
      </trkpt>
      <trkpt lat="45.69215" lon="6.21204">
        <ele>1366.15</ele>
        <time>2017-09-16T10:47:53Z</time>
      </trkpt>
      <trkpt lat="45.6922" lon="6.21208">
        <ele>1366.09</ele>
        <time>2017-09-16T10:47:54Z</time>
      </trkpt>
      <trkpt lat="45.69224" lon="6.21213">
        <ele>1365.63</ele>
        <time>2017-09-16T10:47:55Z</time>
      </trkpt>
      <trkpt lat="45.69227" lon="6.2122">
        <ele>1364.97</ele>
        <time>2017-09-16T10:47:56Z</time>
      </trkpt>
      <trkpt lat="45.6923" lon="6.21227">
        <ele>1365.06</ele>
        <time>2017-09-16T10:47:57Z</time>
      </trkpt>
      <trkpt lat="45.6925" lon="6.21266">
        <ele>1362.68</ele>
        <time>2017-09-16T10:48:02Z</time>
      </trkpt>
      <trkpt lat="45.69265" lon="6.21294">
        <ele>1361.19</ele>
        <time>2017-09-16T10:48:05Z</time>
      </trkpt>
      <trkpt lat="45.69277" lon="6.21313">
        <ele>1359.55</ele>
        <time>2017-09-16T10:48:07Z</time>
      </trkpt>
      <trkpt lat="45.69284" lon="6.2132">
        <ele>1358.56</ele>
        <time>2017-09-16T10:48:08Z</time>
      </trkpt>
      <trkpt lat="45.69292" lon="6.21325">
        <ele>1358.22</ele>
        <time>2017-09-16T10:48:09Z</time>
      </trkpt>
      <trkpt lat="45.69308" lon="6.21335">
        <ele>1357.18</ele>
        <time>2017-09-16T10:48:11Z</time>
      </trkpt>
      <trkpt lat="45.69315" lon="6.21342">
        <ele>1356.57</ele>
        <time>2017-09-16T10:48:12Z</time>
      </trkpt>
      <trkpt lat="45.69321" lon="6.21352">
        <ele>1354.89</ele>
        <time>2017-09-16T10:48:13Z</time>
      </trkpt>
      <trkpt lat="45.69326" lon="6.21362">
        <ele>1354.57</ele>
        <time>2017-09-16T10:48:14Z</time>
      </trkpt>
      <trkpt lat="45.69332" lon="6.21373">
        <ele>1353.65</ele>
        <time>2017-09-16T10:48:15Z</time>
      </trkpt>
      <trkpt lat="45.69339" lon="6.21383">
        <ele>1352.62</ele>
        <time>2017-09-16T10:48:16Z</time>
      </trkpt>
      <trkpt lat="45.69346" lon="6.21393">
        <ele>1352.26</ele>
        <time>2017-09-16T10:48:17Z</time>
      </trkpt>
      <trkpt lat="45.69354" lon="6.214">
        <ele>1351.24</ele>
        <time>2017-09-16T10:48:18Z</time>
      </trkpt>
      <trkpt lat="45.69362" lon="6.21407">
        <ele>1350.82</ele>
        <time>2017-09-16T10:48:19Z</time>
      </trkpt>
      <trkpt lat="45.69371" lon="6.21412">
        <ele>1350.17</ele>
        <time>2017-09-16T10:48:20Z</time>
      </trkpt>
      <trkpt lat="45.69398" lon="6.21432">
        <ele>1347.18</ele>
        <time>2017-09-16T10:48:23Z</time>
      </trkpt>
      <trkpt lat="45.69405" lon="6.21442">
        <ele>1345.92</ele>
        <time>2017-09-16T10:48:24Z</time>
      </trkpt>
      <trkpt lat="45.69428" lon="6.21475">
        <ele>1342.78</ele>
        <time>2017-09-16T10:48:27Z</time>
      </trkpt>
      <trkpt lat="45.69459" lon="6.21518">
        <ele>1339.37</ele>
        <time>2017-09-16T10:48:31Z</time>
      </trkpt>
      <trkpt lat="45.69486" lon="6.21546">
        <ele>1335.86</ele>
        <time>2017-09-16T10:48:34Z</time>
      </trkpt>
      <trkpt lat="45.69511" lon="6.21572">
        <ele>1332.5</ele>
        <time>2017-09-16T10:48:37Z</time>
      </trkpt>
      <trkpt lat="45.69516" lon="6.21581">
        <ele>1331.85</ele>
        <time>2017-09-16T10:48:38Z</time>
      </trkpt>
      <trkpt lat="45.69518" lon="6.2159">
        <ele>1332.09</ele>
        <time>2017-09-16T10:48:39Z</time>
      </trkpt>
      <trkpt lat="45.6952" lon="6.21599">
        <ele>1331.63</ele>
        <time>2017-09-16T10:48:40Z</time>
      </trkpt>
      <trkpt lat="45.69521" lon="6.21607">
        <ele>1331.8</ele>
        <time>2017-09-16T10:48:41Z</time>
      </trkpt>
      <trkpt lat="45.69523" lon="6.21613">
        <ele>1331.16</ele>
        <time>2017-09-16T10:48:42Z</time>
      </trkpt>
      <trkpt lat="45.69525" lon="6.21617">
        <ele>1330.46</ele>
        <time>2017-09-16T10:48:43Z</time>
      </trkpt>
      <trkpt lat="45.69526" lon="6.2162">
        <ele>1329.94</ele>
        <time>2017-09-16T10:48:44Z</time>
      </trkpt>
      <trkpt lat="45.69525" lon="6.2162">
        <ele>1329.61</ele>
        <time>2017-09-16T10:48:54Z</time>
      </trkpt>
      <trkpt lat="45.69532" lon="6.21628">
        <ele>1332.54</ele>
        <time>2017-09-16T10:49:08Z</time>
      </trkpt>
      <trkpt lat="45.6954" lon="6.21634">
        <ele>1335.55</ele>
        <time>2017-09-16T10:49:24Z</time>
      </trkpt>
      <trkpt lat="45.69545" lon="6.21642">
        <ele>1336.3</ele>
        <time>2017-09-16T10:49:28Z</time>
      </trkpt>
      <trkpt lat="45.69546" lon="6.21644">
        <ele>1335.87</ele>
        <time>2017-09-16T10:49:29Z</time>
      </trkpt>
      <trkpt lat="45.69546" lon="6.21648">
        <ele>1337.14</ele>
        <time>2017-09-16T10:49:31Z</time>
      </trkpt>
      <trkpt lat="45.69545" lon="6.21668">
        <ele>1337.47</ele>
        <time>2017-09-16T10:49:47Z</time>
      </trkpt>
      <trkpt lat="45.69548" lon="6.21675">
        <ele>1338.26</ele>
        <time>2017-09-16T10:50:07Z</time>
      </trkpt>
      <trkpt lat="45.69556" lon="6.21685">
        <ele>1341.6</ele>
        <time>2017-09-16T10:50:22Z</time>
      </trkpt>
      <trkpt lat="45.69566" lon="6.2171">
        <ele>1345.23</ele>
        <time>2017-09-16T10:50:42Z</time>
      </trkpt>
      <trkpt lat="45.69571" lon="6.21732">
        <ele>1348.38</ele>
        <time>2017-09-16T10:50:58Z</time>
      </trkpt>
      <trkpt lat="45.69574" lon="6.21735">
        <ele>1348.91</ele>
        <time>2017-09-16T10:51:02Z</time>
      </trkpt>
      <trkpt lat="45.69575" lon="6.21736">
        <ele>1348.92</ele>
        <time>2017-09-16T10:51:03Z</time>
      </trkpt>
      <trkpt lat="45.69576" lon="6.21737">
        <ele>1349.07</ele>
        <time>2017-09-16T10:51:04Z</time>
      </trkpt>
      <trkpt lat="45.69582" lon="6.21748">
        <ele>1352.19</ele>
        <time>2017-09-16T10:51:17Z</time>
      </trkpt>
      <trkpt lat="45.6959" lon="6.2176">
        <ele>1355.47</ele>
        <time>2017-09-16T10:51:30Z</time>
      </trkpt>
      <trkpt lat="45.69599" lon="6.21774">
        <ele>1357.62</ele>
        <time>2017-09-16T10:51:46Z</time>
      </trkpt>
      <trkpt lat="45.69603" lon="6.21788">
        <ele>1360.72</ele>
        <time>2017-09-16T10:51:59Z</time>
      </trkpt>
      <trkpt lat="45.69604" lon="6.21802">
        <ele>1363.98</ele>
        <time>2017-09-16T10:52:12Z</time>
      </trkpt>
      <trkpt lat="45.69606" lon="6.21805">
        <ele>1364.98</ele>
        <time>2017-09-16T10:52:17Z</time>
      </trkpt>
      <trkpt lat="45.69607" lon="6.21805">
        <ele>1365.22</ele>
        <time>2017-09-16T10:52:18Z</time>
      </trkpt>
      <trkpt lat="45.6961" lon="6.21835">
        <ele>1368.58</ele>
        <time>2017-09-16T10:52:40Z</time>
      </trkpt>
      <trkpt lat="45.69614" lon="6.21858">
        <ele>1371.66</ele>
        <time>2017-09-16T10:53:01Z</time>
      </trkpt>
      <trkpt lat="45.69624" lon="6.21866">
        <ele>1375.15</ele>
        <time>2017-09-16T10:53:19Z</time>
      </trkpt>
      <trkpt lat="45.69629" lon="6.21887">
        <ele>1378.41</ele>
        <time>2017-09-16T10:53:37Z</time>
      </trkpt>
      <trkpt lat="45.69643" lon="6.21895">
        <ele>1381.51</ele>
        <time>2017-09-16T10:53:54Z</time>
      </trkpt>
      <trkpt lat="45.69653" lon="6.219">
        <ele>1384.53</ele>
        <time>2017-09-16T10:54:07Z</time>
      </trkpt>
      <trkpt lat="45.69665" lon="6.21906">
        <ele>1387.8</ele>
        <time>2017-09-16T10:54:25Z</time>
      </trkpt>
      <trkpt lat="45.69669" lon="6.21915">
        <ele>1390.92</ele>
        <time>2017-09-16T10:54:38Z</time>
      </trkpt>
      <trkpt lat="45.69675" lon="6.2192">
        <ele>1394.11</ele>
        <time>2017-09-16T10:54:49Z</time>
      </trkpt>
      <trkpt lat="45.69676" lon="6.2192">
        <ele>1394.35</ele>
        <time>2017-09-16T10:54:50Z</time>
      </trkpt>
      <trkpt lat="45.69681" lon="6.21925">
        <ele>1397.36</ele>
        <time>2017-09-16T10:55:05Z</time>
      </trkpt>
      <trkpt lat="45.69687" lon="6.21928">
        <ele>1400.6</ele>
        <time>2017-09-16T10:55:16Z</time>
      </trkpt>
      <trkpt lat="45.69695" lon="6.2193">
        <ele>1403.68</ele>
        <time>2017-09-16T10:55:32Z</time>
      </trkpt>
      <trkpt lat="45.69698" lon="6.21938">
        <ele>1406.69</ele>
        <time>2017-09-16T10:55:47Z</time>
      </trkpt>
      <trkpt lat="45.69706" lon="6.21937">
        <ele>1409.93</ele>
        <time>2017-09-16T10:56:03Z</time>
      </trkpt>
      <trkpt lat="45.69716" lon="6.21933">
        <ele>1412.01</ele>
        <time>2017-09-16T10:56:18Z</time>
      </trkpt>
      <trkpt lat="45.69724" lon="6.21933">
        <ele>1413.89</ele>
        <time>2017-09-16T10:56:29Z</time>
      </trkpt>
      <trkpt lat="45.69734" lon="6.21933">
        <ele>1416.94</ele>
        <time>2017-09-16T10:56:43Z</time>
      </trkpt>
      <trkpt lat="45.6974" lon="6.21931">
        <ele>1420.38</ele>
        <time>2017-09-16T10:56:58Z</time>
      </trkpt>
      <trkpt lat="45.69745" lon="6.21931">
        <ele>1422.46</ele>
        <time>2017-09-16T10:57:06Z</time>
      </trkpt>
      <trkpt lat="45.6975" lon="6.21927">
        <ele>1424.55</ele>
        <time>2017-09-16T10:57:15Z</time>
      </trkpt>
      <trkpt lat="45.69758" lon="6.21912">
        <ele>1427.57</ele>
        <time>2017-09-16T10:57:32Z</time>
      </trkpt>
      <trkpt lat="45.69766" lon="6.21908">
        <ele>1430.6</ele>
        <time>2017-09-16T10:57:47Z</time>
      </trkpt>
      <trkpt lat="45.6978" lon="6.21908">
        <ele>1433.89</ele>
        <time>2017-09-16T10:58:03Z</time>
      </trkpt>
      <trkpt lat="45.69786" lon="6.21916">
        <ele>1436.97</ele>
        <time>2017-09-16T10:58:17Z</time>
      </trkpt>
      <trkpt lat="45.69801" lon="6.21913">
        <ele>1440.01</ele>
        <time>2017-09-16T10:58:36Z</time>
      </trkpt>
      <trkpt lat="45.69816" lon="6.21918">
        <ele>1443.3</ele>
        <time>2017-09-16T10:58:56Z</time>
      </trkpt>
      <trkpt lat="45.69829" lon="6.2192">
        <ele>1446.31</ele>
        <time>2017-09-16T10:59:15Z</time>
      </trkpt>
      <trkpt lat="45.69847" lon="6.21924">
        <ele>1449.55</ele>
        <time>2017-09-16T10:59:39Z</time>
      </trkpt>
      <trkpt lat="45.69864" lon="6.21938">
        <ele>1451.13</ele>
        <time>2017-09-16T10:59:54Z</time>
      </trkpt>
      <trkpt lat="45.69877" lon="6.2196">
        <ele>1452.42</ele>
        <time>2017-09-16T11:00:17Z</time>
      </trkpt>
      <trkpt lat="45.69882" lon="6.21967">
        <ele>1452.48</ele>
        <time>2017-09-16T11:00:38Z</time>
      </trkpt>
      <trkpt lat="45.69883" lon="6.21967">
        <ele>1452.51</ele>
        <time>2017-09-16T11:00:44Z</time>
      </trkpt>
      <trkpt lat="45.69889" lon="6.2197">
        <ele>1452.94</ele>
        <time>2017-09-16T11:00:49Z</time>
      </trkpt>
      <trkpt lat="45.69927" lon="6.21981">
        <ele>1454.68</ele>
        <time>2017-09-16T11:01:12Z</time>
      </trkpt>
      <trkpt lat="45.69949" lon="6.21988">
        <ele>1456.95</ele>
        <time>2017-09-16T11:01:27Z</time>
      </trkpt>
      <trkpt lat="45.69967" lon="6.22001">
        <ele>1460.37</ele>
        <time>2017-09-16T11:01:42Z</time>
      </trkpt>
      <trkpt lat="45.69988" lon="6.22014">
        <ele>1462.62</ele>
        <time>2017-09-16T11:02:00Z</time>
      </trkpt>
      <trkpt lat="45.69989" lon="6.22016">
        <ele>1463.7</ele>
        <time>2017-09-16T11:02:16Z</time>
      </trkpt>
      <trkpt lat="45.69997" lon="6.22022">
        <ele>1464.46</ele>
        <time>2017-09-16T11:02:31Z</time>
      </trkpt>
      <trkpt lat="45.70004" lon="6.22029">
        <ele>1465.76</ele>
        <time>2017-09-16T11:02:45Z</time>
      </trkpt>
      <trkpt lat="45.70014" lon="6.22037">
        <ele>1466.46</ele>
        <time>2017-09-16T11:02:52Z</time>
      </trkpt>
      <trkpt lat="45.70018" lon="6.22043">
        <ele>1468.24</ele>
        <time>2017-09-16T11:03:03Z</time>
      </trkpt>
      <trkpt lat="45.70022" lon="6.22045">
        <ele>1468.84</ele>
        <time>2017-09-16T11:03:16Z</time>
      </trkpt>
      <trkpt lat="45.70024" lon="6.22046">
        <ele>1468.89</ele>
        <time>2017-09-16T11:03:17Z</time>
      </trkpt>
      <trkpt lat="45.70025" lon="6.22047">
        <ele>1468.92</ele>
        <time>2017-09-16T11:03:18Z</time>
      </trkpt>
      <trkpt lat="45.70026" lon="6.22048">
        <ele>1469.08</ele>
        <time>2017-09-16T11:03:19Z</time>
      </trkpt>
      <trkpt lat="45.70027" lon="6.22049">
        <ele>1469.44</ele>
        <time>2017-09-16T11:03:20Z</time>
      </trkpt>
      <trkpt lat="45.70028" lon="6.22051">
        <ele>1469.56</ele>
        <time>2017-09-16T11:03:21Z</time>
      </trkpt>
      <trkpt lat="45.7003" lon="6.22053">
        <ele>1469.64</ele>
        <time>2017-09-16T11:03:22Z</time>
      </trkpt>
      <trkpt lat="45.70031" lon="6.22054">
        <ele>1469.76</ele>
        <time>2017-09-16T11:03:23Z</time>
      </trkpt>
      <trkpt lat="45.70032" lon="6.22055">
        <ele>1470.16</ele>
        <time>2017-09-16T11:03:24Z</time>
      </trkpt>
      <trkpt lat="45.70033" lon="6.22056">
        <ele>1470.26</ele>
        <time>2017-09-16T11:03:25Z</time>
      </trkpt>
      <trkpt lat="45.70035" lon="6.2206">
        <ele>1471.03</ele>
        <time>2017-09-16T11:03:38Z</time>
      </trkpt>
      <trkpt lat="45.70054" lon="6.22077">
        <ele>1474.13</ele>
        <time>2017-09-16T11:03:54Z</time>
      </trkpt>
      <trkpt lat="45.70082" lon="6.22101">
        <ele>1476.27</ele>
        <time>2017-09-16T11:04:14Z</time>
      </trkpt>
      <trkpt lat="45.70086" lon="6.22106">
        <ele>1477.5</ele>
        <time>2017-09-16T11:04:17Z</time>
      </trkpt>
      <trkpt lat="45.70092" lon="6.22112">
        <ele>1479.02</ele>
        <time>2017-09-16T11:04:21Z</time>
      </trkpt>
      <trkpt lat="45.70097" lon="6.22118">
        <ele>1480.11</ele>
        <time>2017-09-16T11:04:26Z</time>
      </trkpt>
      <trkpt lat="45.70098" lon="6.22119">
        <ele>1480.26</ele>
        <time>2017-09-16T11:04:41Z</time>
      </trkpt>
      <trkpt lat="45.701" lon="6.22119">
        <ele>1480.33</ele>
        <time>2017-09-16T11:04:50Z</time>
      </trkpt>
      <trkpt lat="45.70102" lon="6.2212">
        <ele>1480</ele>
        <time>2017-09-16T11:04:51Z</time>
      </trkpt>
      <trkpt lat="45.70114" lon="6.22128">
        <ele>1481.25</ele>
        <time>2017-09-16T11:05:03Z</time>
      </trkpt>
      <trkpt lat="45.70127" lon="6.22143">
        <ele>1484.75</ele>
        <time>2017-09-16T11:05:14Z</time>
      </trkpt>
      <trkpt lat="45.7014" lon="6.22156">
        <ele>1487.97</ele>
        <time>2017-09-16T11:05:26Z</time>
      </trkpt>
      <trkpt lat="45.70151" lon="6.22169">
        <ele>1490.35</ele>
        <time>2017-09-16T11:05:38Z</time>
      </trkpt>
      <trkpt lat="45.70161" lon="6.22181">
        <ele>1492.2</ele>
        <time>2017-09-16T11:05:47Z</time>
      </trkpt>
      <trkpt lat="45.70161" lon="6.22182">
        <ele>1492.2</ele>
        <time>2017-09-16T11:05:48Z</time>
      </trkpt>
      <trkpt lat="45.7018" lon="6.22208">
        <ele>1492.17</ele>
        <time>2017-09-16T11:06:05Z</time>
      </trkpt>
      <trkpt lat="45.70194" lon="6.2224">
        <ele>1493.39</ele>
        <time>2017-09-16T11:06:20Z</time>
      </trkpt>
      <trkpt lat="45.70197" lon="6.2225">
        <ele>1494.58</ele>
        <time>2017-09-16T11:06:36Z</time>
      </trkpt>
      <trkpt lat="45.70204" lon="6.22263">
        <ele>1494.64</ele>
        <time>2017-09-16T11:06:53Z</time>
      </trkpt>
      <trkpt lat="45.70211" lon="6.22282">
        <ele>1497.86</ele>
        <time>2017-09-16T11:07:02Z</time>
      </trkpt>
      <trkpt lat="45.70216" lon="6.22292">
        <ele>1500.89</ele>
        <time>2017-09-16T11:07:08Z</time>
      </trkpt>
      <trkpt lat="45.70235" lon="6.22311">
        <ele>1501.13</ele>
        <time>2017-09-16T11:07:23Z</time>
      </trkpt>
      <trkpt lat="45.70236" lon="6.22312">
        <ele>1501.96</ele>
        <time>2017-09-16T11:07:24Z</time>
      </trkpt>
      <trkpt lat="45.70237" lon="6.22314">
        <ele>1502.01</ele>
        <time>2017-09-16T11:07:25Z</time>
      </trkpt>
      <trkpt lat="45.70238" lon="6.22315">
        <ele>1502.29</ele>
        <time>2017-09-16T11:07:26Z</time>
      </trkpt>
      <trkpt lat="45.70239" lon="6.22317">
        <ele>1502.37</ele>
        <time>2017-09-16T11:07:27Z</time>
      </trkpt>
      <trkpt lat="45.70241" lon="6.22318">
        <ele>1502.12</ele>
        <time>2017-09-16T11:07:28Z</time>
      </trkpt>
      <trkpt lat="45.70253" lon="6.22341">
        <ele>1505.26</ele>
        <time>2017-09-16T11:07:42Z</time>
      </trkpt>
      <trkpt lat="45.70256" lon="6.2235">
        <ele>1505.1</ele>
        <time>2017-09-16T11:07:46Z</time>
      </trkpt>
      <trkpt lat="45.70256" lon="6.22352">
        <ele>1505.36</ele>
        <time>2017-09-16T11:07:47Z</time>
      </trkpt>
      <trkpt lat="45.70256" lon="6.22363">
        <ele>1505.06</ele>
        <time>2017-09-16T11:07:58Z</time>
      </trkpt>
      <trkpt lat="45.70256" lon="6.22365">
        <ele>1505.7</ele>
        <time>2017-09-16T11:07:59Z</time>
      </trkpt>
      <trkpt lat="45.70257" lon="6.22367">
        <ele>1505.63</ele>
        <time>2017-09-16T11:08:00Z</time>
      </trkpt>
      <trkpt lat="45.70257" lon="6.2237">
        <ele>1505.47</ele>
        <time>2017-09-16T11:08:01Z</time>
      </trkpt>
      <trkpt lat="45.70257" lon="6.22374">
        <ele>1505.03</ele>
        <time>2017-09-16T11:08:02Z</time>
      </trkpt>
      <trkpt lat="45.70258" lon="6.22377">
        <ele>1505.37</ele>
        <time>2017-09-16T11:08:03Z</time>
      </trkpt>
      <trkpt lat="45.70258" lon="6.22379">
        <ele>1505.18</ele>
        <time>2017-09-16T11:08:04Z</time>
      </trkpt>
      <trkpt lat="45.70259" lon="6.22381">
        <ele>1505.5</ele>
        <time>2017-09-16T11:08:05Z</time>
      </trkpt>
      <trkpt lat="45.70262" lon="6.2239">
        <ele>1505.87</ele>
        <time>2017-09-16T11:08:20Z</time>
      </trkpt>
      <trkpt lat="45.70268" lon="6.22418">
        <ele>1504.87</ele>
        <time>2017-09-16T11:08:35Z</time>
      </trkpt>
      <trkpt lat="45.70267" lon="6.22427">
        <ele>1504.51</ele>
        <time>2017-09-16T11:08:38Z</time>
      </trkpt>
      <trkpt lat="45.70275" lon="6.22436">
        <ele>1504.47</ele>
        <time>2017-09-16T11:08:52Z</time>
      </trkpt>
      <trkpt lat="45.70276" lon="6.22439">
        <ele>1504.05</ele>
        <time>2017-09-16T11:08:53Z</time>
      </trkpt>
      <trkpt lat="45.70276" lon="6.22442">
        <ele>1504.12</ele>
        <time>2017-09-16T11:08:54Z</time>
      </trkpt>
      <trkpt lat="45.70277" lon="6.2245">
        <ele>1503.44</ele>
        <time>2017-09-16T11:08:57Z</time>
      </trkpt>
      <trkpt lat="45.70276" lon="6.22452">
        <ele>1503.23</ele>
        <time>2017-09-16T11:08:58Z</time>
      </trkpt>
      <trkpt lat="45.70273" lon="6.22464">
        <ele>1501.98</ele>
        <time>2017-09-16T11:09:01Z</time>
      </trkpt>
      <trkpt lat="45.70273" lon="6.2247">
        <ele>1501.14</ele>
        <time>2017-09-16T11:09:02Z</time>
      </trkpt>
      <trkpt lat="45.70274" lon="6.22475">
        <ele>1501.08</ele>
        <time>2017-09-16T11:09:03Z</time>
      </trkpt>
      <trkpt lat="45.70275" lon="6.22479">
        <ele>1501.35</ele>
        <time>2017-09-16T11:09:04Z</time>
      </trkpt>
      <trkpt lat="45.70275" lon="6.22482">
        <ele>1501.26</ele>
        <time>2017-09-16T11:09:05Z</time>
      </trkpt>
      <trkpt lat="45.70275" lon="6.22485">
        <ele>1500.58</ele>
        <time>2017-09-16T11:09:06Z</time>
      </trkpt>
      <trkpt lat="45.70276" lon="6.22487">
        <ele>1500.67</ele>
        <time>2017-09-16T11:09:07Z</time>
      </trkpt>
      <trkpt lat="45.70277" lon="6.22488">
        <ele>1500.87</ele>
        <time>2017-09-16T11:09:08Z</time>
      </trkpt>
      <trkpt lat="45.70278" lon="6.2249">
        <ele>1500.73</ele>
        <time>2017-09-16T11:09:09Z</time>
      </trkpt>
      <trkpt lat="45.70279" lon="6.22491">
        <ele>1500.53</ele>
        <time>2017-09-16T11:09:10Z</time>
      </trkpt>
      <trkpt lat="45.70279" lon="6.22494">
        <ele>1500.64</ele>
        <time>2017-09-16T11:09:11Z</time>
      </trkpt>
      <trkpt lat="45.7028" lon="6.22496">
        <ele>1501.12</ele>
        <time>2017-09-16T11:09:12Z</time>
      </trkpt>
      <trkpt lat="45.7028" lon="6.22498">
        <ele>1501.08</ele>
        <time>2017-09-16T11:09:13Z</time>
      </trkpt>
      <trkpt lat="45.70281" lon="6.22501">
        <ele>1500.99</ele>
        <time>2017-09-16T11:09:14Z</time>
      </trkpt>
      <trkpt lat="45.70287" lon="6.22534">
        <ele>1501.24</ele>
        <time>2017-09-16T11:09:27Z</time>
      </trkpt>
      <trkpt lat="45.70295" lon="6.22566">
        <ele>1503.27</ele>
        <time>2017-09-16T11:09:40Z</time>
      </trkpt>
      <trkpt lat="45.70301" lon="6.22589">
        <ele>1506.28</ele>
        <time>2017-09-16T11:09:52Z</time>
      </trkpt>
      <trkpt lat="45.70304" lon="6.22607">
        <ele>1507.8</ele>
        <time>2017-09-16T11:10:08Z</time>
      </trkpt>
      <trkpt lat="45.70306" lon="6.22615">
        <ele>1508.49</ele>
        <time>2017-09-16T11:10:16Z</time>
      </trkpt>
      <trkpt lat="45.70306" lon="6.22617">
        <ele>1508.59</ele>
        <time>2017-09-16T11:10:17Z</time>
      </trkpt>
      <trkpt lat="45.70308" lon="6.22623">
        <ele>1507.65</ele>
        <time>2017-09-16T11:10:23Z</time>
      </trkpt>
      <trkpt lat="45.70309" lon="6.22625">
        <ele>1507.78</ele>
        <time>2017-09-16T11:10:24Z</time>
      </trkpt>
      <trkpt lat="45.70311" lon="6.22628">
        <ele>1507.23</ele>
        <time>2017-09-16T11:10:25Z</time>
      </trkpt>
      <trkpt lat="45.70312" lon="6.22631">
        <ele>1506.62</ele>
        <time>2017-09-16T11:10:26Z</time>
      </trkpt>
      <trkpt lat="45.70313" lon="6.22633">
        <ele>1506.93</ele>
        <time>2017-09-16T11:10:27Z</time>
      </trkpt>
      <trkpt lat="45.70313" lon="6.22636">
        <ele>1506.27</ele>
        <time>2017-09-16T11:10:28Z</time>
      </trkpt>
      <trkpt lat="45.70316" lon="6.22641">
        <ele>1505.96</ele>
        <time>2017-09-16T11:10:41Z</time>
      </trkpt>
      <trkpt lat="45.70323" lon="6.22656">
        <ele>1509.15</ele>
        <time>2017-09-16T11:10:56Z</time>
      </trkpt>
      <trkpt lat="45.70326" lon="6.22661">
        <ele>1512.61</ele>
        <time>2017-09-16T11:11:12Z</time>
      </trkpt>
      <trkpt lat="45.70326" lon="6.22668">
        <ele>1514.98</ele>
        <time>2017-09-16T11:11:21Z</time>
      </trkpt>
      <trkpt lat="45.70334" lon="6.2268">
        <ele>1518.46</ele>
        <time>2017-09-16T11:11:35Z</time>
      </trkpt>
      <trkpt lat="45.70337" lon="6.22692">
        <ele>1521.87</ele>
        <time>2017-09-16T11:11:52Z</time>
      </trkpt>
      <trkpt lat="45.70339" lon="6.22698">
        <ele>1524.93</ele>
        <time>2017-09-16T11:12:04Z</time>
      </trkpt>
      <trkpt lat="45.70345" lon="6.22703">
        <ele>1527.95</ele>
        <time>2017-09-16T11:12:15Z</time>
      </trkpt>
      <trkpt lat="45.70346" lon="6.22703">
        <ele>1528.3</ele>
        <time>2017-09-16T11:12:16Z</time>
      </trkpt>
      <trkpt lat="45.70354" lon="6.22715">
        <ele>1531.26</ele>
        <time>2017-09-16T11:12:30Z</time>
      </trkpt>
      <trkpt lat="45.7035" lon="6.22735">
        <ele>1534.81</ele>
        <time>2017-09-16T11:12:53Z</time>
      </trkpt>
      <trkpt lat="45.70371" lon="6.22752">
        <ele>1535.68</ele>
        <time>2017-09-16T11:13:17Z</time>
      </trkpt>
      <trkpt lat="45.70375" lon="6.22764">
        <ele>1536.97</ele>
        <time>2017-09-16T11:13:34Z</time>
      </trkpt>
      <trkpt lat="45.70377" lon="6.22769">
        <ele>1537.08</ele>
        <time>2017-09-16T11:13:37Z</time>
      </trkpt>
      <trkpt lat="45.70378" lon="6.22771">
        <ele>1536.93</ele>
        <time>2017-09-16T11:13:38Z</time>
      </trkpt>
      <trkpt lat="45.70378" lon="6.22773">
        <ele>1536.82</ele>
        <time>2017-09-16T11:13:39Z</time>
      </trkpt>
      <trkpt lat="45.70381" lon="6.22788">
        <ele>1535.6</ele>
        <time>2017-09-16T11:13:50Z</time>
      </trkpt>
      <trkpt lat="45.70381" lon="6.2279">
        <ele>1535.72</ele>
        <time>2017-09-16T11:13:51Z</time>
      </trkpt>
      <trkpt lat="45.70385" lon="6.22824">
        <ele>1535.07</ele>
        <time>2017-09-16T11:14:03Z</time>
      </trkpt>
      <trkpt lat="45.70393" lon="6.22856">
        <ele>1536.97</ele>
        <time>2017-09-16T11:14:19Z</time>
      </trkpt>
      <trkpt lat="45.70395" lon="6.22871">
        <ele>1537.68</ele>
        <time>2017-09-16T11:14:25Z</time>
      </trkpt>
      <trkpt lat="45.70396" lon="6.22872">
        <ele>1538.25</ele>
        <time>2017-09-16T11:14:26Z</time>
      </trkpt>
      <trkpt lat="45.70398" lon="6.22873">
        <ele>1538.32</ele>
        <time>2017-09-16T11:14:27Z</time>
      </trkpt>
      <trkpt lat="45.70399" lon="6.22874">
        <ele>1539.26</ele>
        <time>2017-09-16T11:14:28Z</time>
      </trkpt>
      <trkpt lat="45.704" lon="6.22875">
        <ele>1539.26</ele>
        <time>2017-09-16T11:14:29Z</time>
      </trkpt>
      <trkpt lat="45.70401" lon="6.22877">
        <ele>1539.85</ele>
        <time>2017-09-16T11:14:30Z</time>
      </trkpt>
      <trkpt lat="45.70401" lon="6.22878">
        <ele>1540.12</ele>
        <time>2017-09-16T11:14:31Z</time>
      </trkpt>
      <trkpt lat="45.70403" lon="6.2288">
        <ele>1540.73</ele>
        <time>2017-09-16T11:14:33Z</time>
      </trkpt>
      <trkpt lat="45.70404" lon="6.2288">
        <ele>1540.64</ele>
        <time>2017-09-16T11:14:34Z</time>
      </trkpt>
      <trkpt lat="45.70406" lon="6.22879">
        <ele>1541.01</ele>
        <time>2017-09-16T11:14:35Z</time>
      </trkpt>
      <trkpt lat="45.70408" lon="6.2288">
        <ele>1541.41</ele>
        <time>2017-09-16T11:14:37Z</time>
      </trkpt>
      <trkpt lat="45.70409" lon="6.22881">
        <ele>1541.81</ele>
        <time>2017-09-16T11:14:38Z</time>
      </trkpt>
      <trkpt lat="45.70411" lon="6.22882">
        <ele>1541.72</ele>
        <time>2017-09-16T11:14:39Z</time>
      </trkpt>
      <trkpt lat="45.70415" lon="6.22887">
        <ele>1543.85</ele>
        <time>2017-09-16T11:14:43Z</time>
      </trkpt>
      <trkpt lat="45.70415" lon="6.22888">
        <ele>1543.9</ele>
        <time>2017-09-16T11:14:44Z</time>
      </trkpt>
      <trkpt lat="45.70421" lon="6.22893">
        <ele>1544.92</ele>
        <time>2017-09-16T11:14:58Z</time>
      </trkpt>
      <trkpt lat="45.70428" lon="6.22893">
        <ele>1546.46</ele>
        <time>2017-09-16T11:15:07Z</time>
      </trkpt>
      <trkpt lat="45.70437" lon="6.22893">
        <ele>1550.02</ele>
        <time>2017-09-16T11:15:21Z</time>
      </trkpt>
      <trkpt lat="45.70443" lon="6.22891">
        <ele>1550.87</ele>
        <time>2017-09-16T11:15:44Z</time>
      </trkpt>
      <trkpt lat="45.70452" lon="6.22884">
        <ele>1553.97</ele>
        <time>2017-09-16T11:15:58Z</time>
      </trkpt>
      <trkpt lat="45.70461" lon="6.22873">
        <ele>1557.18</ele>
        <time>2017-09-16T11:16:15Z</time>
      </trkpt>
      <trkpt lat="45.70456" lon="6.22861">
        <ele>1560.23</ele>
        <time>2017-09-16T11:16:28Z</time>
      </trkpt>
      <trkpt lat="45.70455" lon="6.22854">
        <ele>1563.53</ele>
        <time>2017-09-16T11:16:42Z</time>
      </trkpt>
      <trkpt lat="45.70468" lon="6.22835">
        <ele>1566.6</ele>
        <time>2017-09-16T11:17:01Z</time>
      </trkpt>
      <trkpt lat="45.70485" lon="6.22833">
        <ele>1570.14</ele>
        <time>2017-09-16T11:17:17Z</time>
      </trkpt>
      <trkpt lat="45.70497" lon="6.22833">
        <ele>1573.86</ele>
        <time>2017-09-16T11:17:32Z</time>
      </trkpt>
      <trkpt lat="45.70514" lon="6.22835">
        <ele>1577.06</ele>
        <time>2017-09-16T11:17:51Z</time>
      </trkpt>
      <trkpt lat="45.70527" lon="6.2284">
        <ele>1580.46</ele>
        <time>2017-09-16T11:18:07Z</time>
      </trkpt>
      <trkpt lat="45.70537" lon="6.22844">
        <ele>1583.66</ele>
        <time>2017-09-16T11:18:21Z</time>
      </trkpt>
      <trkpt lat="45.70546" lon="6.22841">
        <ele>1587.16</ele>
        <time>2017-09-16T11:18:33Z</time>
      </trkpt>
      <trkpt lat="45.70556" lon="6.22843">
        <ele>1590.51</ele>
        <time>2017-09-16T11:18:49Z</time>
      </trkpt>
      <trkpt lat="45.70565" lon="6.22844">
        <ele>1593.76</ele>
        <time>2017-09-16T11:19:03Z</time>
      </trkpt>
      <trkpt lat="45.70574" lon="6.22846">
        <ele>1597.05</ele>
        <time>2017-09-16T11:19:17Z</time>
      </trkpt>
      <trkpt lat="45.70582" lon="6.22853">
        <ele>1600.33</ele>
        <time>2017-09-16T11:19:32Z</time>
      </trkpt>
      <trkpt lat="45.70588" lon="6.22859">
        <ele>1603.42</ele>
        <time>2017-09-16T11:19:45Z</time>
      </trkpt>
      <trkpt lat="45.70594" lon="6.22866">
        <ele>1606.51</ele>
        <time>2017-09-16T11:19:59Z</time>
      </trkpt>
      <trkpt lat="45.70601" lon="6.22877">
        <ele>1609.94</ele>
        <time>2017-09-16T11:20:13Z</time>
      </trkpt>
      <trkpt lat="45.70606" lon="6.22893">
        <ele>1613.21</ele>
        <time>2017-09-16T11:20:30Z</time>
      </trkpt>
      <trkpt lat="45.70612" lon="6.22901">
        <ele>1616.38</ele>
        <time>2017-09-16T11:20:41Z</time>
      </trkpt>
      <trkpt lat="45.70619" lon="6.22914">
        <ele>1619.58</ele>
        <time>2017-09-16T11:20:58Z</time>
      </trkpt>
      <trkpt lat="45.70627" lon="6.22926">
        <ele>1622.83</ele>
        <time>2017-09-16T11:21:12Z</time>
      </trkpt>
      <trkpt lat="45.70633" lon="6.2294">
        <ele>1626.34</ele>
        <time>2017-09-16T11:21:27Z</time>
      </trkpt>
      <trkpt lat="45.70635" lon="6.22943">
        <ele>1626.79</ele>
        <time>2017-09-16T11:21:30Z</time>
      </trkpt>
      <trkpt lat="45.70637" lon="6.2295">
        <ele>1627.09</ele>
        <time>2017-09-16T11:21:35Z</time>
      </trkpt>
      <trkpt lat="45.70642" lon="6.22958">
        <ele>1627.18</ele>
        <time>2017-09-16T11:21:42Z</time>
      </trkpt>
      <trkpt lat="45.70658" lon="6.22983">
        <ele>1629.39</ele>
        <time>2017-09-16T11:22:02Z</time>
      </trkpt>
      <trkpt lat="45.70661" lon="6.22991">
        <ele>1630.54</ele>
        <time>2017-09-16T11:22:11Z</time>
      </trkpt>
      <trkpt lat="45.7067" lon="6.23006">
        <ele>1631.36</ele>
        <time>2017-09-16T11:22:24Z</time>
      </trkpt>
      <trkpt lat="45.70671" lon="6.23019">
        <ele>1631.39</ele>
        <time>2017-09-16T11:22:32Z</time>
      </trkpt>
      <trkpt lat="45.70686" lon="6.2304">
        <ele>1628.82</ele>
        <time>2017-09-16T11:22:42Z</time>
      </trkpt>
      <trkpt lat="45.70687" lon="6.23045">
        <ele>1628.82</ele>
        <time>2017-09-16T11:22:43Z</time>
      </trkpt>
      <trkpt lat="45.70695" lon="6.23065">
        <ele>1625.73</ele>
        <time>2017-09-16T11:22:48Z</time>
      </trkpt>
      <trkpt lat="45.70705" lon="6.23083">
        <ele>1622.02</ele>
        <time>2017-09-16T11:22:53Z</time>
      </trkpt>
      <trkpt lat="45.70709" lon="6.2309">
        <ele>1620.66</ele>
        <time>2017-09-16T11:22:55Z</time>
      </trkpt>
      <trkpt lat="45.70716" lon="6.23101">
        <ele>1617.63</ele>
        <time>2017-09-16T11:22:58Z</time>
      </trkpt>
      <trkpt lat="45.70727" lon="6.23111">
        <ele>1614.58</ele>
        <time>2017-09-16T11:23:02Z</time>
      </trkpt>
      <trkpt lat="45.70738" lon="6.23127">
        <ele>1611.64</ele>
        <time>2017-09-16T11:23:06Z</time>
      </trkpt>
      <trkpt lat="45.70744" lon="6.2314">
        <ele>1608.52</ele>
        <time>2017-09-16T11:23:09Z</time>
      </trkpt>
      <trkpt lat="45.7075" lon="6.23161">
        <ele>1605.42</ele>
        <time>2017-09-16T11:23:13Z</time>
      </trkpt>
      <trkpt lat="45.70755" lon="6.23175">
        <ele>1602.39</ele>
        <time>2017-09-16T11:23:16Z</time>
      </trkpt>
      <trkpt lat="45.7076" lon="6.23189">
        <ele>1598.1</ele>
        <time>2017-09-16T11:23:19Z</time>
      </trkpt>
      <trkpt lat="45.70763" lon="6.23193">
        <ele>1596.89</ele>
        <time>2017-09-16T11:23:20Z</time>
      </trkpt>
      <trkpt lat="45.70766" lon="6.23197">
        <ele>1595.13</ele>
        <time>2017-09-16T11:23:21Z</time>
      </trkpt>
      <trkpt lat="45.70769" lon="6.232">
        <ele>1593.48</ele>
        <time>2017-09-16T11:23:22Z</time>
      </trkpt>
      <trkpt lat="45.70773" lon="6.23203">
        <ele>1592.75</ele>
        <time>2017-09-16T11:23:23Z</time>
      </trkpt>
      <trkpt lat="45.70776" lon="6.23206">
        <ele>1591.47</ele>
        <time>2017-09-16T11:23:24Z</time>
      </trkpt>
      <trkpt lat="45.70787" lon="6.23213">
        <ele>1587.31</ele>
        <time>2017-09-16T11:23:27Z</time>
      </trkpt>
      <trkpt lat="45.70797" lon="6.2322">
        <ele>1584.18</ele>
        <time>2017-09-16T11:23:30Z</time>
      </trkpt>
      <trkpt lat="45.708" lon="6.23223">
        <ele>1584.19</ele>
        <time>2017-09-16T11:23:31Z</time>
      </trkpt>
      <trkpt lat="45.70806" lon="6.23234">
        <ele>1580.28</ele>
        <time>2017-09-16T11:23:34Z</time>
      </trkpt>
      <trkpt lat="45.70816" lon="6.23251">
        <ele>1576.74</ele>
        <time>2017-09-16T11:23:38Z</time>
      </trkpt>
      <trkpt lat="45.70819" lon="6.23255">
        <ele>1575.98</ele>
        <time>2017-09-16T11:23:39Z</time>
      </trkpt>
      <trkpt lat="45.70832" lon="6.23269">
        <ele>1572.16</ele>
        <time>2017-09-16T11:23:43Z</time>
      </trkpt>
      <trkpt lat="45.7084" lon="6.23275">
        <ele>1570.21</ele>
        <time>2017-09-16T11:23:45Z</time>
      </trkpt>
      <trkpt lat="45.70852" lon="6.23282">
        <ele>1567.2</ele>
        <time>2017-09-16T11:23:48Z</time>
      </trkpt>
      <trkpt lat="45.70868" lon="6.2329">
        <ele>1563.85</ele>
        <time>2017-09-16T11:23:52Z</time>
      </trkpt>
      <trkpt lat="45.70882" lon="6.23301">
        <ele>1560.54</ele>
        <time>2017-09-16T11:23:56Z</time>
      </trkpt>
      <trkpt lat="45.70885" lon="6.23305">
        <ele>1559.38</ele>
        <time>2017-09-16T11:23:57Z</time>
      </trkpt>
      <trkpt lat="45.70888" lon="6.23309">
        <ele>1558.91</ele>
        <time>2017-09-16T11:23:58Z</time>
      </trkpt>
      <trkpt lat="45.70892" lon="6.23313">
        <ele>1558</ele>
        <time>2017-09-16T11:23:59Z</time>
      </trkpt>
      <trkpt lat="45.70896" lon="6.23316">
        <ele>1557.7</ele>
        <time>2017-09-16T11:24:00Z</time>
      </trkpt>
      <trkpt lat="45.70917" lon="6.23335">
        <ele>1554.94</ele>
        <time>2017-09-16T11:24:05Z</time>
      </trkpt>
      <trkpt lat="45.70921" lon="6.23338">
        <ele>1554.39</ele>
        <time>2017-09-16T11:24:06Z</time>
      </trkpt>
      <trkpt lat="45.70925" lon="6.2334">
        <ele>1553.81</ele>
        <time>2017-09-16T11:24:07Z</time>
      </trkpt>
      <trkpt lat="45.7094" lon="6.23346">
        <ele>1550.7</ele>
        <time>2017-09-16T11:24:12Z</time>
      </trkpt>
      <trkpt lat="45.70948" lon="6.2335">
        <ele>1547.46</ele>
        <time>2017-09-16T11:24:16Z</time>
      </trkpt>
      <trkpt lat="45.70959" lon="6.23362">
        <ele>1544.26</ele>
        <time>2017-09-16T11:24:22Z</time>
      </trkpt>
      <trkpt lat="45.70977" lon="6.23388">
        <ele>1542.14</ele>
        <time>2017-09-16T11:24:35Z</time>
      </trkpt>
      <trkpt lat="45.70984" lon="6.23395">
        <ele>1542.14</ele>
        <time>2017-09-16T11:24:51Z</time>
      </trkpt>
      <trkpt lat="45.71" lon="6.23401">
        <ele>1543.22</ele>
        <time>2017-09-16T11:25:12Z</time>
      </trkpt>
      <trkpt lat="45.71018" lon="6.23414">
        <ele>1546.49</ele>
        <time>2017-09-16T11:25:30Z</time>
      </trkpt>
      <trkpt lat="45.7103" lon="6.23417">
        <ele>1549.24</ele>
        <time>2017-09-16T11:25:40Z</time>
      </trkpt>
      <trkpt lat="45.71031" lon="6.23417">
        <ele>1549.21</ele>
        <time>2017-09-16T11:25:41Z</time>
      </trkpt>
      <trkpt lat="45.71032" lon="6.23416">
        <ele>1549.57</ele>
        <time>2017-09-16T11:25:42Z</time>
      </trkpt>
      <trkpt lat="45.71033" lon="6.23416">
        <ele>1550.1</ele>
        <time>2017-09-16T11:25:43Z</time>
      </trkpt>
      <trkpt lat="45.71035" lon="6.23416">
        <ele>1549.97</ele>
        <time>2017-09-16T11:25:44Z</time>
      </trkpt>
      <trkpt lat="45.71045" lon="6.2342">
        <ele>1551.33</ele>
        <time>2017-09-16T11:25:53Z</time>
      </trkpt>
      <trkpt lat="45.71046" lon="6.2342">
        <ele>1551.53</ele>
        <time>2017-09-16T11:25:54Z</time>
      </trkpt>
      <trkpt lat="45.71047" lon="6.2342">
        <ele>1551.67</ele>
        <time>2017-09-16T11:25:55Z</time>
      </trkpt>
      <trkpt lat="45.71063" lon="6.23424">
        <ele>1554.68</ele>
        <time>2017-09-16T11:26:08Z</time>
      </trkpt>
      <trkpt lat="45.7108" lon="6.23422">
        <ele>1557.79</ele>
        <time>2017-09-16T11:26:23Z</time>
      </trkpt>
      <trkpt lat="45.71081" lon="6.23423">
        <ele>1557.86</ele>
        <time>2017-09-16T11:26:24Z</time>
      </trkpt>
      <trkpt lat="45.71082" lon="6.23424">
        <ele>1557.85</ele>
        <time>2017-09-16T11:26:25Z</time>
      </trkpt>
      <trkpt lat="45.71082" lon="6.23425">
        <ele>1558.03</ele>
        <time>2017-09-16T11:26:26Z</time>
      </trkpt>
      <trkpt lat="45.71083" lon="6.23426">
        <ele>1558.51</ele>
        <time>2017-09-16T11:26:27Z</time>
      </trkpt>
      <trkpt lat="45.71084" lon="6.23427">
        <ele>1558.58</ele>
        <time>2017-09-16T11:26:28Z</time>
      </trkpt>
      <trkpt lat="45.71085" lon="6.23427">
        <ele>1559.04</ele>
        <time>2017-09-16T11:26:29Z</time>
      </trkpt>
      <trkpt lat="45.71086" lon="6.23428">
        <ele>1559.17</ele>
        <time>2017-09-16T11:26:30Z</time>
      </trkpt>
      <trkpt lat="45.71087" lon="6.23429">
        <ele>1558.81</ele>
        <time>2017-09-16T11:26:31Z</time>
      </trkpt>
      <trkpt lat="45.71088" lon="6.2343">
        <ele>1559.5</ele>
        <time>2017-09-16T11:26:32Z</time>
      </trkpt>
      <trkpt lat="45.71089" lon="6.2343">
        <ele>1559.59</ele>
        <time>2017-09-16T11:26:33Z</time>
      </trkpt>
      <trkpt lat="45.71091" lon="6.23431">
        <ele>1559.59</ele>
        <time>2017-09-16T11:26:34Z</time>
      </trkpt>
      <trkpt lat="45.71104" lon="6.23437">
        <ele>1562.66</ele>
        <time>2017-09-16T11:26:45Z</time>
      </trkpt>
      <trkpt lat="45.71107" lon="6.2344">
        <ele>1564.1</ele>
        <time>2017-09-16T11:26:48Z</time>
      </trkpt>
      <trkpt lat="45.71119" lon="6.23449">
        <ele>1567.58</ele>
        <time>2017-09-16T11:27:01Z</time>
      </trkpt>
      <trkpt lat="45.71128" lon="6.23453">
        <ele>1569.69</ele>
        <time>2017-09-16T11:27:10Z</time>
      </trkpt>
      <trkpt lat="45.71138" lon="6.23453">
        <ele>1571.9</ele>
        <time>2017-09-16T11:27:19Z</time>
      </trkpt>
      <trkpt lat="45.71153" lon="6.2346">
        <ele>1574.94</ele>
        <time>2017-09-16T11:27:34Z</time>
      </trkpt>
      <trkpt lat="45.71159" lon="6.23462">
        <ele>1576.3</ele>
        <time>2017-09-16T11:27:40Z</time>
      </trkpt>
      <trkpt lat="45.7116" lon="6.23462">
        <ele>1576.11</ele>
        <time>2017-09-16T11:27:41Z</time>
      </trkpt>
      <trkpt lat="45.71162" lon="6.23462">
        <ele>1576.86</ele>
        <time>2017-09-16T11:27:42Z</time>
      </trkpt>
      <trkpt lat="45.71163" lon="6.23462">
        <ele>1577.37</ele>
        <time>2017-09-16T11:27:43Z</time>
      </trkpt>
      <trkpt lat="45.71164" lon="6.23463">
        <ele>1577.57</ele>
        <time>2017-09-16T11:27:44Z</time>
      </trkpt>
      <trkpt lat="45.71165" lon="6.23464">
        <ele>1577.99</ele>
        <time>2017-09-16T11:27:45Z</time>
      </trkpt>
      <trkpt lat="45.71173" lon="6.23471">
        <ele>1579.5</ele>
        <time>2017-09-16T11:27:53Z</time>
      </trkpt>
      <trkpt lat="45.71174" lon="6.23472">
        <ele>1579.84</ele>
        <time>2017-09-16T11:27:54Z</time>
      </trkpt>
      <trkpt lat="45.71194" lon="6.23484">
        <ele>1581.9</ele>
        <time>2017-09-16T11:28:16Z</time>
      </trkpt>
      <trkpt lat="45.71195" lon="6.23484">
        <ele>1581.76</ele>
        <time>2017-09-16T11:28:17Z</time>
      </trkpt>
      <trkpt lat="45.71196" lon="6.23484">
        <ele>1581.63</ele>
        <time>2017-09-16T11:28:18Z</time>
      </trkpt>
      <trkpt lat="45.71197" lon="6.23484">
        <ele>1581.31</ele>
        <time>2017-09-16T11:28:19Z</time>
      </trkpt>
      <trkpt lat="45.71228" lon="6.23475">
        <ele>1577.94</ele>
        <time>2017-09-16T11:28:36Z</time>
      </trkpt>
      <trkpt lat="45.71238" lon="6.23473">
        <ele>1576.51</ele>
        <time>2017-09-16T11:28:40Z</time>
      </trkpt>
      <trkpt lat="45.7124" lon="6.23472">
        <ele>1576.55</ele>
        <time>2017-09-16T11:28:41Z</time>
      </trkpt>
      <trkpt lat="45.71242" lon="6.23473">
        <ele>1575.88</ele>
        <time>2017-09-16T11:28:57Z</time>
      </trkpt>
      <trkpt lat="45.71244" lon="6.23474">
        <ele>1575.84</ele>
        <time>2017-09-16T11:29:06Z</time>
      </trkpt>
      <trkpt lat="45.7127" lon="6.23491">
        <ele>1575.86</ele>
        <time>2017-09-16T11:29:21Z</time>
      </trkpt>
      <trkpt lat="45.71274" lon="6.23497">
        <ele>1577.59</ele>
        <time>2017-09-16T11:29:25Z</time>
      </trkpt>
      <trkpt lat="45.71279" lon="6.23505">
        <ele>1579.26</ele>
        <time>2017-09-16T11:29:35Z</time>
      </trkpt>
      <trkpt lat="45.71304" lon="6.2351">
        <ele>1582.42</ele>
        <time>2017-09-16T11:29:52Z</time>
      </trkpt>
      <trkpt lat="45.71324" lon="6.23509">
        <ele>1583.84</ele>
        <time>2017-09-16T11:30:11Z</time>
      </trkpt>
      <trkpt lat="45.71344" lon="6.23507">
        <ele>1586.46</ele>
        <time>2017-09-16T11:30:33Z</time>
      </trkpt>
      <trkpt lat="45.71355" lon="6.23507">
        <ele>1586.88</ele>
        <time>2017-09-16T11:30:45Z</time>
      </trkpt>
      <trkpt lat="45.71371" lon="6.23512">
        <ele>1590.53</ele>
        <time>2017-09-16T11:31:05Z</time>
      </trkpt>
      <trkpt lat="45.71377" lon="6.23515">
        <ele>1591.57</ele>
        <time>2017-09-16T11:31:17Z</time>
      </trkpt>
      <trkpt lat="45.7139" lon="6.23519">
        <ele>1594.48</ele>
        <time>2017-09-16T11:31:31Z</time>
      </trkpt>
      <trkpt lat="45.71404" lon="6.23521">
        <ele>1597.47</ele>
        <time>2017-09-16T11:31:47Z</time>
      </trkpt>
      <trkpt lat="45.71412" lon="6.23522">
        <ele>1600.75</ele>
        <time>2017-09-16T11:32:00Z</time>
      </trkpt>
      <trkpt lat="45.71423" lon="6.23528">
        <ele>1603.93</ele>
        <time>2017-09-16T11:32:18Z</time>
      </trkpt>
      <trkpt lat="45.71438" lon="6.23525">
        <ele>1607.42</ele>
        <time>2017-09-16T11:32:37Z</time>
      </trkpt>
      <trkpt lat="45.71452" lon="6.23523">
        <ele>1610.54</ele>
        <time>2017-09-16T11:32:55Z</time>
      </trkpt>
      <trkpt lat="45.71464" lon="6.23526">
        <ele>1613.71</ele>
        <time>2017-09-16T11:33:12Z</time>
      </trkpt>
      <trkpt lat="45.71477" lon="6.23521">
        <ele>1616.85</ele>
        <time>2017-09-16T11:33:29Z</time>
      </trkpt>
      <trkpt lat="45.71476" lon="6.23522">
        <ele>1616.54</ele>
        <time>2017-09-16T11:33:49Z</time>
      </trkpt>
      <trkpt lat="45.71489" lon="6.23524">
        <ele>1617.26</ele>
        <time>2017-09-16T11:34:14Z</time>
      </trkpt>
      <trkpt lat="45.715" lon="6.23527">
        <ele>1615.86</ele>
        <time>2017-09-16T11:34:17Z</time>
      </trkpt>
      <trkpt lat="45.71512" lon="6.23533">
        <ele>1614.54</ele>
        <time>2017-09-16T11:34:20Z</time>
      </trkpt>
      <trkpt lat="45.7155" lon="6.23568">
        <ele>1610.96</ele>
        <time>2017-09-16T11:34:30Z</time>
      </trkpt>
      <trkpt lat="45.71567" lon="6.23583">
        <ele>1608.37</ele>
        <time>2017-09-16T11:34:34Z</time>
      </trkpt>
      <trkpt lat="45.71589" lon="6.23592">
        <ele>1607.45</ele>
        <time>2017-09-16T11:34:46Z</time>
      </trkpt>
      <trkpt lat="45.71618" lon="6.23608">
        <ele>1608.49</ele>
        <time>2017-09-16T11:35:02Z</time>
      </trkpt>
      <trkpt lat="45.71668" lon="6.23605">
        <ele>1608.18</ele>
        <time>2017-09-16T11:35:20Z</time>
      </trkpt>
      <trkpt lat="45.71708" lon="6.23611">
        <ele>1611.26</ele>
        <time>2017-09-16T11:35:36Z</time>
      </trkpt>
      <trkpt lat="45.71757" lon="6.23614">
        <ele>1613.33</ele>
        <time>2017-09-16T11:35:58Z</time>
      </trkpt>
      <trkpt lat="45.71797" lon="6.23612">
        <ele>1616.65</ele>
        <time>2017-09-16T11:36:19Z</time>
      </trkpt>
      <trkpt lat="45.71831" lon="6.2361">
        <ele>1619.33</ele>
        <time>2017-09-16T11:36:40Z</time>
      </trkpt>
      <trkpt lat="45.71853" lon="6.23628">
        <ele>1617.43</ele>
        <time>2017-09-16T11:36:53Z</time>
      </trkpt>
      <trkpt lat="45.71855" lon="6.23627">
        <ele>1617.01</ele>
        <time>2017-09-16T11:36:54Z</time>
      </trkpt>
      <trkpt lat="45.71857" lon="6.23625">
        <ele>1616.69</ele>
        <time>2017-09-16T11:36:55Z</time>
      </trkpt>
      <trkpt lat="45.71859" lon="6.23623">
        <ele>1616.53</ele>
        <time>2017-09-16T11:36:56Z</time>
      </trkpt>
      <trkpt lat="45.71861" lon="6.2362">
        <ele>1616.38</ele>
        <time>2017-09-16T11:36:57Z</time>
      </trkpt>
      <trkpt lat="45.71863" lon="6.23617">
        <ele>1616.15</ele>
        <time>2017-09-16T11:36:58Z</time>
      </trkpt>
      <trkpt lat="45.71864" lon="6.23614">
        <ele>1616.29</ele>
        <time>2017-09-16T11:37:09Z</time>
      </trkpt>
      <trkpt lat="45.71864" lon="6.23615">
        <ele>1615.8</ele>
        <time>2017-09-16T11:37:44Z</time>
      </trkpt>
      <trkpt lat="45.71865" lon="6.23612">
        <ele>1615.67</ele>
        <time>2017-09-16T11:38:24Z</time>
      </trkpt>
      <trkpt lat="45.71889" lon="6.23594">
        <ele>1612.75</ele>
        <time>2017-09-16T11:38:39Z</time>
      </trkpt>
      <trkpt lat="45.71894" lon="6.23592">
        <ele>1612.59</ele>
        <time>2017-09-16T11:38:40Z</time>
      </trkpt>
      <trkpt lat="45.71919" lon="6.2358">
        <ele>1608.73</ele>
        <time>2017-09-16T11:38:46Z</time>
      </trkpt>
      <trkpt lat="45.71924" lon="6.23579">
        <ele>1608.07</ele>
        <time>2017-09-16T11:38:47Z</time>
      </trkpt>
      <trkpt lat="45.71929" lon="6.2358">
        <ele>1606.54</ele>
        <time>2017-09-16T11:38:48Z</time>
      </trkpt>
      <trkpt lat="45.71939" lon="6.23581">
        <ele>1603.47</ele>
        <time>2017-09-16T11:38:50Z</time>
      </trkpt>
      <trkpt lat="45.71949" lon="6.23584">
        <ele>1600.44</ele>
        <time>2017-09-16T11:38:52Z</time>
      </trkpt>
      <trkpt lat="45.7196" lon="6.23586">
        <ele>1596.54</ele>
        <time>2017-09-16T11:38:54Z</time>
      </trkpt>
      <trkpt lat="45.71976" lon="6.23591">
        <ele>1592.97</ele>
        <time>2017-09-16T11:38:57Z</time>
      </trkpt>
      <trkpt lat="45.71987" lon="6.23594">
        <ele>1589.87</ele>
        <time>2017-09-16T11:38:59Z</time>
      </trkpt>
      <trkpt lat="45.71998" lon="6.23597">
        <ele>1585.97</ele>
        <time>2017-09-16T11:39:01Z</time>
      </trkpt>
      <trkpt lat="45.7201" lon="6.23601">
        <ele>1582.66</ele>
        <time>2017-09-16T11:39:03Z</time>
      </trkpt>
      <trkpt lat="45.72021" lon="6.23606">
        <ele>1579.21</ele>
        <time>2017-09-16T11:39:05Z</time>
      </trkpt>
      <trkpt lat="45.72027" lon="6.23607">
        <ele>1578.42</ele>
        <time>2017-09-16T11:39:06Z</time>
      </trkpt>
      <trkpt lat="45.7204" lon="6.2361">
        <ele>1575.4</ele>
        <time>2017-09-16T11:39:09Z</time>
      </trkpt>
      <trkpt lat="45.72043" lon="6.23613">
        <ele>1574.66</ele>
        <time>2017-09-16T11:39:10Z</time>
      </trkpt>
      <trkpt lat="45.72045" lon="6.23617">
        <ele>1573.67</ele>
        <time>2017-09-16T11:39:11Z</time>
      </trkpt>
      <trkpt lat="45.72045" lon="6.23622">
        <ele>1572.71</ele>
        <time>2017-09-16T11:39:12Z</time>
      </trkpt>
      <trkpt lat="45.72044" lon="6.23627">
        <ele>1571.77</ele>
        <time>2017-09-16T11:39:13Z</time>
      </trkpt>
      <trkpt lat="45.72042" lon="6.2363">
        <ele>1571.2</ele>
        <time>2017-09-16T11:39:14Z</time>
      </trkpt>
      <trkpt lat="45.72039" lon="6.23633">
        <ele>1570.62</ele>
        <time>2017-09-16T11:39:15Z</time>
      </trkpt>
      <trkpt lat="45.72037" lon="6.23635">
        <ele>1570.07</ele>
        <time>2017-09-16T11:39:16Z</time>
      </trkpt>
      <trkpt lat="45.72025" lon="6.23652">
        <ele>1568.44</ele>
        <time>2017-09-16T11:39:22Z</time>
      </trkpt>
      <trkpt lat="45.72014" lon="6.2367">
        <ele>1565.1</ele>
        <time>2017-09-16T11:39:25Z</time>
      </trkpt>
      <trkpt lat="45.72011" lon="6.23677">
        <ele>1564.34</ele>
        <time>2017-09-16T11:39:26Z</time>
      </trkpt>
      <trkpt lat="45.72009" lon="6.23684">
        <ele>1563.6</ele>
        <time>2017-09-16T11:39:27Z</time>
      </trkpt>
      <trkpt lat="45.72009" lon="6.23691">
        <ele>1562.86</ele>
        <time>2017-09-16T11:39:28Z</time>
      </trkpt>
      <trkpt lat="45.72011" lon="6.23698">
        <ele>1561.93</ele>
        <time>2017-09-16T11:39:29Z</time>
      </trkpt>
      <trkpt lat="45.72014" lon="6.23703">
        <ele>1561.06</ele>
        <time>2017-09-16T11:39:30Z</time>
      </trkpt>
      <trkpt lat="45.72019" lon="6.23707">
        <ele>1560.47</ele>
        <time>2017-09-16T11:39:31Z</time>
      </trkpt>
      <trkpt lat="45.72025" lon="6.23711">
        <ele>1559.39</ele>
        <time>2017-09-16T11:39:32Z</time>
      </trkpt>
      <trkpt lat="45.72031" lon="6.23714">
        <ele>1558.57</ele>
        <time>2017-09-16T11:39:33Z</time>
      </trkpt>
      <trkpt lat="45.72037" lon="6.23716">
        <ele>1557.49</ele>
        <time>2017-09-16T11:39:34Z</time>
      </trkpt>
      <trkpt lat="45.72044" lon="6.23718">
        <ele>1556.43</ele>
        <time>2017-09-16T11:39:35Z</time>
      </trkpt>
      <trkpt lat="45.72057" lon="6.23722">
        <ele>1552.51</ele>
        <time>2017-09-16T11:39:37Z</time>
      </trkpt>
      <trkpt lat="45.72071" lon="6.23726">
        <ele>1549.07</ele>
        <time>2017-09-16T11:39:39Z</time>
      </trkpt>
      <trkpt lat="45.72084" lon="6.23729">
        <ele>1545.17</ele>
        <time>2017-09-16T11:39:41Z</time>
      </trkpt>
      <trkpt lat="45.72097" lon="6.23731">
        <ele>1541.02</ele>
        <time>2017-09-16T11:39:43Z</time>
      </trkpt>
      <trkpt lat="45.7211" lon="6.23735">
        <ele>1537.25</ele>
        <time>2017-09-16T11:39:45Z</time>
      </trkpt>
      <trkpt lat="45.72124" lon="6.23739">
        <ele>1532.47</ele>
        <time>2017-09-16T11:39:47Z</time>
      </trkpt>
      <trkpt lat="45.72137" lon="6.23744">
        <ele>1528.01</ele>
        <time>2017-09-16T11:39:49Z</time>
      </trkpt>
      <trkpt lat="45.72142" lon="6.23746">
        <ele>1526.53</ele>
        <time>2017-09-16T11:39:50Z</time>
      </trkpt>
      <trkpt lat="45.72148" lon="6.23747">
        <ele>1525.08</ele>
        <time>2017-09-16T11:39:51Z</time>
      </trkpt>
      <trkpt lat="45.72153" lon="6.23745">
        <ele>1523.66</ele>
        <time>2017-09-16T11:39:52Z</time>
      </trkpt>
      <trkpt lat="45.72157" lon="6.2374">
        <ele>1522.55</ele>
        <time>2017-09-16T11:39:53Z</time>
      </trkpt>
      <trkpt lat="45.72161" lon="6.23735">
        <ele>1520.41</ele>
        <time>2017-09-16T11:39:54Z</time>
      </trkpt>
      <trkpt lat="45.72166" lon="6.2373">
        <ele>1518.8</ele>
        <time>2017-09-16T11:39:55Z</time>
      </trkpt>
      <trkpt lat="45.72171" lon="6.23728">
        <ele>1516.71</ele>
        <time>2017-09-16T11:39:56Z</time>
      </trkpt>
      <trkpt lat="45.72176" lon="6.23727">
        <ele>1515.31</ele>
        <time>2017-09-16T11:39:57Z</time>
      </trkpt>
      <trkpt lat="45.72182" lon="6.23728">
        <ele>1513.28</ele>
        <time>2017-09-16T11:39:58Z</time>
      </trkpt>
      <trkpt lat="45.72188" lon="6.2373">
        <ele>1512.64</ele>
        <time>2017-09-16T11:39:59Z</time>
      </trkpt>
      <trkpt lat="45.72209" lon="6.23734">
        <ele>1508.3</ele>
        <time>2017-09-16T11:40:02Z</time>
      </trkpt>
      <trkpt lat="45.72219" lon="6.23734">
        <ele>1504.89</ele>
        <time>2017-09-16T11:40:04Z</time>
      </trkpt>
      <trkpt lat="45.72225" lon="6.23731">
        <ele>1502.83</ele>
        <time>2017-09-16T11:40:15Z</time>
      </trkpt>
      <trkpt lat="45.72224" lon="6.23733">
        <ele>1502.99</ele>
        <time>2017-09-16T11:40:43Z</time>
      </trkpt>
      <trkpt lat="45.72238" lon="6.23724">
        <ele>1500.91</ele>
        <time>2017-09-16T11:40:55Z</time>
      </trkpt>
      <trkpt lat="45.72246" lon="6.23723">
        <ele>1499.12</ele>
        <time>2017-09-16T11:40:58Z</time>
      </trkpt>
      <trkpt lat="45.72256" lon="6.2373">
        <ele>1495.81</ele>
        <time>2017-09-16T11:41:02Z</time>
      </trkpt>
      <trkpt lat="45.72261" lon="6.23734">
        <ele>1494.59</ele>
        <time>2017-09-16T11:41:04Z</time>
      </trkpt>
      <trkpt lat="45.7227" lon="6.23737">
        <ele>1492.2</ele>
        <time>2017-09-16T11:41:07Z</time>
      </trkpt>
      <trkpt lat="45.72276" lon="6.23738">
        <ele>1490.33</ele>
        <time>2017-09-16T11:41:09Z</time>
      </trkpt>
      <trkpt lat="45.72289" lon="6.23743">
        <ele>1486.45</ele>
        <time>2017-09-16T11:41:13Z</time>
      </trkpt>
      <trkpt lat="45.72292" lon="6.23746">
        <ele>1485.57</ele>
        <time>2017-09-16T11:41:14Z</time>
      </trkpt>
      <trkpt lat="45.72308" lon="6.23759">
        <ele>1481.64</ele>
        <time>2017-09-16T11:41:18Z</time>
      </trkpt>
      <trkpt lat="45.72312" lon="6.23761">
        <ele>1480.72</ele>
        <time>2017-09-16T11:41:19Z</time>
      </trkpt>
      <trkpt lat="45.72325" lon="6.23766">
        <ele>1477.15</ele>
        <time>2017-09-16T11:41:22Z</time>
      </trkpt>
      <trkpt lat="45.7233" lon="6.23767">
        <ele>1476.69</ele>
        <time>2017-09-16T11:41:23Z</time>
      </trkpt>
      <trkpt lat="45.72336" lon="6.23767">
        <ele>1475.27</ele>
        <time>2017-09-16T11:41:24Z</time>
      </trkpt>
      <trkpt lat="45.7235" lon="6.23766">
        <ele>1471.51</ele>
        <time>2017-09-16T11:41:27Z</time>
      </trkpt>
      <trkpt lat="45.7236" lon="6.23768">
        <ele>1467.67</ele>
        <time>2017-09-16T11:41:30Z</time>
      </trkpt>
      <trkpt lat="45.72363" lon="6.23775">
        <ele>1466.17</ele>
        <time>2017-09-16T11:41:32Z</time>
      </trkpt>
      <trkpt lat="45.72364" lon="6.23781">
        <ele>1465.46</ele>
        <time>2017-09-16T11:41:33Z</time>
      </trkpt>
      <trkpt lat="45.72364" lon="6.23788">
        <ele>1464.77</ele>
        <time>2017-09-16T11:41:34Z</time>
      </trkpt>
      <trkpt lat="45.72362" lon="6.23796">
        <ele>1463.6</ele>
        <time>2017-09-16T11:41:35Z</time>
      </trkpt>
      <trkpt lat="45.7236" lon="6.23804">
        <ele>1462.88</ele>
        <time>2017-09-16T11:41:36Z</time>
      </trkpt>
      <trkpt lat="45.72353" lon="6.23823">
        <ele>1459.27</ele>
        <time>2017-09-16T11:41:39Z</time>
      </trkpt>
      <trkpt lat="45.72352" lon="6.23828">
        <ele>1457.3</ele>
        <time>2017-09-16T11:41:40Z</time>
      </trkpt>
      <trkpt lat="45.72354" lon="6.23833">
        <ele>1456.2</ele>
        <time>2017-09-16T11:41:41Z</time>
      </trkpt>
      <trkpt lat="45.72359" lon="6.23836">
        <ele>1455.25</ele>
        <time>2017-09-16T11:41:42Z</time>
      </trkpt>
      <trkpt lat="45.72364" lon="6.23837">
        <ele>1454.07</ele>
        <time>2017-09-16T11:41:43Z</time>
      </trkpt>
      <trkpt lat="45.7237" lon="6.23837">
        <ele>1453.03</ele>
        <time>2017-09-16T11:41:44Z</time>
      </trkpt>
      <trkpt lat="45.72376" lon="6.23839">
        <ele>1452.06</ele>
        <time>2017-09-16T11:41:45Z</time>
      </trkpt>
      <trkpt lat="45.72381" lon="6.23841">
        <ele>1450.72</ele>
        <time>2017-09-16T11:41:46Z</time>
      </trkpt>
      <trkpt lat="45.724" lon="6.23849">
        <ele>1445.76</ele>
        <time>2017-09-16T11:41:49Z</time>
      </trkpt>
      <trkpt lat="45.72406" lon="6.23849">
        <ele>1443.98</ele>
        <time>2017-09-16T11:41:50Z</time>
      </trkpt>
      <trkpt lat="45.72418" lon="6.2385">
        <ele>1440.22</ele>
        <time>2017-09-16T11:41:52Z</time>
      </trkpt>
      <trkpt lat="45.72432" lon="6.23851">
        <ele>1436.51</ele>
        <time>2017-09-16T11:41:54Z</time>
      </trkpt>
      <trkpt lat="45.72446" lon="6.2385">
        <ele>1432.67</ele>
        <time>2017-09-16T11:41:56Z</time>
      </trkpt>
      <trkpt lat="45.72453" lon="6.23852">
        <ele>1430.91</ele>
        <time>2017-09-16T11:41:57Z</time>
      </trkpt>
      <trkpt lat="45.72459" lon="6.23856">
        <ele>1429.22</ele>
        <time>2017-09-16T11:41:58Z</time>
      </trkpt>
      <trkpt lat="45.72471" lon="6.23866">
        <ele>1425.58</ele>
        <time>2017-09-16T11:42:00Z</time>
      </trkpt>
      <trkpt lat="45.72475" lon="6.2387">
        <ele>1423.27</ele>
        <time>2017-09-16T11:42:01Z</time>
      </trkpt>
      <trkpt lat="45.72479" lon="6.23876">
        <ele>1422.28</ele>
        <time>2017-09-16T11:42:02Z</time>
      </trkpt>
      <trkpt lat="45.72483" lon="6.23881">
        <ele>1421.78</ele>
        <time>2017-09-16T11:42:03Z</time>
      </trkpt>
      <trkpt lat="45.72486" lon="6.23887">
        <ele>1421.16</ele>
        <time>2017-09-16T11:42:04Z</time>
      </trkpt>
      <trkpt lat="45.7249" lon="6.23894">
        <ele>1420.88</ele>
        <time>2017-09-16T11:42:05Z</time>
      </trkpt>
      <trkpt lat="45.72494" lon="6.239">
        <ele>1420.37</ele>
        <time>2017-09-16T11:42:06Z</time>
      </trkpt>
      <trkpt lat="45.72496" lon="6.23907">
        <ele>1419.93</ele>
        <time>2017-09-16T11:42:07Z</time>
      </trkpt>
      <trkpt lat="45.72503" lon="6.23921">
        <ele>1418.4</ele>
        <time>2017-09-16T11:42:10Z</time>
      </trkpt>
      <trkpt lat="45.7254" lon="6.23942">
        <ele>1418.78</ele>
        <time>2017-09-16T11:42:23Z</time>
      </trkpt>
      <trkpt lat="45.72553" lon="6.23941">
        <ele>1416.8</ele>
        <time>2017-09-16T11:42:35Z</time>
      </trkpt>
      <trkpt lat="45.72556" lon="6.23934">
        <ele>1416.8</ele>
        <time>2017-09-16T11:43:07Z</time>
      </trkpt>
      <trkpt lat="45.72573" lon="6.23923">
        <ele>1415.93</ele>
        <time>2017-09-16T11:43:13Z</time>
      </trkpt>
      <trkpt lat="45.726" lon="6.23911">
        <ele>1414.01</ele>
        <time>2017-09-16T11:43:18Z</time>
      </trkpt>
      <trkpt lat="45.7261" lon="6.23906">
        <ele>1413.35</ele>
        <time>2017-09-16T11:43:20Z</time>
      </trkpt>
      <trkpt lat="45.72644" lon="6.23884">
        <ele>1415.59</ele>
        <time>2017-09-16T11:43:31Z</time>
      </trkpt>
      <trkpt lat="45.72651" lon="6.23878">
        <ele>1416.22</ele>
        <time>2017-09-16T11:43:35Z</time>
      </trkpt>
      <trkpt lat="45.72656" lon="6.23872">
        <ele>1416.87</ele>
        <time>2017-09-16T11:43:49Z</time>
      </trkpt>
      <trkpt lat="45.7266" lon="6.23872">
        <ele>1416.61</ele>
        <time>2017-09-16T11:43:54Z</time>
      </trkpt>
      <trkpt lat="45.72661" lon="6.23871">
        <ele>1417.16</ele>
        <time>2017-09-16T11:43:55Z</time>
      </trkpt>
      <trkpt lat="45.72663" lon="6.23871">
        <ele>1417.29</ele>
        <time>2017-09-16T11:43:56Z</time>
      </trkpt>
      <trkpt lat="45.72695" lon="6.23855">
        <ele>1418.12</ele>
        <time>2017-09-16T11:44:11Z</time>
      </trkpt>
      <trkpt lat="45.72717" lon="6.23817">
        <ele>1420.49</ele>
        <time>2017-09-16T11:44:25Z</time>
      </trkpt>
      <trkpt lat="45.72727" lon="6.23807">
        <ele>1419.17</ele>
        <time>2017-09-16T11:44:28Z</time>
      </trkpt>
      <trkpt lat="45.72737" lon="6.23793">
        <ele>1417.63</ele>
        <time>2017-09-16T11:44:31Z</time>
      </trkpt>
      <trkpt lat="45.7274" lon="6.23789">
        <ele>1417.31</ele>
        <time>2017-09-16T11:44:32Z</time>
      </trkpt>
      <trkpt lat="45.72745" lon="6.23785">
        <ele>1416.69</ele>
        <time>2017-09-16T11:44:33Z</time>
      </trkpt>
      <trkpt lat="45.72756" lon="6.23778">
        <ele>1414.94</ele>
        <time>2017-09-16T11:44:35Z</time>
      </trkpt>
      <trkpt lat="45.72774" lon="6.2377">
        <ele>1411.38</ele>
        <time>2017-09-16T11:44:38Z</time>
      </trkpt>
      <trkpt lat="45.7278" lon="6.23767">
        <ele>1409.77</ele>
        <time>2017-09-16T11:44:39Z</time>
      </trkpt>
      <trkpt lat="45.72792" lon="6.23764">
        <ele>1407.55</ele>
        <time>2017-09-16T11:44:41Z</time>
      </trkpt>
      <trkpt lat="45.72797" lon="6.23763">
        <ele>1406.37</ele>
        <time>2017-09-16T11:44:42Z</time>
      </trkpt>
      <trkpt lat="45.72801" lon="6.23763">
        <ele>1404.57</ele>
        <time>2017-09-16T11:44:43Z</time>
      </trkpt>
      <trkpt lat="45.72806" lon="6.23763">
        <ele>1404.29</ele>
        <time>2017-09-16T11:44:44Z</time>
      </trkpt>
      <trkpt lat="45.72819" lon="6.23761">
        <ele>1399.93</ele>
        <time>2017-09-16T11:44:47Z</time>
      </trkpt>
      <trkpt lat="45.72826" lon="6.23761">
        <ele>1397.75</ele>
        <time>2017-09-16T11:44:50Z</time>
      </trkpt>
      <trkpt lat="45.72828" lon="6.23761">
        <ele>1397.66</ele>
        <time>2017-09-16T11:45:12Z</time>
      </trkpt>
      <trkpt lat="45.72826" lon="6.23761">
        <ele>1397.7</ele>
        <time>2017-09-16T11:45:49Z</time>
      </trkpt>
      <trkpt lat="45.72829" lon="6.23761">
        <ele>1396.81</ele>
        <time>2017-09-16T11:46:02Z</time>
      </trkpt>
      <trkpt lat="45.72831" lon="6.2376">
        <ele>1395.96</ele>
        <time>2017-09-16T11:46:03Z</time>
      </trkpt>
      <trkpt lat="45.72835" lon="6.23759">
        <ele>1394.98</ele>
        <time>2017-09-16T11:46:04Z</time>
      </trkpt>
      <trkpt lat="45.72839" lon="6.23758">
        <ele>1393.9</ele>
        <time>2017-09-16T11:46:05Z</time>
      </trkpt>
      <trkpt lat="45.72844" lon="6.23757">
        <ele>1392.9</ele>
        <time>2017-09-16T11:46:06Z</time>
      </trkpt>
      <trkpt lat="45.72848" lon="6.23755">
        <ele>1392.16</ele>
        <time>2017-09-16T11:46:07Z</time>
      </trkpt>
      <trkpt lat="45.72854" lon="6.23753">
        <ele>1390.69</ele>
        <time>2017-09-16T11:46:08Z</time>
      </trkpt>
      <trkpt lat="45.72861" lon="6.23752">
        <ele>1389.31</ele>
        <time>2017-09-16T11:46:09Z</time>
      </trkpt>
      <trkpt lat="45.72867" lon="6.23752">
        <ele>1388.39</ele>
        <time>2017-09-16T11:46:10Z</time>
      </trkpt>
      <trkpt lat="45.72881" lon="6.23753">
        <ele>1386.16</ele>
        <time>2017-09-16T11:46:12Z</time>
      </trkpt>
      <trkpt lat="45.72887" lon="6.23756">
        <ele>1385.21</ele>
        <time>2017-09-16T11:46:13Z</time>
      </trkpt>
      <trkpt lat="45.72894" lon="6.23757">
        <ele>1384.54</ele>
        <time>2017-09-16T11:46:14Z</time>
      </trkpt>
      <trkpt lat="45.72913" lon="6.23762">
        <ele>1381.08</ele>
        <time>2017-09-16T11:46:17Z</time>
      </trkpt>
      <trkpt lat="45.72919" lon="6.23763">
        <ele>1379.86</ele>
        <time>2017-09-16T11:46:18Z</time>
      </trkpt>
      <trkpt lat="45.72929" lon="6.23768">
        <ele>1376.77</ele>
        <time>2017-09-16T11:46:20Z</time>
      </trkpt>
      <trkpt lat="45.72933" lon="6.23771">
        <ele>1375.2</ele>
        <time>2017-09-16T11:46:21Z</time>
      </trkpt>
      <trkpt lat="45.72937" lon="6.23775">
        <ele>1373.68</ele>
        <time>2017-09-16T11:46:22Z</time>
      </trkpt>
      <trkpt lat="45.72939" lon="6.23788">
        <ele>1370.63</ele>
        <time>2017-09-16T11:46:24Z</time>
      </trkpt>
      <trkpt lat="45.72937" lon="6.23813">
        <ele>1366.58</ele>
        <time>2017-09-16T11:46:27Z</time>
      </trkpt>
      <trkpt lat="45.72932" lon="6.2384">
        <ele>1362.79</ele>
        <time>2017-09-16T11:46:30Z</time>
      </trkpt>
      <trkpt lat="45.72945" lon="6.23871">
        <ele>1359.91</ele>
        <time>2017-09-16T11:46:34Z</time>
      </trkpt>
      <trkpt lat="45.72955" lon="6.23883">
        <ele>1358.75</ele>
        <time>2017-09-16T11:46:36Z</time>
      </trkpt>
      <trkpt lat="45.72959" lon="6.23889">
        <ele>1358.13</ele>
        <time>2017-09-16T11:46:37Z</time>
      </trkpt>
      <trkpt lat="45.72974" lon="6.23922">
        <ele>1352.77</ele>
        <time>2017-09-16T11:46:42Z</time>
      </trkpt>
      <trkpt lat="45.72987" lon="6.23928">
        <ele>1350.95</ele>
        <time>2017-09-16T11:46:45Z</time>
      </trkpt>
      <trkpt lat="45.73001" lon="6.2392">
        <ele>1347.16</ele>
        <time>2017-09-16T11:46:48Z</time>
      </trkpt>
      <trkpt lat="45.73007" lon="6.23908">
        <ele>1343.53</ele>
        <time>2017-09-16T11:46:50Z</time>
      </trkpt>
      <trkpt lat="45.73007" lon="6.23888">
        <ele>1340.48</ele>
        <time>2017-09-16T11:46:53Z</time>
      </trkpt>
      <trkpt lat="45.73006" lon="6.23882">
        <ele>1339.21</ele>
        <time>2017-09-16T11:46:54Z</time>
      </trkpt>
      <trkpt lat="45.72998" lon="6.23853">
        <ele>1334.54</ele>
        <time>2017-09-16T11:46:58Z</time>
      </trkpt>
      <trkpt lat="45.72995" lon="6.23839">
        <ele>1331.57</ele>
        <time>2017-09-16T11:47:00Z</time>
      </trkpt>
      <trkpt lat="45.72994" lon="6.23833">
        <ele>1330</ele>
        <time>2017-09-16T11:47:01Z</time>
      </trkpt>
      <trkpt lat="45.72996" lon="6.23828">
        <ele>1329.36</ele>
        <time>2017-09-16T11:47:02Z</time>
      </trkpt>
      <trkpt lat="45.72998" lon="6.23825">
        <ele>1328.75</ele>
        <time>2017-09-16T11:47:03Z</time>
      </trkpt>
      <trkpt lat="45.73013" lon="6.23825">
        <ele>1324.42</ele>
        <time>2017-09-16T11:47:07Z</time>
      </trkpt>
      <trkpt lat="45.73037" lon="6.23831">
        <ele>1320.19</ele>
        <time>2017-09-16T11:47:12Z</time>
      </trkpt>
      <trkpt lat="45.73041" lon="6.2383">
        <ele>1318.56</ele>
        <time>2017-09-16T11:47:13Z</time>
      </trkpt>
      <trkpt lat="45.73046" lon="6.23831">
        <ele>1316.92</ele>
        <time>2017-09-16T11:47:14Z</time>
      </trkpt>
      <trkpt lat="45.73052" lon="6.23831">
        <ele>1315.46</ele>
        <time>2017-09-16T11:47:15Z</time>
      </trkpt>
      <trkpt lat="45.73069" lon="6.23832">
        <ele>1311.75</ele>
        <time>2017-09-16T11:47:18Z</time>
      </trkpt>
      <trkpt lat="45.73075" lon="6.23834">
        <ele>1310.66</ele>
        <time>2017-09-16T11:47:19Z</time>
      </trkpt>
      <trkpt lat="45.73092" lon="6.23841">
        <ele>1306.7</ele>
        <time>2017-09-16T11:47:22Z</time>
      </trkpt>
      <trkpt lat="45.73097" lon="6.23843">
        <ele>1305.74</ele>
        <time>2017-09-16T11:47:23Z</time>
      </trkpt>
      <trkpt lat="45.73101" lon="6.23843">
        <ele>1304.87</ele>
        <time>2017-09-16T11:47:24Z</time>
      </trkpt>
      <trkpt lat="45.73102" lon="6.2384">
        <ele>1303.44</ele>
        <time>2017-09-16T11:47:25Z</time>
      </trkpt>
      <trkpt lat="45.73104" lon="6.23835">
        <ele>1303.39</ele>
        <time>2017-09-16T11:47:26Z</time>
      </trkpt>
      <trkpt lat="45.73104" lon="6.2383">
        <ele>1303.41</ele>
        <time>2017-09-16T11:47:27Z</time>
      </trkpt>
      <trkpt lat="45.73105" lon="6.23825">
        <ele>1303.29</ele>
        <time>2017-09-16T11:47:28Z</time>
      </trkpt>
      <trkpt lat="45.73106" lon="6.23821">
        <ele>1303.34</ele>
        <time>2017-09-16T11:47:29Z</time>
      </trkpt>
      <trkpt lat="45.73106" lon="6.23816">
        <ele>1303.46</ele>
        <time>2017-09-16T11:47:30Z</time>
      </trkpt>
      <trkpt lat="45.7311" lon="6.23759">
        <ele>1302.51</ele>
        <time>2017-09-16T11:47:40Z</time>
      </trkpt>
      <trkpt lat="45.73109" lon="6.23752">
        <ele>1302.01</ele>
        <time>2017-09-16T11:47:41Z</time>
      </trkpt>
      <trkpt lat="45.73108" lon="6.23744">
        <ele>1301.2</ele>
        <time>2017-09-16T11:47:42Z</time>
      </trkpt>
      <trkpt lat="45.73108" lon="6.23718">
        <ele>1299.08</ele>
        <time>2017-09-16T11:47:45Z</time>
      </trkpt>
      <trkpt lat="45.73111" lon="6.23709">
        <ele>1298.48</ele>
        <time>2017-09-16T11:47:46Z</time>
      </trkpt>
      <trkpt lat="45.73115" lon="6.23682">
        <ele>1297.79</ele>
        <time>2017-09-16T11:47:49Z</time>
      </trkpt>
      <trkpt lat="45.73114" lon="6.23673">
        <ele>1297.18</ele>
        <time>2017-09-16T11:47:50Z</time>
      </trkpt>
      <trkpt lat="45.73113" lon="6.23667">
        <ele>1297.28</ele>
        <time>2017-09-16T11:47:51Z</time>
      </trkpt>
      <trkpt lat="45.7311" lon="6.23662">
        <ele>1296.98</ele>
        <time>2017-09-16T11:47:52Z</time>
      </trkpt>
      <trkpt lat="45.73107" lon="6.23659">
        <ele>1296.85</ele>
        <time>2017-09-16T11:47:53Z</time>
      </trkpt>
      <trkpt lat="45.73071" lon="6.23648">
        <ele>1298.67</ele>
        <time>2017-09-16T11:48:08Z</time>
      </trkpt>
      <trkpt lat="45.73042" lon="6.23639">
        <ele>1299.88</ele>
        <time>2017-09-16T11:48:21Z</time>
      </trkpt>
      <trkpt lat="45.73022" lon="6.2363">
        <ele>1298.25</ele>
        <time>2017-09-16T11:48:26Z</time>
      </trkpt>
      <trkpt lat="45.73009" lon="6.23625">
        <ele>1297.52</ele>
        <time>2017-09-16T11:48:28Z</time>
      </trkpt>
      <trkpt lat="45.7298" lon="6.23618">
        <ele>1297.31</ele>
        <time>2017-09-16T11:48:34Z</time>
      </trkpt>
      <trkpt lat="45.72931" lon="6.2361">
        <ele>1299.33</ele>
        <time>2017-09-16T11:48:48Z</time>
      </trkpt>
      <trkpt lat="45.72926" lon="6.23608">
        <ele>1299.71</ele>
        <time>2017-09-16T11:48:49Z</time>
      </trkpt>
      <trkpt lat="45.72903" lon="6.23597">
        <ele>1298.14</ele>
        <time>2017-09-16T11:48:53Z</time>
      </trkpt>
      <trkpt lat="45.72881" lon="6.23592">
        <ele>1298.01</ele>
        <time>2017-09-16T11:48:57Z</time>
      </trkpt>
      <trkpt lat="45.72852" lon="6.23575">
        <ele>1295.1</ele>
        <time>2017-09-16T11:49:02Z</time>
      </trkpt>
      <trkpt lat="45.72847" lon="6.23573">
        <ele>1294.46</ele>
        <time>2017-09-16T11:49:03Z</time>
      </trkpt>
      <trkpt lat="45.72837" lon="6.23569">
        <ele>1294</ele>
        <time>2017-09-16T11:49:05Z</time>
      </trkpt>
      <trkpt lat="45.72822" lon="6.23569">
        <ele>1293.36</ele>
        <time>2017-09-16T11:49:08Z</time>
      </trkpt>
      <trkpt lat="45.72816" lon="6.23569">
        <ele>1292.63</ele>
        <time>2017-09-16T11:49:09Z</time>
      </trkpt>
      <trkpt lat="45.7281" lon="6.23567">
        <ele>1292</ele>
        <time>2017-09-16T11:49:10Z</time>
      </trkpt>
      <trkpt lat="45.72807" lon="6.23561">
        <ele>1290.65</ele>
        <time>2017-09-16T11:49:13Z</time>
      </trkpt>
      <trkpt lat="45.7281" lon="6.2356">
        <ele>1289.85</ele>
        <time>2017-09-16T11:49:14Z</time>
      </trkpt>
      <trkpt lat="45.72813" lon="6.23559">
        <ele>1288.22</ele>
        <time>2017-09-16T11:49:15Z</time>
      </trkpt>
      <trkpt lat="45.72817" lon="6.23558">
        <ele>1287.74</ele>
        <time>2017-09-16T11:49:16Z</time>
      </trkpt>
      <trkpt lat="45.72822" lon="6.23556">
        <ele>1286.66</ele>
        <time>2017-09-16T11:49:17Z</time>
      </trkpt>
      <trkpt lat="45.72835" lon="6.2355">
        <ele>1282.13</ele>
        <time>2017-09-16T11:49:20Z</time>
      </trkpt>
      <trkpt lat="45.72849" lon="6.23546">
        <ele>1277.7</ele>
        <time>2017-09-16T11:49:23Z</time>
      </trkpt>
      <trkpt lat="45.72859" lon="6.23544">
        <ele>1274.69</ele>
        <time>2017-09-16T11:49:25Z</time>
      </trkpt>
      <trkpt lat="45.72869" lon="6.23542">
        <ele>1271.54</ele>
        <time>2017-09-16T11:49:27Z</time>
      </trkpt>
      <trkpt lat="45.7288" lon="6.23539">
        <ele>1268.39</ele>
        <time>2017-09-16T11:49:29Z</time>
      </trkpt>
      <trkpt lat="45.72893" lon="6.23536">
        <ele>1265.03</ele>
        <time>2017-09-16T11:49:31Z</time>
      </trkpt>
      <trkpt lat="45.72913" lon="6.23531">
        <ele>1261.28</ele>
        <time>2017-09-16T11:49:34Z</time>
      </trkpt>
      <trkpt lat="45.72925" lon="6.23528">
        <ele>1258.08</ele>
        <time>2017-09-16T11:49:36Z</time>
      </trkpt>
      <trkpt lat="45.72936" lon="6.23524">
        <ele>1254.98</ele>
        <time>2017-09-16T11:49:38Z</time>
      </trkpt>
      <trkpt lat="45.72941" lon="6.23521">
        <ele>1253.09</ele>
        <time>2017-09-16T11:49:39Z</time>
      </trkpt>
      <trkpt lat="45.72955" lon="6.23513">
        <ele>1249.21</ele>
        <time>2017-09-16T11:49:42Z</time>
      </trkpt>
      <trkpt lat="45.72961" lon="6.23512">
        <ele>1248.58</ele>
        <time>2017-09-16T11:49:43Z</time>
      </trkpt>
      <trkpt lat="45.72967" lon="6.23511">
        <ele>1247.85</ele>
        <time>2017-09-16T11:49:44Z</time>
      </trkpt>
      <trkpt lat="45.72977" lon="6.23511">
        <ele>1244.01</ele>
        <time>2017-09-16T11:49:46Z</time>
      </trkpt>
      <trkpt lat="45.72989" lon="6.23509">
        <ele>1239.53</ele>
        <time>2017-09-16T11:49:49Z</time>
      </trkpt>
      <trkpt lat="45.72994" lon="6.23508">
        <ele>1238.21</ele>
        <time>2017-09-16T11:49:50Z</time>
      </trkpt>
      <trkpt lat="45.73004" lon="6.23501">
        <ele>1234.69</ele>
        <time>2017-09-16T11:49:53Z</time>
      </trkpt>
      <trkpt lat="45.73007" lon="6.23496">
        <ele>1233.14</ele>
        <time>2017-09-16T11:49:54Z</time>
      </trkpt>
      <trkpt lat="45.73009" lon="6.23491">
        <ele>1231.41</ele>
        <time>2017-09-16T11:49:55Z</time>
      </trkpt>
      <trkpt lat="45.73009" lon="6.23486">
        <ele>1230.71</ele>
        <time>2017-09-16T11:49:56Z</time>
      </trkpt>
      <trkpt lat="45.73001" lon="6.23479">
        <ele>1227.72</ele>
        <time>2017-09-16T11:49:59Z</time>
      </trkpt>
      <trkpt lat="45.72997" lon="6.23479">
        <ele>1226.91</ele>
        <time>2017-09-16T11:50:00Z</time>
      </trkpt>
      <trkpt lat="45.72992" lon="6.23478">
        <ele>1226.53</ele>
        <time>2017-09-16T11:50:01Z</time>
      </trkpt>
      <trkpt lat="45.72988" lon="6.23476">
        <ele>1225.91</ele>
        <time>2017-09-16T11:50:02Z</time>
      </trkpt>
      <trkpt lat="45.72973" lon="6.23466">
        <ele>1224.13</ele>
        <time>2017-09-16T11:50:05Z</time>
      </trkpt>
      <trkpt lat="45.72951" lon="6.23452">
        <ele>1220.05</ele>
        <time>2017-09-16T11:50:09Z</time>
      </trkpt>
      <trkpt lat="45.72939" lon="6.23446">
        <ele>1217.75</ele>
        <time>2017-09-16T11:50:11Z</time>
      </trkpt>
      <trkpt lat="45.72917" lon="6.23435">
        <ele>1214.25</ele>
        <time>2017-09-16T11:50:15Z</time>
      </trkpt>
      <trkpt lat="45.72893" lon="6.23415">
        <ele>1208.11</ele>
        <time>2017-09-16T11:50:19Z</time>
      </trkpt>
      <trkpt lat="45.72872" lon="6.23399">
        <ele>1203.94</ele>
        <time>2017-09-16T11:50:22Z</time>
      </trkpt>
      <trkpt lat="45.72867" lon="6.23396">
        <ele>1202.44</ele>
        <time>2017-09-16T11:50:23Z</time>
      </trkpt>
      <trkpt lat="45.72856" lon="6.23382">
        <ele>1197.94</ele>
        <time>2017-09-16T11:50:26Z</time>
      </trkpt>
      <trkpt lat="45.72866" lon="6.23371">
        <ele>1195.34</ele>
        <time>2017-09-16T11:50:30Z</time>
      </trkpt>
      <trkpt lat="45.72882" lon="6.23369">
        <ele>1192.1</ele>
        <time>2017-09-16T11:50:33Z</time>
      </trkpt>
      <trkpt lat="45.72908" lon="6.23366">
        <ele>1188.82</ele>
        <time>2017-09-16T11:50:37Z</time>
      </trkpt>
      <trkpt lat="45.72924" lon="6.23362">
        <ele>1184.25</ele>
        <time>2017-09-16T11:50:40Z</time>
      </trkpt>
      <trkpt lat="45.72932" lon="6.23361">
        <ele>1182.54</ele>
        <time>2017-09-16T11:50:42Z</time>
      </trkpt>
      <trkpt lat="45.72956" lon="6.23362">
        <ele>1178.73</ele>
        <time>2017-09-16T11:50:47Z</time>
      </trkpt>
      <trkpt lat="45.72968" lon="6.2336">
        <ele>1176.35</ele>
        <time>2017-09-16T11:50:49Z</time>
      </trkpt>
      <trkpt lat="45.72997" lon="6.23339">
        <ele>1171.5</ele>
        <time>2017-09-16T11:50:54Z</time>
      </trkpt>
      <trkpt lat="45.73002" lon="6.23336">
        <ele>1170.11</ele>
        <time>2017-09-16T11:50:55Z</time>
      </trkpt>
      <trkpt lat="45.73008" lon="6.23333">
        <ele>1169.2</ele>
        <time>2017-09-16T11:50:56Z</time>
      </trkpt>
      <trkpt lat="45.73015" lon="6.23331">
        <ele>1168.64</ele>
        <time>2017-09-16T11:50:57Z</time>
      </trkpt>
      <trkpt lat="45.73023" lon="6.23329">
        <ele>1167.65</ele>
        <time>2017-09-16T11:50:58Z</time>
      </trkpt>
      <trkpt lat="45.73031" lon="6.23328">
        <ele>1166.83</ele>
        <time>2017-09-16T11:50:59Z</time>
      </trkpt>
      <trkpt lat="45.73052" lon="6.23324">
        <ele>1163.63</ele>
        <time>2017-09-16T11:51:02Z</time>
      </trkpt>
      <trkpt lat="45.73058" lon="6.23324">
        <ele>1163.23</ele>
        <time>2017-09-16T11:51:03Z</time>
      </trkpt>
      <trkpt lat="45.73088" lon="6.23327">
        <ele>1159.31</ele>
        <time>2017-09-16T11:51:07Z</time>
      </trkpt>
      <trkpt lat="45.73101" lon="6.23326">
        <ele>1156.98</ele>
        <time>2017-09-16T11:51:09Z</time>
      </trkpt>
      <trkpt lat="45.73108" lon="6.23322">
        <ele>1156.83</ele>
        <time>2017-09-16T11:51:10Z</time>
      </trkpt>
      <trkpt lat="45.73114" lon="6.23318">
        <ele>1155.91</ele>
        <time>2017-09-16T11:51:11Z</time>
      </trkpt>
      <trkpt lat="45.73122" lon="6.23314">
        <ele>1154.99</ele>
        <time>2017-09-16T11:51:12Z</time>
      </trkpt>
      <trkpt lat="45.73129" lon="6.23309">
        <ele>1153.36</ele>
        <time>2017-09-16T11:51:13Z</time>
      </trkpt>
      <trkpt lat="45.73144" lon="6.23302">
        <ele>1151.01</ele>
        <time>2017-09-16T11:51:15Z</time>
      </trkpt>
      <trkpt lat="45.73159" lon="6.23297">
        <ele>1149.15</ele>
        <time>2017-09-16T11:51:17Z</time>
      </trkpt>
      <trkpt lat="45.73167" lon="6.23296">
        <ele>1147.38</ele>
        <time>2017-09-16T11:51:18Z</time>
      </trkpt>
      <trkpt lat="45.73174" lon="6.23294">
        <ele>1146.55</ele>
        <time>2017-09-16T11:51:19Z</time>
      </trkpt>
      <trkpt lat="45.73193" lon="6.23292">
        <ele>1143.74</ele>
        <time>2017-09-16T11:51:22Z</time>
      </trkpt>
      <trkpt lat="45.73205" lon="6.23293">
        <ele>1140.7</ele>
        <time>2017-09-16T11:51:24Z</time>
      </trkpt>
      <trkpt lat="45.73211" lon="6.23291">
        <ele>1139.86</ele>
        <time>2017-09-16T11:51:25Z</time>
      </trkpt>
      <trkpt lat="45.7324" lon="6.23287">
        <ele>1135.03</ele>
        <time>2017-09-16T11:51:29Z</time>
      </trkpt>
      <trkpt lat="45.73254" lon="6.23288">
        <ele>1132.67</ele>
        <time>2017-09-16T11:51:31Z</time>
      </trkpt>
      <trkpt lat="45.7326" lon="6.2329">
        <ele>1131.96</ele>
        <time>2017-09-16T11:51:32Z</time>
      </trkpt>
      <trkpt lat="45.73265" lon="6.23294">
        <ele>1130.56</ele>
        <time>2017-09-16T11:51:33Z</time>
      </trkpt>
      <trkpt lat="45.73271" lon="6.23301">
        <ele>1128.99</ele>
        <time>2017-09-16T11:51:34Z</time>
      </trkpt>
      <trkpt lat="45.73277" lon="6.23308">
        <ele>1128.33</ele>
        <time>2017-09-16T11:51:35Z</time>
      </trkpt>
      <trkpt lat="45.73283" lon="6.23313">
        <ele>1127.47</ele>
        <time>2017-09-16T11:51:36Z</time>
      </trkpt>
      <trkpt lat="45.73289" lon="6.23316">
        <ele>1126.86</ele>
        <time>2017-09-16T11:51:37Z</time>
      </trkpt>
      <trkpt lat="45.73295" lon="6.23319">
        <ele>1126.79</ele>
        <time>2017-09-16T11:51:38Z</time>
      </trkpt>
      <trkpt lat="45.73301" lon="6.23316">
        <ele>1126.21</ele>
        <time>2017-09-16T11:51:39Z</time>
      </trkpt>
      <trkpt lat="45.73306" lon="6.23311">
        <ele>1126.26</ele>
        <time>2017-09-16T11:51:40Z</time>
      </trkpt>
      <trkpt lat="45.73312" lon="6.23304">
        <ele>1125.87</ele>
        <time>2017-09-16T11:51:41Z</time>
      </trkpt>
      <trkpt lat="45.73318" lon="6.23297">
        <ele>1124.34</ele>
        <time>2017-09-16T11:51:42Z</time>
      </trkpt>
      <trkpt lat="45.73331" lon="6.23284">
        <ele>1121.33</ele>
        <time>2017-09-16T11:51:44Z</time>
      </trkpt>
      <trkpt lat="45.73341" lon="6.23274">
        <ele>1118.05</ele>
        <time>2017-09-16T11:51:46Z</time>
      </trkpt>
      <trkpt lat="45.73346" lon="6.23268">
        <ele>1116.46</ele>
        <time>2017-09-16T11:51:47Z</time>
      </trkpt>
      <trkpt lat="45.73359" lon="6.23251">
        <ele>1113.13</ele>
        <time>2017-09-16T11:51:50Z</time>
      </trkpt>
      <trkpt lat="45.73367" lon="6.23239">
        <ele>1111.66</ele>
        <time>2017-09-16T11:51:52Z</time>
      </trkpt>
      <trkpt lat="45.73378" lon="6.23228">
        <ele>1108.26</ele>
        <time>2017-09-16T11:51:54Z</time>
      </trkpt>
      <trkpt lat="45.73389" lon="6.23218">
        <ele>1105.14</ele>
        <time>2017-09-16T11:51:56Z</time>
      </trkpt>
      <trkpt lat="45.73395" lon="6.23214">
        <ele>1102.96</ele>
        <time>2017-09-16T11:51:57Z</time>
      </trkpt>
      <trkpt lat="45.73401" lon="6.23211">
        <ele>1101.95</ele>
        <time>2017-09-16T11:51:58Z</time>
      </trkpt>
      <trkpt lat="45.73415" lon="6.23207">
        <ele>1098.74</ele>
        <time>2017-09-16T11:52:00Z</time>
      </trkpt>
      <trkpt lat="45.73437" lon="6.23204">
        <ele>1094.29</ele>
        <time>2017-09-16T11:52:03Z</time>
      </trkpt>
      <trkpt lat="45.73456" lon="6.23199">
        <ele>1090.82</ele>
        <time>2017-09-16T11:52:06Z</time>
      </trkpt>
      <trkpt lat="45.73469" lon="6.232">
        <ele>1087.91</ele>
        <time>2017-09-16T11:52:08Z</time>
      </trkpt>
      <trkpt lat="45.73481" lon="6.23202">
        <ele>1084.62</ele>
        <time>2017-09-16T11:52:10Z</time>
      </trkpt>
      <trkpt lat="45.73487" lon="6.23202">
        <ele>1083.59</ele>
        <time>2017-09-16T11:52:11Z</time>
      </trkpt>
      <trkpt lat="45.73492" lon="6.232">
        <ele>1083.42</ele>
        <time>2017-09-16T11:52:12Z</time>
      </trkpt>
      <trkpt lat="45.73497" lon="6.23196">
        <ele>1082.4</ele>
        <time>2017-09-16T11:52:13Z</time>
      </trkpt>
      <trkpt lat="45.73502" lon="6.23191">
        <ele>1081.69</ele>
        <time>2017-09-16T11:52:14Z</time>
      </trkpt>
      <trkpt lat="45.73506" lon="6.23184">
        <ele>1080.51</ele>
        <time>2017-09-16T11:52:15Z</time>
      </trkpt>
      <trkpt lat="45.7351" lon="6.23178">
        <ele>1080.21</ele>
        <time>2017-09-16T11:52:16Z</time>
      </trkpt>
      <trkpt lat="45.73516" lon="6.23165">
        <ele>1077.64</ele>
        <time>2017-09-16T11:52:18Z</time>
      </trkpt>
      <trkpt lat="45.73519" lon="6.23159">
        <ele>1076.51</ele>
        <time>2017-09-16T11:52:19Z</time>
      </trkpt>
      <trkpt lat="45.73526" lon="6.23148">
        <ele>1074.57</ele>
        <time>2017-09-16T11:52:21Z</time>
      </trkpt>
      <trkpt lat="45.73533" lon="6.23139">
        <ele>1072.41</ele>
        <time>2017-09-16T11:52:23Z</time>
      </trkpt>
      <trkpt lat="45.73545" lon="6.23131">
        <ele>1069.3</ele>
        <time>2017-09-16T11:52:25Z</time>
      </trkpt>
      <trkpt lat="45.73553" lon="6.23129">
        <ele>1067.84</ele>
        <time>2017-09-16T11:52:26Z</time>
      </trkpt>
      <trkpt lat="45.73569" lon="6.23124">
        <ele>1064.64</ele>
        <time>2017-09-16T11:52:28Z</time>
      </trkpt>
      <trkpt lat="45.73592" lon="6.2312">
        <ele>1059.69</ele>
        <time>2017-09-16T11:52:31Z</time>
      </trkpt>
      <trkpt lat="45.73612" lon="6.23119">
        <ele>1055.96</ele>
        <time>2017-09-16T11:52:34Z</time>
      </trkpt>
      <trkpt lat="45.73629" lon="6.2312">
        <ele>1053.3</ele>
        <time>2017-09-16T11:52:37Z</time>
      </trkpt>
      <trkpt lat="45.7364" lon="6.23124">
        <ele>1050.29</ele>
        <time>2017-09-16T11:52:39Z</time>
      </trkpt>
      <trkpt lat="45.73646" lon="6.23125">
        <ele>1048.87</ele>
        <time>2017-09-16T11:52:40Z</time>
      </trkpt>
      <trkpt lat="45.73652" lon="6.23125">
        <ele>1047.42</ele>
        <time>2017-09-16T11:52:41Z</time>
      </trkpt>
      <trkpt lat="45.73657" lon="6.23124">
        <ele>1046.21</ele>
        <time>2017-09-16T11:52:42Z</time>
      </trkpt>
      <trkpt lat="45.73663" lon="6.23125">
        <ele>1044.96</ele>
        <time>2017-09-16T11:52:43Z</time>
      </trkpt>
      <trkpt lat="45.73668" lon="6.23126">
        <ele>1043.35</ele>
        <time>2017-09-16T11:52:44Z</time>
      </trkpt>
      <trkpt lat="45.73673" lon="6.23128">
        <ele>1042.04</ele>
        <time>2017-09-16T11:52:45Z</time>
      </trkpt>
      <trkpt lat="45.73676" lon="6.23131">
        <ele>1040.44</ele>
        <time>2017-09-16T11:52:46Z</time>
      </trkpt>
      <trkpt lat="45.73679" lon="6.23132">
        <ele>1039.77</ele>
        <time>2017-09-16T11:52:47Z</time>
      </trkpt>
      <trkpt lat="45.73688" lon="6.23139">
        <ele>1036.47</ele>
        <time>2017-09-16T11:52:50Z</time>
      </trkpt>
      <trkpt lat="45.73705" lon="6.23138">
        <ele>1032.95</ele>
        <time>2017-09-16T11:52:55Z</time>
      </trkpt>
      <trkpt lat="45.73709" lon="6.23134">
        <ele>1032.38</ele>
        <time>2017-09-16T11:52:56Z</time>
      </trkpt>
      <trkpt lat="45.73714" lon="6.2313">
        <ele>1031.38</ele>
        <time>2017-09-16T11:52:57Z</time>
      </trkpt>
      <trkpt lat="45.73719" lon="6.23128">
        <ele>1030.64</ele>
        <time>2017-09-16T11:52:58Z</time>
      </trkpt>
      <trkpt lat="45.73725" lon="6.23125">
        <ele>1030.51</ele>
        <time>2017-09-16T11:52:59Z</time>
      </trkpt>
      <trkpt lat="45.73729" lon="6.23123">
        <ele>1029.41</ele>
        <time>2017-09-16T11:53:00Z</time>
      </trkpt>
      <trkpt lat="45.73734" lon="6.23121">
        <ele>1029.22</ele>
        <time>2017-09-16T11:53:01Z</time>
      </trkpt>
      <trkpt lat="45.73748" lon="6.23118">
        <ele>1026.2</ele>
        <time>2017-09-16T11:53:04Z</time>
      </trkpt>
      <trkpt lat="45.73752" lon="6.23118">
        <ele>1025.16</ele>
        <time>2017-09-16T11:53:05Z</time>
      </trkpt>
      <trkpt lat="45.73756" lon="6.23116">
        <ele>1024.3</ele>
        <time>2017-09-16T11:53:06Z</time>
      </trkpt>
      <trkpt lat="45.7376" lon="6.23113">
        <ele>1023.42</ele>
        <time>2017-09-16T11:53:07Z</time>
      </trkpt>
      <trkpt lat="45.73763" lon="6.23109">
        <ele>1022.93</ele>
        <time>2017-09-16T11:53:08Z</time>
      </trkpt>
      <trkpt lat="45.73767" lon="6.23105">
        <ele>1022</ele>
        <time>2017-09-16T11:53:09Z</time>
      </trkpt>
      <trkpt lat="45.73775" lon="6.23097">
        <ele>1020.8</ele>
        <time>2017-09-16T11:53:11Z</time>
      </trkpt>
      <trkpt lat="45.7378" lon="6.23096">
        <ele>1020.13</ele>
        <time>2017-09-16T11:53:12Z</time>
      </trkpt>
      <trkpt lat="45.73796" lon="6.23092">
        <ele>1018.27</ele>
        <time>2017-09-16T11:53:15Z</time>
      </trkpt>
      <trkpt lat="45.73802" lon="6.23093">
        <ele>1017.32</ele>
        <time>2017-09-16T11:53:16Z</time>
      </trkpt>
      <trkpt lat="45.73808" lon="6.23092">
        <ele>1016.08</ele>
        <time>2017-09-16T11:53:17Z</time>
      </trkpt>
      <trkpt lat="45.73814" lon="6.2309">
        <ele>1014.95</ele>
        <time>2017-09-16T11:53:18Z</time>
      </trkpt>
      <trkpt lat="45.7382" lon="6.23087">
        <ele>1014.19</ele>
        <time>2017-09-16T11:53:19Z</time>
      </trkpt>
      <trkpt lat="45.73832" lon="6.23082">
        <ele>1012.27</ele>
        <time>2017-09-16T11:53:21Z</time>
      </trkpt>
      <trkpt lat="45.73851" lon="6.23078">
        <ele>1008.84</ele>
        <time>2017-09-16T11:53:24Z</time>
      </trkpt>
      <trkpt lat="45.73864" lon="6.23074">
        <ele>1005.81</ele>
        <time>2017-09-16T11:53:26Z</time>
      </trkpt>
      <trkpt lat="45.73871" lon="6.23072">
        <ele>1005.17</ele>
        <time>2017-09-16T11:53:27Z</time>
      </trkpt>
      <trkpt lat="45.73878" lon="6.23072">
        <ele>1003.91</ele>
        <time>2017-09-16T11:53:28Z</time>
      </trkpt>
      <trkpt lat="45.73885" lon="6.23072">
        <ele>1002.69</ele>
        <time>2017-09-16T11:53:29Z</time>
      </trkpt>
      <trkpt lat="45.73898" lon="6.23073">
        <ele>1000.1</ele>
        <time>2017-09-16T11:53:31Z</time>
      </trkpt>
      <trkpt lat="45.73918" lon="6.23074">
        <ele>996.13</ele>
        <time>2017-09-16T11:53:34Z</time>
      </trkpt>
      <trkpt lat="45.73939" lon="6.23075">
        <ele>992.22</ele>
        <time>2017-09-16T11:53:37Z</time>
      </trkpt>
      <trkpt lat="45.73946" lon="6.23077">
        <ele>991.64</ele>
        <time>2017-09-16T11:53:38Z</time>
      </trkpt>
      <trkpt lat="45.73952" lon="6.2308">
        <ele>990.1</ele>
        <time>2017-09-16T11:53:39Z</time>
      </trkpt>
      <trkpt lat="45.73969" lon="6.23091">
        <ele>985.99</ele>
        <time>2017-09-16T11:53:42Z</time>
      </trkpt>
      <trkpt lat="45.73975" lon="6.23094">
        <ele>984.15</ele>
        <time>2017-09-16T11:53:43Z</time>
      </trkpt>
      <trkpt lat="45.73981" lon="6.23095">
        <ele>983.56</ele>
        <time>2017-09-16T11:53:44Z</time>
      </trkpt>
      <trkpt lat="45.73996" lon="6.23097">
        <ele>980.54</ele>
        <time>2017-09-16T11:53:46Z</time>
      </trkpt>
      <trkpt lat="45.74019" lon="6.23097">
        <ele>976.68</ele>
        <time>2017-09-16T11:53:49Z</time>
      </trkpt>
      <trkpt lat="45.74027" lon="6.23098">
        <ele>975.01</ele>
        <time>2017-09-16T11:53:50Z</time>
      </trkpt>
      <trkpt lat="45.74048" lon="6.23102">
        <ele>971.12</ele>
        <time>2017-09-16T11:53:53Z</time>
      </trkpt>
      <trkpt lat="45.74069" lon="6.23105">
        <ele>967.85</ele>
        <time>2017-09-16T11:53:56Z</time>
      </trkpt>
      <trkpt lat="45.74085" lon="6.23106">
        <ele>964.56</ele>
        <time>2017-09-16T11:53:58Z</time>
      </trkpt>
      <trkpt lat="45.74102" lon="6.23106">
        <ele>961.5</ele>
        <time>2017-09-16T11:54:00Z</time>
      </trkpt>
      <trkpt lat="45.74126" lon="6.23105">
        <ele>957.34</ele>
        <time>2017-09-16T11:54:03Z</time>
      </trkpt>
      <trkpt lat="45.74147" lon="6.23104">
        <ele>953.71</ele>
        <time>2017-09-16T11:54:06Z</time>
      </trkpt>
      <trkpt lat="45.74153" lon="6.23103">
        <ele>952.02</ele>
        <time>2017-09-16T11:54:07Z</time>
      </trkpt>
      <trkpt lat="45.74158" lon="6.23102">
        <ele>951.51</ele>
        <time>2017-09-16T11:54:08Z</time>
      </trkpt>
      <trkpt lat="45.74163" lon="6.231">
        <ele>950.19</ele>
        <time>2017-09-16T11:54:09Z</time>
      </trkpt>
      <trkpt lat="45.74168" lon="6.23097">
        <ele>949.1</ele>
        <time>2017-09-16T11:54:10Z</time>
      </trkpt>
      <trkpt lat="45.74173" lon="6.23093">
        <ele>948</ele>
        <time>2017-09-16T11:54:11Z</time>
      </trkpt>
      <trkpt lat="45.74178" lon="6.23088">
        <ele>946.81</ele>
        <time>2017-09-16T11:54:12Z</time>
      </trkpt>
      <trkpt lat="45.74182" lon="6.23081">
        <ele>945.98</ele>
        <time>2017-09-16T11:54:13Z</time>
      </trkpt>
      <trkpt lat="45.74187" lon="6.23075">
        <ele>945.11</ele>
        <time>2017-09-16T11:54:14Z</time>
      </trkpt>
      <trkpt lat="45.74192" lon="6.2307">
        <ele>944.03</ele>
        <time>2017-09-16T11:54:15Z</time>
      </trkpt>
      <trkpt lat="45.74198" lon="6.23067">
        <ele>943.1</ele>
        <time>2017-09-16T11:54:16Z</time>
      </trkpt>
      <trkpt lat="45.74203" lon="6.23065">
        <ele>942.57</ele>
        <time>2017-09-16T11:54:17Z</time>
      </trkpt>
      <trkpt lat="45.74209" lon="6.23064">
        <ele>941.78</ele>
        <time>2017-09-16T11:54:18Z</time>
      </trkpt>
      <trkpt lat="45.74214" lon="6.23064">
        <ele>940.46</ele>
        <time>2017-09-16T11:54:19Z</time>
      </trkpt>
      <trkpt lat="45.74221" lon="6.23066">
        <ele>940.03</ele>
        <time>2017-09-16T11:54:20Z</time>
      </trkpt>
      <trkpt lat="45.74227" lon="6.2307">
        <ele>938.95</ele>
        <time>2017-09-16T11:54:21Z</time>
      </trkpt>
      <trkpt lat="45.74237" lon="6.23076">
        <ele>936.86</ele>
        <time>2017-09-16T11:54:23Z</time>
      </trkpt>
      <trkpt lat="45.74242" lon="6.23078">
        <ele>936.22</ele>
        <time>2017-09-16T11:54:24Z</time>
      </trkpt>
      <trkpt lat="45.74248" lon="6.23077">
        <ele>935.21</ele>
        <time>2017-09-16T11:54:25Z</time>
      </trkpt>
      <trkpt lat="45.74253" lon="6.23076">
        <ele>934.16</ele>
        <time>2017-09-16T11:54:26Z</time>
      </trkpt>
      <trkpt lat="45.74259" lon="6.23074">
        <ele>932.87</ele>
        <time>2017-09-16T11:54:27Z</time>
      </trkpt>
      <trkpt lat="45.74265" lon="6.23073">
        <ele>932.56</ele>
        <time>2017-09-16T11:54:28Z</time>
      </trkpt>
      <trkpt lat="45.7427" lon="6.23074">
        <ele>931.51</ele>
        <time>2017-09-16T11:54:29Z</time>
      </trkpt>
      <trkpt lat="45.74276" lon="6.23076">
        <ele>931.12</ele>
        <time>2017-09-16T11:54:30Z</time>
      </trkpt>
      <trkpt lat="45.7431" lon="6.23093">
        <ele>934.39</ele>
        <time>2017-09-16T11:54:41Z</time>
      </trkpt>
      <trkpt lat="45.74349" lon="6.23085">
        <ele>934.65</ele>
        <time>2017-09-16T11:54:56Z</time>
      </trkpt>
      <trkpt lat="45.74372" lon="6.23077">
        <ele>933.12</ele>
        <time>2017-09-16T11:55:04Z</time>
      </trkpt>
      <trkpt lat="45.74387" lon="6.2307">
        <ele>929.46</ele>
        <time>2017-09-16T11:55:08Z</time>
      </trkpt>
      <trkpt lat="45.74392" lon="6.23069">
        <ele>929.09</ele>
        <time>2017-09-16T11:55:09Z</time>
      </trkpt>
      <trkpt lat="45.74409" lon="6.23068">
        <ele>926.78</ele>
        <time>2017-09-16T11:55:14Z</time>
      </trkpt>
      <trkpt lat="45.74434" lon="6.23069">
        <ele>924.03</ele>
        <time>2017-09-16T11:55:20Z</time>
      </trkpt>
      <trkpt lat="45.7446" lon="6.23066">
        <ele>920.84</ele>
        <time>2017-09-16T11:55:27Z</time>
      </trkpt>
      <trkpt lat="45.74482" lon="6.23065">
        <ele>917.4</ele>
        <time>2017-09-16T11:55:34Z</time>
      </trkpt>
      <trkpt lat="45.74486" lon="6.23062">
        <ele>916.69</ele>
        <time>2017-09-16T11:55:35Z</time>
      </trkpt>
      <trkpt lat="45.74491" lon="6.23059">
        <ele>915.96</ele>
        <time>2017-09-16T11:55:36Z</time>
      </trkpt>
      <trkpt lat="45.74496" lon="6.23057">
        <ele>915.24</ele>
        <time>2017-09-16T11:55:37Z</time>
      </trkpt>
      <trkpt lat="45.74514" lon="6.23053">
        <ele>912.02</ele>
        <time>2017-09-16T11:55:41Z</time>
      </trkpt>
      <trkpt lat="45.7453" lon="6.23049">
        <ele>908.28</ele>
        <time>2017-09-16T11:55:45Z</time>
      </trkpt>
      <trkpt lat="45.74544" lon="6.23043">
        <ele>904.35</ele>
        <time>2017-09-16T11:55:49Z</time>
      </trkpt>
      <trkpt lat="45.74559" lon="6.23039">
        <ele>900.17</ele>
        <time>2017-09-16T11:55:53Z</time>
      </trkpt>
      <trkpt lat="45.74577" lon="6.23035">
        <ele>897.46</ele>
        <time>2017-09-16T11:55:57Z</time>
      </trkpt>
      <trkpt lat="45.74581" lon="6.23035">
        <ele>896.46</ele>
        <time>2017-09-16T11:55:58Z</time>
      </trkpt>
      <trkpt lat="45.74603" lon="6.23028">
        <ele>892.27</ele>
        <time>2017-09-16T11:56:02Z</time>
      </trkpt>
      <trkpt lat="45.74608" lon="6.23028">
        <ele>891.45</ele>
        <time>2017-09-16T11:56:03Z</time>
      </trkpt>
      <trkpt lat="45.74614" lon="6.23028">
        <ele>890.73</ele>
        <time>2017-09-16T11:56:04Z</time>
      </trkpt>
      <trkpt lat="45.74619" lon="6.23027">
        <ele>890.09</ele>
        <time>2017-09-16T11:56:05Z</time>
      </trkpt>
      <trkpt lat="45.74625" lon="6.23027">
        <ele>889.85</ele>
        <time>2017-09-16T11:56:06Z</time>
      </trkpt>
      <trkpt lat="45.7463" lon="6.23025">
        <ele>888.55</ele>
        <time>2017-09-16T11:56:07Z</time>
      </trkpt>
      <trkpt lat="45.74636" lon="6.23022">
        <ele>887.78</ele>
        <time>2017-09-16T11:56:08Z</time>
      </trkpt>
      <trkpt lat="45.74642" lon="6.23018">
        <ele>887.31</ele>
        <time>2017-09-16T11:56:09Z</time>
      </trkpt>
      <trkpt lat="45.74647" lon="6.23013">
        <ele>886.95</ele>
        <time>2017-09-16T11:56:10Z</time>
      </trkpt>
      <trkpt lat="45.74652" lon="6.23011">
        <ele>885.64</ele>
        <time>2017-09-16T11:56:11Z</time>
      </trkpt>
      <trkpt lat="45.74656" lon="6.23009">
        <ele>885.23</ele>
        <time>2017-09-16T11:56:12Z</time>
      </trkpt>
      <trkpt lat="45.7466" lon="6.23008">
        <ele>884.3</ele>
        <time>2017-09-16T11:56:13Z</time>
      </trkpt>
      <trkpt lat="45.74664" lon="6.23007">
        <ele>883.92</ele>
        <time>2017-09-16T11:56:14Z</time>
      </trkpt>
      <trkpt lat="45.74672" lon="6.23002">
        <ele>880.76</ele>
        <time>2017-09-16T11:56:16Z</time>
      </trkpt>
      <trkpt lat="45.74676" lon="6.23">
        <ele>879.75</ele>
        <time>2017-09-16T11:56:17Z</time>
      </trkpt>
      <trkpt lat="45.74685" lon="6.22994">
        <ele>876.13</ele>
        <time>2017-09-16T11:56:19Z</time>
      </trkpt>
      <trkpt lat="45.74694" lon="6.22988">
        <ele>873.64</ele>
        <time>2017-09-16T11:56:21Z</time>
      </trkpt>
      <trkpt lat="45.747" lon="6.22987">
        <ele>872.57</ele>
        <time>2017-09-16T11:56:22Z</time>
      </trkpt>
      <trkpt lat="45.74705" lon="6.22986">
        <ele>871.73</ele>
        <time>2017-09-16T11:56:23Z</time>
      </trkpt>
      <trkpt lat="45.7472" lon="6.22985">
        <ele>868.78</ele>
        <time>2017-09-16T11:56:26Z</time>
      </trkpt>
      <trkpt lat="45.74739" lon="6.22979">
        <ele>864.99</ele>
        <time>2017-09-16T11:56:30Z</time>
      </trkpt>
      <trkpt lat="45.74753" lon="6.22971">
        <ele>861.56</ele>
        <time>2017-09-16T11:56:34Z</time>
      </trkpt>
      <trkpt lat="45.74765" lon="6.22966">
        <ele>858.13</ele>
        <time>2017-09-16T11:56:37Z</time>
      </trkpt>
      <trkpt lat="45.74776" lon="6.22962">
        <ele>854.52</ele>
        <time>2017-09-16T11:56:40Z</time>
      </trkpt>
      <trkpt lat="45.74788" lon="6.22954">
        <ele>850.83</ele>
        <time>2017-09-16T11:56:44Z</time>
      </trkpt>
      <trkpt lat="45.74799" lon="6.22943">
        <ele>847.13</ele>
        <time>2017-09-16T11:56:48Z</time>
      </trkpt>
      <trkpt lat="45.7481" lon="6.22932">
        <ele>843.97</ele>
        <time>2017-09-16T11:56:52Z</time>
      </trkpt>
      <trkpt lat="45.74817" lon="6.22927">
        <ele>842.9</ele>
        <time>2017-09-16T11:56:54Z</time>
      </trkpt>
      <trkpt lat="45.7482" lon="6.22924">
        <ele>842.06</ele>
        <time>2017-09-16T11:56:55Z</time>
      </trkpt>
      <trkpt lat="45.74824" lon="6.22922">
        <ele>841.96</ele>
        <time>2017-09-16T11:56:56Z</time>
      </trkpt>
      <trkpt lat="45.74834" lon="6.22917">
        <ele>838.87</ele>
        <time>2017-09-16T11:56:59Z</time>
      </trkpt>
      <trkpt lat="45.74845" lon="6.22907">
        <ele>836.2</ele>
        <time>2017-09-16T11:57:02Z</time>
      </trkpt>
      <trkpt lat="45.74857" lon="6.22898">
        <ele>832.87</ele>
        <time>2017-09-16T11:57:06Z</time>
      </trkpt>
      <trkpt lat="45.74872" lon="6.22894">
        <ele>829.11</ele>
        <time>2017-09-16T11:57:10Z</time>
      </trkpt>
      <trkpt lat="45.74885" lon="6.22883">
        <ele>825.74</ele>
        <time>2017-09-16T11:57:14Z</time>
      </trkpt>
      <trkpt lat="45.7489" lon="6.22882">
        <ele>824.67</ele>
        <time>2017-09-16T11:57:15Z</time>
      </trkpt>
      <trkpt lat="45.74909" lon="6.22877">
        <ele>820.78</ele>
        <time>2017-09-16T11:57:19Z</time>
      </trkpt>
      <trkpt lat="45.74924" lon="6.22873">
        <ele>817.11</ele>
        <time>2017-09-16T11:57:23Z</time>
      </trkpt>
      <trkpt lat="45.74938" lon="6.2287">
        <ele>813.35</ele>
        <time>2017-09-16T11:57:27Z</time>
      </trkpt>
      <trkpt lat="45.74942" lon="6.22867">
        <ele>812.02</ele>
        <time>2017-09-16T11:57:28Z</time>
      </trkpt>
      <trkpt lat="45.74954" lon="6.22859">
        <ele>808.51</ele>
        <time>2017-09-16T11:57:31Z</time>
      </trkpt>
      <trkpt lat="45.74959" lon="6.22857">
        <ele>807.46</ele>
        <time>2017-09-16T11:57:32Z</time>
      </trkpt>
      <trkpt lat="45.74965" lon="6.22856">
        <ele>805.94</ele>
        <time>2017-09-16T11:57:33Z</time>
      </trkpt>
      <trkpt lat="45.74971" lon="6.22856">
        <ele>804.45</ele>
        <time>2017-09-16T11:57:34Z</time>
      </trkpt>
      <trkpt lat="45.74976" lon="6.22855">
        <ele>803.5</ele>
        <time>2017-09-16T11:57:35Z</time>
      </trkpt>
      <trkpt lat="45.74986" lon="6.22854">
        <ele>801.66</ele>
        <time>2017-09-16T11:57:37Z</time>
      </trkpt>
      <trkpt lat="45.74996" lon="6.22853">
        <ele>799.26</ele>
        <time>2017-09-16T11:57:39Z</time>
      </trkpt>
      <trkpt lat="45.75001" lon="6.22853">
        <ele>798.67</ele>
        <time>2017-09-16T11:57:40Z</time>
      </trkpt>
      <trkpt lat="45.75006" lon="6.22853">
        <ele>797.8</ele>
        <time>2017-09-16T11:57:41Z</time>
      </trkpt>
      <trkpt lat="45.75011" lon="6.22852">
        <ele>796.32</ele>
        <time>2017-09-16T11:57:42Z</time>
      </trkpt>
      <trkpt lat="45.75017" lon="6.22852">
        <ele>795.25</ele>
        <time>2017-09-16T11:57:43Z</time>
      </trkpt>
      <trkpt lat="45.75024" lon="6.22852">
        <ele>794.19</ele>
        <time>2017-09-16T11:57:44Z</time>
      </trkpt>
      <trkpt lat="45.75051" lon="6.2285">
        <ele>790.05</ele>
        <time>2017-09-16T11:57:48Z</time>
      </trkpt>
      <trkpt lat="45.75069" lon="6.22849">
        <ele>787.7</ele>
        <time>2017-09-16T11:57:51Z</time>
      </trkpt>
      <trkpt lat="45.75075" lon="6.22849">
        <ele>786.93</ele>
        <time>2017-09-16T11:57:52Z</time>
      </trkpt>
      <trkpt lat="45.75085" lon="6.2285">
        <ele>785.19</ele>
        <time>2017-09-16T11:57:54Z</time>
      </trkpt>
      <trkpt lat="45.75091" lon="6.2285">
        <ele>784.6</ele>
        <time>2017-09-16T11:57:55Z</time>
      </trkpt>
      <trkpt lat="45.75097" lon="6.22851">
        <ele>784.75</ele>
        <time>2017-09-16T11:57:56Z</time>
      </trkpt>
      <trkpt lat="45.75103" lon="6.22853">
        <ele>783.28</ele>
        <time>2017-09-16T11:57:57Z</time>
      </trkpt>
      <trkpt lat="45.75109" lon="6.22854">
        <ele>782.19</ele>
        <time>2017-09-16T11:57:58Z</time>
      </trkpt>
      <trkpt lat="45.75114" lon="6.22854">
        <ele>781.61</ele>
        <time>2017-09-16T11:57:59Z</time>
      </trkpt>
      <trkpt lat="45.75119" lon="6.22855">
        <ele>780.92</ele>
        <time>2017-09-16T11:58:00Z</time>
      </trkpt>
      <trkpt lat="45.75123" lon="6.22856">
        <ele>780.29</ele>
        <time>2017-09-16T11:58:01Z</time>
      </trkpt>
      <trkpt lat="45.75127" lon="6.22858">
        <ele>779.75</ele>
        <time>2017-09-16T11:58:02Z</time>
      </trkpt>
      <trkpt lat="45.75131" lon="6.2286">
        <ele>779.77</ele>
        <time>2017-09-16T11:58:03Z</time>
      </trkpt>
      <trkpt lat="45.75135" lon="6.22861">
        <ele>778.57</ele>
        <time>2017-09-16T11:58:04Z</time>
      </trkpt>
      <trkpt lat="45.75147" lon="6.22865">
        <ele>775.89</ele>
        <time>2017-09-16T11:58:08Z</time>
      </trkpt>
      <trkpt lat="45.75163" lon="6.22871">
        <ele>772.33</ele>
        <time>2017-09-16T11:58:13Z</time>
      </trkpt>
      <trkpt lat="45.75179" lon="6.22873">
        <ele>769.01</ele>
        <time>2017-09-16T11:58:18Z</time>
      </trkpt>
      <trkpt lat="45.75195" lon="6.22873">
        <ele>765.74</ele>
        <time>2017-09-16T11:58:22Z</time>
      </trkpt>
      <trkpt lat="45.75207" lon="6.22875">
        <ele>762.46</ele>
        <time>2017-09-16T11:58:25Z</time>
      </trkpt>
      <trkpt lat="45.75219" lon="6.2288">
        <ele>759.12</ele>
        <time>2017-09-16T11:58:28Z</time>
      </trkpt>
      <trkpt lat="45.7523" lon="6.22885">
        <ele>756</ele>
        <time>2017-09-16T11:58:31Z</time>
      </trkpt>
      <trkpt lat="45.75241" lon="6.22892">
        <ele>753.95</ele>
        <time>2017-09-16T11:58:34Z</time>
      </trkpt>
      <trkpt lat="45.75247" lon="6.22895">
        <ele>752.73</ele>
        <time>2017-09-16T11:58:35Z</time>
      </trkpt>
      <trkpt lat="45.75252" lon="6.22897">
        <ele>751.93</ele>
        <time>2017-09-16T11:58:36Z</time>
      </trkpt>
      <trkpt lat="45.75263" lon="6.22901">
        <ele>750.83</ele>
        <time>2017-09-16T11:58:38Z</time>
      </trkpt>
      <trkpt lat="45.75288" lon="6.2291">
        <ele>747.64</ele>
        <time>2017-09-16T11:58:43Z</time>
      </trkpt>
      <trkpt lat="45.75302" lon="6.22918">
        <ele>744.33</ele>
        <time>2017-09-16T11:58:47Z</time>
      </trkpt>
      <trkpt lat="45.75312" lon="6.22923">
        <ele>740.92</ele>
        <time>2017-09-16T11:58:50Z</time>
      </trkpt>
      <trkpt lat="45.75326" lon="6.22932">
        <ele>737.6</ele>
        <time>2017-09-16T11:58:54Z</time>
      </trkpt>
      <trkpt lat="45.75342" lon="6.22943">
        <ele>733.8</ele>
        <time>2017-09-16T11:58:59Z</time>
      </trkpt>
      <trkpt lat="45.75354" lon="6.22945">
        <ele>731.44</ele>
        <time>2017-09-16T11:59:02Z</time>
      </trkpt>
      <trkpt lat="45.75359" lon="6.22943">
        <ele>730.93</ele>
        <time>2017-09-16T11:59:03Z</time>
      </trkpt>
      <trkpt lat="45.75364" lon="6.22942">
        <ele>729.66</ele>
        <time>2017-09-16T11:59:04Z</time>
      </trkpt>
      <trkpt lat="45.75369" lon="6.2294">
        <ele>728.84</ele>
        <time>2017-09-16T11:59:05Z</time>
      </trkpt>
      <trkpt lat="45.75373" lon="6.22938">
        <ele>728.21</ele>
        <time>2017-09-16T11:59:06Z</time>
      </trkpt>
      <trkpt lat="45.75377" lon="6.22936">
        <ele>727.97</ele>
        <time>2017-09-16T11:59:07Z</time>
      </trkpt>
      <trkpt lat="45.754" lon="6.22931">
        <ele>723.71</ele>
        <time>2017-09-16T11:59:13Z</time>
      </trkpt>
      <trkpt lat="45.75414" lon="6.22928">
        <ele>720.35</ele>
        <time>2017-09-16T11:59:17Z</time>
      </trkpt>
      <trkpt lat="45.7542" lon="6.22926">
        <ele>719.49</ele>
        <time>2017-09-16T11:59:19Z</time>
      </trkpt>
      <trkpt lat="45.7543" lon="6.22919">
        <ele>715.93</ele>
        <time>2017-09-16T11:59:23Z</time>
      </trkpt>
      <trkpt lat="45.75444" lon="6.22916">
        <ele>712.72</ele>
        <time>2017-09-16T11:59:27Z</time>
      </trkpt>
      <trkpt lat="45.75457" lon="6.22913">
        <ele>709.26</ele>
        <time>2017-09-16T11:59:31Z</time>
      </trkpt>
      <trkpt lat="45.75466" lon="6.22912">
        <ele>707.18</ele>
        <time>2017-09-16T11:59:33Z</time>
      </trkpt>
      <trkpt lat="45.75471" lon="6.22911">
        <ele>705.55</ele>
        <time>2017-09-16T11:59:34Z</time>
      </trkpt>
      <trkpt lat="45.75476" lon="6.22912">
        <ele>704.87</ele>
        <time>2017-09-16T11:59:35Z</time>
      </trkpt>
      <trkpt lat="45.75481" lon="6.22912">
        <ele>703.53</ele>
        <time>2017-09-16T11:59:36Z</time>
      </trkpt>
      <trkpt lat="45.75485" lon="6.22912">
        <ele>702.41</ele>
        <time>2017-09-16T11:59:37Z</time>
      </trkpt>
      <trkpt lat="45.75488" lon="6.22911">
        <ele>701.56</ele>
        <time>2017-09-16T11:59:38Z</time>
      </trkpt>
      <trkpt lat="45.75491" lon="6.2291">
        <ele>700.94</ele>
        <time>2017-09-16T11:59:39Z</time>
      </trkpt>
      <trkpt lat="45.75501" lon="6.22907">
        <ele>697.84</ele>
        <time>2017-09-16T11:59:42Z</time>
      </trkpt>
      <trkpt lat="45.75513" lon="6.22901">
        <ele>694.31</ele>
        <time>2017-09-16T11:59:46Z</time>
      </trkpt>
      <trkpt lat="45.75524" lon="6.22897">
        <ele>690.15</ele>
        <time>2017-09-16T11:59:49Z</time>
      </trkpt>
      <trkpt lat="45.75532" lon="6.22895">
        <ele>687.86</ele>
        <time>2017-09-16T11:59:51Z</time>
      </trkpt>
      <trkpt lat="45.75537" lon="6.22895">
        <ele>686.21</ele>
        <time>2017-09-16T11:59:52Z</time>
      </trkpt>
      <trkpt lat="45.75542" lon="6.22895">
        <ele>685.02</ele>
        <time>2017-09-16T11:59:53Z</time>
      </trkpt>
      <trkpt lat="45.75556" lon="6.22894">
        <ele>681.26</ele>
        <time>2017-09-16T11:59:56Z</time>
      </trkpt>
      <trkpt lat="45.75558" lon="6.22891">
        <ele>681.07</ele>
        <time>2017-09-16T11:59:57Z</time>
      </trkpt>
      <trkpt lat="45.7556" lon="6.22885">
        <ele>680.21</ele>
        <time>2017-09-16T11:59:59Z</time>
      </trkpt>
      <trkpt lat="45.75559" lon="6.22883">
        <ele>679.56</ele>
        <time>2017-09-16T12:00:00Z</time>
      </trkpt>
      <trkpt lat="45.75551" lon="6.22871">
        <ele>676.27</ele>
        <time>2017-09-16T12:00:03Z</time>
      </trkpt>
      <trkpt lat="45.75548" lon="6.22865">
        <ele>675.65</ele>
        <time>2017-09-16T12:00:04Z</time>
      </trkpt>
      <trkpt lat="45.75545" lon="6.2286">
        <ele>674.3</ele>
        <time>2017-09-16T12:00:05Z</time>
      </trkpt>
      <trkpt lat="45.75537" lon="6.22845">
        <ele>670.74</ele>
        <time>2017-09-16T12:00:08Z</time>
      </trkpt>
      <trkpt lat="45.7553" lon="6.22833">
        <ele>667.52</ele>
        <time>2017-09-16T12:00:11Z</time>
      </trkpt>
      <trkpt lat="45.7552" lon="6.22818">
        <ele>663.95</ele>
        <time>2017-09-16T12:00:15Z</time>
      </trkpt>
      <trkpt lat="45.75511" lon="6.22808">
        <ele>660.47</ele>
        <time>2017-09-16T12:00:18Z</time>
      </trkpt>
      <trkpt lat="45.75499" lon="6.22794">
        <ele>656.99</ele>
        <time>2017-09-16T12:00:22Z</time>
      </trkpt>
      <trkpt lat="45.75492" lon="6.22786">
        <ele>655.03</ele>
        <time>2017-09-16T12:00:24Z</time>
      </trkpt>
      <trkpt lat="45.75484" lon="6.22778">
        <ele>653.41</ele>
        <time>2017-09-16T12:00:26Z</time>
      </trkpt>
      <trkpt lat="45.75481" lon="6.22773">
        <ele>652.32</ele>
        <time>2017-09-16T12:00:27Z</time>
      </trkpt>
      <trkpt lat="45.75472" lon="6.2276">
        <ele>649.86</ele>
        <time>2017-09-16T12:00:30Z</time>
      </trkpt>
      <trkpt lat="45.7547" lon="6.22754">
        <ele>649.33</ele>
        <time>2017-09-16T12:00:31Z</time>
      </trkpt>
      <trkpt lat="45.75461" lon="6.22732">
        <ele>645.77</ele>
        <time>2017-09-16T12:00:35Z</time>
      </trkpt>
      <trkpt lat="45.75461" lon="6.22727">
        <ele>645.45</ele>
        <time>2017-09-16T12:00:36Z</time>
      </trkpt>
      <trkpt lat="45.75464" lon="6.22724">
        <ele>645.16</ele>
        <time>2017-09-16T12:00:37Z</time>
      </trkpt>
      <trkpt lat="45.75467" lon="6.22723">
        <ele>644.99</ele>
        <time>2017-09-16T12:00:38Z</time>
      </trkpt>
      <trkpt lat="45.7547" lon="6.22723">
        <ele>644.29</ele>
        <time>2017-09-16T12:00:39Z</time>
      </trkpt>
      <trkpt lat="45.75473" lon="6.22725">
        <ele>643.68</ele>
        <time>2017-09-16T12:00:40Z</time>
      </trkpt>
      <trkpt lat="45.75477" lon="6.22728">
        <ele>643.45</ele>
        <time>2017-09-16T12:00:41Z</time>
      </trkpt>
      <trkpt lat="45.75481" lon="6.2273">
        <ele>642.78</ele>
        <time>2017-09-16T12:00:42Z</time>
      </trkpt>
      <trkpt lat="45.75486" lon="6.22732">
        <ele>642.02</ele>
        <time>2017-09-16T12:00:43Z</time>
      </trkpt>
      <trkpt lat="45.75491" lon="6.22734">
        <ele>641.62</ele>
        <time>2017-09-16T12:00:44Z</time>
      </trkpt>
      <trkpt lat="45.75513" lon="6.22741">
        <ele>637.82</ele>
        <time>2017-09-16T12:00:48Z</time>
      </trkpt>
      <trkpt lat="45.75525" lon="6.22743">
        <ele>636.74</ele>
        <time>2017-09-16T12:00:50Z</time>
      </trkpt>
      <trkpt lat="45.75532" lon="6.22743">
        <ele>636.35</ele>
        <time>2017-09-16T12:00:51Z</time>
      </trkpt>
      <trkpt lat="45.75546" lon="6.22744">
        <ele>633.24</ele>
        <time>2017-09-16T12:00:53Z</time>
      </trkpt>
      <trkpt lat="45.75567" lon="6.22746">
        <ele>630.03</ele>
        <time>2017-09-16T12:00:56Z</time>
      </trkpt>
      <trkpt lat="45.75595" lon="6.22751">
        <ele>626.63</ele>
        <time>2017-09-16T12:01:00Z</time>
      </trkpt>
      <trkpt lat="45.75621" lon="6.2275">
        <ele>622.69</ele>
        <time>2017-09-16T12:01:04Z</time>
      </trkpt>
      <trkpt lat="45.75641" lon="6.22744">
        <ele>619.16</ele>
        <time>2017-09-16T12:01:07Z</time>
      </trkpt>
      <trkpt lat="45.75655" lon="6.22741">
        <ele>617.4</ele>
        <time>2017-09-16T12:01:09Z</time>
      </trkpt>
      <trkpt lat="45.75661" lon="6.22741">
        <ele>615.93</ele>
        <time>2017-09-16T12:01:10Z</time>
      </trkpt>
      <trkpt lat="45.75681" lon="6.22741">
        <ele>612.5</ele>
        <time>2017-09-16T12:01:13Z</time>
      </trkpt>
      <trkpt lat="45.75687" lon="6.2274">
        <ele>610.91</ele>
        <time>2017-09-16T12:01:14Z</time>
      </trkpt>
      <trkpt lat="45.75714" lon="6.22737">
        <ele>607.47</ele>
        <time>2017-09-16T12:01:18Z</time>
      </trkpt>
      <trkpt lat="45.75737" lon="6.22735">
        <ele>604.35</ele>
        <time>2017-09-16T12:01:21Z</time>
      </trkpt>
      <trkpt lat="45.75769" lon="6.22729">
        <ele>601.12</ele>
        <time>2017-09-16T12:01:25Z</time>
      </trkpt>
      <trkpt lat="45.75778" lon="6.22726">
        <ele>601.18</ele>
        <time>2017-09-16T12:01:26Z</time>
      </trkpt>
      <trkpt lat="45.75833" lon="6.22706">
        <ele>598.08</ele>
        <time>2017-09-16T12:01:33Z</time>
      </trkpt>
      <trkpt lat="45.75872" lon="6.2269">
        <ele>596.34</ele>
        <time>2017-09-16T12:01:38Z</time>
      </trkpt>
      <trkpt lat="45.75881" lon="6.22687">
        <ele>596.01</ele>
        <time>2017-09-16T12:01:39Z</time>
      </trkpt>
      <trkpt lat="45.75888" lon="6.22683">
        <ele>595.68</ele>
        <time>2017-09-16T12:01:40Z</time>
      </trkpt>
      <trkpt lat="45.75911" lon="6.22667">
        <ele>594.04</ele>
        <time>2017-09-16T12:01:43Z</time>
      </trkpt>
      <trkpt lat="45.75939" lon="6.22645">
        <ele>592.38</ele>
        <time>2017-09-16T12:01:47Z</time>
      </trkpt>
      <trkpt lat="45.75945" lon="6.22638">
        <ele>591.48</ele>
        <time>2017-09-16T12:01:48Z</time>
      </trkpt>
      <trkpt lat="45.75963" lon="6.22615">
        <ele>589.72</ele>
        <time>2017-09-16T12:01:51Z</time>
      </trkpt>
      <trkpt lat="45.75975" lon="6.22602">
        <ele>588.51</ele>
        <time>2017-09-16T12:01:53Z</time>
      </trkpt>
      <trkpt lat="45.75981" lon="6.22598">
        <ele>587.87</ele>
        <time>2017-09-16T12:01:54Z</time>
      </trkpt>
      <trkpt lat="45.75988" lon="6.22595">
        <ele>587.18</ele>
        <time>2017-09-16T12:01:55Z</time>
      </trkpt>
      <trkpt lat="45.75996" lon="6.22593">
        <ele>586.51</ele>
        <time>2017-09-16T12:01:56Z</time>
      </trkpt>
      <trkpt lat="45.76004" lon="6.22592">
        <ele>585.51</ele>
        <time>2017-09-16T12:01:57Z</time>
      </trkpt>
      <trkpt lat="45.76011" lon="6.2259">
        <ele>585.09</ele>
        <time>2017-09-16T12:01:58Z</time>
      </trkpt>
      <trkpt lat="45.76018" lon="6.22587">
        <ele>584.02</ele>
        <time>2017-09-16T12:01:59Z</time>
      </trkpt>
      <trkpt lat="45.76025" lon="6.22585">
        <ele>583.9</ele>
        <time>2017-09-16T12:02:00Z</time>
      </trkpt>
      <trkpt lat="45.76051" lon="6.22575">
        <ele>580.51</ele>
        <time>2017-09-16T12:02:04Z</time>
      </trkpt>
      <trkpt lat="45.76058" lon="6.22575">
        <ele>579.9</ele>
        <time>2017-09-16T12:02:05Z</time>
      </trkpt>
      <trkpt lat="45.76066" lon="6.22576">
        <ele>578.66</ele>
        <time>2017-09-16T12:02:06Z</time>
      </trkpt>
      <trkpt lat="45.76073" lon="6.22577">
        <ele>577.39</ele>
        <time>2017-09-16T12:02:07Z</time>
      </trkpt>
      <trkpt lat="45.76081" lon="6.22578">
        <ele>576.58</ele>
        <time>2017-09-16T12:02:08Z</time>
      </trkpt>
      <trkpt lat="45.76105" lon="6.22582">
        <ele>572.37</ele>
        <time>2017-09-16T12:02:11Z</time>
      </trkpt>
      <trkpt lat="45.76113" lon="6.22582">
        <ele>571.31</ele>
        <time>2017-09-16T12:02:12Z</time>
      </trkpt>
      <trkpt lat="45.76121" lon="6.22581">
        <ele>569.27</ele>
        <time>2017-09-16T12:02:13Z</time>
      </trkpt>
      <trkpt lat="45.76138" lon="6.2258">
        <ele>566.93</ele>
        <time>2017-09-16T12:02:15Z</time>
      </trkpt>
      <trkpt lat="45.76162" lon="6.2258">
        <ele>562.8</ele>
        <time>2017-09-16T12:02:18Z</time>
      </trkpt>
      <trkpt lat="45.76194" lon="6.22573">
        <ele>559.21</ele>
        <time>2017-09-16T12:02:22Z</time>
      </trkpt>
      <trkpt lat="45.76209" lon="6.2257">
        <ele>557.45</ele>
        <time>2017-09-16T12:02:24Z</time>
      </trkpt>
      <trkpt lat="45.76225" lon="6.22569">
        <ele>556.1</ele>
        <time>2017-09-16T12:02:26Z</time>
      </trkpt>
      <trkpt lat="45.76242" lon="6.22566">
        <ele>552.89</ele>
        <time>2017-09-16T12:02:28Z</time>
      </trkpt>
      <trkpt lat="45.76268" lon="6.22561">
        <ele>549.6</ele>
        <time>2017-09-16T12:02:31Z</time>
      </trkpt>
      <trkpt lat="45.76304" lon="6.22551">
        <ele>546.46</ele>
        <time>2017-09-16T12:02:35Z</time>
      </trkpt>
      <trkpt lat="45.76341" lon="6.22539">
        <ele>542.52</ele>
        <time>2017-09-16T12:02:39Z</time>
      </trkpt>
      <trkpt lat="45.76359" lon="6.22533">
        <ele>541.72</ele>
        <time>2017-09-16T12:02:41Z</time>
      </trkpt>
      <trkpt lat="45.76393" lon="6.22518">
        <ele>539.02</ele>
        <time>2017-09-16T12:02:45Z</time>
      </trkpt>
      <trkpt lat="45.76418" lon="6.22501">
        <ele>536.82</ele>
        <time>2017-09-16T12:02:48Z</time>
      </trkpt>
      <trkpt lat="45.76424" lon="6.22494">
        <ele>536.34</ele>
        <time>2017-09-16T12:02:49Z</time>
      </trkpt>
      <trkpt lat="45.76438" lon="6.22478">
        <ele>535.23</ele>
        <time>2017-09-16T12:02:51Z</time>
      </trkpt>
      <trkpt lat="45.7645" lon="6.2246">
        <ele>534.22</ele>
        <time>2017-09-16T12:02:53Z</time>
      </trkpt>
      <trkpt lat="45.76466" lon="6.22435">
        <ele>531.58</ele>
        <time>2017-09-16T12:02:56Z</time>
      </trkpt>
      <trkpt lat="45.76472" lon="6.22427">
        <ele>530.73</ele>
        <time>2017-09-16T12:02:57Z</time>
      </trkpt>
      <trkpt lat="45.76479" lon="6.22421">
        <ele>530.35</ele>
        <time>2017-09-16T12:02:58Z</time>
      </trkpt>
      <trkpt lat="45.76509" lon="6.22397">
        <ele>526.97</ele>
        <time>2017-09-16T12:03:02Z</time>
      </trkpt>
      <trkpt lat="45.76522" lon="6.22388">
        <ele>525.97</ele>
        <time>2017-09-16T12:03:04Z</time>
      </trkpt>
      <trkpt lat="45.76529" lon="6.22386">
        <ele>525.27</ele>
        <time>2017-09-16T12:03:05Z</time>
      </trkpt>
      <trkpt lat="45.76537" lon="6.22385">
        <ele>524.57</ele>
        <time>2017-09-16T12:03:06Z</time>
      </trkpt>
      <trkpt lat="45.76551" lon="6.22385">
        <ele>523.31</ele>
        <time>2017-09-16T12:03:08Z</time>
      </trkpt>
      <trkpt lat="45.76558" lon="6.22386">
        <ele>521.76</ele>
        <time>2017-09-16T12:03:09Z</time>
      </trkpt>
      <trkpt lat="45.76567" lon="6.22388">
        <ele>519.99</ele>
        <time>2017-09-16T12:03:10Z</time>
      </trkpt>
      <trkpt lat="45.76575" lon="6.2239">
        <ele>519.77</ele>
        <time>2017-09-16T12:03:11Z</time>
      </trkpt>
      <trkpt lat="45.76583" lon="6.22392">
        <ele>518.81</ele>
        <time>2017-09-16T12:03:12Z</time>
      </trkpt>
      <trkpt lat="45.76591" lon="6.22392">
        <ele>517.73</ele>
        <time>2017-09-16T12:03:13Z</time>
      </trkpt>
      <trkpt lat="45.76599" lon="6.22391">
        <ele>517.24</ele>
        <time>2017-09-16T12:03:14Z</time>
      </trkpt>
      <trkpt lat="45.76642" lon="6.22377">
        <ele>513.12</ele>
        <time>2017-09-16T12:03:19Z</time>
      </trkpt>
      <trkpt lat="45.7665" lon="6.22372">
        <ele>512.27</ele>
        <time>2017-09-16T12:03:20Z</time>
      </trkpt>
      <trkpt lat="45.76656" lon="6.22366">
        <ele>511.92</ele>
        <time>2017-09-16T12:03:21Z</time>
      </trkpt>
      <trkpt lat="45.76683" lon="6.22336">
        <ele>508.29</ele>
        <time>2017-09-16T12:03:25Z</time>
      </trkpt>
      <trkpt lat="45.76695" lon="6.2232">
        <ele>506.72</ele>
        <time>2017-09-16T12:03:27Z</time>
      </trkpt>
      <trkpt lat="45.767" lon="6.22311">
        <ele>506.56</ele>
        <time>2017-09-16T12:03:28Z</time>
      </trkpt>
      <trkpt lat="45.76704" lon="6.22301">
        <ele>506.57</ele>
        <time>2017-09-16T12:03:29Z</time>
      </trkpt>
      <trkpt lat="45.76708" lon="6.22292">
        <ele>505.42</ele>
        <time>2017-09-16T12:03:30Z</time>
      </trkpt>
      <trkpt lat="45.76712" lon="6.22283">
        <ele>504.68</ele>
        <time>2017-09-16T12:03:31Z</time>
      </trkpt>
      <trkpt lat="45.76717" lon="6.22276">
        <ele>504.48</ele>
        <time>2017-09-16T12:03:32Z</time>
      </trkpt>
      <trkpt lat="45.76723" lon="6.22272">
        <ele>503.96</ele>
        <time>2017-09-16T12:03:33Z</time>
      </trkpt>
      <trkpt lat="45.7673" lon="6.22269">
        <ele>502.79</ele>
        <time>2017-09-16T12:03:34Z</time>
      </trkpt>
      <trkpt lat="45.76737" lon="6.22268">
        <ele>502.18</ele>
        <time>2017-09-16T12:03:35Z</time>
      </trkpt>
      <trkpt lat="45.76744" lon="6.22266">
        <ele>501.8</ele>
        <time>2017-09-16T12:03:36Z</time>
      </trkpt>
      <trkpt lat="45.76764" lon="6.22263">
        <ele>500.43</ele>
        <time>2017-09-16T12:03:39Z</time>
      </trkpt>
      <trkpt lat="45.76771" lon="6.22263">
        <ele>500.17</ele>
        <time>2017-09-16T12:03:40Z</time>
      </trkpt>
      <trkpt lat="45.76777" lon="6.22264">
        <ele>499.8</ele>
        <time>2017-09-16T12:03:41Z</time>
      </trkpt>
      <trkpt lat="45.76803" lon="6.22269">
        <ele>499.1</ele>
        <time>2017-09-16T12:03:45Z</time>
      </trkpt>
      <trkpt lat="45.76834" lon="6.22279">
        <ele>498.67</ele>
        <time>2017-09-16T12:03:50Z</time>
      </trkpt>
      <trkpt lat="45.76879" lon="6.22312">
        <ele>496.51</ele>
        <time>2017-09-16T12:03:58Z</time>
      </trkpt>
      <trkpt lat="45.76914" lon="6.22344">
        <ele>495.83</ele>
        <time>2017-09-16T12:04:04Z</time>
      </trkpt>
      <trkpt lat="45.76919" lon="6.22351">
        <ele>495.9</ele>
        <time>2017-09-16T12:04:05Z</time>
      </trkpt>
      <trkpt lat="45.76942" lon="6.22383">
        <ele>494.9</ele>
        <time>2017-09-16T12:04:10Z</time>
      </trkpt>
      <trkpt lat="45.76948" lon="6.22387">
        <ele>494.33</ele>
        <time>2017-09-16T12:04:11Z</time>
      </trkpt>
      <trkpt lat="45.76954" lon="6.22392">
        <ele>494.53</ele>
        <time>2017-09-16T12:04:12Z</time>
      </trkpt>
      <trkpt lat="45.76983" lon="6.22413">
        <ele>494.67</ele>
        <time>2017-09-16T12:04:17Z</time>
      </trkpt>
      <trkpt lat="45.76989" lon="6.22417">
        <ele>493.82</ele>
        <time>2017-09-16T12:04:18Z</time>
      </trkpt>
      <trkpt lat="45.76995" lon="6.22422">
        <ele>494.3</ele>
        <time>2017-09-16T12:04:19Z</time>
      </trkpt>
      <trkpt lat="45.77" lon="6.22428">
        <ele>493.87</ele>
        <time>2017-09-16T12:04:20Z</time>
      </trkpt>
      <trkpt lat="45.77005" lon="6.22435">
        <ele>492.92</ele>
        <time>2017-09-16T12:04:21Z</time>
      </trkpt>
      <trkpt lat="45.77009" lon="6.22442">
        <ele>493.4</ele>
        <time>2017-09-16T12:04:22Z</time>
      </trkpt>
      <trkpt lat="45.77019" lon="6.22455">
        <ele>493.33</ele>
        <time>2017-09-16T12:04:24Z</time>
      </trkpt>
      <trkpt lat="45.77024" lon="6.2246">
        <ele>493.08</ele>
        <time>2017-09-16T12:04:25Z</time>
      </trkpt>
      <trkpt lat="45.7703" lon="6.22465">
        <ele>492.67</ele>
        <time>2017-09-16T12:04:26Z</time>
      </trkpt>
      <trkpt lat="45.77036" lon="6.22469">
        <ele>492.48</ele>
        <time>2017-09-16T12:04:27Z</time>
      </trkpt>
      <trkpt lat="45.77042" lon="6.22473">
        <ele>492.59</ele>
        <time>2017-09-16T12:04:28Z</time>
      </trkpt>
      <trkpt lat="45.77049" lon="6.22476">
        <ele>491.59</ele>
        <time>2017-09-16T12:04:29Z</time>
      </trkpt>
      <trkpt lat="45.77108" lon="6.22489">
        <ele>490.44</ele>
        <time>2017-09-16T12:04:37Z</time>
      </trkpt>
      <trkpt lat="45.77116" lon="6.22488">
        <ele>490.25</ele>
        <time>2017-09-16T12:04:38Z</time>
      </trkpt>
      <trkpt lat="45.77123" lon="6.22487">
        <ele>489.61</ele>
        <time>2017-09-16T12:04:39Z</time>
      </trkpt>
      <trkpt lat="45.77131" lon="6.22484">
        <ele>489.31</ele>
        <time>2017-09-16T12:04:40Z</time>
      </trkpt>
      <trkpt lat="45.77138" lon="6.22481">
        <ele>489.48</ele>
        <time>2017-09-16T12:04:41Z</time>
      </trkpt>
      <trkpt lat="45.77194" lon="6.22466">
        <ele>488.27</ele>
        <time>2017-09-16T12:04:49Z</time>
      </trkpt>
      <trkpt lat="45.77202" lon="6.22466">
        <ele>488.11</ele>
        <time>2017-09-16T12:04:50Z</time>
      </trkpt>
      <trkpt lat="45.77209" lon="6.22468">
        <ele>488.07</ele>
        <time>2017-09-16T12:04:51Z</time>
      </trkpt>
      <trkpt lat="45.77216" lon="6.2247">
        <ele>487.96</ele>
        <time>2017-09-16T12:04:52Z</time>
      </trkpt>
      <trkpt lat="45.77223" lon="6.22473">
        <ele>487.97</ele>
        <time>2017-09-16T12:04:53Z</time>
      </trkpt>
      <trkpt lat="45.7725" lon="6.22483">
        <ele>487.96</ele>
        <time>2017-09-16T12:04:57Z</time>
      </trkpt>
      <trkpt lat="45.77258" lon="6.22484">
        <ele>487.13</ele>
        <time>2017-09-16T12:04:58Z</time>
      </trkpt>
      <trkpt lat="45.77265" lon="6.22484">
        <ele>487.31</ele>
        <time>2017-09-16T12:04:59Z</time>
      </trkpt>
      <trkpt lat="45.77272" lon="6.22483">
        <ele>486.22</ele>
        <time>2017-09-16T12:05:00Z</time>
      </trkpt>
      <trkpt lat="45.77279" lon="6.22482">
        <ele>486.81</ele>
        <time>2017-09-16T12:05:01Z</time>
      </trkpt>
      <trkpt lat="45.77286" lon="6.2248">
        <ele>486.71</ele>
        <time>2017-09-16T12:05:02Z</time>
      </trkpt>
      <trkpt lat="45.77293" lon="6.22478">
        <ele>486.02</ele>
        <time>2017-09-16T12:05:03Z</time>
      </trkpt>
      <trkpt lat="45.77365" lon="6.22459">
        <ele>484.27</ele>
        <time>2017-09-16T12:05:13Z</time>
      </trkpt>
      <trkpt lat="45.77373" lon="6.22459">
        <ele>484.69</ele>
        <time>2017-09-16T12:05:14Z</time>
      </trkpt>
      <trkpt lat="45.77474" lon="6.22476">
        <ele>482.46</ele>
        <time>2017-09-16T12:05:30Z</time>
      </trkpt>
      <trkpt lat="45.77479" lon="6.22477">
        <ele>482.26</ele>
        <time>2017-09-16T12:05:41Z</time>
      </trkpt>
      <trkpt lat="45.7748" lon="6.22476">
        <ele>482.01</ele>
        <time>2017-09-16T12:05:42Z</time>
      </trkpt>
      <trkpt lat="45.77482" lon="6.22474">
        <ele>482.41</ele>
        <time>2017-09-16T12:05:43Z</time>
      </trkpt>
      <trkpt lat="45.77483" lon="6.22471">
        <ele>481.9</ele>
        <time>2017-09-16T12:05:44Z</time>
      </trkpt>
      <trkpt lat="45.77483" lon="6.22466">
        <ele>482.5</ele>
        <time>2017-09-16T12:05:45Z</time>
      </trkpt>
      <trkpt lat="45.77483" lon="6.22462">
        <ele>482.29</ele>
        <time>2017-09-16T12:05:46Z</time>
      </trkpt>
      <trkpt lat="45.77483" lon="6.22457">
        <ele>482.32</ele>
        <time>2017-09-16T12:05:47Z</time>
      </trkpt>
      <trkpt lat="45.77486" lon="6.22436">
        <ele>482.08</ele>
        <time>2017-09-16T12:05:51Z</time>
      </trkpt>
      <trkpt lat="45.77489" lon="6.22431">
        <ele>482.25</ele>
        <time>2017-09-16T12:05:52Z</time>
      </trkpt>
      <trkpt lat="45.77492" lon="6.22426">
        <ele>481.9</ele>
        <time>2017-09-16T12:05:53Z</time>
      </trkpt>
      <trkpt lat="45.77497" lon="6.22422">
        <ele>482.43</ele>
        <time>2017-09-16T12:05:54Z</time>
      </trkpt>
      <trkpt lat="45.77501" lon="6.22419">
        <ele>482.23</ele>
        <time>2017-09-16T12:05:55Z</time>
      </trkpt>
      <trkpt lat="45.77506" lon="6.22417">
        <ele>481.97</ele>
        <time>2017-09-16T12:05:56Z</time>
      </trkpt>
      <trkpt lat="45.77533" lon="6.22402">
        <ele>481.46</ele>
        <time>2017-09-16T12:06:01Z</time>
      </trkpt>
      <trkpt lat="45.77538" lon="6.22397">
        <ele>481.74</ele>
        <time>2017-09-16T12:06:02Z</time>
      </trkpt>
      <trkpt lat="45.77542" lon="6.22391">
        <ele>480.83</ele>
        <time>2017-09-16T12:06:03Z</time>
      </trkpt>
      <trkpt lat="45.77546" lon="6.22384">
        <ele>480.82</ele>
        <time>2017-09-16T12:06:04Z</time>
      </trkpt>
      <trkpt lat="45.77549" lon="6.22376">
        <ele>480.73</ele>
        <time>2017-09-16T12:06:05Z</time>
      </trkpt>
      <trkpt lat="45.77551" lon="6.22368">
        <ele>480.28</ele>
        <time>2017-09-16T12:06:06Z</time>
      </trkpt>
      <trkpt lat="45.77553" lon="6.2236">
        <ele>480.61</ele>
        <time>2017-09-16T12:06:07Z</time>
      </trkpt>
      <trkpt lat="45.77576" lon="6.22223">
        <ele>480.03</ele>
        <time>2017-09-16T12:06:24Z</time>
      </trkpt>
      <trkpt lat="45.77575" lon="6.22151">
        <ele>480.78</ele>
        <time>2017-09-16T12:06:33Z</time>
      </trkpt>
      <trkpt lat="45.77582" lon="6.22051">
        <ele>481.57</ele>
        <time>2017-09-16T12:06:46Z</time>
      </trkpt>
      <trkpt lat="45.77583" lon="6.22038">
        <ele>482</ele>
        <time>2017-09-16T12:06:48Z</time>
      </trkpt>
      <trkpt lat="45.77584" lon="6.22032">
        <ele>482.68</ele>
        <time>2017-09-16T12:06:49Z</time>
      </trkpt>
      <trkpt lat="45.77596" lon="6.21977">
        <ele>481.55</ele>
        <time>2017-09-16T12:06:57Z</time>
      </trkpt>
      <trkpt lat="45.77599" lon="6.2197">
        <ele>481.53</ele>
        <time>2017-09-16T12:06:58Z</time>
      </trkpt>
      <trkpt lat="45.77603" lon="6.21963">
        <ele>481.52</ele>
        <time>2017-09-16T12:06:59Z</time>
      </trkpt>
      <trkpt lat="45.77607" lon="6.21958">
        <ele>480.95</ele>
        <time>2017-09-16T12:07:00Z</time>
      </trkpt>
      <trkpt lat="45.77612" lon="6.21952">
        <ele>481.94</ele>
        <time>2017-09-16T12:07:01Z</time>
      </trkpt>
      <trkpt lat="45.77616" lon="6.21947">
        <ele>482.06</ele>
        <time>2017-09-16T12:07:02Z</time>
      </trkpt>
      <trkpt lat="45.77654" lon="6.21901">
        <ele>480.72</ele>
        <time>2017-09-16T12:07:10Z</time>
      </trkpt>
      <trkpt lat="45.77705" lon="6.21753">
        <ele>478.85</ele>
        <time>2017-09-16T12:07:28Z</time>
      </trkpt>
      <trkpt lat="45.77719" lon="6.21515">
        <ele>477.88</ele>
        <time>2017-09-16T12:07:53Z</time>
      </trkpt>
      <trkpt lat="45.77725" lon="6.21372">
        <ele>476.49</ele>
        <time>2017-09-16T12:08:08Z</time>
      </trkpt>
      <trkpt lat="45.77727" lon="6.21364">
        <ele>476.5</ele>
        <time>2017-09-16T12:08:09Z</time>
      </trkpt>
      <trkpt lat="45.7773" lon="6.21355">
        <ele>476.76</ele>
        <time>2017-09-16T12:08:10Z</time>
      </trkpt>
      <trkpt lat="45.77781" lon="6.21203">
        <ele>476.14</ele>
        <time>2017-09-16T12:08:28Z</time>
      </trkpt>
      <trkpt lat="45.77819" lon="6.21066">
        <ele>476.53</ele>
        <time>2017-09-16T12:08:45Z</time>
      </trkpt>
      <trkpt lat="45.77859" lon="6.20945">
        <ele>476.71</ele>
        <time>2017-09-16T12:09:01Z</time>
      </trkpt>
      <trkpt lat="45.77863" lon="6.20939">
        <ele>476.71</ele>
        <time>2017-09-16T12:09:02Z</time>
      </trkpt>
      <trkpt lat="45.77867" lon="6.20934">
        <ele>477.11</ele>
        <time>2017-09-16T12:09:03Z</time>
      </trkpt>
      <trkpt lat="45.77872" lon="6.20931">
        <ele>477.16</ele>
        <time>2017-09-16T12:09:04Z</time>
      </trkpt>
      <trkpt lat="45.77878" lon="6.20929">
        <ele>477.26</ele>
        <time>2017-09-16T12:09:05Z</time>
      </trkpt>
      <trkpt lat="45.77884" lon="6.20927">
        <ele>476.78</ele>
        <time>2017-09-16T12:09:06Z</time>
      </trkpt>
      <trkpt lat="45.77903" lon="6.20919">
        <ele>475.36</ele>
        <time>2017-09-16T12:09:09Z</time>
      </trkpt>
      <trkpt lat="45.77936" lon="6.20915">
        <ele>474.26</ele>
        <time>2017-09-16T12:09:14Z</time>
      </trkpt>
      <trkpt lat="45.77957" lon="6.20916">
        <ele>473.58</ele>
        <time>2017-09-16T12:09:17Z</time>
      </trkpt>
      <trkpt lat="45.77963" lon="6.20918">
        <ele>473.19</ele>
        <time>2017-09-16T12:09:18Z</time>
      </trkpt>
      <trkpt lat="45.77969" lon="6.20921">
        <ele>473.22</ele>
        <time>2017-09-16T12:09:19Z</time>
      </trkpt>
      <trkpt lat="45.77975" lon="6.20924">
        <ele>472.79</ele>
        <time>2017-09-16T12:09:20Z</time>
      </trkpt>
      <trkpt lat="45.77981" lon="6.20929">
        <ele>472.71</ele>
        <time>2017-09-16T12:09:21Z</time>
      </trkpt>
      <trkpt lat="45.78038" lon="6.20944">
        <ele>471.43</ele>
        <time>2017-09-16T12:09:30Z</time>
      </trkpt>
      <trkpt lat="45.78057" lon="6.20941">
        <ele>471.4</ele>
        <time>2017-09-16T12:09:33Z</time>
      </trkpt>
      <trkpt lat="45.78064" lon="6.20943">
        <ele>471.39</ele>
        <time>2017-09-16T12:09:34Z</time>
      </trkpt>
      <trkpt lat="45.78077" lon="6.20945">
        <ele>470.98</ele>
        <time>2017-09-16T12:09:36Z</time>
      </trkpt>
      <trkpt lat="45.78127" lon="6.20966">
        <ele>470.29</ele>
        <time>2017-09-16T12:09:44Z</time>
      </trkpt>
      <trkpt lat="45.78134" lon="6.20967">
        <ele>470.49</ele>
        <time>2017-09-16T12:09:45Z</time>
      </trkpt>
      <trkpt lat="45.7814" lon="6.20965">
        <ele>470.38</ele>
        <time>2017-09-16T12:09:46Z</time>
      </trkpt>
      <trkpt lat="45.78145" lon="6.20962">
        <ele>470.35</ele>
        <time>2017-09-16T12:09:47Z</time>
      </trkpt>
      <trkpt lat="45.78151" lon="6.20958">
        <ele>469.93</ele>
        <time>2017-09-16T12:09:48Z</time>
      </trkpt>
      <trkpt lat="45.78156" lon="6.20953">
        <ele>469.28</ele>
        <time>2017-09-16T12:09:49Z</time>
      </trkpt>
      <trkpt lat="45.78161" lon="6.20948">
        <ele>469.18</ele>
        <time>2017-09-16T12:09:50Z</time>
      </trkpt>
      <trkpt lat="45.78172" lon="6.20938">
        <ele>468.17</ele>
        <time>2017-09-16T12:09:52Z</time>
      </trkpt>
      <trkpt lat="45.78178" lon="6.20934">
        <ele>468.81</ele>
        <time>2017-09-16T12:09:53Z</time>
      </trkpt>
      <trkpt lat="45.78184" lon="6.20931">
        <ele>468.47</ele>
        <time>2017-09-16T12:09:54Z</time>
      </trkpt>
      <trkpt lat="45.7819" lon="6.2093">
        <ele>468.17</ele>
        <time>2017-09-16T12:09:55Z</time>
      </trkpt>
      <trkpt lat="45.78197" lon="6.2093">
        <ele>467.87</ele>
        <time>2017-09-16T12:09:56Z</time>
      </trkpt>
      <trkpt lat="45.78203" lon="6.20931">
        <ele>467.93</ele>
        <time>2017-09-16T12:09:57Z</time>
      </trkpt>
      <trkpt lat="45.78209" lon="6.20934">
        <ele>467.91</ele>
        <time>2017-09-16T12:09:58Z</time>
      </trkpt>
      <trkpt lat="45.78214" lon="6.20938">
        <ele>467.85</ele>
        <time>2017-09-16T12:09:59Z</time>
      </trkpt>
      <trkpt lat="45.78226" lon="6.20948">
        <ele>467.78</ele>
        <time>2017-09-16T12:10:01Z</time>
      </trkpt>
      <trkpt lat="45.78277" lon="6.2099">
        <ele>467.11</ele>
        <time>2017-09-16T12:10:10Z</time>
      </trkpt>
      <trkpt lat="45.78283" lon="6.20992">
        <ele>466.46</ele>
        <time>2017-09-16T12:10:11Z</time>
      </trkpt>
      <trkpt lat="45.7829" lon="6.20993">
        <ele>466.79</ele>
        <time>2017-09-16T12:10:12Z</time>
      </trkpt>
      <trkpt lat="45.78297" lon="6.20994">
        <ele>466.15</ele>
        <time>2017-09-16T12:10:13Z</time>
      </trkpt>
      <trkpt lat="45.78303" lon="6.20994">
        <ele>466.06</ele>
        <time>2017-09-16T12:10:14Z</time>
      </trkpt>
      <trkpt lat="45.78324" lon="6.20996">
        <ele>466.03</ele>
        <time>2017-09-16T12:10:17Z</time>
      </trkpt>
      <trkpt lat="45.7833" lon="6.20999">
        <ele>466.05</ele>
        <time>2017-09-16T12:10:18Z</time>
      </trkpt>
      <trkpt lat="45.78336" lon="6.21001">
        <ele>466.27</ele>
        <time>2017-09-16T12:10:19Z</time>
      </trkpt>
      <trkpt lat="45.78343" lon="6.21003">
        <ele>465.55</ele>
        <time>2017-09-16T12:10:20Z</time>
      </trkpt>
      <trkpt lat="45.7835" lon="6.21003">
        <ele>466.05</ele>
        <time>2017-09-16T12:10:21Z</time>
      </trkpt>
      <trkpt lat="45.78357" lon="6.21004">
        <ele>465.67</ele>
        <time>2017-09-16T12:10:22Z</time>
      </trkpt>
      <trkpt lat="45.78412" lon="6.20999">
        <ele>464.33</ele>
        <time>2017-09-16T12:10:30Z</time>
      </trkpt>
      <trkpt lat="45.7847" lon="6.20982">
        <ele>463.54</ele>
        <time>2017-09-16T12:10:39Z</time>
      </trkpt>
      <trkpt lat="45.78477" lon="6.20983">
        <ele>463.34</ele>
        <time>2017-09-16T12:10:40Z</time>
      </trkpt>
      <trkpt lat="45.78483" lon="6.20985">
        <ele>463.49</ele>
        <time>2017-09-16T12:10:41Z</time>
      </trkpt>
      <trkpt lat="45.78559" lon="6.20987">
        <ele>462.67</ele>
        <time>2017-09-16T12:10:54Z</time>
      </trkpt>
      <trkpt lat="45.78563" lon="6.20985">
        <ele>462.59</ele>
        <time>2017-09-16T12:10:55Z</time>
      </trkpt>
      <trkpt lat="45.78567" lon="6.20981">
        <ele>462.96</ele>
        <time>2017-09-16T12:10:56Z</time>
      </trkpt>
      <trkpt lat="45.7857" lon="6.20975">
        <ele>462.34</ele>
        <time>2017-09-16T12:10:57Z</time>
      </trkpt>
      <trkpt lat="45.78572" lon="6.20968">
        <ele>462.61</ele>
        <time>2017-09-16T12:10:58Z</time>
      </trkpt>
      <trkpt lat="45.78572" lon="6.20961">
        <ele>463.13</ele>
        <time>2017-09-16T12:10:59Z</time>
      </trkpt>
      <trkpt lat="45.78573" lon="6.20954">
        <ele>462.99</ele>
        <time>2017-09-16T12:11:00Z</time>
      </trkpt>
      <trkpt lat="45.78572" lon="6.20947">
        <ele>462.89</ele>
        <time>2017-09-16T12:11:01Z</time>
      </trkpt>
      <trkpt lat="45.78571" lon="6.20916">
        <ele>463.85</ele>
        <time>2017-09-16T12:11:05Z</time>
      </trkpt>
      <trkpt lat="45.7857" lon="6.20892">
        <ele>463.84</ele>
        <time>2017-09-16T12:11:08Z</time>
      </trkpt>
      <trkpt lat="45.78571" lon="6.20851">
        <ele>464.84</ele>
        <time>2017-09-16T12:11:13Z</time>
      </trkpt>
      <trkpt lat="45.7857" lon="6.20844">
        <ele>464.95</ele>
        <time>2017-09-16T12:11:14Z</time>
      </trkpt>
      <trkpt lat="45.7857" lon="6.20836">
        <ele>464.5</ele>
        <time>2017-09-16T12:11:15Z</time>
      </trkpt>
      <trkpt lat="45.78564" lon="6.20809">
        <ele>464.58</ele>
        <time>2017-09-16T12:11:19Z</time>
      </trkpt>
      <trkpt lat="45.78562" lon="6.20804">
        <ele>464.58</ele>
        <time>2017-09-16T12:11:20Z</time>
      </trkpt>
      <trkpt lat="45.78552" lon="6.20775">
        <ele>465.59</ele>
        <time>2017-09-16T12:11:25Z</time>
      </trkpt>
      <trkpt lat="45.78525" lon="6.20661">
        <ele>466.75</ele>
        <time>2017-09-16T12:11:45Z</time>
      </trkpt>
      <trkpt lat="45.78522" lon="6.20659">
        <ele>467.02</ele>
        <time>2017-09-16T12:11:46Z</time>
      </trkpt>
      <trkpt lat="45.7852" lon="6.2066">
        <ele>467.17</ele>
        <time>2017-09-16T12:11:47Z</time>
      </trkpt>
      <trkpt lat="45.78518" lon="6.20663">
        <ele>467.16</ele>
        <time>2017-09-16T12:11:48Z</time>
      </trkpt>
      <trkpt lat="45.78517" lon="6.20666">
        <ele>466.66</ele>
        <time>2017-09-16T12:11:49Z</time>
      </trkpt>
      <trkpt lat="45.78516" lon="6.20669">
        <ele>466.81</ele>
        <time>2017-09-16T12:11:50Z</time>
      </trkpt>
      <trkpt lat="45.78516" lon="6.20671">
        <ele>467.28</ele>
        <time>2017-09-16T12:11:51Z</time>
      </trkpt>
      <trkpt lat="45.78516" lon="6.20674">
        <ele>467.29</ele>
        <time>2017-09-16T12:11:52Z</time>
      </trkpt>
      <trkpt lat="45.78515" lon="6.20677">
        <ele>467.38</ele>
        <time>2017-09-16T12:11:53Z</time>
      </trkpt>
      <trkpt lat="45.78515" lon="6.20679">
        <ele>466.82</ele>
        <time>2017-09-16T12:11:54Z</time>
      </trkpt>
      <trkpt lat="45.78515" lon="6.20684">
        <ele>466.79</ele>
        <time>2017-09-16T12:12:07Z</time>
      </trkpt>
      <trkpt lat="45.78511" lon="6.20701">
        <ele>466.41</ele>
        <time>2017-09-16T12:12:23Z</time>
      </trkpt>
      <trkpt lat="45.78511" lon="6.20703">
        <ele>466.88</ele>
        <time>2017-09-16T12:12:29Z</time>
      </trkpt>
      <trkpt lat="45.78511" lon="6.20695">
        <ele>466.54</ele>
        <time>2017-09-16T12:12:47Z</time>
      </trkpt>
      <trkpt lat="45.78511" lon="6.20691">
        <ele>466.37</ele>
        <time>2017-09-16T12:12:56Z</time>
      </trkpt>
      <trkpt lat="45.78513" lon="6.20689">
        <ele>466.39</ele>
        <time>2017-09-16T12:12:58Z</time>
      </trkpt>
      <trkpt lat="45.78516" lon="6.2069">
        <ele>466.55</ele>
        <time>2017-09-16T12:13:19Z</time>
      </trkpt>
      <trkpt lat="45.78515" lon="6.2069">
        <ele>465.49</ele>
        <time>2017-09-16T12:13:57Z</time>
      </trkpt>
      <trkpt lat="45.78516" lon="6.20687">
        <ele>466.27</ele>
        <time>2017-09-16T12:14:26Z</time>
      </trkpt>
    </trkseg>
  </trk>
</gpx>